<?xml version="1.0" encoding="UTF-8" standalone="no" ?>
<gpx xmlns="http://www.topografix.com/GPX/1/1" xmlns:xsi="http://www.w3.org/2001/XMLSchema-instance" xsi:schemaLocation="http://www.topografix.com/GPX/1/1 http://www.topografix.com/GPX/1/1/gpx.xsd" version="1.1" creator="VisuGPX - https://www.visugpx.com">
  <metadata>
    <name>auxerre vézelay</name>
    <desc><![CDATA[le 28 avril 2013 58 kms ]]></desc>
  </metadata>
  <trk>
    <name><![CDATA[28-AVR-13 17:58:36]]></name>
    <trkseg>
      <trkpt lat="47.78017" lon="3.57792">
        <ele>145.78</ele>
        <time>2013-04-28T04:02:44Z</time>
      </trkpt>
      <trkpt lat="47.78017" lon="3.57793">
        <ele>145.3</ele>
        <time>2013-04-28T04:02:45Z</time>
      </trkpt>
      <trkpt lat="47.7802" lon="3.57794">
        <ele>143.37</ele>
        <time>2013-04-28T04:02:54Z</time>
      </trkpt>
      <trkpt lat="47.78017" lon="3.57794">
        <ele>144.82</ele>
        <time>2013-04-28T04:02:56Z</time>
      </trkpt>
      <trkpt lat="47.78012" lon="3.57811">
        <ele>143.37</ele>
        <time>2013-04-28T04:03:06Z</time>
      </trkpt>
      <trkpt lat="47.78011" lon="3.5782">
        <ele>144.34</ele>
        <time>2013-04-28T04:03:11Z</time>
      </trkpt>
      <trkpt lat="47.78007" lon="3.57821">
        <ele>144.82</ele>
        <time>2013-04-28T04:03:23Z</time>
      </trkpt>
      <trkpt lat="47.78003" lon="3.57829">
        <ele>145.3</ele>
        <time>2013-04-28T04:03:35Z</time>
      </trkpt>
      <trkpt lat="47.78003" lon="3.57833">
        <ele>146.74</ele>
        <time>2013-04-28T04:03:46Z</time>
      </trkpt>
      <trkpt lat="47.78003" lon="3.57834">
        <ele>144.82</ele>
        <time>2013-04-28T04:03:48Z</time>
      </trkpt>
      <trkpt lat="47.78004" lon="3.57839">
        <ele>144.82</ele>
        <time>2013-04-28T04:03:58Z</time>
      </trkpt>
      <trkpt lat="47.77999" lon="3.57845">
        <ele>145.3</ele>
        <time>2013-04-28T04:04:05Z</time>
      </trkpt>
      <trkpt lat="47.77996" lon="3.57848">
        <ele>141.93</ele>
        <time>2013-04-28T04:04:09Z</time>
      </trkpt>
      <trkpt lat="47.77995" lon="3.57849">
        <ele>146.26</ele>
        <time>2013-04-28T04:04:10Z</time>
      </trkpt>
      <trkpt lat="47.77991" lon="3.57853">
        <ele>145.3</ele>
        <time>2013-04-28T04:04:13Z</time>
      </trkpt>
      <trkpt lat="47.7799" lon="3.57852">
        <ele>143.85</ele>
        <time>2013-04-28T04:04:15Z</time>
      </trkpt>
      <trkpt lat="47.77989" lon="3.57853">
        <ele>147.22</ele>
        <time>2013-04-28T04:04:16Z</time>
      </trkpt>
      <trkpt lat="47.77988" lon="3.57854">
        <ele>142.41</ele>
        <time>2013-04-28T04:04:17Z</time>
      </trkpt>
      <trkpt lat="47.77986" lon="3.57855">
        <ele>146.26</ele>
        <time>2013-04-28T04:04:19Z</time>
      </trkpt>
      <trkpt lat="47.77981" lon="3.5786">
        <ele>145.3</ele>
        <time>2013-04-28T04:04:23Z</time>
      </trkpt>
      <trkpt lat="47.77979" lon="3.57862">
        <ele>147.7</ele>
        <time>2013-04-28T04:04:25Z</time>
      </trkpt>
      <trkpt lat="47.77978" lon="3.57866">
        <ele>147.22</ele>
        <time>2013-04-28T04:04:27Z</time>
      </trkpt>
      <trkpt lat="47.77972" lon="3.57872">
        <ele>145.78</ele>
        <time>2013-04-28T04:04:33Z</time>
      </trkpt>
      <trkpt lat="47.77968" lon="3.5788">
        <ele>146.26</ele>
        <time>2013-04-28T04:04:38Z</time>
      </trkpt>
      <trkpt lat="47.77965" lon="3.57883">
        <ele>145.78</ele>
        <time>2013-04-28T04:04:41Z</time>
      </trkpt>
      <trkpt lat="47.77963" lon="3.57885">
        <ele>146.26</ele>
        <time>2013-04-28T04:04:43Z</time>
      </trkpt>
      <trkpt lat="47.77951" lon="3.57881">
        <ele>147.22</ele>
        <time>2013-04-28T04:04:54Z</time>
      </trkpt>
      <trkpt lat="47.77942" lon="3.57858">
        <ele>148.18</ele>
        <time>2013-04-28T04:05:07Z</time>
      </trkpt>
      <trkpt lat="47.77933" lon="3.57844">
        <ele>148.18</ele>
        <time>2013-04-28T04:05:16Z</time>
      </trkpt>
      <trkpt lat="47.77926" lon="3.57826">
        <ele>148.66</ele>
        <time>2013-04-28T04:05:27Z</time>
      </trkpt>
      <trkpt lat="47.77921" lon="3.57807">
        <ele>149.14</ele>
        <time>2013-04-28T04:05:37Z</time>
      </trkpt>
      <trkpt lat="47.77915" lon="3.57792">
        <ele>149.62</ele>
        <time>2013-04-28T04:05:45Z</time>
      </trkpt>
      <trkpt lat="47.77907" lon="3.57776">
        <ele>150.1</ele>
        <time>2013-04-28T04:05:55Z</time>
      </trkpt>
      <trkpt lat="47.77901" lon="3.57758">
        <ele>150.1</ele>
        <time>2013-04-28T04:06:06Z</time>
      </trkpt>
      <trkpt lat="47.77894" lon="3.57737">
        <ele>150.1</ele>
        <time>2013-04-28T04:06:16Z</time>
      </trkpt>
      <trkpt lat="47.77888" lon="3.57721">
        <ele>149.62</ele>
        <time>2013-04-28T04:06:25Z</time>
      </trkpt>
      <trkpt lat="47.77885" lon="3.57692">
        <ele>149.14</ele>
        <time>2013-04-28T04:06:40Z</time>
      </trkpt>
      <trkpt lat="47.77879" lon="3.57672">
        <ele>148.66</ele>
        <time>2013-04-28T04:06:50Z</time>
      </trkpt>
      <trkpt lat="47.77869" lon="3.57661">
        <ele>148.18</ele>
        <time>2013-04-28T04:06:59Z</time>
      </trkpt>
      <trkpt lat="47.77853" lon="3.57663">
        <ele>149.14</ele>
        <time>2013-04-28T04:07:10Z</time>
      </trkpt>
      <trkpt lat="47.77838" lon="3.5767">
        <ele>149.62</ele>
        <time>2013-04-28T04:07:21Z</time>
      </trkpt>
      <trkpt lat="47.77822" lon="3.57675">
        <ele>150.58</ele>
        <time>2013-04-28T04:07:31Z</time>
      </trkpt>
      <trkpt lat="47.77806" lon="3.57682">
        <ele>151.06</ele>
        <time>2013-04-28T04:07:43Z</time>
      </trkpt>
      <trkpt lat="47.77802" lon="3.57684">
        <ele>151.54</ele>
        <time>2013-04-28T04:07:46Z</time>
      </trkpt>
      <trkpt lat="47.77791" lon="3.57692">
        <ele>152.03</ele>
        <time>2013-04-28T04:07:54Z</time>
      </trkpt>
      <trkpt lat="47.77781" lon="3.57695">
        <ele>152.51</ele>
        <time>2013-04-28T04:08:01Z</time>
      </trkpt>
      <trkpt lat="47.77771" lon="3.577">
        <ele>152.51</ele>
        <time>2013-04-28T04:08:07Z</time>
      </trkpt>
      <trkpt lat="47.77757" lon="3.57708">
        <ele>153.95</ele>
        <time>2013-04-28T04:08:18Z</time>
      </trkpt>
      <trkpt lat="47.77745" lon="3.57714">
        <ele>154.91</ele>
        <time>2013-04-28T04:08:27Z</time>
      </trkpt>
      <trkpt lat="47.77726" lon="3.5772">
        <ele>155.87</ele>
        <time>2013-04-28T04:08:39Z</time>
      </trkpt>
      <trkpt lat="47.77713" lon="3.57728">
        <ele>156.35</ele>
        <time>2013-04-28T04:08:49Z</time>
      </trkpt>
      <trkpt lat="47.77709" lon="3.5773">
        <ele>157.31</ele>
        <time>2013-04-28T04:08:52Z</time>
      </trkpt>
      <trkpt lat="47.77692" lon="3.5774">
        <ele>158.27</ele>
        <time>2013-04-28T04:09:04Z</time>
      </trkpt>
      <trkpt lat="47.77676" lon="3.57748">
        <ele>159.24</ele>
        <time>2013-04-28T04:09:15Z</time>
      </trkpt>
      <trkpt lat="47.77658" lon="3.5776">
        <ele>160.2</ele>
        <time>2013-04-28T04:09:29Z</time>
      </trkpt>
      <trkpt lat="47.77654" lon="3.57763">
        <ele>160.68</ele>
        <time>2013-04-28T04:09:33Z</time>
      </trkpt>
      <trkpt lat="47.77643" lon="3.57767">
        <ele>161.16</ele>
        <time>2013-04-28T04:09:40Z</time>
      </trkpt>
      <trkpt lat="47.77621" lon="3.5778">
        <ele>162.6</ele>
        <time>2013-04-28T04:09:55Z</time>
      </trkpt>
      <trkpt lat="47.77608" lon="3.57785">
        <ele>163.08</ele>
        <time>2013-04-28T04:10:04Z</time>
      </trkpt>
      <trkpt lat="47.77585" lon="3.57796">
        <ele>164.04</ele>
        <time>2013-04-28T04:10:19Z</time>
      </trkpt>
      <trkpt lat="47.77568" lon="3.57809">
        <ele>164.52</ele>
        <time>2013-04-28T04:10:30Z</time>
      </trkpt>
      <trkpt lat="47.77549" lon="3.57821">
        <ele>165.48</ele>
        <time>2013-04-28T04:10:43Z</time>
      </trkpt>
      <trkpt lat="47.77533" lon="3.57833">
        <ele>166.45</ele>
        <time>2013-04-28T04:10:55Z</time>
      </trkpt>
      <trkpt lat="47.77529" lon="3.57836">
        <ele>166.45</ele>
        <time>2013-04-28T04:10:58Z</time>
      </trkpt>
      <trkpt lat="47.77511" lon="3.5785">
        <ele>166.93</ele>
        <time>2013-04-28T04:11:11Z</time>
      </trkpt>
      <trkpt lat="47.77496" lon="3.57861">
        <ele>167.89</ele>
        <time>2013-04-28T04:11:22Z</time>
      </trkpt>
      <trkpt lat="47.77477" lon="3.57876">
        <ele>167.89</ele>
        <time>2013-04-28T04:11:35Z</time>
      </trkpt>
      <trkpt lat="47.77459" lon="3.57891">
        <ele>168.37</ele>
        <time>2013-04-28T04:11:47Z</time>
      </trkpt>
      <trkpt lat="47.77441" lon="3.57904">
        <ele>168.85</ele>
        <time>2013-04-28T04:12:00Z</time>
      </trkpt>
      <trkpt lat="47.77423" lon="3.57916">
        <ele>169.33</ele>
        <time>2013-04-28T04:12:12Z</time>
      </trkpt>
      <trkpt lat="47.77407" lon="3.57928">
        <ele>169.33</ele>
        <time>2013-04-28T04:12:24Z</time>
      </trkpt>
      <trkpt lat="47.77384" lon="3.57942">
        <ele>169.33</ele>
        <time>2013-04-28T04:12:38Z</time>
      </trkpt>
      <trkpt lat="47.77364" lon="3.57953">
        <ele>170.29</ele>
        <time>2013-04-28T04:12:51Z</time>
      </trkpt>
      <trkpt lat="47.77342" lon="3.57969">
        <ele>170.29</ele>
        <time>2013-04-28T04:13:06Z</time>
      </trkpt>
      <trkpt lat="47.77322" lon="3.57979">
        <ele>170.29</ele>
        <time>2013-04-28T04:13:19Z</time>
      </trkpt>
      <trkpt lat="47.77306" lon="3.57988">
        <ele>171.25</ele>
        <time>2013-04-28T04:13:31Z</time>
      </trkpt>
      <trkpt lat="47.77288" lon="3.57993">
        <ele>171.25</ele>
        <time>2013-04-28T04:13:42Z</time>
      </trkpt>
      <trkpt lat="47.77267" lon="3.58">
        <ele>171.73</ele>
        <time>2013-04-28T04:13:56Z</time>
      </trkpt>
      <trkpt lat="47.7725" lon="3.58006">
        <ele>172.21</ele>
        <time>2013-04-28T04:14:08Z</time>
      </trkpt>
      <trkpt lat="47.77234" lon="3.58011">
        <ele>172.69</ele>
        <time>2013-04-28T04:14:20Z</time>
      </trkpt>
      <trkpt lat="47.77216" lon="3.58019">
        <ele>172.21</ele>
        <time>2013-04-28T04:14:31Z</time>
      </trkpt>
      <trkpt lat="47.77197" lon="3.58024">
        <ele>172.69</ele>
        <time>2013-04-28T04:14:44Z</time>
      </trkpt>
      <trkpt lat="47.77188" lon="3.58026">
        <ele>173.17</ele>
        <time>2013-04-28T04:14:50Z</time>
      </trkpt>
      <trkpt lat="47.77169" lon="3.58034">
        <ele>173.66</ele>
        <time>2013-04-28T04:15:02Z</time>
      </trkpt>
      <trkpt lat="47.7715" lon="3.58043">
        <ele>174.14</ele>
        <time>2013-04-28T04:15:14Z</time>
      </trkpt>
      <trkpt lat="47.77139" lon="3.58047">
        <ele>174.62</ele>
        <time>2013-04-28T04:15:22Z</time>
      </trkpt>
      <trkpt lat="47.77121" lon="3.58051">
        <ele>175.1</ele>
        <time>2013-04-28T04:15:33Z</time>
      </trkpt>
      <trkpt lat="47.771" lon="3.5806">
        <ele>175.1</ele>
        <time>2013-04-28T04:15:45Z</time>
      </trkpt>
      <trkpt lat="47.77082" lon="3.58068">
        <ele>175.58</ele>
        <time>2013-04-28T04:15:57Z</time>
      </trkpt>
      <trkpt lat="47.77064" lon="3.58075">
        <ele>174.62</ele>
        <time>2013-04-28T04:16:09Z</time>
      </trkpt>
      <trkpt lat="47.77059" lon="3.58077">
        <ele>175.1</ele>
        <time>2013-04-28T04:16:13Z</time>
      </trkpt>
      <trkpt lat="47.77041" lon="3.58088">
        <ele>175.58</ele>
        <time>2013-04-28T04:16:27Z</time>
      </trkpt>
      <trkpt lat="47.77021" lon="3.58098">
        <ele>176.06</ele>
        <time>2013-04-28T04:16:42Z</time>
      </trkpt>
      <trkpt lat="47.77014" lon="3.58102">
        <ele>175.58</ele>
        <time>2013-04-28T04:16:46Z</time>
      </trkpt>
      <trkpt lat="47.77009" lon="3.58105">
        <ele>175.58</ele>
        <time>2013-04-28T04:16:50Z</time>
      </trkpt>
      <trkpt lat="47.76995" lon="3.58111">
        <ele>175.58</ele>
        <time>2013-04-28T04:17:01Z</time>
      </trkpt>
      <trkpt lat="47.76993" lon="3.58113">
        <ele>175.58</ele>
        <time>2013-04-28T04:17:07Z</time>
      </trkpt>
      <trkpt lat="47.76992" lon="3.58117">
        <ele>176.06</ele>
        <time>2013-04-28T04:17:18Z</time>
      </trkpt>
      <trkpt lat="47.7699" lon="3.58116">
        <ele>175.58</ele>
        <time>2013-04-28T04:17:27Z</time>
      </trkpt>
      <trkpt lat="47.76986" lon="3.58117">
        <ele>175.1</ele>
        <time>2013-04-28T04:17:33Z</time>
      </trkpt>
      <trkpt lat="47.76983" lon="3.58121">
        <ele>174.62</ele>
        <time>2013-04-28T04:17:44Z</time>
      </trkpt>
      <trkpt lat="47.76983" lon="3.58119">
        <ele>175.1</ele>
        <time>2013-04-28T04:18:01Z</time>
      </trkpt>
      <trkpt lat="47.76978" lon="3.58122">
        <ele>175.1</ele>
        <time>2013-04-28T04:18:08Z</time>
      </trkpt>
      <trkpt lat="47.76963" lon="3.58132">
        <ele>173.66</ele>
        <time>2013-04-28T04:18:20Z</time>
      </trkpt>
      <trkpt lat="47.7695" lon="3.58141">
        <ele>173.17</ele>
        <time>2013-04-28T04:18:30Z</time>
      </trkpt>
      <trkpt lat="47.76931" lon="3.58154">
        <ele>171.73</ele>
        <time>2013-04-28T04:18:42Z</time>
      </trkpt>
      <trkpt lat="47.76916" lon="3.58166">
        <ele>170.29</ele>
        <time>2013-04-28T04:18:52Z</time>
      </trkpt>
      <trkpt lat="47.76902" lon="3.58177">
        <ele>169.81</ele>
        <time>2013-04-28T04:19:01Z</time>
      </trkpt>
      <trkpt lat="47.76883" lon="3.5819">
        <ele>169.81</ele>
        <time>2013-04-28T04:19:14Z</time>
      </trkpt>
      <trkpt lat="47.76866" lon="3.58201">
        <ele>168.37</ele>
        <time>2013-04-28T04:19:25Z</time>
      </trkpt>
      <trkpt lat="47.76861" lon="3.58206">
        <ele>168.37</ele>
        <time>2013-04-28T04:19:29Z</time>
      </trkpt>
      <trkpt lat="47.76847" lon="3.58218">
        <ele>167.41</ele>
        <time>2013-04-28T04:19:37Z</time>
      </trkpt>
      <trkpt lat="47.7683" lon="3.58232">
        <ele>165.96</ele>
        <time>2013-04-28T04:19:48Z</time>
      </trkpt>
      <trkpt lat="47.76817" lon="3.58241">
        <ele>165.48</ele>
        <time>2013-04-28T04:19:57Z</time>
      </trkpt>
      <trkpt lat="47.76814" lon="3.58241">
        <ele>165.48</ele>
        <time>2013-04-28T04:19:59Z</time>
      </trkpt>
      <trkpt lat="47.76808" lon="3.58244">
        <ele>165.96</ele>
        <time>2013-04-28T04:20:04Z</time>
      </trkpt>
      <trkpt lat="47.76783" lon="3.58256">
        <ele>165.96</ele>
        <time>2013-04-28T04:20:19Z</time>
      </trkpt>
      <trkpt lat="47.76763" lon="3.58268">
        <ele>166.45</ele>
        <time>2013-04-28T04:20:33Z</time>
      </trkpt>
      <trkpt lat="47.76758" lon="3.58268">
        <ele>166.93</ele>
        <time>2013-04-28T04:20:37Z</time>
      </trkpt>
      <trkpt lat="47.76743" lon="3.58277">
        <ele>167.89</ele>
        <time>2013-04-28T04:20:47Z</time>
      </trkpt>
      <trkpt lat="47.76732" lon="3.58281">
        <ele>168.85</ele>
        <time>2013-04-28T04:20:54Z</time>
      </trkpt>
      <trkpt lat="47.76721" lon="3.58286">
        <ele>169.81</ele>
        <time>2013-04-28T04:21:02Z</time>
      </trkpt>
      <trkpt lat="47.76719" lon="3.58287">
        <ele>170.29</ele>
        <time>2013-04-28T04:21:04Z</time>
      </trkpt>
      <trkpt lat="47.76706" lon="3.58294">
        <ele>171.25</ele>
        <time>2013-04-28T04:21:14Z</time>
      </trkpt>
      <trkpt lat="47.76703" lon="3.58295">
        <ele>172.21</ele>
        <time>2013-04-28T04:21:16Z</time>
      </trkpt>
      <trkpt lat="47.76695" lon="3.583">
        <ele>172.69</ele>
        <time>2013-04-28T04:21:23Z</time>
      </trkpt>
      <trkpt lat="47.7668" lon="3.58307">
        <ele>174.14</ele>
        <time>2013-04-28T04:21:33Z</time>
      </trkpt>
      <trkpt lat="47.76675" lon="3.58312">
        <ele>175.1</ele>
        <time>2013-04-28T04:21:37Z</time>
      </trkpt>
      <trkpt lat="47.76662" lon="3.58323">
        <ele>177.02</ele>
        <time>2013-04-28T04:21:48Z</time>
      </trkpt>
      <trkpt lat="47.76651" lon="3.58332">
        <ele>177.5</ele>
        <time>2013-04-28T04:21:57Z</time>
      </trkpt>
      <trkpt lat="47.76637" lon="3.58341">
        <ele>179.42</ele>
        <time>2013-04-28T04:22:08Z</time>
      </trkpt>
      <trkpt lat="47.7662" lon="3.58353">
        <ele>180.38</ele>
        <time>2013-04-28T04:22:20Z</time>
      </trkpt>
      <trkpt lat="47.76602" lon="3.58367">
        <ele>181.35</ele>
        <time>2013-04-28T04:22:33Z</time>
      </trkpt>
      <trkpt lat="47.76583" lon="3.58379">
        <ele>182.79</ele>
        <time>2013-04-28T04:22:46Z</time>
      </trkpt>
      <trkpt lat="47.76568" lon="3.58388">
        <ele>183.27</ele>
        <time>2013-04-28T04:22:56Z</time>
      </trkpt>
      <trkpt lat="47.76551" lon="3.58399">
        <ele>183.75</ele>
        <time>2013-04-28T04:23:07Z</time>
      </trkpt>
      <trkpt lat="47.76533" lon="3.58406">
        <ele>185.19</ele>
        <time>2013-04-28T04:23:18Z</time>
      </trkpt>
      <trkpt lat="47.76516" lon="3.58415">
        <ele>185.67</ele>
        <time>2013-04-28T04:23:30Z</time>
      </trkpt>
      <trkpt lat="47.76496" lon="3.58426">
        <ele>185.67</ele>
        <time>2013-04-28T04:23:45Z</time>
      </trkpt>
      <trkpt lat="47.76478" lon="3.58433">
        <ele>186.15</ele>
        <time>2013-04-28T04:23:55Z</time>
      </trkpt>
      <trkpt lat="47.76461" lon="3.58439">
        <ele>187.11</ele>
        <time>2013-04-28T04:24:06Z</time>
      </trkpt>
      <trkpt lat="47.76453" lon="3.58441">
        <ele>187.11</ele>
        <time>2013-04-28T04:24:12Z</time>
      </trkpt>
      <trkpt lat="47.76436" lon="3.58449">
        <ele>187.59</ele>
        <time>2013-04-28T04:24:24Z</time>
      </trkpt>
      <trkpt lat="47.76417" lon="3.58457">
        <ele>188.56</ele>
        <time>2013-04-28T04:24:37Z</time>
      </trkpt>
      <trkpt lat="47.764" lon="3.58463">
        <ele>189.04</ele>
        <time>2013-04-28T04:24:49Z</time>
      </trkpt>
      <trkpt lat="47.76383" lon="3.5847">
        <ele>189.52</ele>
        <time>2013-04-28T04:25:01Z</time>
      </trkpt>
      <trkpt lat="47.76368" lon="3.58476">
        <ele>190</ele>
        <time>2013-04-28T04:25:11Z</time>
      </trkpt>
      <trkpt lat="47.7635" lon="3.58487">
        <ele>190.48</ele>
        <time>2013-04-28T04:25:24Z</time>
      </trkpt>
      <trkpt lat="47.76347" lon="3.58489">
        <ele>190.48</ele>
        <time>2013-04-28T04:25:26Z</time>
      </trkpt>
      <trkpt lat="47.76337" lon="3.58495">
        <ele>190.48</ele>
        <time>2013-04-28T04:25:33Z</time>
      </trkpt>
      <trkpt lat="47.76333" lon="3.58496">
        <ele>190</ele>
        <time>2013-04-28T04:25:36Z</time>
      </trkpt>
      <trkpt lat="47.76324" lon="3.58497">
        <ele>190</ele>
        <time>2013-04-28T04:25:42Z</time>
      </trkpt>
      <trkpt lat="47.76301" lon="3.58507">
        <ele>189.04</ele>
        <time>2013-04-28T04:25:57Z</time>
      </trkpt>
      <trkpt lat="47.76282" lon="3.58518">
        <ele>188.08</ele>
        <time>2013-04-28T04:26:10Z</time>
      </trkpt>
      <trkpt lat="47.76258" lon="3.58526">
        <ele>186.15</ele>
        <time>2013-04-28T04:26:24Z</time>
      </trkpt>
      <trkpt lat="47.76243" lon="3.58533">
        <ele>185.19</ele>
        <time>2013-04-28T04:26:34Z</time>
      </trkpt>
      <trkpt lat="47.7623" lon="3.58536">
        <ele>184.71</ele>
        <time>2013-04-28T04:26:42Z</time>
      </trkpt>
      <trkpt lat="47.7621" lon="3.5854">
        <ele>183.27</ele>
        <time>2013-04-28T04:26:55Z</time>
      </trkpt>
      <trkpt lat="47.76192" lon="3.58552">
        <ele>182.79</ele>
        <time>2013-04-28T04:27:07Z</time>
      </trkpt>
      <trkpt lat="47.76178" lon="3.5856">
        <ele>182.79</ele>
        <time>2013-04-28T04:27:17Z</time>
      </trkpt>
      <trkpt lat="47.76171" lon="3.58564">
        <ele>182.79</ele>
        <time>2013-04-28T04:27:21Z</time>
      </trkpt>
      <trkpt lat="47.76153" lon="3.58575">
        <ele>182.79</ele>
        <time>2013-04-28T04:27:32Z</time>
      </trkpt>
      <trkpt lat="47.76135" lon="3.58583">
        <ele>182.79</ele>
        <time>2013-04-28T04:27:44Z</time>
      </trkpt>
      <trkpt lat="47.76116" lon="3.58591">
        <ele>183.27</ele>
        <time>2013-04-28T04:27:57Z</time>
      </trkpt>
      <trkpt lat="47.76098" lon="3.586">
        <ele>183.27</ele>
        <time>2013-04-28T04:28:09Z</time>
      </trkpt>
      <trkpt lat="47.76092" lon="3.58605">
        <ele>182.79</ele>
        <time>2013-04-28T04:28:12Z</time>
      </trkpt>
      <trkpt lat="47.76082" lon="3.58613">
        <ele>182.79</ele>
        <time>2013-04-28T04:28:18Z</time>
      </trkpt>
      <trkpt lat="47.76068" lon="3.58625">
        <ele>182.79</ele>
        <time>2013-04-28T04:28:28Z</time>
      </trkpt>
      <trkpt lat="47.76054" lon="3.58637">
        <ele>181.83</ele>
        <time>2013-04-28T04:28:38Z</time>
      </trkpt>
      <trkpt lat="47.76051" lon="3.5864">
        <ele>181.83</ele>
        <time>2013-04-28T04:28:40Z</time>
      </trkpt>
      <trkpt lat="47.76046" lon="3.58645">
        <ele>181.83</ele>
        <time>2013-04-28T04:28:44Z</time>
      </trkpt>
      <trkpt lat="47.7604" lon="3.58649">
        <ele>181.83</ele>
        <time>2013-04-28T04:28:48Z</time>
      </trkpt>
      <trkpt lat="47.76024" lon="3.58664">
        <ele>181.35</ele>
        <time>2013-04-28T04:29:00Z</time>
      </trkpt>
      <trkpt lat="47.7601" lon="3.58674">
        <ele>180.38</ele>
        <time>2013-04-28T04:29:10Z</time>
      </trkpt>
      <trkpt lat="47.76005" lon="3.58678">
        <ele>179.42</ele>
        <time>2013-04-28T04:29:14Z</time>
      </trkpt>
      <trkpt lat="47.75989" lon="3.58691">
        <ele>178.94</ele>
        <time>2013-04-28T04:29:25Z</time>
      </trkpt>
      <trkpt lat="47.75986" lon="3.58694">
        <ele>178.94</ele>
        <time>2013-04-28T04:29:27Z</time>
      </trkpt>
      <trkpt lat="47.75979" lon="3.58701">
        <ele>178.46</ele>
        <time>2013-04-28T04:29:32Z</time>
      </trkpt>
      <trkpt lat="47.75969" lon="3.58706">
        <ele>177.98</ele>
        <time>2013-04-28T04:29:38Z</time>
      </trkpt>
      <trkpt lat="47.75964" lon="3.58708">
        <ele>177.5</ele>
        <time>2013-04-28T04:29:43Z</time>
      </trkpt>
      <trkpt lat="47.75961" lon="3.58711">
        <ele>177.5</ele>
        <time>2013-04-28T04:29:45Z</time>
      </trkpt>
      <trkpt lat="47.75956" lon="3.58717">
        <ele>177.02</ele>
        <time>2013-04-28T04:29:49Z</time>
      </trkpt>
      <trkpt lat="47.75948" lon="3.58722">
        <ele>176.54</ele>
        <time>2013-04-28T04:29:54Z</time>
      </trkpt>
      <trkpt lat="47.75931" lon="3.58736">
        <ele>175.1</ele>
        <time>2013-04-28T04:30:05Z</time>
      </trkpt>
      <trkpt lat="47.75912" lon="3.58745">
        <ele>172.21</ele>
        <time>2013-04-28T04:30:18Z</time>
      </trkpt>
      <trkpt lat="47.75896" lon="3.58751">
        <ele>169.81</ele>
        <time>2013-04-28T04:30:28Z</time>
      </trkpt>
      <trkpt lat="47.75894" lon="3.5875">
        <ele>168.85</ele>
        <time>2013-04-28T04:30:30Z</time>
      </trkpt>
      <trkpt lat="47.7588" lon="3.58753">
        <ele>165.48</ele>
        <time>2013-04-28T04:30:40Z</time>
      </trkpt>
      <trkpt lat="47.75873" lon="3.58754">
        <ele>163.56</ele>
        <time>2013-04-28T04:30:46Z</time>
      </trkpt>
      <trkpt lat="47.75871" lon="3.58755">
        <ele>162.6</ele>
        <time>2013-04-28T04:30:48Z</time>
      </trkpt>
      <trkpt lat="47.7587" lon="3.58756">
        <ele>162.6</ele>
        <time>2013-04-28T04:30:49Z</time>
      </trkpt>
      <trkpt lat="47.75859" lon="3.58756">
        <ele>159.72</ele>
        <time>2013-04-28T04:30:57Z</time>
      </trkpt>
      <trkpt lat="47.75849" lon="3.58757">
        <ele>156.35</ele>
        <time>2013-04-28T04:31:05Z</time>
      </trkpt>
      <trkpt lat="47.75843" lon="3.58758">
        <ele>152.99</ele>
        <time>2013-04-28T04:31:13Z</time>
      </trkpt>
      <trkpt lat="47.75839" lon="3.58757">
        <ele>152.03</ele>
        <time>2013-04-28T04:31:17Z</time>
      </trkpt>
      <trkpt lat="47.7583" lon="3.58755">
        <ele>149.62</ele>
        <time>2013-04-28T04:31:23Z</time>
      </trkpt>
      <trkpt lat="47.75817" lon="3.5875">
        <ele>146.26</ele>
        <time>2013-04-28T04:31:33Z</time>
      </trkpt>
      <trkpt lat="47.75808" lon="3.5875">
        <ele>142.89</ele>
        <time>2013-04-28T04:31:41Z</time>
      </trkpt>
      <trkpt lat="47.75801" lon="3.58752">
        <ele>141.45</ele>
        <time>2013-04-28T04:31:47Z</time>
      </trkpt>
      <trkpt lat="47.75792" lon="3.58752">
        <ele>138.57</ele>
        <time>2013-04-28T04:31:56Z</time>
      </trkpt>
      <trkpt lat="47.7579" lon="3.58752">
        <ele>138.09</ele>
        <time>2013-04-28T04:31:58Z</time>
      </trkpt>
      <trkpt lat="47.75781" lon="3.58758">
        <ele>135.68</ele>
        <time>2013-04-28T04:32:06Z</time>
      </trkpt>
      <trkpt lat="47.7577" lon="3.58761">
        <ele>132.32</ele>
        <time>2013-04-28T04:32:15Z</time>
      </trkpt>
      <trkpt lat="47.75761" lon="3.58767">
        <ele>129.92</ele>
        <time>2013-04-28T04:32:22Z</time>
      </trkpt>
      <trkpt lat="47.75753" lon="3.58769">
        <ele>127.99</ele>
        <time>2013-04-28T04:32:27Z</time>
      </trkpt>
      <trkpt lat="47.75745" lon="3.58772">
        <ele>126.07</ele>
        <time>2013-04-28T04:32:35Z</time>
      </trkpt>
      <trkpt lat="47.75739" lon="3.58773">
        <ele>124.15</ele>
        <time>2013-04-28T04:32:40Z</time>
      </trkpt>
      <trkpt lat="47.75732" lon="3.58774">
        <ele>122.71</ele>
        <time>2013-04-28T04:32:45Z</time>
      </trkpt>
      <trkpt lat="47.75723" lon="3.58779">
        <ele>119.82</ele>
        <time>2013-04-28T04:32:53Z</time>
      </trkpt>
      <trkpt lat="47.75715" lon="3.58784">
        <ele>118.86</ele>
        <time>2013-04-28T04:32:59Z</time>
      </trkpt>
      <trkpt lat="47.75704" lon="3.58792">
        <ele>115.01</ele>
        <time>2013-04-28T04:33:09Z</time>
      </trkpt>
      <trkpt lat="47.75696" lon="3.58798">
        <ele>112.13</ele>
        <time>2013-04-28T04:33:18Z</time>
      </trkpt>
      <trkpt lat="47.75693" lon="3.58798">
        <ele>111.65</ele>
        <time>2013-04-28T04:33:20Z</time>
      </trkpt>
      <trkpt lat="47.75688" lon="3.58797">
        <ele>109.73</ele>
        <time>2013-04-28T04:33:28Z</time>
      </trkpt>
      <trkpt lat="47.75685" lon="3.58798">
        <ele>108.77</ele>
        <time>2013-04-28T04:33:30Z</time>
      </trkpt>
      <trkpt lat="47.75677" lon="3.58804">
        <ele>107.81</ele>
        <time>2013-04-28T04:33:34Z</time>
      </trkpt>
      <trkpt lat="47.75673" lon="3.58807">
        <ele>106.84</ele>
        <time>2013-04-28T04:33:36Z</time>
      </trkpt>
      <trkpt lat="47.75661" lon="3.58817">
        <ele>104.92</ele>
        <time>2013-04-28T04:33:42Z</time>
      </trkpt>
      <trkpt lat="47.75651" lon="3.58827">
        <ele>103.96</ele>
        <time>2013-04-28T04:33:48Z</time>
      </trkpt>
      <trkpt lat="47.75644" lon="3.58829">
        <ele>103</ele>
        <time>2013-04-28T04:33:52Z</time>
      </trkpt>
      <trkpt lat="47.75634" lon="3.5883">
        <ele>101.56</ele>
        <time>2013-04-28T04:33:59Z</time>
      </trkpt>
      <trkpt lat="47.75618" lon="3.58833">
        <ele>99.15</ele>
        <time>2013-04-28T04:34:10Z</time>
      </trkpt>
      <trkpt lat="47.75616" lon="3.58834">
        <ele>99.15</ele>
        <time>2013-04-28T04:34:11Z</time>
      </trkpt>
      <trkpt lat="47.75614" lon="3.58841">
        <ele>98.67</ele>
        <time>2013-04-28T04:34:14Z</time>
      </trkpt>
      <trkpt lat="47.75611" lon="3.58851">
        <ele>98.19</ele>
        <time>2013-04-28T04:34:19Z</time>
      </trkpt>
      <trkpt lat="47.75605" lon="3.58874">
        <ele>97.71</ele>
        <time>2013-04-28T04:34:30Z</time>
      </trkpt>
      <trkpt lat="47.75601" lon="3.58893">
        <ele>97.23</ele>
        <time>2013-04-28T04:34:38Z</time>
      </trkpt>
      <trkpt lat="47.75593" lon="3.58919">
        <ele>97.23</ele>
        <time>2013-04-28T04:34:49Z</time>
      </trkpt>
      <trkpt lat="47.7559" lon="3.58934">
        <ele>96.75</ele>
        <time>2013-04-28T04:34:54Z</time>
      </trkpt>
      <trkpt lat="47.75586" lon="3.58949">
        <ele>96.27</ele>
        <time>2013-04-28T04:35:02Z</time>
      </trkpt>
      <trkpt lat="47.7558" lon="3.58972">
        <ele>95.79</ele>
        <time>2013-04-28T04:35:13Z</time>
      </trkpt>
      <trkpt lat="47.75569" lon="3.58981">
        <ele>95.79</ele>
        <time>2013-04-28T04:35:21Z</time>
      </trkpt>
      <trkpt lat="47.75553" lon="3.58985">
        <ele>94.83</ele>
        <time>2013-04-28T04:35:32Z</time>
      </trkpt>
      <trkpt lat="47.75548" lon="3.58988">
        <ele>95.31</ele>
        <time>2013-04-28T04:35:37Z</time>
      </trkpt>
      <trkpt lat="47.75544" lon="3.58988">
        <ele>94.83</ele>
        <time>2013-04-28T04:35:40Z</time>
      </trkpt>
      <trkpt lat="47.75536" lon="3.58987">
        <ele>94.83</ele>
        <time>2013-04-28T04:35:44Z</time>
      </trkpt>
      <trkpt lat="47.75522" lon="3.58991">
        <ele>94.83</ele>
        <time>2013-04-28T04:35:53Z</time>
      </trkpt>
      <trkpt lat="47.75504" lon="3.58989">
        <ele>94.35</ele>
        <time>2013-04-28T04:36:04Z</time>
      </trkpt>
      <trkpt lat="47.75503" lon="3.58988">
        <ele>94.35</ele>
        <time>2013-04-28T04:36:05Z</time>
      </trkpt>
      <trkpt lat="47.75491" lon="3.58986">
        <ele>94.35</ele>
        <time>2013-04-28T04:36:12Z</time>
      </trkpt>
      <trkpt lat="47.75479" lon="3.58996">
        <ele>94.35</ele>
        <time>2013-04-28T04:36:21Z</time>
      </trkpt>
      <trkpt lat="47.75468" lon="3.59014">
        <ele>94.83</ele>
        <time>2013-04-28T04:36:31Z</time>
      </trkpt>
      <trkpt lat="47.75464" lon="3.59022">
        <ele>95.31</ele>
        <time>2013-04-28T04:36:35Z</time>
      </trkpt>
      <trkpt lat="47.75461" lon="3.59036">
        <ele>95.79</ele>
        <time>2013-04-28T04:36:43Z</time>
      </trkpt>
      <trkpt lat="47.75454" lon="3.59052">
        <ele>96.27</ele>
        <time>2013-04-28T04:36:51Z</time>
      </trkpt>
      <trkpt lat="47.75453" lon="3.59055">
        <ele>97.23</ele>
        <time>2013-04-28T04:36:53Z</time>
      </trkpt>
      <trkpt lat="47.75448" lon="3.59066">
        <ele>97.23</ele>
        <time>2013-04-28T04:36:59Z</time>
      </trkpt>
      <trkpt lat="47.75442" lon="3.59085">
        <ele>97.71</ele>
        <time>2013-04-28T04:37:10Z</time>
      </trkpt>
      <trkpt lat="47.75434" lon="3.59107">
        <ele>97.23</ele>
        <time>2013-04-28T04:37:20Z</time>
      </trkpt>
      <trkpt lat="47.75428" lon="3.59122">
        <ele>97.71</ele>
        <time>2013-04-28T04:37:29Z</time>
      </trkpt>
      <trkpt lat="47.75423" lon="3.59133">
        <ele>97.71</ele>
        <time>2013-04-28T04:37:36Z</time>
      </trkpt>
      <trkpt lat="47.75414" lon="3.59155">
        <ele>97.71</ele>
        <time>2013-04-28T04:37:47Z</time>
      </trkpt>
      <trkpt lat="47.75411" lon="3.59168">
        <ele>97.71</ele>
        <time>2013-04-28T04:37:54Z</time>
      </trkpt>
      <trkpt lat="47.75407" lon="3.59166">
        <ele>96.27</ele>
        <time>2013-04-28T04:38:02Z</time>
      </trkpt>
      <trkpt lat="47.75405" lon="3.59166">
        <ele>93.87</ele>
        <time>2013-04-28T04:38:08Z</time>
      </trkpt>
      <trkpt lat="47.75404" lon="3.59158">
        <ele>93.39</ele>
        <time>2013-04-28T04:38:17Z</time>
      </trkpt>
      <trkpt lat="47.75399" lon="3.59157">
        <ele>93.39</ele>
        <time>2013-04-28T04:38:23Z</time>
      </trkpt>
      <trkpt lat="47.75387" lon="3.59147">
        <ele>93.39</ele>
        <time>2013-04-28T04:38:33Z</time>
      </trkpt>
      <trkpt lat="47.75374" lon="3.59137">
        <ele>93.39</ele>
        <time>2013-04-28T04:38:44Z</time>
      </trkpt>
      <trkpt lat="47.75361" lon="3.59125">
        <ele>93.39</ele>
        <time>2013-04-28T04:38:55Z</time>
      </trkpt>
      <trkpt lat="47.75351" lon="3.59113">
        <ele>93.39</ele>
        <time>2013-04-28T04:39:02Z</time>
      </trkpt>
      <trkpt lat="47.75338" lon="3.59101">
        <ele>92.42</ele>
        <time>2013-04-28T04:39:11Z</time>
      </trkpt>
      <trkpt lat="47.75333" lon="3.59096">
        <ele>92.9</ele>
        <time>2013-04-28T04:39:15Z</time>
      </trkpt>
      <trkpt lat="47.75331" lon="3.59092">
        <ele>93.39</ele>
        <time>2013-04-28T04:39:17Z</time>
      </trkpt>
      <trkpt lat="47.75327" lon="3.59089">
        <ele>92.9</ele>
        <time>2013-04-28T04:39:20Z</time>
      </trkpt>
      <trkpt lat="47.75323" lon="3.59087">
        <ele>92.9</ele>
        <time>2013-04-28T04:39:23Z</time>
      </trkpt>
      <trkpt lat="47.75316" lon="3.59082">
        <ele>92.9</ele>
        <time>2013-04-28T04:39:31Z</time>
      </trkpt>
      <trkpt lat="47.75302" lon="3.59068">
        <ele>92.9</ele>
        <time>2013-04-28T04:39:40Z</time>
      </trkpt>
      <trkpt lat="47.75285" lon="3.59048">
        <ele>92.42</ele>
        <time>2013-04-28T04:39:50Z</time>
      </trkpt>
      <trkpt lat="47.75281" lon="3.59044">
        <ele>92.9</ele>
        <time>2013-04-28T04:39:54Z</time>
      </trkpt>
      <trkpt lat="47.75271" lon="3.59037">
        <ele>92.9</ele>
        <time>2013-04-28T04:40:03Z</time>
      </trkpt>
      <trkpt lat="47.7527" lon="3.59036">
        <ele>92.9</ele>
        <time>2013-04-28T04:40:04Z</time>
      </trkpt>
      <trkpt lat="47.75263" lon="3.59031">
        <ele>92.9</ele>
        <time>2013-04-28T04:40:11Z</time>
      </trkpt>
      <trkpt lat="47.75252" lon="3.59026">
        <ele>92.9</ele>
        <time>2013-04-28T04:40:15Z</time>
      </trkpt>
      <trkpt lat="47.75245" lon="3.5902">
        <ele>92.9</ele>
        <time>2013-04-28T04:40:19Z</time>
      </trkpt>
      <trkpt lat="47.7523" lon="3.59012">
        <ele>92.9</ele>
        <time>2013-04-28T04:40:27Z</time>
      </trkpt>
      <trkpt lat="47.75222" lon="3.59004">
        <ele>92.9</ele>
        <time>2013-04-28T04:40:34Z</time>
      </trkpt>
      <trkpt lat="47.75219" lon="3.59001">
        <ele>93.39</ele>
        <time>2013-04-28T04:40:36Z</time>
      </trkpt>
      <trkpt lat="47.75215" lon="3.58998">
        <ele>93.39</ele>
        <time>2013-04-28T04:40:39Z</time>
      </trkpt>
      <trkpt lat="47.75211" lon="3.58994">
        <ele>93.39</ele>
        <time>2013-04-28T04:40:43Z</time>
      </trkpt>
      <trkpt lat="47.75202" lon="3.58991">
        <ele>92.9</ele>
        <time>2013-04-28T04:40:49Z</time>
      </trkpt>
      <trkpt lat="47.75191" lon="3.58986">
        <ele>93.39</ele>
        <time>2013-04-28T04:40:57Z</time>
      </trkpt>
      <trkpt lat="47.75189" lon="3.58985">
        <ele>93.39</ele>
        <time>2013-04-28T04:40:58Z</time>
      </trkpt>
      <trkpt lat="47.75184" lon="3.5898">
        <ele>93.39</ele>
        <time>2013-04-28T04:41:01Z</time>
      </trkpt>
      <trkpt lat="47.75177" lon="3.58974">
        <ele>93.39</ele>
        <time>2013-04-28T04:41:07Z</time>
      </trkpt>
      <trkpt lat="47.75169" lon="3.58972">
        <ele>93.39</ele>
        <time>2013-04-28T04:41:13Z</time>
      </trkpt>
      <trkpt lat="47.75156" lon="3.58963">
        <ele>92.9</ele>
        <time>2013-04-28T04:41:24Z</time>
      </trkpt>
      <trkpt lat="47.75142" lon="3.58951">
        <ele>93.39</ele>
        <time>2013-04-28T04:41:33Z</time>
      </trkpt>
      <trkpt lat="47.75138" lon="3.58948">
        <ele>93.39</ele>
        <time>2013-04-28T04:41:35Z</time>
      </trkpt>
      <trkpt lat="47.75133" lon="3.58945">
        <ele>93.39</ele>
        <time>2013-04-28T04:41:38Z</time>
      </trkpt>
      <trkpt lat="47.75128" lon="3.58939">
        <ele>93.87</ele>
        <time>2013-04-28T04:41:41Z</time>
      </trkpt>
      <trkpt lat="47.75114" lon="3.58933">
        <ele>93.87</ele>
        <time>2013-04-28T04:41:52Z</time>
      </trkpt>
      <trkpt lat="47.75113" lon="3.58932">
        <ele>93.39</ele>
        <time>2013-04-28T04:41:53Z</time>
      </trkpt>
      <trkpt lat="47.75097" lon="3.58928">
        <ele>93.87</ele>
        <time>2013-04-28T04:42:04Z</time>
      </trkpt>
      <trkpt lat="47.7509" lon="3.58926">
        <ele>93.87</ele>
        <time>2013-04-28T04:42:09Z</time>
      </trkpt>
      <trkpt lat="47.75085" lon="3.58925">
        <ele>93.39</ele>
        <time>2013-04-28T04:42:13Z</time>
      </trkpt>
      <trkpt lat="47.7508" lon="3.58921">
        <ele>94.35</ele>
        <time>2013-04-28T04:42:21Z</time>
      </trkpt>
      <trkpt lat="47.75078" lon="3.58922">
        <ele>93.87</ele>
        <time>2013-04-28T04:42:32Z</time>
      </trkpt>
      <trkpt lat="47.75076" lon="3.58923">
        <ele>93.87</ele>
        <time>2013-04-28T04:42:46Z</time>
      </trkpt>
      <trkpt lat="47.75076" lon="3.58924">
        <ele>93.39</ele>
        <time>2013-04-28T04:42:55Z</time>
      </trkpt>
      <trkpt lat="47.75074" lon="3.58929">
        <ele>93.87</ele>
        <time>2013-04-28T04:43:03Z</time>
      </trkpt>
      <trkpt lat="47.75074" lon="3.5893">
        <ele>94.35</ele>
        <time>2013-04-28T04:43:11Z</time>
      </trkpt>
      <trkpt lat="47.75073" lon="3.58931">
        <ele>96.75</ele>
        <time>2013-04-28T04:43:29Z</time>
      </trkpt>
      <trkpt lat="47.75073" lon="3.58932">
        <ele>95.31</ele>
        <time>2013-04-28T04:43:30Z</time>
      </trkpt>
      <trkpt lat="47.75074" lon="3.58933">
        <ele>94.35</ele>
        <time>2013-04-28T04:43:32Z</time>
      </trkpt>
      <trkpt lat="47.75074" lon="3.58929">
        <ele>94.83</ele>
        <time>2013-04-28T04:43:40Z</time>
      </trkpt>
      <trkpt lat="47.75071" lon="3.58927">
        <ele>94.35</ele>
        <time>2013-04-28T04:43:50Z</time>
      </trkpt>
      <trkpt lat="47.7507" lon="3.58927">
        <ele>94.83</ele>
        <time>2013-04-28T04:44:07Z</time>
      </trkpt>
      <trkpt lat="47.7507" lon="3.58926">
        <ele>94.35</ele>
        <time>2013-04-28T04:44:21Z</time>
      </trkpt>
      <trkpt lat="47.75069" lon="3.58925">
        <ele>94.83</ele>
        <time>2013-04-28T04:44:33Z</time>
      </trkpt>
      <trkpt lat="47.75068" lon="3.58923">
        <ele>94.83</ele>
        <time>2013-04-28T04:44:44Z</time>
      </trkpt>
      <trkpt lat="47.75066" lon="3.58922">
        <ele>94.83</ele>
        <time>2013-04-28T04:44:57Z</time>
      </trkpt>
      <trkpt lat="47.75064" lon="3.58921">
        <ele>95.31</ele>
        <time>2013-04-28T04:45:09Z</time>
      </trkpt>
      <trkpt lat="47.75064" lon="3.58921">
        <ele>95.31</ele>
        <time>2013-04-28T04:45:22Z</time>
      </trkpt>
      <trkpt lat="47.75063" lon="3.58921">
        <ele>94.83</ele>
        <time>2013-04-28T04:45:36Z</time>
      </trkpt>
      <trkpt lat="47.75062" lon="3.5892">
        <ele>95.79</ele>
        <time>2013-04-28T04:45:56Z</time>
      </trkpt>
      <trkpt lat="47.75062" lon="3.58919">
        <ele>95.79</ele>
        <time>2013-04-28T04:46:14Z</time>
      </trkpt>
      <trkpt lat="47.75063" lon="3.58918">
        <ele>95.79</ele>
        <time>2013-04-28T04:46:34Z</time>
      </trkpt>
      <trkpt lat="47.75062" lon="3.58919">
        <ele>95.79</ele>
        <time>2013-04-28T04:46:45Z</time>
      </trkpt>
      <trkpt lat="47.75061" lon="3.58918">
        <ele>95.31</ele>
        <time>2013-04-28T04:46:58Z</time>
      </trkpt>
      <trkpt lat="47.75061" lon="3.58918">
        <ele>95.79</ele>
        <time>2013-04-28T04:47:14Z</time>
      </trkpt>
      <trkpt lat="47.7506" lon="3.58918">
        <ele>95.79</ele>
        <time>2013-04-28T04:47:32Z</time>
      </trkpt>
      <trkpt lat="47.75061" lon="3.58916">
        <ele>95.79</ele>
        <time>2013-04-28T04:47:51Z</time>
      </trkpt>
      <trkpt lat="47.7506" lon="3.58916">
        <ele>95.31</ele>
        <time>2013-04-28T04:48:10Z</time>
      </trkpt>
      <trkpt lat="47.7506" lon="3.58916">
        <ele>95.79</ele>
        <time>2013-04-28T04:48:27Z</time>
      </trkpt>
      <trkpt lat="47.75058" lon="3.58916">
        <ele>95.79</ele>
        <time>2013-04-28T04:48:39Z</time>
      </trkpt>
      <trkpt lat="47.75057" lon="3.58917">
        <ele>95.79</ele>
        <time>2013-04-28T04:48:50Z</time>
      </trkpt>
      <trkpt lat="47.75056" lon="3.58915">
        <ele>95.31</ele>
        <time>2013-04-28T04:49:05Z</time>
      </trkpt>
      <trkpt lat="47.75055" lon="3.58916">
        <ele>95.31</ele>
        <time>2013-04-28T04:49:19Z</time>
      </trkpt>
      <trkpt lat="47.75053" lon="3.58917">
        <ele>95.31</ele>
        <time>2013-04-28T04:49:32Z</time>
      </trkpt>
      <trkpt lat="47.7505" lon="3.58915">
        <ele>94.83</ele>
        <time>2013-04-28T04:49:42Z</time>
      </trkpt>
      <trkpt lat="47.75045" lon="3.58914">
        <ele>94.83</ele>
        <time>2013-04-28T04:49:53Z</time>
      </trkpt>
      <trkpt lat="47.75036" lon="3.5891">
        <ele>95.31</ele>
        <time>2013-04-28T04:50:03Z</time>
      </trkpt>
      <trkpt lat="47.75023" lon="3.58906">
        <ele>95.31</ele>
        <time>2013-04-28T04:50:10Z</time>
      </trkpt>
      <trkpt lat="47.7501" lon="3.58902">
        <ele>95.31</ele>
        <time>2013-04-28T04:50:20Z</time>
      </trkpt>
      <trkpt lat="47.74997" lon="3.58901">
        <ele>95.31</ele>
        <time>2013-04-28T04:50:31Z</time>
      </trkpt>
      <trkpt lat="47.74978" lon="3.58893">
        <ele>95.31</ele>
        <time>2013-04-28T04:50:43Z</time>
      </trkpt>
      <trkpt lat="47.74966" lon="3.58889">
        <ele>94.83</ele>
        <time>2013-04-28T04:50:48Z</time>
      </trkpt>
      <trkpt lat="47.74952" lon="3.58883">
        <ele>94.83</ele>
        <time>2013-04-28T04:50:56Z</time>
      </trkpt>
      <trkpt lat="47.74943" lon="3.58878">
        <ele>94.83</ele>
        <time>2013-04-28T04:51:04Z</time>
      </trkpt>
      <trkpt lat="47.7493" lon="3.5887">
        <ele>94.83</ele>
        <time>2013-04-28T04:51:14Z</time>
      </trkpt>
      <trkpt lat="47.74929" lon="3.5887">
        <ele>94.83</ele>
        <time>2013-04-28T04:51:15Z</time>
      </trkpt>
      <trkpt lat="47.74914" lon="3.58861">
        <ele>94.83</ele>
        <time>2013-04-28T04:51:25Z</time>
      </trkpt>
      <trkpt lat="47.7491" lon="3.58858">
        <ele>94.83</ele>
        <time>2013-04-28T04:51:28Z</time>
      </trkpt>
      <trkpt lat="47.74892" lon="3.58844">
        <ele>95.31</ele>
        <time>2013-04-28T04:51:38Z</time>
      </trkpt>
      <trkpt lat="47.74876" lon="3.58839">
        <ele>95.31</ele>
        <time>2013-04-28T04:51:47Z</time>
      </trkpt>
      <trkpt lat="47.74873" lon="3.58838">
        <ele>94.83</ele>
        <time>2013-04-28T04:51:52Z</time>
      </trkpt>
      <trkpt lat="47.74863" lon="3.58835">
        <ele>95.31</ele>
        <time>2013-04-28T04:52:02Z</time>
      </trkpt>
      <trkpt lat="47.7486" lon="3.58834">
        <ele>95.31</ele>
        <time>2013-04-28T04:52:05Z</time>
      </trkpt>
      <trkpt lat="47.74843" lon="3.58823">
        <ele>94.83</ele>
        <time>2013-04-28T04:52:15Z</time>
      </trkpt>
      <trkpt lat="47.74839" lon="3.58821">
        <ele>95.31</ele>
        <time>2013-04-28T04:52:17Z</time>
      </trkpt>
      <trkpt lat="47.74825" lon="3.5881">
        <ele>94.83</ele>
        <time>2013-04-28T04:52:29Z</time>
      </trkpt>
      <trkpt lat="47.74815" lon="3.58801">
        <ele>94.83</ele>
        <time>2013-04-28T04:52:38Z</time>
      </trkpt>
      <trkpt lat="47.74811" lon="3.588">
        <ele>94.83</ele>
        <time>2013-04-28T04:52:40Z</time>
      </trkpt>
      <trkpt lat="47.74802" lon="3.58798">
        <ele>95.31</ele>
        <time>2013-04-28T04:52:47Z</time>
      </trkpt>
      <trkpt lat="47.7479" lon="3.58793">
        <ele>94.83</ele>
        <time>2013-04-28T04:52:58Z</time>
      </trkpt>
      <trkpt lat="47.74786" lon="3.58791">
        <ele>95.31</ele>
        <time>2013-04-28T04:53:00Z</time>
      </trkpt>
      <trkpt lat="47.7478" lon="3.58787">
        <ele>94.83</ele>
        <time>2013-04-28T04:53:05Z</time>
      </trkpt>
      <trkpt lat="47.7477" lon="3.58781">
        <ele>95.31</ele>
        <time>2013-04-28T04:53:14Z</time>
      </trkpt>
      <trkpt lat="47.74761" lon="3.58775">
        <ele>95.31</ele>
        <time>2013-04-28T04:53:19Z</time>
      </trkpt>
      <trkpt lat="47.74758" lon="3.58773">
        <ele>94.83</ele>
        <time>2013-04-28T04:53:21Z</time>
      </trkpt>
      <trkpt lat="47.74745" lon="3.58767">
        <ele>94.83</ele>
        <time>2013-04-28T04:53:30Z</time>
      </trkpt>
      <trkpt lat="47.74741" lon="3.58766">
        <ele>94.83</ele>
        <time>2013-04-28T04:53:36Z</time>
      </trkpt>
      <trkpt lat="47.74731" lon="3.5876">
        <ele>94.83</ele>
        <time>2013-04-28T04:53:44Z</time>
      </trkpt>
      <trkpt lat="47.74722" lon="3.58747">
        <ele>94.35</ele>
        <time>2013-04-28T04:53:54Z</time>
      </trkpt>
      <trkpt lat="47.74702" lon="3.58732">
        <ele>94.83</ele>
        <time>2013-04-28T04:54:04Z</time>
      </trkpt>
      <trkpt lat="47.7469" lon="3.58728">
        <ele>94.83</ele>
        <time>2013-04-28T04:54:10Z</time>
      </trkpt>
      <trkpt lat="47.7468" lon="3.5873">
        <ele>94.35</ele>
        <time>2013-04-28T04:54:16Z</time>
      </trkpt>
      <trkpt lat="47.74665" lon="3.58725">
        <ele>94.35</ele>
        <time>2013-04-28T04:54:25Z</time>
      </trkpt>
      <trkpt lat="47.74654" lon="3.58717">
        <ele>94.83</ele>
        <time>2013-04-28T04:54:33Z</time>
      </trkpt>
      <trkpt lat="47.74646" lon="3.58715">
        <ele>94.83</ele>
        <time>2013-04-28T04:54:38Z</time>
      </trkpt>
      <trkpt lat="47.74627" lon="3.58719">
        <ele>94.83</ele>
        <time>2013-04-28T04:54:50Z</time>
      </trkpt>
      <trkpt lat="47.74605" lon="3.58714">
        <ele>94.35</ele>
        <time>2013-04-28T04:55:02Z</time>
      </trkpt>
      <trkpt lat="47.7459" lon="3.58716">
        <ele>94.35</ele>
        <time>2013-04-28T04:55:12Z</time>
      </trkpt>
      <trkpt lat="47.74582" lon="3.58718">
        <ele>94.83</ele>
        <time>2013-04-28T04:55:17Z</time>
      </trkpt>
      <trkpt lat="47.74566" lon="3.58721">
        <ele>94.83</ele>
        <time>2013-04-28T04:55:26Z</time>
      </trkpt>
      <trkpt lat="47.74555" lon="3.58723">
        <ele>95.31</ele>
        <time>2013-04-28T04:55:34Z</time>
      </trkpt>
      <trkpt lat="47.74548" lon="3.58725">
        <ele>94.83</ele>
        <time>2013-04-28T04:55:39Z</time>
      </trkpt>
      <trkpt lat="47.74539" lon="3.58728">
        <ele>94.83</ele>
        <time>2013-04-28T04:55:46Z</time>
      </trkpt>
      <trkpt lat="47.74531" lon="3.58727">
        <ele>94.35</ele>
        <time>2013-04-28T04:55:54Z</time>
      </trkpt>
      <trkpt lat="47.7453" lon="3.58728">
        <ele>94.83</ele>
        <time>2013-04-28T04:55:55Z</time>
      </trkpt>
      <trkpt lat="47.7451" lon="3.58741">
        <ele>94.83</ele>
        <time>2013-04-28T04:56:05Z</time>
      </trkpt>
      <trkpt lat="47.74497" lon="3.58744">
        <ele>95.31</ele>
        <time>2013-04-28T04:56:15Z</time>
      </trkpt>
      <trkpt lat="47.74489" lon="3.5874">
        <ele>94.83</ele>
        <time>2013-04-28T04:56:24Z</time>
      </trkpt>
      <trkpt lat="47.74486" lon="3.58741">
        <ele>94.83</ele>
        <time>2013-04-28T04:56:28Z</time>
      </trkpt>
      <trkpt lat="47.74482" lon="3.58742">
        <ele>94.83</ele>
        <time>2013-04-28T04:56:31Z</time>
      </trkpt>
      <trkpt lat="47.74477" lon="3.58747">
        <ele>94.83</ele>
        <time>2013-04-28T04:56:33Z</time>
      </trkpt>
      <trkpt lat="47.74467" lon="3.5876">
        <ele>94.83</ele>
        <time>2013-04-28T04:56:37Z</time>
      </trkpt>
      <trkpt lat="47.74451" lon="3.58774">
        <ele>95.31</ele>
        <time>2013-04-28T04:56:47Z</time>
      </trkpt>
      <trkpt lat="47.74445" lon="3.58774">
        <ele>95.31</ele>
        <time>2013-04-28T04:56:53Z</time>
      </trkpt>
      <trkpt lat="47.74442" lon="3.58776">
        <ele>95.31</ele>
        <time>2013-04-28T04:56:55Z</time>
      </trkpt>
      <trkpt lat="47.74435" lon="3.58784">
        <ele>95.31</ele>
        <time>2013-04-28T04:57:00Z</time>
      </trkpt>
      <trkpt lat="47.74418" lon="3.58797">
        <ele>94.83</ele>
        <time>2013-04-28T04:57:10Z</time>
      </trkpt>
      <trkpt lat="47.74411" lon="3.588">
        <ele>95.79</ele>
        <time>2013-04-28T04:57:16Z</time>
      </trkpt>
      <trkpt lat="47.74399" lon="3.58805">
        <ele>95.79</ele>
        <time>2013-04-28T04:57:25Z</time>
      </trkpt>
      <trkpt lat="47.74386" lon="3.58813">
        <ele>95.79</ele>
        <time>2013-04-28T04:57:33Z</time>
      </trkpt>
      <trkpt lat="47.74381" lon="3.58816">
        <ele>95.31</ele>
        <time>2013-04-28T04:57:37Z</time>
      </trkpt>
      <trkpt lat="47.74371" lon="3.58824">
        <ele>95.31</ele>
        <time>2013-04-28T04:57:46Z</time>
      </trkpt>
      <trkpt lat="47.74368" lon="3.58826">
        <ele>95.31</ele>
        <time>2013-04-28T04:57:48Z</time>
      </trkpt>
      <trkpt lat="47.74358" lon="3.58836">
        <ele>95.31</ele>
        <time>2013-04-28T04:57:54Z</time>
      </trkpt>
      <trkpt lat="47.74352" lon="3.58838">
        <ele>95.79</ele>
        <time>2013-04-28T04:57:59Z</time>
      </trkpt>
      <trkpt lat="47.74346" lon="3.5884">
        <ele>95.79</ele>
        <time>2013-04-28T04:58:04Z</time>
      </trkpt>
      <trkpt lat="47.74343" lon="3.58841">
        <ele>95.31</ele>
        <time>2013-04-28T04:58:06Z</time>
      </trkpt>
      <trkpt lat="47.74339" lon="3.5884">
        <ele>95.31</ele>
        <time>2013-04-28T04:58:09Z</time>
      </trkpt>
      <trkpt lat="47.74322" lon="3.58851">
        <ele>95.31</ele>
        <time>2013-04-28T04:58:20Z</time>
      </trkpt>
      <trkpt lat="47.74315" lon="3.58855">
        <ele>95.31</ele>
        <time>2013-04-28T04:58:25Z</time>
      </trkpt>
      <trkpt lat="47.74311" lon="3.5886">
        <ele>95.31</ele>
        <time>2013-04-28T04:58:28Z</time>
      </trkpt>
      <trkpt lat="47.74306" lon="3.58864">
        <ele>95.31</ele>
        <time>2013-04-28T04:58:32Z</time>
      </trkpt>
      <trkpt lat="47.74297" lon="3.5887">
        <ele>95.79</ele>
        <time>2013-04-28T04:58:39Z</time>
      </trkpt>
      <trkpt lat="47.74295" lon="3.58872">
        <ele>95.79</ele>
        <time>2013-04-28T04:58:41Z</time>
      </trkpt>
      <trkpt lat="47.74291" lon="3.58874">
        <ele>95.31</ele>
        <time>2013-04-28T04:58:44Z</time>
      </trkpt>
      <trkpt lat="47.74282" lon="3.58881">
        <ele>95.79</ele>
        <time>2013-04-28T04:58:51Z</time>
      </trkpt>
      <trkpt lat="47.74274" lon="3.5889">
        <ele>95.79</ele>
        <time>2013-04-28T04:58:56Z</time>
      </trkpt>
      <trkpt lat="47.74263" lon="3.58898">
        <ele>95.79</ele>
        <time>2013-04-28T04:59:05Z</time>
      </trkpt>
      <trkpt lat="47.7426" lon="3.58899">
        <ele>95.79</ele>
        <time>2013-04-28T04:59:07Z</time>
      </trkpt>
      <trkpt lat="47.74253" lon="3.58911">
        <ele>95.31</ele>
        <time>2013-04-28T04:59:15Z</time>
      </trkpt>
      <trkpt lat="47.74249" lon="3.58912">
        <ele>95.31</ele>
        <time>2013-04-28T04:59:18Z</time>
      </trkpt>
      <trkpt lat="47.7424" lon="3.58922">
        <ele>95.79</ele>
        <time>2013-04-28T04:59:25Z</time>
      </trkpt>
      <trkpt lat="47.74236" lon="3.58925">
        <ele>95.31</ele>
        <time>2013-04-28T04:59:27Z</time>
      </trkpt>
      <trkpt lat="47.74224" lon="3.58929">
        <ele>95.79</ele>
        <time>2013-04-28T04:59:35Z</time>
      </trkpt>
      <trkpt lat="47.74217" lon="3.58936">
        <ele>95.79</ele>
        <time>2013-04-28T04:59:40Z</time>
      </trkpt>
      <trkpt lat="47.742" lon="3.58941">
        <ele>95.31</ele>
        <time>2013-04-28T04:59:51Z</time>
      </trkpt>
      <trkpt lat="47.74195" lon="3.58943">
        <ele>95.31</ele>
        <time>2013-04-28T04:59:56Z</time>
      </trkpt>
      <trkpt lat="47.74189" lon="3.58948">
        <ele>95.79</ele>
        <time>2013-04-28T05:00:02Z</time>
      </trkpt>
      <trkpt lat="47.74183" lon="3.58953">
        <ele>95.79</ele>
        <time>2013-04-28T05:00:07Z</time>
      </trkpt>
      <trkpt lat="47.7417" lon="3.58968">
        <ele>95.79</ele>
        <time>2013-04-28T05:00:18Z</time>
      </trkpt>
      <trkpt lat="47.74163" lon="3.58975">
        <ele>96.27</ele>
        <time>2013-04-28T05:00:24Z</time>
      </trkpt>
      <trkpt lat="47.74158" lon="3.58976">
        <ele>95.31</ele>
        <time>2013-04-28T05:00:27Z</time>
      </trkpt>
      <trkpt lat="47.74143" lon="3.58993">
        <ele>95.31</ele>
        <time>2013-04-28T05:00:36Z</time>
      </trkpt>
      <trkpt lat="47.74132" lon="3.59002">
        <ele>95.79</ele>
        <time>2013-04-28T05:00:43Z</time>
      </trkpt>
      <trkpt lat="47.74126" lon="3.59009">
        <ele>95.31</ele>
        <time>2013-04-28T05:00:47Z</time>
      </trkpt>
      <trkpt lat="47.74117" lon="3.59016">
        <ele>95.31</ele>
        <time>2013-04-28T05:00:56Z</time>
      </trkpt>
      <trkpt lat="47.74105" lon="3.59031">
        <ele>95.79</ele>
        <time>2013-04-28T05:01:06Z</time>
      </trkpt>
      <trkpt lat="47.74104" lon="3.59035">
        <ele>95.31</ele>
        <time>2013-04-28T05:01:08Z</time>
      </trkpt>
      <trkpt lat="47.74104" lon="3.59059">
        <ele>96.27</ele>
        <time>2013-04-28T05:01:17Z</time>
      </trkpt>
      <trkpt lat="47.74106" lon="3.59082">
        <ele>96.75</ele>
        <time>2013-04-28T05:01:26Z</time>
      </trkpt>
      <trkpt lat="47.74107" lon="3.59104">
        <ele>96.27</ele>
        <time>2013-04-28T05:01:34Z</time>
      </trkpt>
      <trkpt lat="47.74108" lon="3.59108">
        <ele>96.75</ele>
        <time>2013-04-28T05:01:36Z</time>
      </trkpt>
      <trkpt lat="47.74108" lon="3.59122">
        <ele>97.23</ele>
        <time>2013-04-28T05:01:42Z</time>
      </trkpt>
      <trkpt lat="47.74109" lon="3.59147">
        <ele>97.23</ele>
        <time>2013-04-28T05:01:51Z</time>
      </trkpt>
      <trkpt lat="47.7411" lon="3.59164">
        <ele>97.23</ele>
        <time>2013-04-28T05:01:58Z</time>
      </trkpt>
      <trkpt lat="47.74112" lon="3.59176">
        <ele>97.23</ele>
        <time>2013-04-28T05:02:04Z</time>
      </trkpt>
      <trkpt lat="47.74112" lon="3.59196">
        <ele>97.23</ele>
        <time>2013-04-28T05:02:12Z</time>
      </trkpt>
      <trkpt lat="47.74114" lon="3.59203">
        <ele>97.23</ele>
        <time>2013-04-28T05:02:17Z</time>
      </trkpt>
      <trkpt lat="47.74115" lon="3.59216">
        <ele>97.23</ele>
        <time>2013-04-28T05:02:23Z</time>
      </trkpt>
      <trkpt lat="47.74114" lon="3.59232">
        <ele>97.23</ele>
        <time>2013-04-28T05:02:30Z</time>
      </trkpt>
      <trkpt lat="47.74115" lon="3.59241">
        <ele>97.23</ele>
        <time>2013-04-28T05:02:34Z</time>
      </trkpt>
      <trkpt lat="47.74117" lon="3.59255">
        <ele>97.23</ele>
        <time>2013-04-28T05:02:41Z</time>
      </trkpt>
      <trkpt lat="47.74116" lon="3.59271">
        <ele>97.23</ele>
        <time>2013-04-28T05:02:47Z</time>
      </trkpt>
      <trkpt lat="47.74116" lon="3.59275">
        <ele>97.71</ele>
        <time>2013-04-28T05:02:49Z</time>
      </trkpt>
      <trkpt lat="47.74114" lon="3.59283">
        <ele>97.71</ele>
        <time>2013-04-28T05:02:55Z</time>
      </trkpt>
      <trkpt lat="47.74103" lon="3.59286">
        <ele>98.19</ele>
        <time>2013-04-28T05:03:02Z</time>
      </trkpt>
      <trkpt lat="47.74089" lon="3.59289">
        <ele>97.23</ele>
        <time>2013-04-28T05:03:11Z</time>
      </trkpt>
      <trkpt lat="47.74085" lon="3.59293">
        <ele>97.23</ele>
        <time>2013-04-28T05:03:15Z</time>
      </trkpt>
      <trkpt lat="47.74073" lon="3.59295">
        <ele>97.23</ele>
        <time>2013-04-28T05:03:22Z</time>
      </trkpt>
      <trkpt lat="47.7406" lon="3.59299">
        <ele>97.23</ele>
        <time>2013-04-28T05:03:29Z</time>
      </trkpt>
      <trkpt lat="47.74056" lon="3.593">
        <ele>96.75</ele>
        <time>2013-04-28T05:03:32Z</time>
      </trkpt>
      <trkpt lat="47.74047" lon="3.593">
        <ele>97.23</ele>
        <time>2013-04-28T05:03:38Z</time>
      </trkpt>
      <trkpt lat="47.74036" lon="3.59311">
        <ele>96.27</ele>
        <time>2013-04-28T05:03:45Z</time>
      </trkpt>
      <trkpt lat="47.74032" lon="3.59319">
        <ele>96.75</ele>
        <time>2013-04-28T05:03:49Z</time>
      </trkpt>
      <trkpt lat="47.74024" lon="3.59333">
        <ele>96.75</ele>
        <time>2013-04-28T05:03:57Z</time>
      </trkpt>
      <trkpt lat="47.7402" lon="3.59339">
        <ele>96.75</ele>
        <time>2013-04-28T05:04:00Z</time>
      </trkpt>
      <trkpt lat="47.74011" lon="3.5935">
        <ele>97.23</ele>
        <time>2013-04-28T05:04:07Z</time>
      </trkpt>
      <trkpt lat="47.74011" lon="3.59354">
        <ele>97.23</ele>
        <time>2013-04-28T05:04:09Z</time>
      </trkpt>
      <trkpt lat="47.74013" lon="3.59365">
        <ele>96.75</ele>
        <time>2013-04-28T05:04:13Z</time>
      </trkpt>
      <trkpt lat="47.74016" lon="3.59382">
        <ele>97.23</ele>
        <time>2013-04-28T05:04:20Z</time>
      </trkpt>
      <trkpt lat="47.74016" lon="3.59403">
        <ele>97.23</ele>
        <time>2013-04-28T05:04:30Z</time>
      </trkpt>
      <trkpt lat="47.74016" lon="3.59427">
        <ele>97.23</ele>
        <time>2013-04-28T05:04:40Z</time>
      </trkpt>
      <trkpt lat="47.74019" lon="3.5945">
        <ele>97.23</ele>
        <time>2013-04-28T05:04:50Z</time>
      </trkpt>
      <trkpt lat="47.74018" lon="3.59464">
        <ele>97.23</ele>
        <time>2013-04-28T05:04:57Z</time>
      </trkpt>
      <trkpt lat="47.74015" lon="3.59485">
        <ele>97.23</ele>
        <time>2013-04-28T05:05:05Z</time>
      </trkpt>
      <trkpt lat="47.74017" lon="3.59502">
        <ele>97.23</ele>
        <time>2013-04-28T05:05:12Z</time>
      </trkpt>
      <trkpt lat="47.74017" lon="3.59504">
        <ele>97.23</ele>
        <time>2013-04-28T05:05:13Z</time>
      </trkpt>
      <trkpt lat="47.7402" lon="3.59517">
        <ele>97.23</ele>
        <time>2013-04-28T05:05:20Z</time>
      </trkpt>
      <trkpt lat="47.7402" lon="3.59537">
        <ele>97.23</ele>
        <time>2013-04-28T05:05:30Z</time>
      </trkpt>
      <trkpt lat="47.7402" lon="3.59554">
        <ele>97.71</ele>
        <time>2013-04-28T05:05:37Z</time>
      </trkpt>
      <trkpt lat="47.74021" lon="3.5957">
        <ele>97.71</ele>
        <time>2013-04-28T05:05:43Z</time>
      </trkpt>
      <trkpt lat="47.74021" lon="3.59578">
        <ele>97.71</ele>
        <time>2013-04-28T05:05:46Z</time>
      </trkpt>
      <trkpt lat="47.74024" lon="3.59599">
        <ele>97.71</ele>
        <time>2013-04-28T05:05:55Z</time>
      </trkpt>
      <trkpt lat="47.74024" lon="3.59613">
        <ele>97.71</ele>
        <time>2013-04-28T05:06:02Z</time>
      </trkpt>
      <trkpt lat="47.74024" lon="3.59615">
        <ele>97.23</ele>
        <time>2013-04-28T05:06:03Z</time>
      </trkpt>
      <trkpt lat="47.74026" lon="3.59639">
        <ele>97.23</ele>
        <time>2013-04-28T05:06:14Z</time>
      </trkpt>
      <trkpt lat="47.74025" lon="3.59657">
        <ele>97.23</ele>
        <time>2013-04-28T05:06:21Z</time>
      </trkpt>
      <trkpt lat="47.74027" lon="3.59677">
        <ele>97.23</ele>
        <time>2013-04-28T05:06:30Z</time>
      </trkpt>
      <trkpt lat="47.74027" lon="3.59681">
        <ele>96.75</ele>
        <time>2013-04-28T05:06:32Z</time>
      </trkpt>
      <trkpt lat="47.74029" lon="3.59697">
        <ele>97.23</ele>
        <time>2013-04-28T05:06:39Z</time>
      </trkpt>
      <trkpt lat="47.74029" lon="3.59715">
        <ele>97.23</ele>
        <time>2013-04-28T05:06:47Z</time>
      </trkpt>
      <trkpt lat="47.74027" lon="3.59723">
        <ele>97.23</ele>
        <time>2013-04-28T05:06:50Z</time>
      </trkpt>
      <trkpt lat="47.74029" lon="3.59737">
        <ele>97.71</ele>
        <time>2013-04-28T05:06:56Z</time>
      </trkpt>
      <trkpt lat="47.74029" lon="3.59742">
        <ele>97.71</ele>
        <time>2013-04-28T05:06:58Z</time>
      </trkpt>
      <trkpt lat="47.74029" lon="3.59751">
        <ele>97.71</ele>
        <time>2013-04-28T05:07:02Z</time>
      </trkpt>
      <trkpt lat="47.74028" lon="3.59768">
        <ele>98.19</ele>
        <time>2013-04-28T05:07:10Z</time>
      </trkpt>
      <trkpt lat="47.74024" lon="3.59775">
        <ele>98.67</ele>
        <time>2013-04-28T05:07:15Z</time>
      </trkpt>
      <trkpt lat="47.74016" lon="3.59787">
        <ele>99.15</ele>
        <time>2013-04-28T05:07:21Z</time>
      </trkpt>
      <trkpt lat="47.74006" lon="3.59794">
        <ele>98.67</ele>
        <time>2013-04-28T05:07:28Z</time>
      </trkpt>
      <trkpt lat="47.73999" lon="3.59793">
        <ele>98.67</ele>
        <time>2013-04-28T05:07:33Z</time>
      </trkpt>
      <trkpt lat="47.73991" lon="3.59791">
        <ele>99.15</ele>
        <time>2013-04-28T05:07:38Z</time>
      </trkpt>
      <trkpt lat="47.73976" lon="3.59789">
        <ele>98.67</ele>
        <time>2013-04-28T05:07:47Z</time>
      </trkpt>
      <trkpt lat="47.73964" lon="3.59789">
        <ele>98.67</ele>
        <time>2013-04-28T05:07:54Z</time>
      </trkpt>
      <trkpt lat="47.73949" lon="3.59792">
        <ele>98.67</ele>
        <time>2013-04-28T05:08:03Z</time>
      </trkpt>
      <trkpt lat="47.73944" lon="3.59794">
        <ele>98.67</ele>
        <time>2013-04-28T05:08:06Z</time>
      </trkpt>
      <trkpt lat="47.73941" lon="3.59796">
        <ele>98.67</ele>
        <time>2013-04-28T05:08:08Z</time>
      </trkpt>
      <trkpt lat="47.73928" lon="3.59798">
        <ele>98.19</ele>
        <time>2013-04-28T05:08:16Z</time>
      </trkpt>
      <trkpt lat="47.73918" lon="3.59798">
        <ele>99.15</ele>
        <time>2013-04-28T05:08:21Z</time>
      </trkpt>
      <trkpt lat="47.73909" lon="3.59798">
        <ele>98.67</ele>
        <time>2013-04-28T05:08:26Z</time>
      </trkpt>
      <trkpt lat="47.73903" lon="3.59803">
        <ele>99.15</ele>
        <time>2013-04-28T05:08:31Z</time>
      </trkpt>
      <trkpt lat="47.73901" lon="3.59806">
        <ele>99.15</ele>
        <time>2013-04-28T05:08:34Z</time>
      </trkpt>
      <trkpt lat="47.73896" lon="3.59808">
        <ele>99.15</ele>
        <time>2013-04-28T05:08:37Z</time>
      </trkpt>
      <trkpt lat="47.7388" lon="3.59818">
        <ele>99.15</ele>
        <time>2013-04-28T05:08:47Z</time>
      </trkpt>
      <trkpt lat="47.73879" lon="3.59818">
        <ele>98.67</ele>
        <time>2013-04-28T05:08:48Z</time>
      </trkpt>
      <trkpt lat="47.73867" lon="3.59826">
        <ele>99.15</ele>
        <time>2013-04-28T05:08:58Z</time>
      </trkpt>
      <trkpt lat="47.73865" lon="3.59827">
        <ele>99.15</ele>
        <time>2013-04-28T05:09:00Z</time>
      </trkpt>
      <trkpt lat="47.73855" lon="3.59832">
        <ele>99.63</ele>
        <time>2013-04-28T05:09:06Z</time>
      </trkpt>
      <trkpt lat="47.73847" lon="3.59831">
        <ele>99.15</ele>
        <time>2013-04-28T05:09:10Z</time>
      </trkpt>
      <trkpt lat="47.73842" lon="3.59831">
        <ele>99.15</ele>
        <time>2013-04-28T05:09:13Z</time>
      </trkpt>
      <trkpt lat="47.73827" lon="3.59839">
        <ele>99.63</ele>
        <time>2013-04-28T05:09:23Z</time>
      </trkpt>
      <trkpt lat="47.73824" lon="3.59842">
        <ele>99.63</ele>
        <time>2013-04-28T05:09:25Z</time>
      </trkpt>
      <trkpt lat="47.73812" lon="3.59849">
        <ele>99.15</ele>
        <time>2013-04-28T05:09:33Z</time>
      </trkpt>
      <trkpt lat="47.7381" lon="3.5985">
        <ele>99.15</ele>
        <time>2013-04-28T05:09:34Z</time>
      </trkpt>
      <trkpt lat="47.73805" lon="3.59858">
        <ele>99.63</ele>
        <time>2013-04-28T05:09:38Z</time>
      </trkpt>
      <trkpt lat="47.73806" lon="3.59865">
        <ele>99.63</ele>
        <time>2013-04-28T05:09:40Z</time>
      </trkpt>
      <trkpt lat="47.73809" lon="3.59879">
        <ele>99.63</ele>
        <time>2013-04-28T05:09:45Z</time>
      </trkpt>
      <trkpt lat="47.73814" lon="3.5989">
        <ele>99.63</ele>
        <time>2013-04-28T05:09:52Z</time>
      </trkpt>
      <trkpt lat="47.73816" lon="3.59893">
        <ele>100.11</ele>
        <time>2013-04-28T05:09:54Z</time>
      </trkpt>
      <trkpt lat="47.73817" lon="3.59902">
        <ele>99.63</ele>
        <time>2013-04-28T05:09:58Z</time>
      </trkpt>
      <trkpt lat="47.73821" lon="3.59908">
        <ele>99.63</ele>
        <time>2013-04-28T05:10:03Z</time>
      </trkpt>
      <trkpt lat="47.73823" lon="3.59917">
        <ele>100.11</ele>
        <time>2013-04-28T05:10:07Z</time>
      </trkpt>
      <trkpt lat="47.73818" lon="3.59941">
        <ele>99.63</ele>
        <time>2013-04-28T05:10:15Z</time>
      </trkpt>
      <trkpt lat="47.73816" lon="3.5996">
        <ele>100.11</ele>
        <time>2013-04-28T05:10:23Z</time>
      </trkpt>
      <trkpt lat="47.73821" lon="3.59971">
        <ele>100.11</ele>
        <time>2013-04-28T05:10:30Z</time>
      </trkpt>
      <trkpt lat="47.73824" lon="3.5999">
        <ele>100.6</ele>
        <time>2013-04-28T05:10:38Z</time>
      </trkpt>
      <trkpt lat="47.73823" lon="3.59998">
        <ele>101.08</ele>
        <time>2013-04-28T05:10:41Z</time>
      </trkpt>
      <trkpt lat="47.73828" lon="3.60017">
        <ele>101.08</ele>
        <time>2013-04-28T05:10:50Z</time>
      </trkpt>
      <trkpt lat="47.73831" lon="3.60024">
        <ele>101.08</ele>
        <time>2013-04-28T05:10:54Z</time>
      </trkpt>
      <trkpt lat="47.73832" lon="3.60039">
        <ele>101.08</ele>
        <time>2013-04-28T05:10:59Z</time>
      </trkpt>
      <trkpt lat="47.73833" lon="3.60062">
        <ele>101.08</ele>
        <time>2013-04-28T05:11:08Z</time>
      </trkpt>
      <trkpt lat="47.73833" lon="3.60065">
        <ele>101.08</ele>
        <time>2013-04-28T05:11:09Z</time>
      </trkpt>
      <trkpt lat="47.73839" lon="3.60078">
        <ele>101.08</ele>
        <time>2013-04-28T05:11:17Z</time>
      </trkpt>
      <trkpt lat="47.73848" lon="3.60091">
        <ele>101.08</ele>
        <time>2013-04-28T05:11:26Z</time>
      </trkpt>
      <trkpt lat="47.73849" lon="3.60096">
        <ele>101.08</ele>
        <time>2013-04-28T05:11:28Z</time>
      </trkpt>
      <trkpt lat="47.73854" lon="3.60119">
        <ele>101.08</ele>
        <time>2013-04-28T05:11:37Z</time>
      </trkpt>
      <trkpt lat="47.73857" lon="3.60131">
        <ele>101.08</ele>
        <time>2013-04-28T05:11:42Z</time>
      </trkpt>
      <trkpt lat="47.73857" lon="3.60135">
        <ele>101.56</ele>
        <time>2013-04-28T05:11:44Z</time>
      </trkpt>
      <trkpt lat="47.73858" lon="3.60146">
        <ele>101.56</ele>
        <time>2013-04-28T05:11:48Z</time>
      </trkpt>
      <trkpt lat="47.73861" lon="3.60153">
        <ele>101.56</ele>
        <time>2013-04-28T05:11:52Z</time>
      </trkpt>
      <trkpt lat="47.73869" lon="3.60169">
        <ele>101.56</ele>
        <time>2013-04-28T05:12:01Z</time>
      </trkpt>
      <trkpt lat="47.73875" lon="3.60186">
        <ele>102.04</ele>
        <time>2013-04-28T05:12:10Z</time>
      </trkpt>
      <trkpt lat="47.73876" lon="3.60193">
        <ele>101.56</ele>
        <time>2013-04-28T05:12:13Z</time>
      </trkpt>
      <trkpt lat="47.73881" lon="3.60218">
        <ele>101.56</ele>
        <time>2013-04-28T05:12:23Z</time>
      </trkpt>
      <trkpt lat="47.73884" lon="3.60229">
        <ele>102.04</ele>
        <time>2013-04-28T05:12:29Z</time>
      </trkpt>
      <trkpt lat="47.73887" lon="3.60233">
        <ele>102.52</ele>
        <time>2013-04-28T05:12:31Z</time>
      </trkpt>
      <trkpt lat="47.7389" lon="3.60241">
        <ele>102.52</ele>
        <time>2013-04-28T05:12:35Z</time>
      </trkpt>
      <trkpt lat="47.73894" lon="3.6025">
        <ele>102.52</ele>
        <time>2013-04-28T05:12:41Z</time>
      </trkpt>
      <trkpt lat="47.73898" lon="3.60257">
        <ele>103</ele>
        <time>2013-04-28T05:12:45Z</time>
      </trkpt>
      <trkpt lat="47.73903" lon="3.60283">
        <ele>103.48</ele>
        <time>2013-04-28T05:12:56Z</time>
      </trkpt>
      <trkpt lat="47.73908" lon="3.60294">
        <ele>103.48</ele>
        <time>2013-04-28T05:13:03Z</time>
      </trkpt>
      <trkpt lat="47.73917" lon="3.60307">
        <ele>104.44</ele>
        <time>2013-04-28T05:13:11Z</time>
      </trkpt>
      <trkpt lat="47.73923" lon="3.60321">
        <ele>104.44</ele>
        <time>2013-04-28T05:13:18Z</time>
      </trkpt>
      <trkpt lat="47.7393" lon="3.60332">
        <ele>104.44</ele>
        <time>2013-04-28T05:13:25Z</time>
      </trkpt>
      <trkpt lat="47.73934" lon="3.6034">
        <ele>103.96</ele>
        <time>2013-04-28T05:13:29Z</time>
      </trkpt>
      <trkpt lat="47.73938" lon="3.60346">
        <ele>104.44</ele>
        <time>2013-04-28T05:13:33Z</time>
      </trkpt>
      <trkpt lat="47.73941" lon="3.60354">
        <ele>103.96</ele>
        <time>2013-04-28T05:13:37Z</time>
      </trkpt>
      <trkpt lat="47.73944" lon="3.60366">
        <ele>103.48</ele>
        <time>2013-04-28T05:13:43Z</time>
      </trkpt>
      <trkpt lat="47.73947" lon="3.60378">
        <ele>103.96</ele>
        <time>2013-04-28T05:13:48Z</time>
      </trkpt>
      <trkpt lat="47.73951" lon="3.60397">
        <ele>103.48</ele>
        <time>2013-04-28T05:13:57Z</time>
      </trkpt>
      <trkpt lat="47.73952" lon="3.60408">
        <ele>103.96</ele>
        <time>2013-04-28T05:14:01Z</time>
      </trkpt>
      <trkpt lat="47.73955" lon="3.60417">
        <ele>103.48</ele>
        <time>2013-04-28T05:14:05Z</time>
      </trkpt>
      <trkpt lat="47.73958" lon="3.60429">
        <ele>103.48</ele>
        <time>2013-04-28T05:14:11Z</time>
      </trkpt>
      <trkpt lat="47.73965" lon="3.60447">
        <ele>103.48</ele>
        <time>2013-04-28T05:14:20Z</time>
      </trkpt>
      <trkpt lat="47.73966" lon="3.60455">
        <ele>103.48</ele>
        <time>2013-04-28T05:14:24Z</time>
      </trkpt>
      <trkpt lat="47.73967" lon="3.60478">
        <ele>103.96</ele>
        <time>2013-04-28T05:14:33Z</time>
      </trkpt>
      <trkpt lat="47.73964" lon="3.60482">
        <ele>103.96</ele>
        <time>2013-04-28T05:14:36Z</time>
      </trkpt>
      <trkpt lat="47.73952" lon="3.60486">
        <ele>103.96</ele>
        <time>2013-04-28T05:14:45Z</time>
      </trkpt>
      <trkpt lat="47.73941" lon="3.60492">
        <ele>104.44</ele>
        <time>2013-04-28T05:14:53Z</time>
      </trkpt>
      <trkpt lat="47.73938" lon="3.60493">
        <ele>103.96</ele>
        <time>2013-04-28T05:14:55Z</time>
      </trkpt>
      <trkpt lat="47.7393" lon="3.60494">
        <ele>104.44</ele>
        <time>2013-04-28T05:15:01Z</time>
      </trkpt>
      <trkpt lat="47.73915" lon="3.60502">
        <ele>104.44</ele>
        <time>2013-04-28T05:15:12Z</time>
      </trkpt>
      <trkpt lat="47.73914" lon="3.60503">
        <ele>104.92</ele>
        <time>2013-04-28T05:15:13Z</time>
      </trkpt>
      <trkpt lat="47.73906" lon="3.60507">
        <ele>104.44</ele>
        <time>2013-04-28T05:15:19Z</time>
      </trkpt>
      <trkpt lat="47.73903" lon="3.6051">
        <ele>104.92</ele>
        <time>2013-04-28T05:15:22Z</time>
      </trkpt>
      <trkpt lat="47.73891" lon="3.60515">
        <ele>104.92</ele>
        <time>2013-04-28T05:15:31Z</time>
      </trkpt>
      <trkpt lat="47.73887" lon="3.60516">
        <ele>104.44</ele>
        <time>2013-04-28T05:15:34Z</time>
      </trkpt>
      <trkpt lat="47.73886" lon="3.60518">
        <ele>104.92</ele>
        <time>2013-04-28T05:15:36Z</time>
      </trkpt>
      <trkpt lat="47.73882" lon="3.6052">
        <ele>104.92</ele>
        <time>2013-04-28T05:15:38Z</time>
      </trkpt>
      <trkpt lat="47.73872" lon="3.60525">
        <ele>104.92</ele>
        <time>2013-04-28T05:15:45Z</time>
      </trkpt>
      <trkpt lat="47.7387" lon="3.60527">
        <ele>104.92</ele>
        <time>2013-04-28T05:15:47Z</time>
      </trkpt>
      <trkpt lat="47.73864" lon="3.60533">
        <ele>105.4</ele>
        <time>2013-04-28T05:15:52Z</time>
      </trkpt>
      <trkpt lat="47.73856" lon="3.60533">
        <ele>105.4</ele>
        <time>2013-04-28T05:15:57Z</time>
      </trkpt>
      <trkpt lat="47.73852" lon="3.60534">
        <ele>105.4</ele>
        <time>2013-04-28T05:16:00Z</time>
      </trkpt>
      <trkpt lat="47.7385" lon="3.60539">
        <ele>105.4</ele>
        <time>2013-04-28T05:16:03Z</time>
      </trkpt>
      <trkpt lat="47.7385" lon="3.60549">
        <ele>105.4</ele>
        <time>2013-04-28T05:16:07Z</time>
      </trkpt>
      <trkpt lat="47.7385" lon="3.60557">
        <ele>105.4</ele>
        <time>2013-04-28T05:16:10Z</time>
      </trkpt>
      <trkpt lat="47.73854" lon="3.60577">
        <ele>105.4</ele>
        <time>2013-04-28T05:16:19Z</time>
      </trkpt>
      <trkpt lat="47.73854" lon="3.60584">
        <ele>105.88</ele>
        <time>2013-04-28T05:16:22Z</time>
      </trkpt>
      <trkpt lat="47.73846" lon="3.60597">
        <ele>106.36</ele>
        <time>2013-04-28T05:16:32Z</time>
      </trkpt>
      <trkpt lat="47.73845" lon="3.60597">
        <ele>106.36</ele>
        <time>2013-04-28T05:16:33Z</time>
      </trkpt>
      <trkpt lat="47.73833" lon="3.60603">
        <ele>106.84</ele>
        <time>2013-04-28T05:16:43Z</time>
      </trkpt>
      <trkpt lat="47.73829" lon="3.60605">
        <ele>106.36</ele>
        <time>2013-04-28T05:16:46Z</time>
      </trkpt>
      <trkpt lat="47.73818" lon="3.60608">
        <ele>106.36</ele>
        <time>2013-04-28T05:16:54Z</time>
      </trkpt>
      <trkpt lat="47.73809" lon="3.60603">
        <ele>106.84</ele>
        <time>2013-04-28T05:17:00Z</time>
      </trkpt>
      <trkpt lat="47.73801" lon="3.60605">
        <ele>106.84</ele>
        <time>2013-04-28T05:17:06Z</time>
      </trkpt>
      <trkpt lat="47.73789" lon="3.60603">
        <ele>106.36</ele>
        <time>2013-04-28T05:17:14Z</time>
      </trkpt>
      <trkpt lat="47.73782" lon="3.60604">
        <ele>106.36</ele>
        <time>2013-04-28T05:17:18Z</time>
      </trkpt>
      <trkpt lat="47.73769" lon="3.60605">
        <ele>106.84</ele>
        <time>2013-04-28T05:17:26Z</time>
      </trkpt>
      <trkpt lat="47.73754" lon="3.60606">
        <ele>106.36</ele>
        <time>2013-04-28T05:17:36Z</time>
      </trkpt>
      <trkpt lat="47.73745" lon="3.60608">
        <ele>106.36</ele>
        <time>2013-04-28T05:17:42Z</time>
      </trkpt>
      <trkpt lat="47.73742" lon="3.60611">
        <ele>106.84</ele>
        <time>2013-04-28T05:17:45Z</time>
      </trkpt>
      <trkpt lat="47.73741" lon="3.60617">
        <ele>106.84</ele>
        <time>2013-04-28T05:17:49Z</time>
      </trkpt>
      <trkpt lat="47.73742" lon="3.60631">
        <ele>106.84</ele>
        <time>2013-04-28T05:17:57Z</time>
      </trkpt>
      <trkpt lat="47.73745" lon="3.60642">
        <ele>106.84</ele>
        <time>2013-04-28T05:18:04Z</time>
      </trkpt>
      <trkpt lat="47.73748" lon="3.60652">
        <ele>107.81</ele>
        <time>2013-04-28T05:18:10Z</time>
      </trkpt>
      <trkpt lat="47.73746" lon="3.60676">
        <ele>107.81</ele>
        <time>2013-04-28T05:18:18Z</time>
      </trkpt>
      <trkpt lat="47.73747" lon="3.60702">
        <ele>108.29</ele>
        <time>2013-04-28T05:18:27Z</time>
      </trkpt>
      <trkpt lat="47.73752" lon="3.60725">
        <ele>109.25</ele>
        <time>2013-04-28T05:18:37Z</time>
      </trkpt>
      <trkpt lat="47.73753" lon="3.60735">
        <ele>109.73</ele>
        <time>2013-04-28T05:18:41Z</time>
      </trkpt>
      <trkpt lat="47.73754" lon="3.60743">
        <ele>110.21</ele>
        <time>2013-04-28T05:18:46Z</time>
      </trkpt>
      <trkpt lat="47.73753" lon="3.6075">
        <ele>110.69</ele>
        <time>2013-04-28T05:18:49Z</time>
      </trkpt>
      <trkpt lat="47.73753" lon="3.60755">
        <ele>111.17</ele>
        <time>2013-04-28T05:18:51Z</time>
      </trkpt>
      <trkpt lat="47.73753" lon="3.60777">
        <ele>112.13</ele>
        <time>2013-04-28T05:19:00Z</time>
      </trkpt>
      <trkpt lat="47.73751" lon="3.608">
        <ele>113.57</ele>
        <time>2013-04-28T05:19:11Z</time>
      </trkpt>
      <trkpt lat="47.7375" lon="3.60806">
        <ele>113.09</ele>
        <time>2013-04-28T05:19:13Z</time>
      </trkpt>
      <trkpt lat="47.73748" lon="3.60835">
        <ele>114.53</ele>
        <time>2013-04-28T05:19:25Z</time>
      </trkpt>
      <trkpt lat="47.73749" lon="3.60846">
        <ele>115.98</ele>
        <time>2013-04-28T05:19:31Z</time>
      </trkpt>
      <trkpt lat="47.73749" lon="3.60869">
        <ele>116.94</ele>
        <time>2013-04-28T05:19:41Z</time>
      </trkpt>
      <trkpt lat="47.73748" lon="3.60882">
        <ele>117.9</ele>
        <time>2013-04-28T05:19:47Z</time>
      </trkpt>
      <trkpt lat="47.73747" lon="3.60889">
        <ele>117.9</ele>
        <time>2013-04-28T05:19:50Z</time>
      </trkpt>
      <trkpt lat="47.73747" lon="3.60902">
        <ele>119.34</ele>
        <time>2013-04-28T05:19:57Z</time>
      </trkpt>
      <trkpt lat="47.73748" lon="3.60923">
        <ele>121.26</ele>
        <time>2013-04-28T05:20:07Z</time>
      </trkpt>
      <trkpt lat="47.73748" lon="3.60928">
        <ele>121.74</ele>
        <time>2013-04-28T05:20:10Z</time>
      </trkpt>
      <trkpt lat="47.73746" lon="3.60936">
        <ele>122.22</ele>
        <time>2013-04-28T05:20:14Z</time>
      </trkpt>
      <trkpt lat="47.73746" lon="3.60946">
        <ele>122.71</ele>
        <time>2013-04-28T05:20:19Z</time>
      </trkpt>
      <trkpt lat="47.73742" lon="3.60965">
        <ele>124.15</ele>
        <time>2013-04-28T05:20:28Z</time>
      </trkpt>
      <trkpt lat="47.73742" lon="3.60983">
        <ele>125.11</ele>
        <time>2013-04-28T05:20:36Z</time>
      </trkpt>
      <trkpt lat="47.73742" lon="3.60989">
        <ele>125.59</ele>
        <time>2013-04-28T05:20:39Z</time>
      </trkpt>
      <trkpt lat="47.73742" lon="3.60997">
        <ele>126.07</ele>
        <time>2013-04-28T05:20:43Z</time>
      </trkpt>
      <trkpt lat="47.73742" lon="3.61012">
        <ele>127.03</ele>
        <time>2013-04-28T05:20:50Z</time>
      </trkpt>
      <trkpt lat="47.73739" lon="3.61027">
        <ele>128.95</ele>
        <time>2013-04-28T05:20:58Z</time>
      </trkpt>
      <trkpt lat="47.7374" lon="3.61046">
        <ele>130.4</ele>
        <time>2013-04-28T05:21:08Z</time>
      </trkpt>
      <trkpt lat="47.73737" lon="3.61055">
        <ele>130.88</ele>
        <time>2013-04-28T05:21:12Z</time>
      </trkpt>
      <trkpt lat="47.73734" lon="3.61081">
        <ele>133.28</ele>
        <time>2013-04-28T05:21:24Z</time>
      </trkpt>
      <trkpt lat="47.73732" lon="3.61095">
        <ele>133.76</ele>
        <time>2013-04-28T05:21:31Z</time>
      </trkpt>
      <trkpt lat="47.73732" lon="3.61113">
        <ele>135.68</ele>
        <time>2013-04-28T05:21:40Z</time>
      </trkpt>
      <trkpt lat="47.73731" lon="3.61117">
        <ele>135.68</ele>
        <time>2013-04-28T05:21:42Z</time>
      </trkpt>
      <trkpt lat="47.73731" lon="3.61119">
        <ele>136.16</ele>
        <time>2013-04-28T05:21:44Z</time>
      </trkpt>
      <trkpt lat="47.73729" lon="3.61122">
        <ele>136.64</ele>
        <time>2013-04-28T05:21:47Z</time>
      </trkpt>
      <trkpt lat="47.73715" lon="3.61127">
        <ele>138.09</ele>
        <time>2013-04-28T05:21:58Z</time>
      </trkpt>
      <trkpt lat="47.73701" lon="3.61125">
        <ele>138.09</ele>
        <time>2013-04-28T05:22:08Z</time>
      </trkpt>
      <trkpt lat="47.73692" lon="3.61131">
        <ele>139.05</ele>
        <time>2013-04-28T05:22:16Z</time>
      </trkpt>
      <trkpt lat="47.73689" lon="3.61149">
        <ele>140.01</ele>
        <time>2013-04-28T05:22:25Z</time>
      </trkpt>
      <trkpt lat="47.73688" lon="3.61168">
        <ele>142.41</ele>
        <time>2013-04-28T05:22:35Z</time>
      </trkpt>
      <trkpt lat="47.73688" lon="3.61173">
        <ele>142.41</ele>
        <time>2013-04-28T05:22:38Z</time>
      </trkpt>
      <trkpt lat="47.73687" lon="3.61179">
        <ele>143.37</ele>
        <time>2013-04-28T05:22:42Z</time>
      </trkpt>
      <trkpt lat="47.73684" lon="3.61198">
        <ele>144.82</ele>
        <time>2013-04-28T05:22:52Z</time>
      </trkpt>
      <trkpt lat="47.73683" lon="3.61216">
        <ele>146.74</ele>
        <time>2013-04-28T05:23:02Z</time>
      </trkpt>
      <trkpt lat="47.73682" lon="3.61229">
        <ele>148.66</ele>
        <time>2013-04-28T05:23:11Z</time>
      </trkpt>
      <trkpt lat="47.7368" lon="3.6124">
        <ele>150.1</ele>
        <time>2013-04-28T05:23:18Z</time>
      </trkpt>
      <trkpt lat="47.7368" lon="3.61242">
        <ele>150.58</ele>
        <time>2013-04-28T05:23:20Z</time>
      </trkpt>
      <trkpt lat="47.73678" lon="3.61262">
        <ele>152.99</ele>
        <time>2013-04-28T05:23:32Z</time>
      </trkpt>
      <trkpt lat="47.73677" lon="3.6128">
        <ele>155.87</ele>
        <time>2013-04-28T05:23:44Z</time>
      </trkpt>
      <trkpt lat="47.73674" lon="3.61297">
        <ele>158.75</ele>
        <time>2013-04-28T05:23:57Z</time>
      </trkpt>
      <trkpt lat="47.73673" lon="3.61312">
        <ele>160.2</ele>
        <time>2013-04-28T05:24:06Z</time>
      </trkpt>
      <trkpt lat="47.73672" lon="3.61327">
        <ele>161.64</ele>
        <time>2013-04-28T05:24:16Z</time>
      </trkpt>
      <trkpt lat="47.73669" lon="3.6134">
        <ele>164.04</ele>
        <time>2013-04-28T05:24:25Z</time>
      </trkpt>
      <trkpt lat="47.73667" lon="3.61356">
        <ele>165.48</ele>
        <time>2013-04-28T05:24:34Z</time>
      </trkpt>
      <trkpt lat="47.73666" lon="3.61364">
        <ele>165.96</ele>
        <time>2013-04-28T05:24:38Z</time>
      </trkpt>
      <trkpt lat="47.73664" lon="3.61382">
        <ele>168.85</ele>
        <time>2013-04-28T05:24:49Z</time>
      </trkpt>
      <trkpt lat="47.73664" lon="3.61384">
        <ele>169.33</ele>
        <time>2013-04-28T05:24:51Z</time>
      </trkpt>
      <trkpt lat="47.73666" lon="3.61389">
        <ele>169.81</ele>
        <time>2013-04-28T05:24:55Z</time>
      </trkpt>
      <trkpt lat="47.73669" lon="3.614">
        <ele>170.77</ele>
        <time>2013-04-28T05:25:03Z</time>
      </trkpt>
      <trkpt lat="47.7368" lon="3.61412">
        <ele>172.21</ele>
        <time>2013-04-28T05:25:15Z</time>
      </trkpt>
      <trkpt lat="47.73692" lon="3.61426">
        <ele>173.66</ele>
        <time>2013-04-28T05:25:26Z</time>
      </trkpt>
      <trkpt lat="47.73697" lon="3.61434">
        <ele>174.14</ele>
        <time>2013-04-28T05:25:32Z</time>
      </trkpt>
      <trkpt lat="47.737" lon="3.61438">
        <ele>174.62</ele>
        <time>2013-04-28T05:25:36Z</time>
      </trkpt>
      <trkpt lat="47.73708" lon="3.61449">
        <ele>177.5</ele>
        <time>2013-04-28T05:25:47Z</time>
      </trkpt>
      <trkpt lat="47.73708" lon="3.61451">
        <ele>177.02</ele>
        <time>2013-04-28T05:25:52Z</time>
      </trkpt>
      <trkpt lat="47.73719" lon="3.61463">
        <ele>177.02</ele>
        <time>2013-04-28T05:26:03Z</time>
      </trkpt>
      <trkpt lat="47.73733" lon="3.61473">
        <ele>177.02</ele>
        <time>2013-04-28T05:26:14Z</time>
      </trkpt>
      <trkpt lat="47.73745" lon="3.61485">
        <ele>176.54</ele>
        <time>2013-04-28T05:26:24Z</time>
      </trkpt>
      <trkpt lat="47.73759" lon="3.61496">
        <ele>175.58</ele>
        <time>2013-04-28T05:26:34Z</time>
      </trkpt>
      <trkpt lat="47.73772" lon="3.6151">
        <ele>175.1</ele>
        <time>2013-04-28T05:26:45Z</time>
      </trkpt>
      <trkpt lat="47.73784" lon="3.61526">
        <ele>175.1</ele>
        <time>2013-04-28T05:26:55Z</time>
      </trkpt>
      <trkpt lat="47.73797" lon="3.61543">
        <ele>175.1</ele>
        <time>2013-04-28T05:27:06Z</time>
      </trkpt>
      <trkpt lat="47.73809" lon="3.61558">
        <ele>175.1</ele>
        <time>2013-04-28T05:27:17Z</time>
      </trkpt>
      <trkpt lat="47.73819" lon="3.6157">
        <ele>175.1</ele>
        <time>2013-04-28T05:27:25Z</time>
      </trkpt>
      <trkpt lat="47.73832" lon="3.61591">
        <ele>173.66</ele>
        <time>2013-04-28T05:27:38Z</time>
      </trkpt>
      <trkpt lat="47.73835" lon="3.61598">
        <ele>173.66</ele>
        <time>2013-04-28T05:27:42Z</time>
      </trkpt>
      <trkpt lat="47.73838" lon="3.61603">
        <ele>173.66</ele>
        <time>2013-04-28T05:27:45Z</time>
      </trkpt>
      <trkpt lat="47.73841" lon="3.61606">
        <ele>173.66</ele>
        <time>2013-04-28T05:27:48Z</time>
      </trkpt>
      <trkpt lat="47.73844" lon="3.61616">
        <ele>173.66</ele>
        <time>2013-04-28T05:27:52Z</time>
      </trkpt>
      <trkpt lat="47.73849" lon="3.61628">
        <ele>174.14</ele>
        <time>2013-04-28T05:27:58Z</time>
      </trkpt>
      <trkpt lat="47.73853" lon="3.61636">
        <ele>173.66</ele>
        <time>2013-04-28T05:28:03Z</time>
      </trkpt>
      <trkpt lat="47.73858" lon="3.61645">
        <ele>174.14</ele>
        <time>2013-04-28T05:28:09Z</time>
      </trkpt>
      <trkpt lat="47.7386" lon="3.61651">
        <ele>174.14</ele>
        <time>2013-04-28T05:28:12Z</time>
      </trkpt>
      <trkpt lat="47.73865" lon="3.61666">
        <ele>175.1</ele>
        <time>2013-04-28T05:28:19Z</time>
      </trkpt>
      <trkpt lat="47.73867" lon="3.61671">
        <ele>174.62</ele>
        <time>2013-04-28T05:28:21Z</time>
      </trkpt>
      <trkpt lat="47.73872" lon="3.6169">
        <ele>174.62</ele>
        <time>2013-04-28T05:28:29Z</time>
      </trkpt>
      <trkpt lat="47.7388" lon="3.6171">
        <ele>174.14</ele>
        <time>2013-04-28T05:28:40Z</time>
      </trkpt>
      <trkpt lat="47.73882" lon="3.61716">
        <ele>174.62</ele>
        <time>2013-04-28T05:28:43Z</time>
      </trkpt>
      <trkpt lat="47.7388" lon="3.61733">
        <ele>175.58</ele>
        <time>2013-04-28T05:28:51Z</time>
      </trkpt>
      <trkpt lat="47.73879" lon="3.61735">
        <ele>175.58</ele>
        <time>2013-04-28T05:28:53Z</time>
      </trkpt>
      <trkpt lat="47.73867" lon="3.61745">
        <ele>177.98</ele>
        <time>2013-04-28T05:29:03Z</time>
      </trkpt>
      <trkpt lat="47.73854" lon="3.61754">
        <ele>178.46</ele>
        <time>2013-04-28T05:29:13Z</time>
      </trkpt>
      <trkpt lat="47.73845" lon="3.61768">
        <ele>179.42</ele>
        <time>2013-04-28T05:29:22Z</time>
      </trkpt>
      <trkpt lat="47.73841" lon="3.61775">
        <ele>179.9</ele>
        <time>2013-04-28T05:29:26Z</time>
      </trkpt>
      <trkpt lat="47.7383" lon="3.61788">
        <ele>180.38</ele>
        <time>2013-04-28T05:29:35Z</time>
      </trkpt>
      <trkpt lat="47.73826" lon="3.61792">
        <ele>180.38</ele>
        <time>2013-04-28T05:29:39Z</time>
      </trkpt>
      <trkpt lat="47.73812" lon="3.61804">
        <ele>180.87</ele>
        <time>2013-04-28T05:29:49Z</time>
      </trkpt>
      <trkpt lat="47.73805" lon="3.61815">
        <ele>181.35</ele>
        <time>2013-04-28T05:29:57Z</time>
      </trkpt>
      <trkpt lat="47.73796" lon="3.61833">
        <ele>181.83</ele>
        <time>2013-04-28T05:30:06Z</time>
      </trkpt>
      <trkpt lat="47.73795" lon="3.61835">
        <ele>181.83</ele>
        <time>2013-04-28T05:30:07Z</time>
      </trkpt>
      <trkpt lat="47.73786" lon="3.61855">
        <ele>181.83</ele>
        <time>2013-04-28T05:30:19Z</time>
      </trkpt>
      <trkpt lat="47.7378" lon="3.61872">
        <ele>182.31</ele>
        <time>2013-04-28T05:30:28Z</time>
      </trkpt>
      <trkpt lat="47.7378" lon="3.61874">
        <ele>182.31</ele>
        <time>2013-04-28T05:30:29Z</time>
      </trkpt>
      <trkpt lat="47.73779" lon="3.61877">
        <ele>182.31</ele>
        <time>2013-04-28T05:30:31Z</time>
      </trkpt>
      <trkpt lat="47.73778" lon="3.61882">
        <ele>182.31</ele>
        <time>2013-04-28T05:30:34Z</time>
      </trkpt>
      <trkpt lat="47.73772" lon="3.61893">
        <ele>182.31</ele>
        <time>2013-04-28T05:30:40Z</time>
      </trkpt>
      <trkpt lat="47.73763" lon="3.61904">
        <ele>182.31</ele>
        <time>2013-04-28T05:30:48Z</time>
      </trkpt>
      <trkpt lat="47.73754" lon="3.61906">
        <ele>182.31</ele>
        <time>2013-04-28T05:30:54Z</time>
      </trkpt>
      <trkpt lat="47.73739" lon="3.61903">
        <ele>182.79</ele>
        <time>2013-04-28T05:31:04Z</time>
      </trkpt>
      <trkpt lat="47.73735" lon="3.61901">
        <ele>182.31</ele>
        <time>2013-04-28T05:31:07Z</time>
      </trkpt>
      <trkpt lat="47.73728" lon="3.61897">
        <ele>182.79</ele>
        <time>2013-04-28T05:31:12Z</time>
      </trkpt>
      <trkpt lat="47.73714" lon="3.61889">
        <ele>183.27</ele>
        <time>2013-04-28T05:31:22Z</time>
      </trkpt>
      <trkpt lat="47.73702" lon="3.6188">
        <ele>183.27</ele>
        <time>2013-04-28T05:31:31Z</time>
      </trkpt>
      <trkpt lat="47.7369" lon="3.61875">
        <ele>183.75</ele>
        <time>2013-04-28T05:31:40Z</time>
      </trkpt>
      <trkpt lat="47.73688" lon="3.61873">
        <ele>184.23</ele>
        <time>2013-04-28T05:31:42Z</time>
      </trkpt>
      <trkpt lat="47.7368" lon="3.61866">
        <ele>184.71</ele>
        <time>2013-04-28T05:31:48Z</time>
      </trkpt>
      <trkpt lat="47.73671" lon="3.61863">
        <ele>184.71</ele>
        <time>2013-04-28T05:31:53Z</time>
      </trkpt>
      <trkpt lat="47.73659" lon="3.61855">
        <ele>185.19</ele>
        <time>2013-04-28T05:32:02Z</time>
      </trkpt>
      <trkpt lat="47.73655" lon="3.61851">
        <ele>185.19</ele>
        <time>2013-04-28T05:32:06Z</time>
      </trkpt>
      <trkpt lat="47.73649" lon="3.61849">
        <ele>185.67</ele>
        <time>2013-04-28T05:32:10Z</time>
      </trkpt>
      <trkpt lat="47.73635" lon="3.61843">
        <ele>186.15</ele>
        <time>2013-04-28T05:32:20Z</time>
      </trkpt>
      <trkpt lat="47.73626" lon="3.61839">
        <ele>186.15</ele>
        <time>2013-04-28T05:32:25Z</time>
      </trkpt>
      <trkpt lat="47.73612" lon="3.61832">
        <ele>186.63</ele>
        <time>2013-04-28T05:32:35Z</time>
      </trkpt>
      <trkpt lat="47.7361" lon="3.6183">
        <ele>186.63</ele>
        <time>2013-04-28T05:32:37Z</time>
      </trkpt>
      <trkpt lat="47.73594" lon="3.61823">
        <ele>187.11</ele>
        <time>2013-04-28T05:32:47Z</time>
      </trkpt>
      <trkpt lat="47.73583" lon="3.61819">
        <ele>187.11</ele>
        <time>2013-04-28T05:32:55Z</time>
      </trkpt>
      <trkpt lat="47.73578" lon="3.61817">
        <ele>187.11</ele>
        <time>2013-04-28T05:32:59Z</time>
      </trkpt>
      <trkpt lat="47.7356" lon="3.61811">
        <ele>187.11</ele>
        <time>2013-04-28T05:33:11Z</time>
      </trkpt>
      <trkpt lat="47.73555" lon="3.61809">
        <ele>187.11</ele>
        <time>2013-04-28T05:33:14Z</time>
      </trkpt>
      <trkpt lat="47.73551" lon="3.61809">
        <ele>187.11</ele>
        <time>2013-04-28T05:33:17Z</time>
      </trkpt>
      <trkpt lat="47.73544" lon="3.61809">
        <ele>187.11</ele>
        <time>2013-04-28T05:33:22Z</time>
      </trkpt>
      <trkpt lat="47.73528" lon="3.61815">
        <ele>187.11</ele>
        <time>2013-04-28T05:33:34Z</time>
      </trkpt>
      <trkpt lat="47.73527" lon="3.61816">
        <ele>187.11</ele>
        <time>2013-04-28T05:33:35Z</time>
      </trkpt>
      <trkpt lat="47.73524" lon="3.61823">
        <ele>186.15</ele>
        <time>2013-04-28T05:33:39Z</time>
      </trkpt>
      <trkpt lat="47.73522" lon="3.61832">
        <ele>185.67</ele>
        <time>2013-04-28T05:33:43Z</time>
      </trkpt>
      <trkpt lat="47.73513" lon="3.61863">
        <ele>184.23</ele>
        <time>2013-04-28T05:33:56Z</time>
      </trkpt>
      <trkpt lat="47.73509" lon="3.61881">
        <ele>183.75</ele>
        <time>2013-04-28T05:34:04Z</time>
      </trkpt>
      <trkpt lat="47.73506" lon="3.61894">
        <ele>183.75</ele>
        <time>2013-04-28T05:34:11Z</time>
      </trkpt>
      <trkpt lat="47.73499" lon="3.61912">
        <ele>183.75</ele>
        <time>2013-04-28T05:34:19Z</time>
      </trkpt>
      <trkpt lat="47.7349" lon="3.61938">
        <ele>182.79</ele>
        <time>2013-04-28T05:34:31Z</time>
      </trkpt>
      <trkpt lat="47.7349" lon="3.61944">
        <ele>182.79</ele>
        <time>2013-04-28T05:34:33Z</time>
      </trkpt>
      <trkpt lat="47.73491" lon="3.6196">
        <ele>182.79</ele>
        <time>2013-04-28T05:34:40Z</time>
      </trkpt>
      <trkpt lat="47.73493" lon="3.6197">
        <ele>182.31</ele>
        <time>2013-04-28T05:34:45Z</time>
      </trkpt>
      <trkpt lat="47.73493" lon="3.61978">
        <ele>182.31</ele>
        <time>2013-04-28T05:34:49Z</time>
      </trkpt>
      <trkpt lat="47.73491" lon="3.62003">
        <ele>181.83</ele>
        <time>2013-04-28T05:35:00Z</time>
      </trkpt>
      <trkpt lat="47.73485" lon="3.62025">
        <ele>181.35</ele>
        <time>2013-04-28T05:35:09Z</time>
      </trkpt>
      <trkpt lat="47.73481" lon="3.62045">
        <ele>180.87</ele>
        <time>2013-04-28T05:35:17Z</time>
      </trkpt>
      <trkpt lat="47.73478" lon="3.62067">
        <ele>180.87</ele>
        <time>2013-04-28T05:35:26Z</time>
      </trkpt>
      <trkpt lat="47.73476" lon="3.62085">
        <ele>180.87</ele>
        <time>2013-04-28T05:35:34Z</time>
      </trkpt>
      <trkpt lat="47.73469" lon="3.62106">
        <ele>180.87</ele>
        <time>2013-04-28T05:35:46Z</time>
      </trkpt>
      <trkpt lat="47.73469" lon="3.62108">
        <ele>180.38</ele>
        <time>2013-04-28T05:35:49Z</time>
      </trkpt>
      <trkpt lat="47.73466" lon="3.62114">
        <ele>180.87</ele>
        <time>2013-04-28T05:35:53Z</time>
      </trkpt>
      <trkpt lat="47.7346" lon="3.62137">
        <ele>180.87</ele>
        <time>2013-04-28T05:36:05Z</time>
      </trkpt>
      <trkpt lat="47.73459" lon="3.62154">
        <ele>181.83</ele>
        <time>2013-04-28T05:36:13Z</time>
      </trkpt>
      <trkpt lat="47.73461" lon="3.6216">
        <ele>181.83</ele>
        <time>2013-04-28T05:36:16Z</time>
      </trkpt>
      <trkpt lat="47.73456" lon="3.62174">
        <ele>183.27</ele>
        <time>2013-04-28T05:36:25Z</time>
      </trkpt>
      <trkpt lat="47.73451" lon="3.62178">
        <ele>183.75</ele>
        <time>2013-04-28T05:36:29Z</time>
      </trkpt>
      <trkpt lat="47.73444" lon="3.62192">
        <ele>184.71</ele>
        <time>2013-04-28T05:36:38Z</time>
      </trkpt>
      <trkpt lat="47.73434" lon="3.62206">
        <ele>186.15</ele>
        <time>2013-04-28T05:36:49Z</time>
      </trkpt>
      <trkpt lat="47.73427" lon="3.62216">
        <ele>187.59</ele>
        <time>2013-04-28T05:36:57Z</time>
      </trkpt>
      <trkpt lat="47.73424" lon="3.62219">
        <ele>187.11</ele>
        <time>2013-04-28T05:37:00Z</time>
      </trkpt>
      <trkpt lat="47.73419" lon="3.62228">
        <ele>188.56</ele>
        <time>2013-04-28T05:37:06Z</time>
      </trkpt>
      <trkpt lat="47.73414" lon="3.62234">
        <ele>189.04</ele>
        <time>2013-04-28T05:37:11Z</time>
      </trkpt>
      <trkpt lat="47.73404" lon="3.62246">
        <ele>190.48</ele>
        <time>2013-04-28T05:37:21Z</time>
      </trkpt>
      <trkpt lat="47.73394" lon="3.62259">
        <ele>191.44</ele>
        <time>2013-04-28T05:37:31Z</time>
      </trkpt>
      <trkpt lat="47.73383" lon="3.62276">
        <ele>193.36</ele>
        <time>2013-04-28T05:37:43Z</time>
      </trkpt>
      <trkpt lat="47.73371" lon="3.62292">
        <ele>196.25</ele>
        <time>2013-04-28T05:37:55Z</time>
      </trkpt>
      <trkpt lat="47.73357" lon="3.62307">
        <ele>198.65</ele>
        <time>2013-04-28T05:38:08Z</time>
      </trkpt>
      <trkpt lat="47.73349" lon="3.62317">
        <ele>199.61</ele>
        <time>2013-04-28T05:38:17Z</time>
      </trkpt>
      <trkpt lat="47.73344" lon="3.62324">
        <ele>201.05</ele>
        <time>2013-04-28T05:38:23Z</time>
      </trkpt>
      <trkpt lat="47.73337" lon="3.62329">
        <ele>202.01</ele>
        <time>2013-04-28T05:38:30Z</time>
      </trkpt>
      <trkpt lat="47.73324" lon="3.62322">
        <ele>203.46</ele>
        <time>2013-04-28T05:38:41Z</time>
      </trkpt>
      <trkpt lat="47.73314" lon="3.62304">
        <ele>203.46</ele>
        <time>2013-04-28T05:38:52Z</time>
      </trkpt>
      <trkpt lat="47.73304" lon="3.62289">
        <ele>203.46</ele>
        <time>2013-04-28T05:39:02Z</time>
      </trkpt>
      <trkpt lat="47.73292" lon="3.6227">
        <ele>203.94</ele>
        <time>2013-04-28T05:39:13Z</time>
      </trkpt>
      <trkpt lat="47.73281" lon="3.6225">
        <ele>203.94</ele>
        <time>2013-04-28T05:39:24Z</time>
      </trkpt>
      <trkpt lat="47.73271" lon="3.62229">
        <ele>203.94</ele>
        <time>2013-04-28T05:39:34Z</time>
      </trkpt>
      <trkpt lat="47.73263" lon="3.62216">
        <ele>203.94</ele>
        <time>2013-04-28T05:39:43Z</time>
      </trkpt>
      <trkpt lat="47.73255" lon="3.62202">
        <ele>204.9</ele>
        <time>2013-04-28T05:39:52Z</time>
      </trkpt>
      <trkpt lat="47.73248" lon="3.62185">
        <ele>204.42</ele>
        <time>2013-04-28T05:40:01Z</time>
      </trkpt>
      <trkpt lat="47.73241" lon="3.62172">
        <ele>204.9</ele>
        <time>2013-04-28T05:40:10Z</time>
      </trkpt>
      <trkpt lat="47.73229" lon="3.62153">
        <ele>204.9</ele>
        <time>2013-04-28T05:40:20Z</time>
      </trkpt>
      <trkpt lat="47.7322" lon="3.62138">
        <ele>204.9</ele>
        <time>2013-04-28T05:40:30Z</time>
      </trkpt>
      <trkpt lat="47.73207" lon="3.6212">
        <ele>205.86</ele>
        <time>2013-04-28T05:40:41Z</time>
      </trkpt>
      <trkpt lat="47.73194" lon="3.62108">
        <ele>206.34</ele>
        <time>2013-04-28T05:40:52Z</time>
      </trkpt>
      <trkpt lat="47.73183" lon="3.62093">
        <ele>206.82</ele>
        <time>2013-04-28T05:41:02Z</time>
      </trkpt>
      <trkpt lat="47.73172" lon="3.62081">
        <ele>207.3</ele>
        <time>2013-04-28T05:41:12Z</time>
      </trkpt>
      <trkpt lat="47.73162" lon="3.62069">
        <ele>207.78</ele>
        <time>2013-04-28T05:41:21Z</time>
      </trkpt>
      <trkpt lat="47.73151" lon="3.62053">
        <ele>207.78</ele>
        <time>2013-04-28T05:41:32Z</time>
      </trkpt>
      <trkpt lat="47.73149" lon="3.62052">
        <ele>207.78</ele>
        <time>2013-04-28T05:41:33Z</time>
      </trkpt>
      <trkpt lat="47.7314" lon="3.62041">
        <ele>207.78</ele>
        <time>2013-04-28T05:41:42Z</time>
      </trkpt>
      <trkpt lat="47.73129" lon="3.62028">
        <ele>207.78</ele>
        <time>2013-04-28T05:41:52Z</time>
      </trkpt>
      <trkpt lat="47.73127" lon="3.62025">
        <ele>207.78</ele>
        <time>2013-04-28T05:41:54Z</time>
      </trkpt>
      <trkpt lat="47.73115" lon="3.62014">
        <ele>207.78</ele>
        <time>2013-04-28T05:42:04Z</time>
      </trkpt>
      <trkpt lat="47.73099" lon="3.62007">
        <ele>208.26</ele>
        <time>2013-04-28T05:42:15Z</time>
      </trkpt>
      <trkpt lat="47.73097" lon="3.62006">
        <ele>207.78</ele>
        <time>2013-04-28T05:42:16Z</time>
      </trkpt>
      <trkpt lat="47.73084" lon="3.62018">
        <ele>208.26</ele>
        <time>2013-04-28T05:42:26Z</time>
      </trkpt>
      <trkpt lat="47.73074" lon="3.62036">
        <ele>208.26</ele>
        <time>2013-04-28T05:42:37Z</time>
      </trkpt>
      <trkpt lat="47.73063" lon="3.6205">
        <ele>208.74</ele>
        <time>2013-04-28T05:42:47Z</time>
      </trkpt>
      <trkpt lat="47.73052" lon="3.62067">
        <ele>209.22</ele>
        <time>2013-04-28T05:42:57Z</time>
      </trkpt>
      <trkpt lat="47.73042" lon="3.62085">
        <ele>209.22</ele>
        <time>2013-04-28T05:43:07Z</time>
      </trkpt>
      <trkpt lat="47.73036" lon="3.62103">
        <ele>209.7</ele>
        <time>2013-04-28T05:43:16Z</time>
      </trkpt>
      <trkpt lat="47.73032" lon="3.62124">
        <ele>210.67</ele>
        <time>2013-04-28T05:43:26Z</time>
      </trkpt>
      <trkpt lat="47.73032" lon="3.62146">
        <ele>211.63</ele>
        <time>2013-04-28T05:43:36Z</time>
      </trkpt>
      <trkpt lat="47.7303" lon="3.62166">
        <ele>211.63</ele>
        <time>2013-04-28T05:43:46Z</time>
      </trkpt>
      <trkpt lat="47.73029" lon="3.62186">
        <ele>213.07</ele>
        <time>2013-04-28T05:43:55Z</time>
      </trkpt>
      <trkpt lat="47.73029" lon="3.6221">
        <ele>213.55</ele>
        <time>2013-04-28T05:44:07Z</time>
      </trkpt>
      <trkpt lat="47.73029" lon="3.62219">
        <ele>214.03</ele>
        <time>2013-04-28T05:44:14Z</time>
      </trkpt>
      <trkpt lat="47.73027" lon="3.62231">
        <ele>214.03</ele>
        <time>2013-04-28T05:44:21Z</time>
      </trkpt>
      <trkpt lat="47.73025" lon="3.62253">
        <ele>214.99</ele>
        <time>2013-04-28T05:44:33Z</time>
      </trkpt>
      <trkpt lat="47.73025" lon="3.62275">
        <ele>214.99</ele>
        <time>2013-04-28T05:44:43Z</time>
      </trkpt>
      <trkpt lat="47.73023" lon="3.62293">
        <ele>214.99</ele>
        <time>2013-04-28T05:44:50Z</time>
      </trkpt>
      <trkpt lat="47.7302" lon="3.62315">
        <ele>215.47</ele>
        <time>2013-04-28T05:45:00Z</time>
      </trkpt>
      <trkpt lat="47.7302" lon="3.6234">
        <ele>215.95</ele>
        <time>2013-04-28T05:45:12Z</time>
      </trkpt>
      <trkpt lat="47.73018" lon="3.62358">
        <ele>215.95</ele>
        <time>2013-04-28T05:45:20Z</time>
      </trkpt>
      <trkpt lat="47.73017" lon="3.62384">
        <ele>216.43</ele>
        <time>2013-04-28T05:45:32Z</time>
      </trkpt>
      <trkpt lat="47.73018" lon="3.62404">
        <ele>217.4</ele>
        <time>2013-04-28T05:45:41Z</time>
      </trkpt>
      <trkpt lat="47.73019" lon="3.62407">
        <ele>216.91</ele>
        <time>2013-04-28T05:45:42Z</time>
      </trkpt>
      <trkpt lat="47.7302" lon="3.6242">
        <ele>217.4</ele>
        <time>2013-04-28T05:45:48Z</time>
      </trkpt>
      <trkpt lat="47.73023" lon="3.62437">
        <ele>217.88</ele>
        <time>2013-04-28T05:45:56Z</time>
      </trkpt>
      <trkpt lat="47.73023" lon="3.62449">
        <ele>218.36</ele>
        <time>2013-04-28T05:46:02Z</time>
      </trkpt>
      <trkpt lat="47.7303" lon="3.62474">
        <ele>217.88</ele>
        <time>2013-04-28T05:46:14Z</time>
      </trkpt>
      <trkpt lat="47.73032" lon="3.62497">
        <ele>217.88</ele>
        <time>2013-04-28T05:46:23Z</time>
      </trkpt>
      <trkpt lat="47.73032" lon="3.62523">
        <ele>216.91</ele>
        <time>2013-04-28T05:46:33Z</time>
      </trkpt>
      <trkpt lat="47.73033" lon="3.62528">
        <ele>216.91</ele>
        <time>2013-04-28T05:46:35Z</time>
      </trkpt>
      <trkpt lat="47.73035" lon="3.62537">
        <ele>216.91</ele>
        <time>2013-04-28T05:46:40Z</time>
      </trkpt>
      <trkpt lat="47.73036" lon="3.6254">
        <ele>216.43</ele>
        <time>2013-04-28T05:46:42Z</time>
      </trkpt>
      <trkpt lat="47.73036" lon="3.62555">
        <ele>215.47</ele>
        <time>2013-04-28T05:46:49Z</time>
      </trkpt>
      <trkpt lat="47.73029" lon="3.6258">
        <ele>214.03</ele>
        <time>2013-04-28T05:47:00Z</time>
      </trkpt>
      <trkpt lat="47.73024" lon="3.62603">
        <ele>212.59</ele>
        <time>2013-04-28T05:47:11Z</time>
      </trkpt>
      <trkpt lat="47.7302" lon="3.6262">
        <ele>211.63</ele>
        <time>2013-04-28T05:47:19Z</time>
      </trkpt>
      <trkpt lat="47.73015" lon="3.62636">
        <ele>210.67</ele>
        <time>2013-04-28T05:47:26Z</time>
      </trkpt>
      <trkpt lat="47.73009" lon="3.62656">
        <ele>209.7</ele>
        <time>2013-04-28T05:47:38Z</time>
      </trkpt>
      <trkpt lat="47.73008" lon="3.62658">
        <ele>210.19</ele>
        <time>2013-04-28T05:47:39Z</time>
      </trkpt>
      <trkpt lat="47.73004" lon="3.62669">
        <ele>209.22</ele>
        <time>2013-04-28T05:47:44Z</time>
      </trkpt>
      <trkpt lat="47.72997" lon="3.62702">
        <ele>208.26</ele>
        <time>2013-04-28T05:47:58Z</time>
      </trkpt>
      <trkpt lat="47.72992" lon="3.62719">
        <ele>207.78</ele>
        <time>2013-04-28T05:48:05Z</time>
      </trkpt>
      <trkpt lat="47.72992" lon="3.62722">
        <ele>207.3</ele>
        <time>2013-04-28T05:48:06Z</time>
      </trkpt>
      <trkpt lat="47.72991" lon="3.62729">
        <ele>207.3</ele>
        <time>2013-04-28T05:48:10Z</time>
      </trkpt>
      <trkpt lat="47.72993" lon="3.62757">
        <ele>206.34</ele>
        <time>2013-04-28T05:48:23Z</time>
      </trkpt>
      <trkpt lat="47.72992" lon="3.62781">
        <ele>205.86</ele>
        <time>2013-04-28T05:48:34Z</time>
      </trkpt>
      <trkpt lat="47.72997" lon="3.62799">
        <ele>205.86</ele>
        <time>2013-04-28T05:48:43Z</time>
      </trkpt>
      <trkpt lat="47.73003" lon="3.62816">
        <ele>205.38</ele>
        <time>2013-04-28T05:48:52Z</time>
      </trkpt>
      <trkpt lat="47.73005" lon="3.62823">
        <ele>205.86</ele>
        <time>2013-04-28T05:48:55Z</time>
      </trkpt>
      <trkpt lat="47.73015" lon="3.62846">
        <ele>205.86</ele>
        <time>2013-04-28T05:49:07Z</time>
      </trkpt>
      <trkpt lat="47.73023" lon="3.62861">
        <ele>206.34</ele>
        <time>2013-04-28T05:49:16Z</time>
      </trkpt>
      <trkpt lat="47.73028" lon="3.62873">
        <ele>206.34</ele>
        <time>2013-04-28T05:49:22Z</time>
      </trkpt>
      <trkpt lat="47.73031" lon="3.62879">
        <ele>206.82</ele>
        <time>2013-04-28T05:49:25Z</time>
      </trkpt>
      <trkpt lat="47.73034" lon="3.62882">
        <ele>206.82</ele>
        <time>2013-04-28T05:49:30Z</time>
      </trkpt>
      <trkpt lat="47.73038" lon="3.62892">
        <ele>206.34</ele>
        <time>2013-04-28T05:49:36Z</time>
      </trkpt>
      <trkpt lat="47.73044" lon="3.62905">
        <ele>206.82</ele>
        <time>2013-04-28T05:49:43Z</time>
      </trkpt>
      <trkpt lat="47.73051" lon="3.62915">
        <ele>207.3</ele>
        <time>2013-04-28T05:49:51Z</time>
      </trkpt>
      <trkpt lat="47.7306" lon="3.62936">
        <ele>206.82</ele>
        <time>2013-04-28T05:50:02Z</time>
      </trkpt>
      <trkpt lat="47.73061" lon="3.6294">
        <ele>207.3</ele>
        <time>2013-04-28T05:50:05Z</time>
      </trkpt>
      <trkpt lat="47.73065" lon="3.62946">
        <ele>206.82</ele>
        <time>2013-04-28T05:50:09Z</time>
      </trkpt>
      <trkpt lat="47.73075" lon="3.62962">
        <ele>207.78</ele>
        <time>2013-04-28T05:50:20Z</time>
      </trkpt>
      <trkpt lat="47.73084" lon="3.62979">
        <ele>208.26</ele>
        <time>2013-04-28T05:50:30Z</time>
      </trkpt>
      <trkpt lat="47.73088" lon="3.62985">
        <ele>208.26</ele>
        <time>2013-04-28T05:50:34Z</time>
      </trkpt>
      <trkpt lat="47.73096" lon="3.62998">
        <ele>208.26</ele>
        <time>2013-04-28T05:50:42Z</time>
      </trkpt>
      <trkpt lat="47.73105" lon="3.63015">
        <ele>208.26</ele>
        <time>2013-04-28T05:50:53Z</time>
      </trkpt>
      <trkpt lat="47.73111" lon="3.63028">
        <ele>207.78</ele>
        <time>2013-04-28T05:51:01Z</time>
      </trkpt>
      <trkpt lat="47.73118" lon="3.63043">
        <ele>207.78</ele>
        <time>2013-04-28T05:51:10Z</time>
      </trkpt>
      <trkpt lat="47.73126" lon="3.63058">
        <ele>206.34</ele>
        <time>2013-04-28T05:51:20Z</time>
      </trkpt>
      <trkpt lat="47.73135" lon="3.6308">
        <ele>205.86</ele>
        <time>2013-04-28T05:51:30Z</time>
      </trkpt>
      <trkpt lat="47.73142" lon="3.63093">
        <ele>205.38</ele>
        <time>2013-04-28T05:51:37Z</time>
      </trkpt>
      <trkpt lat="47.73149" lon="3.63105">
        <ele>204.42</ele>
        <time>2013-04-28T05:51:46Z</time>
      </trkpt>
      <trkpt lat="47.73155" lon="3.6312">
        <ele>202.98</ele>
        <time>2013-04-28T05:51:55Z</time>
      </trkpt>
      <trkpt lat="47.73155" lon="3.63124">
        <ele>202.49</ele>
        <time>2013-04-28T05:51:57Z</time>
      </trkpt>
      <trkpt lat="47.73158" lon="3.63146">
        <ele>200.57</ele>
        <time>2013-04-28T05:52:07Z</time>
      </trkpt>
      <trkpt lat="47.73163" lon="3.63163">
        <ele>199.13</ele>
        <time>2013-04-28T05:52:16Z</time>
      </trkpt>
      <trkpt lat="47.73165" lon="3.63168">
        <ele>199.13</ele>
        <time>2013-04-28T05:52:18Z</time>
      </trkpt>
      <trkpt lat="47.73175" lon="3.63187">
        <ele>197.69</ele>
        <time>2013-04-28T05:52:28Z</time>
      </trkpt>
      <trkpt lat="47.7318" lon="3.63209">
        <ele>197.21</ele>
        <time>2013-04-28T05:52:38Z</time>
      </trkpt>
      <trkpt lat="47.73186" lon="3.63226">
        <ele>196.73</ele>
        <time>2013-04-28T05:52:46Z</time>
      </trkpt>
      <trkpt lat="47.73191" lon="3.63242">
        <ele>196.25</ele>
        <time>2013-04-28T05:52:55Z</time>
      </trkpt>
      <trkpt lat="47.73198" lon="3.63265">
        <ele>195.77</ele>
        <time>2013-04-28T05:53:06Z</time>
      </trkpt>
      <trkpt lat="47.73204" lon="3.63288">
        <ele>196.25</ele>
        <time>2013-04-28T05:53:16Z</time>
      </trkpt>
      <trkpt lat="47.73206" lon="3.63312">
        <ele>195.77</ele>
        <time>2013-04-28T05:53:27Z</time>
      </trkpt>
      <trkpt lat="47.73206" lon="3.63315">
        <ele>196.25</ele>
        <time>2013-04-28T05:53:28Z</time>
      </trkpt>
      <trkpt lat="47.73206" lon="3.6332">
        <ele>195.77</ele>
        <time>2013-04-28T05:53:30Z</time>
      </trkpt>
      <trkpt lat="47.73209" lon="3.63328">
        <ele>195.77</ele>
        <time>2013-04-28T05:53:34Z</time>
      </trkpt>
      <trkpt lat="47.73216" lon="3.63346">
        <ele>195.28</ele>
        <time>2013-04-28T05:53:44Z</time>
      </trkpt>
      <trkpt lat="47.73227" lon="3.63358">
        <ele>194.32</ele>
        <time>2013-04-28T05:53:54Z</time>
      </trkpt>
      <trkpt lat="47.73232" lon="3.63363">
        <ele>194.32</ele>
        <time>2013-04-28T05:53:59Z</time>
      </trkpt>
      <trkpt lat="47.73236" lon="3.6337">
        <ele>193.84</ele>
        <time>2013-04-28T05:54:08Z</time>
      </trkpt>
      <trkpt lat="47.73242" lon="3.63377">
        <ele>193.36</ele>
        <time>2013-04-28T05:54:16Z</time>
      </trkpt>
      <trkpt lat="47.73238" lon="3.63392">
        <ele>193.36</ele>
        <time>2013-04-28T05:54:25Z</time>
      </trkpt>
      <trkpt lat="47.73237" lon="3.63393">
        <ele>193.36</ele>
        <time>2013-04-28T05:54:27Z</time>
      </trkpt>
      <trkpt lat="47.7323" lon="3.63386">
        <ele>193.84</ele>
        <time>2013-04-28T05:54:33Z</time>
      </trkpt>
      <trkpt lat="47.73217" lon="3.63377">
        <ele>195.28</ele>
        <time>2013-04-28T05:54:44Z</time>
      </trkpt>
      <trkpt lat="47.73205" lon="3.63373">
        <ele>196.73</ele>
        <time>2013-04-28T05:54:53Z</time>
      </trkpt>
      <trkpt lat="47.73189" lon="3.63375">
        <ele>197.21</ele>
        <time>2013-04-28T05:55:04Z</time>
      </trkpt>
      <trkpt lat="47.73177" lon="3.63383">
        <ele>198.17</ele>
        <time>2013-04-28T05:55:13Z</time>
      </trkpt>
      <trkpt lat="47.73175" lon="3.63385">
        <ele>198.65</ele>
        <time>2013-04-28T05:55:15Z</time>
      </trkpt>
      <trkpt lat="47.73163" lon="3.63393">
        <ele>199.13</ele>
        <time>2013-04-28T05:55:26Z</time>
      </trkpt>
      <trkpt lat="47.73158" lon="3.63397">
        <ele>199.61</ele>
        <time>2013-04-28T05:55:30Z</time>
      </trkpt>
      <trkpt lat="47.73153" lon="3.63401">
        <ele>199.61</ele>
        <time>2013-04-28T05:55:34Z</time>
      </trkpt>
      <trkpt lat="47.73137" lon="3.63416">
        <ele>200.57</ele>
        <time>2013-04-28T05:55:46Z</time>
      </trkpt>
      <trkpt lat="47.73124" lon="3.63423">
        <ele>200.57</ele>
        <time>2013-04-28T05:55:56Z</time>
      </trkpt>
      <trkpt lat="47.73105" lon="3.63428">
        <ele>201.05</ele>
        <time>2013-04-28T05:56:08Z</time>
      </trkpt>
      <trkpt lat="47.73093" lon="3.6343">
        <ele>201.05</ele>
        <time>2013-04-28T05:56:17Z</time>
      </trkpt>
      <trkpt lat="47.73081" lon="3.63431">
        <ele>200.57</ele>
        <time>2013-04-28T05:56:26Z</time>
      </trkpt>
      <trkpt lat="47.73078" lon="3.63431">
        <ele>201.05</ele>
        <time>2013-04-28T05:56:28Z</time>
      </trkpt>
      <trkpt lat="47.73065" lon="3.63429">
        <ele>201.05</ele>
        <time>2013-04-28T05:56:36Z</time>
      </trkpt>
      <trkpt lat="47.7306" lon="3.63429">
        <ele>201.53</ele>
        <time>2013-04-28T05:56:40Z</time>
      </trkpt>
      <trkpt lat="47.7305" lon="3.63429">
        <ele>202.01</ele>
        <time>2013-04-28T05:56:47Z</time>
      </trkpt>
      <trkpt lat="47.73037" lon="3.63429">
        <ele>202.01</ele>
        <time>2013-04-28T05:56:57Z</time>
      </trkpt>
      <trkpt lat="47.73035" lon="3.63429">
        <ele>202.49</ele>
        <time>2013-04-28T05:56:59Z</time>
      </trkpt>
      <trkpt lat="47.73026" lon="3.63427">
        <ele>202.49</ele>
        <time>2013-04-28T05:57:06Z</time>
      </trkpt>
      <trkpt lat="47.7301" lon="3.63426">
        <ele>203.46</ele>
        <time>2013-04-28T05:57:17Z</time>
      </trkpt>
      <trkpt lat="47.72995" lon="3.63425">
        <ele>203.46</ele>
        <time>2013-04-28T05:57:27Z</time>
      </trkpt>
      <trkpt lat="47.72981" lon="3.63421">
        <ele>203.46</ele>
        <time>2013-04-28T05:57:36Z</time>
      </trkpt>
      <trkpt lat="47.72967" lon="3.63417">
        <ele>203.46</ele>
        <time>2013-04-28T05:57:46Z</time>
      </trkpt>
      <trkpt lat="47.72951" lon="3.63412">
        <ele>203.94</ele>
        <time>2013-04-28T05:57:57Z</time>
      </trkpt>
      <trkpt lat="47.72938" lon="3.6341">
        <ele>203.94</ele>
        <time>2013-04-28T05:58:06Z</time>
      </trkpt>
      <trkpt lat="47.72926" lon="3.63405">
        <ele>204.42</ele>
        <time>2013-04-28T05:58:15Z</time>
      </trkpt>
      <trkpt lat="47.72914" lon="3.63402">
        <ele>205.38</ele>
        <time>2013-04-28T05:58:24Z</time>
      </trkpt>
      <trkpt lat="47.72906" lon="3.63399">
        <ele>204.9</ele>
        <time>2013-04-28T05:58:29Z</time>
      </trkpt>
      <trkpt lat="47.72894" lon="3.63394">
        <ele>205.38</ele>
        <time>2013-04-28T05:58:37Z</time>
      </trkpt>
      <trkpt lat="47.7289" lon="3.63393">
        <ele>205.38</ele>
        <time>2013-04-28T05:58:40Z</time>
      </trkpt>
      <trkpt lat="47.72875" lon="3.6338">
        <ele>204.42</ele>
        <time>2013-04-28T05:58:52Z</time>
      </trkpt>
      <trkpt lat="47.72871" lon="3.63376">
        <ele>203.94</ele>
        <time>2013-04-28T05:58:56Z</time>
      </trkpt>
      <trkpt lat="47.72866" lon="3.63366">
        <ele>203.94</ele>
        <time>2013-04-28T05:59:01Z</time>
      </trkpt>
      <trkpt lat="47.72852" lon="3.63354">
        <ele>203.46</ele>
        <time>2013-04-28T05:59:11Z</time>
      </trkpt>
      <trkpt lat="47.72842" lon="3.63348">
        <ele>203.46</ele>
        <time>2013-04-28T05:59:19Z</time>
      </trkpt>
      <trkpt lat="47.72828" lon="3.63334">
        <ele>203.46</ele>
        <time>2013-04-28T05:59:30Z</time>
      </trkpt>
      <trkpt lat="47.72816" lon="3.63321">
        <ele>203.46</ele>
        <time>2013-04-28T05:59:39Z</time>
      </trkpt>
      <trkpt lat="47.72806" lon="3.63312">
        <ele>202.98</ele>
        <time>2013-04-28T05:59:47Z</time>
      </trkpt>
      <trkpt lat="47.72799" lon="3.63305">
        <ele>202.98</ele>
        <time>2013-04-28T05:59:53Z</time>
      </trkpt>
      <trkpt lat="47.72793" lon="3.63297">
        <ele>202.98</ele>
        <time>2013-04-28T05:59:59Z</time>
      </trkpt>
      <trkpt lat="47.72789" lon="3.63292">
        <ele>202.98</ele>
        <time>2013-04-28T06:00:02Z</time>
      </trkpt>
      <trkpt lat="47.72781" lon="3.63289">
        <ele>202.98</ele>
        <time>2013-04-28T06:00:08Z</time>
      </trkpt>
      <trkpt lat="47.72765" lon="3.63278">
        <ele>202.98</ele>
        <time>2013-04-28T06:00:20Z</time>
      </trkpt>
      <trkpt lat="47.72754" lon="3.63277">
        <ele>202.98</ele>
        <time>2013-04-28T06:00:28Z</time>
      </trkpt>
      <trkpt lat="47.72753" lon="3.63277">
        <ele>202.98</ele>
        <time>2013-04-28T06:00:29Z</time>
      </trkpt>
      <trkpt lat="47.72751" lon="3.63283">
        <ele>203.94</ele>
        <time>2013-04-28T06:00:40Z</time>
      </trkpt>
      <trkpt lat="47.72749" lon="3.63289">
        <ele>204.42</ele>
        <time>2013-04-28T06:00:49Z</time>
      </trkpt>
      <trkpt lat="47.72746" lon="3.63298">
        <ele>205.86</ele>
        <time>2013-04-28T06:01:01Z</time>
      </trkpt>
      <trkpt lat="47.7275" lon="3.63304">
        <ele>205.86</ele>
        <time>2013-04-28T06:01:15Z</time>
      </trkpt>
      <trkpt lat="47.72751" lon="3.63307">
        <ele>205.86</ele>
        <time>2013-04-28T06:01:23Z</time>
      </trkpt>
      <trkpt lat="47.72747" lon="3.63302">
        <ele>206.34</ele>
        <time>2013-04-28T06:01:32Z</time>
      </trkpt>
      <trkpt lat="47.72746" lon="3.63301">
        <ele>206.34</ele>
        <time>2013-04-28T06:01:35Z</time>
      </trkpt>
      <trkpt lat="47.72754" lon="3.63309">
        <ele>206.34</ele>
        <time>2013-04-28T06:01:46Z</time>
      </trkpt>
      <trkpt lat="47.72753" lon="3.63311">
        <ele>207.3</ele>
        <time>2013-04-28T06:02:03Z</time>
      </trkpt>
      <trkpt lat="47.72745" lon="3.63318">
        <ele>207.78</ele>
        <time>2013-04-28T06:02:13Z</time>
      </trkpt>
      <trkpt lat="47.72743" lon="3.6332">
        <ele>207.78</ele>
        <time>2013-04-28T06:02:25Z</time>
      </trkpt>
      <trkpt lat="47.72742" lon="3.63318">
        <ele>208.26</ele>
        <time>2013-04-28T06:02:41Z</time>
      </trkpt>
      <trkpt lat="47.72742" lon="3.63318">
        <ele>208.26</ele>
        <time>2013-04-28T06:03:01Z</time>
      </trkpt>
      <trkpt lat="47.72742" lon="3.63319">
        <ele>208.26</ele>
        <time>2013-04-28T06:03:09Z</time>
      </trkpt>
      <trkpt lat="47.72742" lon="3.63323">
        <ele>208.26</ele>
        <time>2013-04-28T06:03:20Z</time>
      </trkpt>
      <trkpt lat="47.72739" lon="3.63343">
        <ele>209.22</ele>
        <time>2013-04-28T06:03:31Z</time>
      </trkpt>
      <trkpt lat="47.72735" lon="3.63362">
        <ele>210.67</ele>
        <time>2013-04-28T06:03:41Z</time>
      </trkpt>
      <trkpt lat="47.72731" lon="3.63382">
        <ele>212.11</ele>
        <time>2013-04-28T06:03:51Z</time>
      </trkpt>
      <trkpt lat="47.72722" lon="3.63405">
        <ele>211.63</ele>
        <time>2013-04-28T06:04:03Z</time>
      </trkpt>
      <trkpt lat="47.72712" lon="3.63432">
        <ele>211.15</ele>
        <time>2013-04-28T06:04:17Z</time>
      </trkpt>
      <trkpt lat="47.72705" lon="3.63456">
        <ele>210.67</ele>
        <time>2013-04-28T06:04:28Z</time>
      </trkpt>
      <trkpt lat="47.727" lon="3.63478">
        <ele>210.19</ele>
        <time>2013-04-28T06:04:39Z</time>
      </trkpt>
      <trkpt lat="47.72694" lon="3.63499">
        <ele>210.19</ele>
        <time>2013-04-28T06:04:49Z</time>
      </trkpt>
      <trkpt lat="47.72687" lon="3.63523">
        <ele>210.67</ele>
        <time>2013-04-28T06:05:00Z</time>
      </trkpt>
      <trkpt lat="47.72678" lon="3.63544">
        <ele>210.19</ele>
        <time>2013-04-28T06:05:11Z</time>
      </trkpt>
      <trkpt lat="47.72668" lon="3.63569">
        <ele>210.19</ele>
        <time>2013-04-28T06:05:24Z</time>
      </trkpt>
      <trkpt lat="47.7266" lon="3.63588">
        <ele>210.67</ele>
        <time>2013-04-28T06:05:34Z</time>
      </trkpt>
      <trkpt lat="47.72653" lon="3.63604">
        <ele>210.19</ele>
        <time>2013-04-28T06:05:44Z</time>
      </trkpt>
      <trkpt lat="47.72648" lon="3.63615">
        <ele>210.19</ele>
        <time>2013-04-28T06:05:51Z</time>
      </trkpt>
      <trkpt lat="47.72642" lon="3.63637">
        <ele>210.67</ele>
        <time>2013-04-28T06:06:02Z</time>
      </trkpt>
      <trkpt lat="47.72641" lon="3.63656">
        <ele>210.67</ele>
        <time>2013-04-28T06:06:11Z</time>
      </trkpt>
      <trkpt lat="47.72641" lon="3.63679">
        <ele>210.67</ele>
        <time>2013-04-28T06:06:22Z</time>
      </trkpt>
      <trkpt lat="47.72641" lon="3.63697">
        <ele>210.67</ele>
        <time>2013-04-28T06:06:29Z</time>
      </trkpt>
      <trkpt lat="47.72641" lon="3.63724">
        <ele>210.19</ele>
        <time>2013-04-28T06:06:41Z</time>
      </trkpt>
      <trkpt lat="47.72641" lon="3.63753">
        <ele>210.67</ele>
        <time>2013-04-28T06:06:54Z</time>
      </trkpt>
      <trkpt lat="47.72641" lon="3.63779">
        <ele>210.19</ele>
        <time>2013-04-28T06:07:06Z</time>
      </trkpt>
      <trkpt lat="47.72642" lon="3.63806">
        <ele>208.74</ele>
        <time>2013-04-28T06:07:18Z</time>
      </trkpt>
      <trkpt lat="47.72641" lon="3.63822">
        <ele>207.78</ele>
        <time>2013-04-28T06:07:26Z</time>
      </trkpt>
      <trkpt lat="47.72641" lon="3.6383">
        <ele>207.3</ele>
        <time>2013-04-28T06:07:29Z</time>
      </trkpt>
      <trkpt lat="47.72642" lon="3.6385">
        <ele>207.3</ele>
        <time>2013-04-28T06:07:38Z</time>
      </trkpt>
      <trkpt lat="47.72646" lon="3.63868">
        <ele>206.82</ele>
        <time>2013-04-28T06:07:46Z</time>
      </trkpt>
      <trkpt lat="47.7265" lon="3.63887">
        <ele>206.82</ele>
        <time>2013-04-28T06:07:55Z</time>
      </trkpt>
      <trkpt lat="47.72651" lon="3.63893">
        <ele>207.3</ele>
        <time>2013-04-28T06:07:58Z</time>
      </trkpt>
      <trkpt lat="47.72658" lon="3.6391">
        <ele>207.3</ele>
        <time>2013-04-28T06:08:09Z</time>
      </trkpt>
      <trkpt lat="47.72668" lon="3.6393">
        <ele>208.26</ele>
        <time>2013-04-28T06:08:20Z</time>
      </trkpt>
      <trkpt lat="47.72677" lon="3.6395">
        <ele>208.74</ele>
        <time>2013-04-28T06:08:31Z</time>
      </trkpt>
      <trkpt lat="47.72678" lon="3.63952">
        <ele>209.22</ele>
        <time>2013-04-28T06:08:32Z</time>
      </trkpt>
      <trkpt lat="47.72686" lon="3.63968">
        <ele>209.22</ele>
        <time>2013-04-28T06:08:40Z</time>
      </trkpt>
      <trkpt lat="47.72694" lon="3.6398">
        <ele>209.22</ele>
        <time>2013-04-28T06:08:47Z</time>
      </trkpt>
      <trkpt lat="47.72696" lon="3.63983">
        <ele>209.7</ele>
        <time>2013-04-28T06:08:49Z</time>
      </trkpt>
      <trkpt lat="47.72699" lon="3.63983">
        <ele>209.7</ele>
        <time>2013-04-28T06:08:52Z</time>
      </trkpt>
      <trkpt lat="47.72707" lon="3.63999">
        <ele>210.19</ele>
        <time>2013-04-28T06:09:01Z</time>
      </trkpt>
      <trkpt lat="47.72708" lon="3.64003">
        <ele>210.19</ele>
        <time>2013-04-28T06:09:03Z</time>
      </trkpt>
      <trkpt lat="47.72709" lon="3.64022">
        <ele>210.67</ele>
        <time>2013-04-28T06:09:11Z</time>
      </trkpt>
      <trkpt lat="47.7271" lon="3.64024">
        <ele>210.67</ele>
        <time>2013-04-28T06:09:13Z</time>
      </trkpt>
      <trkpt lat="47.72713" lon="3.64034">
        <ele>210.67</ele>
        <time>2013-04-28T06:09:20Z</time>
      </trkpt>
      <trkpt lat="47.72716" lon="3.64045">
        <ele>210.67</ele>
        <time>2013-04-28T06:09:27Z</time>
      </trkpt>
      <trkpt lat="47.72717" lon="3.64061">
        <ele>210.19</ele>
        <time>2013-04-28T06:09:35Z</time>
      </trkpt>
      <trkpt lat="47.72717" lon="3.64073">
        <ele>209.22</ele>
        <time>2013-04-28T06:09:41Z</time>
      </trkpt>
      <trkpt lat="47.72714" lon="3.64098">
        <ele>208.26</ele>
        <time>2013-04-28T06:09:52Z</time>
      </trkpt>
      <trkpt lat="47.7271" lon="3.64123">
        <ele>208.74</ele>
        <time>2013-04-28T06:10:02Z</time>
      </trkpt>
      <trkpt lat="47.72704" lon="3.64153">
        <ele>209.7</ele>
        <time>2013-04-28T06:10:14Z</time>
      </trkpt>
      <trkpt lat="47.72698" lon="3.64175">
        <ele>209.7</ele>
        <time>2013-04-28T06:10:26Z</time>
      </trkpt>
      <trkpt lat="47.72692" lon="3.642">
        <ele>209.22</ele>
        <time>2013-04-28T06:10:38Z</time>
      </trkpt>
      <trkpt lat="47.72685" lon="3.64223">
        <ele>208.74</ele>
        <time>2013-04-28T06:10:50Z</time>
      </trkpt>
      <trkpt lat="47.72674" lon="3.64247">
        <ele>207.3</ele>
        <time>2013-04-28T06:11:04Z</time>
      </trkpt>
      <trkpt lat="47.72663" lon="3.64266">
        <ele>205.86</ele>
        <time>2013-04-28T06:11:15Z</time>
      </trkpt>
      <trkpt lat="47.72654" lon="3.64286">
        <ele>205.86</ele>
        <time>2013-04-28T06:11:27Z</time>
      </trkpt>
      <trkpt lat="47.72647" lon="3.64309">
        <ele>205.38</ele>
        <time>2013-04-28T06:11:37Z</time>
      </trkpt>
      <trkpt lat="47.72647" lon="3.64334">
        <ele>205.38</ele>
        <time>2013-04-28T06:11:48Z</time>
      </trkpt>
      <trkpt lat="47.72653" lon="3.64359">
        <ele>205.38</ele>
        <time>2013-04-28T06:12:00Z</time>
      </trkpt>
      <trkpt lat="47.72657" lon="3.6438">
        <ele>205.38</ele>
        <time>2013-04-28T06:12:10Z</time>
      </trkpt>
      <trkpt lat="47.72664" lon="3.64402">
        <ele>205.86</ele>
        <time>2013-04-28T06:12:21Z</time>
      </trkpt>
      <trkpt lat="47.72674" lon="3.64429">
        <ele>205.86</ele>
        <time>2013-04-28T06:12:34Z</time>
      </trkpt>
      <trkpt lat="47.72674" lon="3.64432">
        <ele>206.34</ele>
        <time>2013-04-28T06:12:36Z</time>
      </trkpt>
      <trkpt lat="47.72682" lon="3.64445">
        <ele>206.34</ele>
        <time>2013-04-28T06:12:44Z</time>
      </trkpt>
      <trkpt lat="47.72686" lon="3.64454">
        <ele>206.82</ele>
        <time>2013-04-28T06:12:49Z</time>
      </trkpt>
      <trkpt lat="47.7269" lon="3.64461">
        <ele>206.82</ele>
        <time>2013-04-28T06:12:53Z</time>
      </trkpt>
      <trkpt lat="47.72696" lon="3.64482">
        <ele>206.82</ele>
        <time>2013-04-28T06:13:04Z</time>
      </trkpt>
      <trkpt lat="47.72695" lon="3.6449">
        <ele>206.82</ele>
        <time>2013-04-28T06:13:08Z</time>
      </trkpt>
      <trkpt lat="47.72697" lon="3.6451">
        <ele>206.34</ele>
        <time>2013-04-28T06:13:17Z</time>
      </trkpt>
      <trkpt lat="47.72699" lon="3.64522">
        <ele>205.38</ele>
        <time>2013-04-28T06:13:23Z</time>
      </trkpt>
      <trkpt lat="47.727" lon="3.64537">
        <ele>204.9</ele>
        <time>2013-04-28T06:13:32Z</time>
      </trkpt>
      <trkpt lat="47.72709" lon="3.64554">
        <ele>204.42</ele>
        <time>2013-04-28T06:13:43Z</time>
      </trkpt>
      <trkpt lat="47.7271" lon="3.64555">
        <ele>204.9</ele>
        <time>2013-04-28T06:13:44Z</time>
      </trkpt>
      <trkpt lat="47.72719" lon="3.64562">
        <ele>205.86</ele>
        <time>2013-04-28T06:13:52Z</time>
      </trkpt>
      <trkpt lat="47.72731" lon="3.64573">
        <ele>206.34</ele>
        <time>2013-04-28T06:14:02Z</time>
      </trkpt>
      <trkpt lat="47.72736" lon="3.64575">
        <ele>206.34</ele>
        <time>2013-04-28T06:14:07Z</time>
      </trkpt>
      <trkpt lat="47.72743" lon="3.64584">
        <ele>206.82</ele>
        <time>2013-04-28T06:14:14Z</time>
      </trkpt>
      <trkpt lat="47.72745" lon="3.64589">
        <ele>207.3</ele>
        <time>2013-04-28T06:14:17Z</time>
      </trkpt>
      <trkpt lat="47.72752" lon="3.64596">
        <ele>207.78</ele>
        <time>2013-04-28T06:14:23Z</time>
      </trkpt>
      <trkpt lat="47.72763" lon="3.64608">
        <ele>208.26</ele>
        <time>2013-04-28T06:14:33Z</time>
      </trkpt>
      <trkpt lat="47.72764" lon="3.6461">
        <ele>208.26</ele>
        <time>2013-04-28T06:14:35Z</time>
      </trkpt>
      <trkpt lat="47.72764" lon="3.64615">
        <ele>208.74</ele>
        <time>2013-04-28T06:14:44Z</time>
      </trkpt>
      <trkpt lat="47.72766" lon="3.64616">
        <ele>204.42</ele>
        <time>2013-04-28T06:14:49Z</time>
      </trkpt>
      <trkpt lat="47.72766" lon="3.64616">
        <ele>210.67</ele>
        <time>2013-04-28T06:14:50Z</time>
      </trkpt>
      <trkpt lat="47.72766" lon="3.64617">
        <ele>208.74</ele>
        <time>2013-04-28T06:15:03Z</time>
      </trkpt>
      <trkpt lat="47.72767" lon="3.64618">
        <ele>208.26</ele>
        <time>2013-04-28T06:15:17Z</time>
      </trkpt>
      <trkpt lat="47.72767" lon="3.64617">
        <ele>209.22</ele>
        <time>2013-04-28T06:15:28Z</time>
      </trkpt>
      <trkpt lat="47.72768" lon="3.64617">
        <ele>208.74</ele>
        <time>2013-04-28T06:15:41Z</time>
      </trkpt>
      <trkpt lat="47.72768" lon="3.64617">
        <ele>208.26</ele>
        <time>2013-04-28T06:15:52Z</time>
      </trkpt>
      <trkpt lat="47.72768" lon="3.64618">
        <ele>208.26</ele>
        <time>2013-04-28T06:16:09Z</time>
      </trkpt>
      <trkpt lat="47.72765" lon="3.64616">
        <ele>208.26</ele>
        <time>2013-04-28T06:16:22Z</time>
      </trkpt>
      <trkpt lat="47.72763" lon="3.64617">
        <ele>208.26</ele>
        <time>2013-04-28T06:16:28Z</time>
      </trkpt>
      <trkpt lat="47.72768" lon="3.64619">
        <ele>208.26</ele>
        <time>2013-04-28T06:16:38Z</time>
      </trkpt>
      <trkpt lat="47.72768" lon="3.64619">
        <ele>208.26</ele>
        <time>2013-04-28T06:16:49Z</time>
      </trkpt>
      <trkpt lat="47.72768" lon="3.64619">
        <ele>208.26</ele>
        <time>2013-04-28T06:17:05Z</time>
      </trkpt>
      <trkpt lat="47.72768" lon="3.64618">
        <ele>208.26</ele>
        <time>2013-04-28T06:17:15Z</time>
      </trkpt>
      <trkpt lat="47.72768" lon="3.64618">
        <ele>208.74</ele>
        <time>2013-04-28T06:17:32Z</time>
      </trkpt>
      <trkpt lat="47.72768" lon="3.64618">
        <ele>208.26</ele>
        <time>2013-04-28T06:17:49Z</time>
      </trkpt>
      <trkpt lat="47.72767" lon="3.64618">
        <ele>208.26</ele>
        <time>2013-04-28T06:18:04Z</time>
      </trkpt>
      <trkpt lat="47.72766" lon="3.64617">
        <ele>208.26</ele>
        <time>2013-04-28T06:18:11Z</time>
      </trkpt>
      <trkpt lat="47.72762" lon="3.64616">
        <ele>208.26</ele>
        <time>2013-04-28T06:18:22Z</time>
      </trkpt>
      <trkpt lat="47.72762" lon="3.64615">
        <ele>207.78</ele>
        <time>2013-04-28T06:18:39Z</time>
      </trkpt>
      <trkpt lat="47.72764" lon="3.64615">
        <ele>208.26</ele>
        <time>2013-04-28T06:18:46Z</time>
      </trkpt>
      <trkpt lat="47.72767" lon="3.64615">
        <ele>208.26</ele>
        <time>2013-04-28T06:18:56Z</time>
      </trkpt>
      <trkpt lat="47.72767" lon="3.64617">
        <ele>208.74</ele>
        <time>2013-04-28T06:19:04Z</time>
      </trkpt>
      <trkpt lat="47.72766" lon="3.64618">
        <ele>208.74</ele>
        <time>2013-04-28T06:19:16Z</time>
      </trkpt>
      <trkpt lat="47.72766" lon="3.64617">
        <ele>209.7</ele>
        <time>2013-04-28T06:19:24Z</time>
      </trkpt>
      <trkpt lat="47.72766" lon="3.64617">
        <ele>208.74</ele>
        <time>2013-04-28T06:19:25Z</time>
      </trkpt>
      <trkpt lat="47.72763" lon="3.64613">
        <ele>208.26</ele>
        <time>2013-04-28T06:19:29Z</time>
      </trkpt>
      <trkpt lat="47.72761" lon="3.64617">
        <ele>207.78</ele>
        <time>2013-04-28T06:19:38Z</time>
      </trkpt>
      <trkpt lat="47.72762" lon="3.64619">
        <ele>207.78</ele>
        <time>2013-04-28T06:19:40Z</time>
      </trkpt>
      <trkpt lat="47.72756" lon="3.64631">
        <ele>208.26</ele>
        <time>2013-04-28T06:19:50Z</time>
      </trkpt>
      <trkpt lat="47.72749" lon="3.64639">
        <ele>208.26</ele>
        <time>2013-04-28T06:19:57Z</time>
      </trkpt>
      <trkpt lat="47.72744" lon="3.64643">
        <ele>208.26</ele>
        <time>2013-04-28T06:20:02Z</time>
      </trkpt>
      <trkpt lat="47.7274" lon="3.64649">
        <ele>208.26</ele>
        <time>2013-04-28T06:20:07Z</time>
      </trkpt>
      <trkpt lat="47.72737" lon="3.64653">
        <ele>208.74</ele>
        <time>2013-04-28T06:20:10Z</time>
      </trkpt>
      <trkpt lat="47.72733" lon="3.64657">
        <ele>208.74</ele>
        <time>2013-04-28T06:20:14Z</time>
      </trkpt>
      <trkpt lat="47.7272" lon="3.64672">
        <ele>208.74</ele>
        <time>2013-04-28T06:20:27Z</time>
      </trkpt>
      <trkpt lat="47.72718" lon="3.64672">
        <ele>208.74</ele>
        <time>2013-04-28T06:20:28Z</time>
      </trkpt>
      <trkpt lat="47.72715" lon="3.64677">
        <ele>209.22</ele>
        <time>2013-04-28T06:20:32Z</time>
      </trkpt>
      <trkpt lat="47.72706" lon="3.6469">
        <ele>209.7</ele>
        <time>2013-04-28T06:20:42Z</time>
      </trkpt>
      <trkpt lat="47.72694" lon="3.64703">
        <ele>209.22</ele>
        <time>2013-04-28T06:20:53Z</time>
      </trkpt>
      <trkpt lat="47.72684" lon="3.64717">
        <ele>210.19</ele>
        <time>2013-04-28T06:21:04Z</time>
      </trkpt>
      <trkpt lat="47.72672" lon="3.64732">
        <ele>210.67</ele>
        <time>2013-04-28T06:21:15Z</time>
      </trkpt>
      <trkpt lat="47.72661" lon="3.64745">
        <ele>211.63</ele>
        <time>2013-04-28T06:21:26Z</time>
      </trkpt>
      <trkpt lat="47.72649" lon="3.64761">
        <ele>212.59</ele>
        <time>2013-04-28T06:21:38Z</time>
      </trkpt>
      <trkpt lat="47.72635" lon="3.64773">
        <ele>213.55</ele>
        <time>2013-04-28T06:21:50Z</time>
      </trkpt>
      <trkpt lat="47.72622" lon="3.6478">
        <ele>214.99</ele>
        <time>2013-04-28T06:22:00Z</time>
      </trkpt>
      <trkpt lat="47.72617" lon="3.64784">
        <ele>215.47</ele>
        <time>2013-04-28T06:22:05Z</time>
      </trkpt>
      <trkpt lat="47.72608" lon="3.64786">
        <ele>216.43</ele>
        <time>2013-04-28T06:22:12Z</time>
      </trkpt>
      <trkpt lat="47.72603" lon="3.64787">
        <ele>216.91</ele>
        <time>2013-04-28T06:22:16Z</time>
      </trkpt>
      <trkpt lat="47.72585" lon="3.64794">
        <ele>219.32</ele>
        <time>2013-04-28T06:22:30Z</time>
      </trkpt>
      <trkpt lat="47.72568" lon="3.64799">
        <ele>221.24</ele>
        <time>2013-04-28T06:22:43Z</time>
      </trkpt>
      <trkpt lat="47.72565" lon="3.648">
        <ele>221.24</ele>
        <time>2013-04-28T06:22:45Z</time>
      </trkpt>
      <trkpt lat="47.7255" lon="3.64805">
        <ele>223.16</ele>
        <time>2013-04-28T06:22:58Z</time>
      </trkpt>
      <trkpt lat="47.72541" lon="3.64812">
        <ele>224.61</ele>
        <time>2013-04-28T06:23:05Z</time>
      </trkpt>
      <trkpt lat="47.72529" lon="3.64814">
        <ele>226.05</ele>
        <time>2013-04-28T06:23:14Z</time>
      </trkpt>
      <trkpt lat="47.72518" lon="3.64819">
        <ele>227.49</ele>
        <time>2013-04-28T06:23:24Z</time>
      </trkpt>
      <trkpt lat="47.72517" lon="3.6482">
        <ele>227.97</ele>
        <time>2013-04-28T06:23:25Z</time>
      </trkpt>
      <trkpt lat="47.72505" lon="3.64823">
        <ele>229.41</ele>
        <time>2013-04-28T06:23:35Z</time>
      </trkpt>
      <trkpt lat="47.72495" lon="3.64828">
        <ele>230.85</ele>
        <time>2013-04-28T06:23:43Z</time>
      </trkpt>
      <trkpt lat="47.72486" lon="3.64833">
        <ele>231.81</ele>
        <time>2013-04-28T06:23:55Z</time>
      </trkpt>
      <trkpt lat="47.72486" lon="3.64833">
        <ele>231.33</ele>
        <time>2013-04-28T06:24:03Z</time>
      </trkpt>
      <trkpt lat="47.72483" lon="3.64834">
        <ele>231.81</ele>
        <time>2013-04-28T06:24:06Z</time>
      </trkpt>
      <trkpt lat="47.72471" lon="3.64841">
        <ele>232.78</ele>
        <time>2013-04-28T06:24:16Z</time>
      </trkpt>
      <trkpt lat="47.72456" lon="3.64846">
        <ele>233.26</ele>
        <time>2013-04-28T06:24:27Z</time>
      </trkpt>
      <trkpt lat="47.7244" lon="3.64848">
        <ele>233.74</ele>
        <time>2013-04-28T06:24:38Z</time>
      </trkpt>
      <trkpt lat="47.72424" lon="3.6485">
        <ele>232.78</ele>
        <time>2013-04-28T06:24:50Z</time>
      </trkpt>
      <trkpt lat="47.72407" lon="3.64853">
        <ele>232.78</ele>
        <time>2013-04-28T06:25:02Z</time>
      </trkpt>
      <trkpt lat="47.72387" lon="3.64856">
        <ele>232.3</ele>
        <time>2013-04-28T06:25:15Z</time>
      </trkpt>
      <trkpt lat="47.72368" lon="3.64858">
        <ele>231.81</ele>
        <time>2013-04-28T06:25:28Z</time>
      </trkpt>
      <trkpt lat="47.72349" lon="3.64858">
        <ele>231.33</ele>
        <time>2013-04-28T06:25:41Z</time>
      </trkpt>
      <trkpt lat="47.7233" lon="3.64859">
        <ele>230.37</ele>
        <time>2013-04-28T06:25:54Z</time>
      </trkpt>
      <trkpt lat="47.7231" lon="3.64862">
        <ele>230.37</ele>
        <time>2013-04-28T06:26:07Z</time>
      </trkpt>
      <trkpt lat="47.72295" lon="3.64864">
        <ele>229.41</ele>
        <time>2013-04-28T06:26:18Z</time>
      </trkpt>
      <trkpt lat="47.72278" lon="3.64868">
        <ele>228.93</ele>
        <time>2013-04-28T06:26:30Z</time>
      </trkpt>
      <trkpt lat="47.72266" lon="3.64866">
        <ele>227.97</ele>
        <time>2013-04-28T06:26:38Z</time>
      </trkpt>
      <trkpt lat="47.72251" lon="3.64865">
        <ele>227.01</ele>
        <time>2013-04-28T06:26:48Z</time>
      </trkpt>
      <trkpt lat="47.72234" lon="3.64858">
        <ele>226.53</ele>
        <time>2013-04-28T06:27:00Z</time>
      </trkpt>
      <trkpt lat="47.72232" lon="3.64857">
        <ele>226.53</ele>
        <time>2013-04-28T06:27:02Z</time>
      </trkpt>
      <trkpt lat="47.72215" lon="3.64852">
        <ele>226.53</ele>
        <time>2013-04-28T06:27:15Z</time>
      </trkpt>
      <trkpt lat="47.72205" lon="3.64848">
        <ele>226.53</ele>
        <time>2013-04-28T06:27:23Z</time>
      </trkpt>
      <trkpt lat="47.72199" lon="3.64847">
        <ele>227.01</ele>
        <time>2013-04-28T06:27:28Z</time>
      </trkpt>
      <trkpt lat="47.72184" lon="3.64841">
        <ele>227.49</ele>
        <time>2013-04-28T06:27:39Z</time>
      </trkpt>
      <trkpt lat="47.72179" lon="3.64839">
        <ele>227.49</ele>
        <time>2013-04-28T06:27:43Z</time>
      </trkpt>
      <trkpt lat="47.72172" lon="3.64834">
        <ele>228.93</ele>
        <time>2013-04-28T06:27:51Z</time>
      </trkpt>
      <trkpt lat="47.72159" lon="3.64832">
        <ele>229.89</ele>
        <time>2013-04-28T06:28:00Z</time>
      </trkpt>
      <trkpt lat="47.72159" lon="3.64832">
        <ele>229.89</ele>
        <time>2013-04-28T06:28:01Z</time>
      </trkpt>
      <trkpt lat="47.72146" lon="3.64831">
        <ele>230.85</ele>
        <time>2013-04-28T06:28:09Z</time>
      </trkpt>
      <trkpt lat="47.72141" lon="3.64828">
        <ele>231.81</ele>
        <time>2013-04-28T06:28:12Z</time>
      </trkpt>
      <trkpt lat="47.72128" lon="3.6482">
        <ele>233.26</ele>
        <time>2013-04-28T06:28:22Z</time>
      </trkpt>
      <trkpt lat="47.72119" lon="3.64807">
        <ele>234.22</ele>
        <time>2013-04-28T06:28:32Z</time>
      </trkpt>
      <trkpt lat="47.72114" lon="3.64793">
        <ele>234.7</ele>
        <time>2013-04-28T06:28:40Z</time>
      </trkpt>
      <trkpt lat="47.72113" lon="3.64783">
        <ele>235.18</ele>
        <time>2013-04-28T06:28:50Z</time>
      </trkpt>
      <trkpt lat="47.72108" lon="3.64764">
        <ele>235.66</ele>
        <time>2013-04-28T06:28:59Z</time>
      </trkpt>
      <trkpt lat="47.72107" lon="3.64753">
        <ele>236.14</ele>
        <time>2013-04-28T06:29:04Z</time>
      </trkpt>
      <trkpt lat="47.72103" lon="3.6474">
        <ele>236.14</ele>
        <time>2013-04-28T06:29:13Z</time>
      </trkpt>
      <trkpt lat="47.721" lon="3.64732">
        <ele>236.14</ele>
        <time>2013-04-28T06:29:17Z</time>
      </trkpt>
      <trkpt lat="47.72097" lon="3.64727">
        <ele>235.66</ele>
        <time>2013-04-28T06:29:19Z</time>
      </trkpt>
      <trkpt lat="47.72083" lon="3.64699">
        <ele>236.14</ele>
        <time>2013-04-28T06:29:29Z</time>
      </trkpt>
      <trkpt lat="47.72083" lon="3.64697">
        <ele>236.14</ele>
        <time>2013-04-28T06:29:30Z</time>
      </trkpt>
      <trkpt lat="47.72074" lon="3.64672">
        <ele>235.66</ele>
        <time>2013-04-28T06:29:41Z</time>
      </trkpt>
      <trkpt lat="47.72063" lon="3.64649">
        <ele>235.18</ele>
        <time>2013-04-28T06:29:53Z</time>
      </trkpt>
      <trkpt lat="47.72056" lon="3.64632">
        <ele>235.66</ele>
        <time>2013-04-28T06:30:03Z</time>
      </trkpt>
      <trkpt lat="47.72049" lon="3.6461">
        <ele>235.66</ele>
        <time>2013-04-28T06:30:13Z</time>
      </trkpt>
      <trkpt lat="47.72045" lon="3.64599">
        <ele>235.66</ele>
        <time>2013-04-28T06:30:18Z</time>
      </trkpt>
      <trkpt lat="47.72036" lon="3.64584">
        <ele>235.66</ele>
        <time>2013-04-28T06:30:28Z</time>
      </trkpt>
      <trkpt lat="47.72026" lon="3.64561">
        <ele>236.62</ele>
        <time>2013-04-28T06:30:41Z</time>
      </trkpt>
      <trkpt lat="47.72019" lon="3.64544">
        <ele>236.14</ele>
        <time>2013-04-28T06:30:50Z</time>
      </trkpt>
      <trkpt lat="47.72011" lon="3.64525">
        <ele>236.14</ele>
        <time>2013-04-28T06:30:59Z</time>
      </trkpt>
      <trkpt lat="47.72011" lon="3.64523">
        <ele>236.14</ele>
        <time>2013-04-28T06:31:00Z</time>
      </trkpt>
      <trkpt lat="47.72008" lon="3.64513">
        <ele>236.14</ele>
        <time>2013-04-28T06:31:06Z</time>
      </trkpt>
      <trkpt lat="47.72003" lon="3.64503">
        <ele>235.66</ele>
        <time>2013-04-28T06:31:12Z</time>
      </trkpt>
      <trkpt lat="47.71997" lon="3.64484">
        <ele>235.66</ele>
        <time>2013-04-28T06:31:21Z</time>
      </trkpt>
      <trkpt lat="47.71987" lon="3.64468">
        <ele>236.14</ele>
        <time>2013-04-28T06:31:31Z</time>
      </trkpt>
      <trkpt lat="47.71979" lon="3.64453">
        <ele>236.14</ele>
        <time>2013-04-28T06:31:39Z</time>
      </trkpt>
      <trkpt lat="47.71978" lon="3.64447">
        <ele>236.62</ele>
        <time>2013-04-28T06:31:42Z</time>
      </trkpt>
      <trkpt lat="47.71973" lon="3.64437">
        <ele>236.62</ele>
        <time>2013-04-28T06:31:48Z</time>
      </trkpt>
      <trkpt lat="47.71961" lon="3.64419">
        <ele>237.1</ele>
        <time>2013-04-28T06:32:00Z</time>
      </trkpt>
      <trkpt lat="47.71959" lon="3.64416">
        <ele>237.1</ele>
        <time>2013-04-28T06:32:02Z</time>
      </trkpt>
      <trkpt lat="47.71946" lon="3.64403">
        <ele>238.54</ele>
        <time>2013-04-28T06:32:13Z</time>
      </trkpt>
      <trkpt lat="47.71931" lon="3.6439">
        <ele>238.54</ele>
        <time>2013-04-28T06:32:25Z</time>
      </trkpt>
      <trkpt lat="47.71919" lon="3.64385">
        <ele>239.02</ele>
        <time>2013-04-28T06:32:34Z</time>
      </trkpt>
      <trkpt lat="47.71914" lon="3.64382">
        <ele>239.51</ele>
        <time>2013-04-28T06:32:38Z</time>
      </trkpt>
      <trkpt lat="47.71898" lon="3.64373">
        <ele>240.95</ele>
        <time>2013-04-28T06:32:50Z</time>
      </trkpt>
      <trkpt lat="47.71897" lon="3.64373">
        <ele>241.43</ele>
        <time>2013-04-28T06:32:51Z</time>
      </trkpt>
      <trkpt lat="47.71887" lon="3.64367">
        <ele>241.91</ele>
        <time>2013-04-28T06:32:58Z</time>
      </trkpt>
      <trkpt lat="47.71876" lon="3.64361">
        <ele>241.91</ele>
        <time>2013-04-28T06:33:08Z</time>
      </trkpt>
      <trkpt lat="47.71868" lon="3.64349">
        <ele>241.91</ele>
        <time>2013-04-28T06:33:19Z</time>
      </trkpt>
      <trkpt lat="47.71861" lon="3.64342">
        <ele>242.39</ele>
        <time>2013-04-28T06:33:31Z</time>
      </trkpt>
      <trkpt lat="47.7186" lon="3.64342">
        <ele>242.87</ele>
        <time>2013-04-28T06:33:33Z</time>
      </trkpt>
      <trkpt lat="47.71858" lon="3.64341">
        <ele>242.87</ele>
        <time>2013-04-28T06:33:35Z</time>
      </trkpt>
      <trkpt lat="47.7185" lon="3.64337">
        <ele>242.87</ele>
        <time>2013-04-28T06:33:42Z</time>
      </trkpt>
      <trkpt lat="47.71844" lon="3.64337">
        <ele>242.87</ele>
        <time>2013-04-28T06:33:52Z</time>
      </trkpt>
      <trkpt lat="47.71837" lon="3.64333">
        <ele>243.35</ele>
        <time>2013-04-28T06:34:01Z</time>
      </trkpt>
      <trkpt lat="47.71837" lon="3.64333">
        <ele>243.35</ele>
        <time>2013-04-28T06:34:02Z</time>
      </trkpt>
      <trkpt lat="47.7182" lon="3.64329">
        <ele>243.35</ele>
        <time>2013-04-28T06:34:15Z</time>
      </trkpt>
      <trkpt lat="47.71805" lon="3.64322">
        <ele>241.91</ele>
        <time>2013-04-28T06:34:26Z</time>
      </trkpt>
      <trkpt lat="47.71791" lon="3.64313">
        <ele>239.51</ele>
        <time>2013-04-28T06:34:36Z</time>
      </trkpt>
      <trkpt lat="47.71774" lon="3.64309">
        <ele>237.58</ele>
        <time>2013-04-28T06:34:49Z</time>
      </trkpt>
      <trkpt lat="47.71763" lon="3.64309">
        <ele>236.14</ele>
        <time>2013-04-28T06:34:58Z</time>
      </trkpt>
      <trkpt lat="47.71752" lon="3.64309">
        <ele>234.22</ele>
        <time>2013-04-28T06:35:06Z</time>
      </trkpt>
      <trkpt lat="47.71742" lon="3.64313">
        <ele>232.3</ele>
        <time>2013-04-28T06:35:13Z</time>
      </trkpt>
      <trkpt lat="47.71736" lon="3.64316">
        <ele>231.33</ele>
        <time>2013-04-28T06:35:18Z</time>
      </trkpt>
      <trkpt lat="47.71717" lon="3.64309">
        <ele>228.45</ele>
        <time>2013-04-28T06:35:31Z</time>
      </trkpt>
      <trkpt lat="47.71704" lon="3.64304">
        <ele>226.53</ele>
        <time>2013-04-28T06:35:41Z</time>
      </trkpt>
      <trkpt lat="47.71696" lon="3.64303">
        <ele>225.57</ele>
        <time>2013-04-28T06:35:52Z</time>
      </trkpt>
      <trkpt lat="47.71695" lon="3.64302">
        <ele>225.09</ele>
        <time>2013-04-28T06:35:58Z</time>
      </trkpt>
      <trkpt lat="47.71689" lon="3.64298">
        <ele>224.61</ele>
        <time>2013-04-28T06:36:03Z</time>
      </trkpt>
      <trkpt lat="47.71676" lon="3.64294">
        <ele>223.16</ele>
        <time>2013-04-28T06:36:13Z</time>
      </trkpt>
      <trkpt lat="47.71671" lon="3.64293">
        <ele>222.68</ele>
        <time>2013-04-28T06:36:18Z</time>
      </trkpt>
      <trkpt lat="47.7166" lon="3.64287">
        <ele>220.28</ele>
        <time>2013-04-28T06:36:28Z</time>
      </trkpt>
      <trkpt lat="47.71652" lon="3.64303">
        <ele>219.32</ele>
        <time>2013-04-28T06:36:38Z</time>
      </trkpt>
      <trkpt lat="47.71652" lon="3.64307">
        <ele>219.32</ele>
        <time>2013-04-28T06:36:40Z</time>
      </trkpt>
      <trkpt lat="47.71652" lon="3.64311">
        <ele>219.32</ele>
        <time>2013-04-28T06:36:42Z</time>
      </trkpt>
      <trkpt lat="47.71652" lon="3.64325">
        <ele>219.8</ele>
        <time>2013-04-28T06:36:48Z</time>
      </trkpt>
      <trkpt lat="47.71652" lon="3.64344">
        <ele>220.28</ele>
        <time>2013-04-28T06:36:58Z</time>
      </trkpt>
      <trkpt lat="47.7165" lon="3.64368">
        <ele>220.28</ele>
        <time>2013-04-28T06:37:11Z</time>
      </trkpt>
      <trkpt lat="47.7165" lon="3.644">
        <ele>219.8</ele>
        <time>2013-04-28T06:37:25Z</time>
      </trkpt>
      <trkpt lat="47.71648" lon="3.64423">
        <ele>219.8</ele>
        <time>2013-04-28T06:37:37Z</time>
      </trkpt>
      <trkpt lat="47.71648" lon="3.64448">
        <ele>218.84</ele>
        <time>2013-04-28T06:37:48Z</time>
      </trkpt>
      <trkpt lat="47.71646" lon="3.64473">
        <ele>217.88</ele>
        <time>2013-04-28T06:38:00Z</time>
      </trkpt>
      <trkpt lat="47.7165" lon="3.64489">
        <ele>217.88</ele>
        <time>2013-04-28T06:38:09Z</time>
      </trkpt>
      <trkpt lat="47.71657" lon="3.64514">
        <ele>218.36</ele>
        <time>2013-04-28T06:38:20Z</time>
      </trkpt>
      <trkpt lat="47.71666" lon="3.6453">
        <ele>218.84</ele>
        <time>2013-04-28T06:38:31Z</time>
      </trkpt>
      <trkpt lat="47.71672" lon="3.64543">
        <ele>220.28</ele>
        <time>2013-04-28T06:38:39Z</time>
      </trkpt>
      <trkpt lat="47.71678" lon="3.64569">
        <ele>221.72</ele>
        <time>2013-04-28T06:38:52Z</time>
      </trkpt>
      <trkpt lat="47.71678" lon="3.64589">
        <ele>221.72</ele>
        <time>2013-04-28T06:39:02Z</time>
      </trkpt>
      <trkpt lat="47.71678" lon="3.64595">
        <ele>221.72</ele>
        <time>2013-04-28T06:39:05Z</time>
      </trkpt>
      <trkpt lat="47.71669" lon="3.64622">
        <ele>220.28</ele>
        <time>2013-04-28T06:39:19Z</time>
      </trkpt>
      <trkpt lat="47.71661" lon="3.64647">
        <ele>220.28</ele>
        <time>2013-04-28T06:39:32Z</time>
      </trkpt>
      <trkpt lat="47.71652" lon="3.64671">
        <ele>218.84</ele>
        <time>2013-04-28T06:39:45Z</time>
      </trkpt>
      <trkpt lat="47.71643" lon="3.64698">
        <ele>219.32</ele>
        <time>2013-04-28T06:39:59Z</time>
      </trkpt>
      <trkpt lat="47.71639" lon="3.64723">
        <ele>218.84</ele>
        <time>2013-04-28T06:40:12Z</time>
      </trkpt>
      <trkpt lat="47.71636" lon="3.64746">
        <ele>218.84</ele>
        <time>2013-04-28T06:40:24Z</time>
      </trkpt>
      <trkpt lat="47.71636" lon="3.64748">
        <ele>218.84</ele>
        <time>2013-04-28T06:40:32Z</time>
      </trkpt>
      <trkpt lat="47.71637" lon="3.64752">
        <ele>218.36</ele>
        <time>2013-04-28T06:40:36Z</time>
      </trkpt>
      <trkpt lat="47.71638" lon="3.6476">
        <ele>218.84</ele>
        <time>2013-04-28T06:40:41Z</time>
      </trkpt>
      <trkpt lat="47.7164" lon="3.64764">
        <ele>218.84</ele>
        <time>2013-04-28T06:40:44Z</time>
      </trkpt>
      <trkpt lat="47.71644" lon="3.64765">
        <ele>219.32</ele>
        <time>2013-04-28T06:40:49Z</time>
      </trkpt>
      <trkpt lat="47.71651" lon="3.64766">
        <ele>220.28</ele>
        <time>2013-04-28T06:40:56Z</time>
      </trkpt>
      <trkpt lat="47.7166" lon="3.64762">
        <ele>223.64</ele>
        <time>2013-04-28T06:41:07Z</time>
      </trkpt>
      <trkpt lat="47.71662" lon="3.64761">
        <ele>223.64</ele>
        <time>2013-04-28T06:41:10Z</time>
      </trkpt>
      <trkpt lat="47.71671" lon="3.64759">
        <ele>225.57</ele>
        <time>2013-04-28T06:41:18Z</time>
      </trkpt>
      <trkpt lat="47.71685" lon="3.64758">
        <ele>227.97</ele>
        <time>2013-04-28T06:41:30Z</time>
      </trkpt>
      <trkpt lat="47.71691" lon="3.64758">
        <ele>229.41</ele>
        <time>2013-04-28T06:41:36Z</time>
      </trkpt>
      <trkpt lat="47.71696" lon="3.64761">
        <ele>230.37</ele>
        <time>2013-04-28T06:41:41Z</time>
      </trkpt>
      <trkpt lat="47.71698" lon="3.64765">
        <ele>230.85</ele>
        <time>2013-04-28T06:41:44Z</time>
      </trkpt>
      <trkpt lat="47.71702" lon="3.64782">
        <ele>231.33</ele>
        <time>2013-04-28T06:41:54Z</time>
      </trkpt>
      <trkpt lat="47.71705" lon="3.64804">
        <ele>231.33</ele>
        <time>2013-04-28T06:42:05Z</time>
      </trkpt>
      <trkpt lat="47.71706" lon="3.64823">
        <ele>231.33</ele>
        <time>2013-04-28T06:42:16Z</time>
      </trkpt>
      <trkpt lat="47.71711" lon="3.64848">
        <ele>230.85</ele>
        <time>2013-04-28T06:42:28Z</time>
      </trkpt>
      <trkpt lat="47.71717" lon="3.64867">
        <ele>230.85</ele>
        <time>2013-04-28T06:42:38Z</time>
      </trkpt>
      <trkpt lat="47.71724" lon="3.64891">
        <ele>231.33</ele>
        <time>2013-04-28T06:42:50Z</time>
      </trkpt>
      <trkpt lat="47.71732" lon="3.64916">
        <ele>231.33</ele>
        <time>2013-04-28T06:43:02Z</time>
      </trkpt>
      <trkpt lat="47.7174" lon="3.64936">
        <ele>231.81</ele>
        <time>2013-04-28T06:43:14Z</time>
      </trkpt>
      <trkpt lat="47.7175" lon="3.64961">
        <ele>232.3</ele>
        <time>2013-04-28T06:43:27Z</time>
      </trkpt>
      <trkpt lat="47.71759" lon="3.64982">
        <ele>232.3</ele>
        <time>2013-04-28T06:43:39Z</time>
      </trkpt>
      <trkpt lat="47.71771" lon="3.6501">
        <ele>233.74</ele>
        <time>2013-04-28T06:43:55Z</time>
      </trkpt>
      <trkpt lat="47.71774" lon="3.65015">
        <ele>233.74</ele>
        <time>2013-04-28T06:43:58Z</time>
      </trkpt>
      <trkpt lat="47.71781" lon="3.65035">
        <ele>233.74</ele>
        <time>2013-04-28T06:44:08Z</time>
      </trkpt>
      <trkpt lat="47.71791" lon="3.65056">
        <ele>234.7</ele>
        <time>2013-04-28T06:44:20Z</time>
      </trkpt>
      <trkpt lat="47.71792" lon="3.65058">
        <ele>234.7</ele>
        <time>2013-04-28T06:44:23Z</time>
      </trkpt>
      <trkpt lat="47.71801" lon="3.65075">
        <ele>235.18</ele>
        <time>2013-04-28T06:44:33Z</time>
      </trkpt>
      <trkpt lat="47.71808" lon="3.65102">
        <ele>235.18</ele>
        <time>2013-04-28T06:44:46Z</time>
      </trkpt>
      <trkpt lat="47.71816" lon="3.6512">
        <ele>235.18</ele>
        <time>2013-04-28T06:44:56Z</time>
      </trkpt>
      <trkpt lat="47.71821" lon="3.65148">
        <ele>234.22</ele>
        <time>2013-04-28T06:45:09Z</time>
      </trkpt>
      <trkpt lat="47.71823" lon="3.65169">
        <ele>232.78</ele>
        <time>2013-04-28T06:45:20Z</time>
      </trkpt>
      <trkpt lat="47.71817" lon="3.65196">
        <ele>230.85</ele>
        <time>2013-04-28T06:45:30Z</time>
      </trkpt>
      <trkpt lat="47.7181" lon="3.65217">
        <ele>228.45</ele>
        <time>2013-04-28T06:45:42Z</time>
      </trkpt>
      <trkpt lat="47.71802" lon="3.65236">
        <ele>227.01</ele>
        <time>2013-04-28T06:45:52Z</time>
      </trkpt>
      <trkpt lat="47.71795" lon="3.6526">
        <ele>225.09</ele>
        <time>2013-04-28T06:46:05Z</time>
      </trkpt>
      <trkpt lat="47.71792" lon="3.65269">
        <ele>225.57</ele>
        <time>2013-04-28T06:46:10Z</time>
      </trkpt>
      <trkpt lat="47.71789" lon="3.65274">
        <ele>225.09</ele>
        <time>2013-04-28T06:46:14Z</time>
      </trkpt>
      <trkpt lat="47.71778" lon="3.65294">
        <ele>224.61</ele>
        <time>2013-04-28T06:46:26Z</time>
      </trkpt>
      <trkpt lat="47.71767" lon="3.65311">
        <ele>224.61</ele>
        <time>2013-04-28T06:46:37Z</time>
      </trkpt>
      <trkpt lat="47.71756" lon="3.6533">
        <ele>224.12</ele>
        <time>2013-04-28T06:46:48Z</time>
      </trkpt>
      <trkpt lat="47.71744" lon="3.65349">
        <ele>223.64</ele>
        <time>2013-04-28T06:47:00Z</time>
      </trkpt>
      <trkpt lat="47.71735" lon="3.65373">
        <ele>222.68</ele>
        <time>2013-04-28T06:47:12Z</time>
      </trkpt>
      <trkpt lat="47.7173" lon="3.65398">
        <ele>221.72</ele>
        <time>2013-04-28T06:47:25Z</time>
      </trkpt>
      <trkpt lat="47.71724" lon="3.6542">
        <ele>220.76</ele>
        <time>2013-04-28T06:47:37Z</time>
      </trkpt>
      <trkpt lat="47.71717" lon="3.65446">
        <ele>218.84</ele>
        <time>2013-04-28T06:47:49Z</time>
      </trkpt>
      <trkpt lat="47.7171" lon="3.65469">
        <ele>218.36</ele>
        <time>2013-04-28T06:48:01Z</time>
      </trkpt>
      <trkpt lat="47.71704" lon="3.65491">
        <ele>217.4</ele>
        <time>2013-04-28T06:48:13Z</time>
      </trkpt>
      <trkpt lat="47.71696" lon="3.65513">
        <ele>217.4</ele>
        <time>2013-04-28T06:48:26Z</time>
      </trkpt>
      <trkpt lat="47.71695" lon="3.65515">
        <ele>217.4</ele>
        <time>2013-04-28T06:48:28Z</time>
      </trkpt>
      <trkpt lat="47.71689" lon="3.65533">
        <ele>217.4</ele>
        <time>2013-04-28T06:48:39Z</time>
      </trkpt>
      <trkpt lat="47.71686" lon="3.65541">
        <ele>217.4</ele>
        <time>2013-04-28T06:48:43Z</time>
      </trkpt>
      <trkpt lat="47.71683" lon="3.65549">
        <ele>217.4</ele>
        <time>2013-04-28T06:48:47Z</time>
      </trkpt>
      <trkpt lat="47.71675" lon="3.65569">
        <ele>216.91</ele>
        <time>2013-04-28T06:49:00Z</time>
      </trkpt>
      <trkpt lat="47.71674" lon="3.65571">
        <ele>217.4</ele>
        <time>2013-04-28T06:49:01Z</time>
      </trkpt>
      <trkpt lat="47.7167" lon="3.65581">
        <ele>217.4</ele>
        <time>2013-04-28T06:49:07Z</time>
      </trkpt>
      <trkpt lat="47.71664" lon="3.65605">
        <ele>218.84</ele>
        <time>2013-04-28T06:49:20Z</time>
      </trkpt>
      <trkpt lat="47.71651" lon="3.6562">
        <ele>217.88</ele>
        <time>2013-04-28T06:49:32Z</time>
      </trkpt>
      <trkpt lat="47.71637" lon="3.6562">
        <ele>216.43</ele>
        <time>2013-04-28T06:49:42Z</time>
      </trkpt>
      <trkpt lat="47.71618" lon="3.65621">
        <ele>214.51</ele>
        <time>2013-04-28T06:49:56Z</time>
      </trkpt>
      <trkpt lat="47.71602" lon="3.65619">
        <ele>213.55</ele>
        <time>2013-04-28T06:50:08Z</time>
      </trkpt>
      <trkpt lat="47.71588" lon="3.65614">
        <ele>211.63</ele>
        <time>2013-04-28T06:50:19Z</time>
      </trkpt>
      <trkpt lat="47.71569" lon="3.65612">
        <ele>210.19</ele>
        <time>2013-04-28T06:50:32Z</time>
      </trkpt>
      <trkpt lat="47.71549" lon="3.65612">
        <ele>207.78</ele>
        <time>2013-04-28T06:50:46Z</time>
      </trkpt>
      <trkpt lat="47.71529" lon="3.65611">
        <ele>205.38</ele>
        <time>2013-04-28T06:51:02Z</time>
      </trkpt>
      <trkpt lat="47.71508" lon="3.65616">
        <ele>203.46</ele>
        <time>2013-04-28T06:51:16Z</time>
      </trkpt>
      <trkpt lat="47.71492" lon="3.65625">
        <ele>201.05</ele>
        <time>2013-04-28T06:51:29Z</time>
      </trkpt>
      <trkpt lat="47.71476" lon="3.6563">
        <ele>199.13</ele>
        <time>2013-04-28T06:51:42Z</time>
      </trkpt>
      <trkpt lat="47.7146" lon="3.65638">
        <ele>196.25</ele>
        <time>2013-04-28T06:51:53Z</time>
      </trkpt>
      <trkpt lat="47.71445" lon="3.65648">
        <ele>193.84</ele>
        <time>2013-04-28T06:52:04Z</time>
      </trkpt>
      <trkpt lat="47.71427" lon="3.65653">
        <ele>190.96</ele>
        <time>2013-04-28T06:52:16Z</time>
      </trkpt>
      <trkpt lat="47.71412" lon="3.65667">
        <ele>188.08</ele>
        <time>2013-04-28T06:52:28Z</time>
      </trkpt>
      <trkpt lat="47.71408" lon="3.65691">
        <ele>185.67</ele>
        <time>2013-04-28T06:52:40Z</time>
      </trkpt>
      <trkpt lat="47.71406" lon="3.65693">
        <ele>185.67</ele>
        <time>2013-04-28T06:52:49Z</time>
      </trkpt>
      <trkpt lat="47.71406" lon="3.65694">
        <ele>185.67</ele>
        <time>2013-04-28T06:52:51Z</time>
      </trkpt>
      <trkpt lat="47.71406" lon="3.65697">
        <ele>185.67</ele>
        <time>2013-04-28T06:52:53Z</time>
      </trkpt>
      <trkpt lat="47.71402" lon="3.65708">
        <ele>187.59</ele>
        <time>2013-04-28T06:53:02Z</time>
      </trkpt>
      <trkpt lat="47.71402" lon="3.65709">
        <ele>184.71</ele>
        <time>2013-04-28T06:53:03Z</time>
      </trkpt>
      <trkpt lat="47.71402" lon="3.6571">
        <ele>189.04</ele>
        <time>2013-04-28T06:53:04Z</time>
      </trkpt>
      <trkpt lat="47.71401" lon="3.65711">
        <ele>185.67</ele>
        <time>2013-04-28T06:53:05Z</time>
      </trkpt>
      <trkpt lat="47.71401" lon="3.65711">
        <ele>184.71</ele>
        <time>2013-04-28T06:53:07Z</time>
      </trkpt>
      <trkpt lat="47.71399" lon="3.65717">
        <ele>183.75</ele>
        <time>2013-04-28T06:53:16Z</time>
      </trkpt>
      <trkpt lat="47.71398" lon="3.65718">
        <ele>182.31</ele>
        <time>2013-04-28T06:53:17Z</time>
      </trkpt>
      <trkpt lat="47.71395" lon="3.65727">
        <ele>184.23</ele>
        <time>2013-04-28T06:53:27Z</time>
      </trkpt>
      <trkpt lat="47.71395" lon="3.65731">
        <ele>182.79</ele>
        <time>2013-04-28T06:53:29Z</time>
      </trkpt>
      <trkpt lat="47.71392" lon="3.65749">
        <ele>181.35</ele>
        <time>2013-04-28T06:53:36Z</time>
      </trkpt>
      <trkpt lat="47.71389" lon="3.65755">
        <ele>178.94</ele>
        <time>2013-04-28T06:53:39Z</time>
      </trkpt>
      <trkpt lat="47.71388" lon="3.65757">
        <ele>182.31</ele>
        <time>2013-04-28T06:53:40Z</time>
      </trkpt>
      <trkpt lat="47.71387" lon="3.65759">
        <ele>180.87</ele>
        <time>2013-04-28T06:53:41Z</time>
      </trkpt>
      <trkpt lat="47.71385" lon="3.65765">
        <ele>177.5</ele>
        <time>2013-04-28T06:53:44Z</time>
      </trkpt>
      <trkpt lat="47.71384" lon="3.65769">
        <ele>181.83</ele>
        <time>2013-04-28T06:53:46Z</time>
      </trkpt>
      <trkpt lat="47.71384" lon="3.6577">
        <ele>181.35</ele>
        <time>2013-04-28T06:53:47Z</time>
      </trkpt>
      <trkpt lat="47.71383" lon="3.65774">
        <ele>177.98</ele>
        <time>2013-04-28T06:53:49Z</time>
      </trkpt>
      <trkpt lat="47.71382" lon="3.6578">
        <ele>174.62</ele>
        <time>2013-04-28T06:53:52Z</time>
      </trkpt>
      <trkpt lat="47.71381" lon="3.65782">
        <ele>181.83</ele>
        <time>2013-04-28T06:53:53Z</time>
      </trkpt>
      <trkpt lat="47.71381" lon="3.65784">
        <ele>177.5</ele>
        <time>2013-04-28T06:53:54Z</time>
      </trkpt>
      <trkpt lat="47.7138" lon="3.65789">
        <ele>176.54</ele>
        <time>2013-04-28T06:53:56Z</time>
      </trkpt>
      <trkpt lat="47.71378" lon="3.658">
        <ele>176.06</ele>
        <time>2013-04-28T06:54:02Z</time>
      </trkpt>
      <trkpt lat="47.71374" lon="3.65818">
        <ele>174.14</ele>
        <time>2013-04-28T06:54:11Z</time>
      </trkpt>
      <trkpt lat="47.71374" lon="3.65824">
        <ele>173.17</ele>
        <time>2013-04-28T06:54:14Z</time>
      </trkpt>
      <trkpt lat="47.71373" lon="3.65844">
        <ele>172.21</ele>
        <time>2013-04-28T06:54:23Z</time>
      </trkpt>
      <trkpt lat="47.71372" lon="3.65866">
        <ele>170.77</ele>
        <time>2013-04-28T06:54:33Z</time>
      </trkpt>
      <trkpt lat="47.71369" lon="3.65886">
        <ele>169.33</ele>
        <time>2013-04-28T06:54:41Z</time>
      </trkpt>
      <trkpt lat="47.71367" lon="3.65909">
        <ele>166.93</ele>
        <time>2013-04-28T06:54:52Z</time>
      </trkpt>
      <trkpt lat="47.71362" lon="3.65932">
        <ele>164.52</ele>
        <time>2013-04-28T06:55:03Z</time>
      </trkpt>
      <trkpt lat="47.71359" lon="3.65948">
        <ele>163.08</ele>
        <time>2013-04-28T06:55:10Z</time>
      </trkpt>
      <trkpt lat="47.71355" lon="3.65969">
        <ele>161.16</ele>
        <time>2013-04-28T06:55:21Z</time>
      </trkpt>
      <trkpt lat="47.71351" lon="3.65999">
        <ele>158.75</ele>
        <time>2013-04-28T06:55:34Z</time>
      </trkpt>
      <trkpt lat="47.71349" lon="3.66026">
        <ele>156.35</ele>
        <time>2013-04-28T06:55:46Z</time>
      </trkpt>
      <trkpt lat="47.71348" lon="3.66038">
        <ele>155.39</ele>
        <time>2013-04-28T06:55:53Z</time>
      </trkpt>
      <trkpt lat="47.71351" lon="3.66052">
        <ele>152.51</ele>
        <time>2013-04-28T06:56:05Z</time>
      </trkpt>
      <trkpt lat="47.71352" lon="3.66056">
        <ele>152.51</ele>
        <time>2013-04-28T06:56:07Z</time>
      </trkpt>
      <trkpt lat="47.71354" lon="3.66062">
        <ele>152.03</ele>
        <time>2013-04-28T06:56:10Z</time>
      </trkpt>
      <trkpt lat="47.71356" lon="3.66068">
        <ele>152.03</ele>
        <time>2013-04-28T06:56:13Z</time>
      </trkpt>
      <trkpt lat="47.71366" lon="3.66082">
        <ele>151.06</ele>
        <time>2013-04-28T06:56:20Z</time>
      </trkpt>
      <trkpt lat="47.71368" lon="3.66096">
        <ele>150.1</ele>
        <time>2013-04-28T06:56:28Z</time>
      </trkpt>
      <trkpt lat="47.71366" lon="3.66106">
        <ele>149.62</ele>
        <time>2013-04-28T06:56:33Z</time>
      </trkpt>
      <trkpt lat="47.71362" lon="3.66119">
        <ele>149.62</ele>
        <time>2013-04-28T06:56:39Z</time>
      </trkpt>
      <trkpt lat="47.71357" lon="3.66133">
        <ele>150.58</ele>
        <time>2013-04-28T06:56:45Z</time>
      </trkpt>
      <trkpt lat="47.71359" lon="3.66137">
        <ele>150.58</ele>
        <time>2013-04-28T06:56:47Z</time>
      </trkpt>
      <trkpt lat="47.71364" lon="3.6616">
        <ele>152.99</ele>
        <time>2013-04-28T06:56:58Z</time>
      </trkpt>
      <trkpt lat="47.71365" lon="3.66163">
        <ele>153.47</ele>
        <time>2013-04-28T06:57:00Z</time>
      </trkpt>
      <trkpt lat="47.71373" lon="3.6618">
        <ele>155.39</ele>
        <time>2013-04-28T06:57:10Z</time>
      </trkpt>
      <trkpt lat="47.71376" lon="3.66189">
        <ele>156.83</ele>
        <time>2013-04-28T06:57:16Z</time>
      </trkpt>
      <trkpt lat="47.71378" lon="3.66199">
        <ele>157.31</ele>
        <time>2013-04-28T06:57:22Z</time>
      </trkpt>
      <trkpt lat="47.71363" lon="3.66191">
        <ele>157.79</ele>
        <time>2013-04-28T06:57:33Z</time>
      </trkpt>
      <trkpt lat="47.71352" lon="3.66181">
        <ele>159.24</ele>
        <time>2013-04-28T06:57:44Z</time>
      </trkpt>
      <trkpt lat="47.71349" lon="3.66178">
        <ele>159.72</ele>
        <time>2013-04-28T06:57:48Z</time>
      </trkpt>
      <trkpt lat="47.71335" lon="3.66183">
        <ele>160.68</ele>
        <time>2013-04-28T06:57:59Z</time>
      </trkpt>
      <trkpt lat="47.71327" lon="3.66195">
        <ele>161.64</ele>
        <time>2013-04-28T06:58:09Z</time>
      </trkpt>
      <trkpt lat="47.71315" lon="3.66207">
        <ele>163.08</ele>
        <time>2013-04-28T06:58:20Z</time>
      </trkpt>
      <trkpt lat="47.71305" lon="3.66218">
        <ele>163.56</ele>
        <time>2013-04-28T06:58:31Z</time>
      </trkpt>
      <trkpt lat="47.71304" lon="3.66219">
        <ele>163.56</ele>
        <time>2013-04-28T06:58:32Z</time>
      </trkpt>
      <trkpt lat="47.71295" lon="3.66233">
        <ele>165</ele>
        <time>2013-04-28T06:58:44Z</time>
      </trkpt>
      <trkpt lat="47.71283" lon="3.66247">
        <ele>165.96</ele>
        <time>2013-04-28T06:58:54Z</time>
      </trkpt>
      <trkpt lat="47.71267" lon="3.66255">
        <ele>166.45</ele>
        <time>2013-04-28T06:59:05Z</time>
      </trkpt>
      <trkpt lat="47.71266" lon="3.6627">
        <ele>168.85</ele>
        <time>2013-04-28T06:59:14Z</time>
      </trkpt>
      <trkpt lat="47.71263" lon="3.66292">
        <ele>169.81</ele>
        <time>2013-04-28T06:59:25Z</time>
      </trkpt>
      <trkpt lat="47.71261" lon="3.663">
        <ele>170.29</ele>
        <time>2013-04-28T06:59:29Z</time>
      </trkpt>
      <trkpt lat="47.71262" lon="3.66303">
        <ele>170.77</ele>
        <time>2013-04-28T06:59:31Z</time>
      </trkpt>
      <trkpt lat="47.71261" lon="3.66315">
        <ele>170.77</ele>
        <time>2013-04-28T06:59:37Z</time>
      </trkpt>
      <trkpt lat="47.71257" lon="3.66324">
        <ele>171.73</ele>
        <time>2013-04-28T06:59:42Z</time>
      </trkpt>
      <trkpt lat="47.71252" lon="3.66346">
        <ele>171.73</ele>
        <time>2013-04-28T06:59:53Z</time>
      </trkpt>
      <trkpt lat="47.71251" lon="3.66361">
        <ele>172.21</ele>
        <time>2013-04-28T07:00:01Z</time>
      </trkpt>
      <trkpt lat="47.71251" lon="3.66366">
        <ele>172.69</ele>
        <time>2013-04-28T07:00:04Z</time>
      </trkpt>
      <trkpt lat="47.7125" lon="3.66375">
        <ele>172.69</ele>
        <time>2013-04-28T07:00:08Z</time>
      </trkpt>
      <trkpt lat="47.71247" lon="3.66393">
        <ele>172.69</ele>
        <time>2013-04-28T07:00:17Z</time>
      </trkpt>
      <trkpt lat="47.71245" lon="3.66401">
        <ele>172.69</ele>
        <time>2013-04-28T07:00:21Z</time>
      </trkpt>
      <trkpt lat="47.71243" lon="3.66424">
        <ele>173.66</ele>
        <time>2013-04-28T07:00:32Z</time>
      </trkpt>
      <trkpt lat="47.71245" lon="3.66445">
        <ele>174.14</ele>
        <time>2013-04-28T07:00:42Z</time>
      </trkpt>
      <trkpt lat="47.71245" lon="3.66463">
        <ele>174.62</ele>
        <time>2013-04-28T07:00:50Z</time>
      </trkpt>
      <trkpt lat="47.71246" lon="3.66471">
        <ele>175.1</ele>
        <time>2013-04-28T07:00:54Z</time>
      </trkpt>
      <trkpt lat="47.71246" lon="3.66482">
        <ele>175.1</ele>
        <time>2013-04-28T07:01:00Z</time>
      </trkpt>
      <trkpt lat="47.71246" lon="3.66498">
        <ele>176.06</ele>
        <time>2013-04-28T07:01:09Z</time>
      </trkpt>
      <trkpt lat="47.71238" lon="3.66509">
        <ele>177.02</ele>
        <time>2013-04-28T07:01:16Z</time>
      </trkpt>
      <trkpt lat="47.71223" lon="3.66522">
        <ele>177.5</ele>
        <time>2013-04-28T07:01:27Z</time>
      </trkpt>
      <trkpt lat="47.7122" lon="3.66524">
        <ele>177.98</ele>
        <time>2013-04-28T07:01:30Z</time>
      </trkpt>
      <trkpt lat="47.71215" lon="3.66526">
        <ele>178.46</ele>
        <time>2013-04-28T07:01:34Z</time>
      </trkpt>
      <trkpt lat="47.71202" lon="3.66543">
        <ele>179.9</ele>
        <time>2013-04-28T07:01:47Z</time>
      </trkpt>
      <trkpt lat="47.71196" lon="3.66557">
        <ele>181.35</ele>
        <time>2013-04-28T07:01:55Z</time>
      </trkpt>
      <trkpt lat="47.71187" lon="3.6657">
        <ele>182.31</ele>
        <time>2013-04-28T07:02:04Z</time>
      </trkpt>
      <trkpt lat="47.71183" lon="3.66577">
        <ele>183.27</ele>
        <time>2013-04-28T07:02:08Z</time>
      </trkpt>
      <trkpt lat="47.71174" lon="3.66597">
        <ele>184.23</ele>
        <time>2013-04-28T07:02:20Z</time>
      </trkpt>
      <trkpt lat="47.7117" lon="3.66605">
        <ele>185.19</ele>
        <time>2013-04-28T07:02:25Z</time>
      </trkpt>
      <trkpt lat="47.71158" lon="3.66619">
        <ele>186.63</ele>
        <time>2013-04-28T07:02:36Z</time>
      </trkpt>
      <trkpt lat="47.71147" lon="3.66637">
        <ele>189.04</ele>
        <time>2013-04-28T07:02:47Z</time>
      </trkpt>
      <trkpt lat="47.71136" lon="3.66654">
        <ele>190.48</ele>
        <time>2013-04-28T07:02:59Z</time>
      </trkpt>
      <trkpt lat="47.71121" lon="3.66672">
        <ele>192.4</ele>
        <time>2013-04-28T07:03:13Z</time>
      </trkpt>
      <trkpt lat="47.71112" lon="3.66687">
        <ele>194.8</ele>
        <time>2013-04-28T07:03:25Z</time>
      </trkpt>
      <trkpt lat="47.71111" lon="3.66688">
        <ele>194.8</ele>
        <time>2013-04-28T07:03:26Z</time>
      </trkpt>
      <trkpt lat="47.71107" lon="3.66693">
        <ele>195.28</ele>
        <time>2013-04-28T07:03:31Z</time>
      </trkpt>
      <trkpt lat="47.71096" lon="3.66711">
        <ele>197.21</ele>
        <time>2013-04-28T07:03:44Z</time>
      </trkpt>
      <trkpt lat="47.71083" lon="3.6673">
        <ele>199.13</ele>
        <time>2013-04-28T07:03:58Z</time>
      </trkpt>
      <trkpt lat="47.71072" lon="3.66746">
        <ele>199.61</ele>
        <time>2013-04-28T07:04:10Z</time>
      </trkpt>
      <trkpt lat="47.71061" lon="3.66763">
        <ele>200.57</ele>
        <time>2013-04-28T07:04:21Z</time>
      </trkpt>
      <trkpt lat="47.7105" lon="3.66784">
        <ele>202.49</ele>
        <time>2013-04-28T07:04:34Z</time>
      </trkpt>
      <trkpt lat="47.71039" lon="3.66805">
        <ele>203.94</ele>
        <time>2013-04-28T07:04:48Z</time>
      </trkpt>
      <trkpt lat="47.71029" lon="3.66826">
        <ele>205.86</ele>
        <time>2013-04-28T07:05:00Z</time>
      </trkpt>
      <trkpt lat="47.7102" lon="3.66845">
        <ele>206.82</ele>
        <time>2013-04-28T07:05:12Z</time>
      </trkpt>
      <trkpt lat="47.7101" lon="3.66866">
        <ele>208.74</ele>
        <time>2013-04-28T07:05:25Z</time>
      </trkpt>
      <trkpt lat="47.70999" lon="3.66883">
        <ele>210.19</ele>
        <time>2013-04-28T07:05:37Z</time>
      </trkpt>
      <trkpt lat="47.70989" lon="3.66899">
        <ele>211.15</ele>
        <time>2013-04-28T07:05:48Z</time>
      </trkpt>
      <trkpt lat="47.70976" lon="3.66918">
        <ele>212.59</ele>
        <time>2013-04-28T07:06:02Z</time>
      </trkpt>
      <trkpt lat="47.70964" lon="3.6693">
        <ele>214.03</ele>
        <time>2013-04-28T07:06:12Z</time>
      </trkpt>
      <trkpt lat="47.70951" lon="3.66944">
        <ele>216.91</ele>
        <time>2013-04-28T07:06:24Z</time>
      </trkpt>
      <trkpt lat="47.70941" lon="3.66957">
        <ele>217.4</ele>
        <time>2013-04-28T07:06:34Z</time>
      </trkpt>
      <trkpt lat="47.70928" lon="3.66971">
        <ele>219.8</ele>
        <time>2013-04-28T07:06:45Z</time>
      </trkpt>
      <trkpt lat="47.70915" lon="3.66987">
        <ele>221.72</ele>
        <time>2013-04-28T07:06:58Z</time>
      </trkpt>
      <trkpt lat="47.70902" lon="3.67005">
        <ele>223.64</ele>
        <time>2013-04-28T07:07:11Z</time>
      </trkpt>
      <trkpt lat="47.70889" lon="3.6702">
        <ele>225.09</ele>
        <time>2013-04-28T07:07:23Z</time>
      </trkpt>
      <trkpt lat="47.70879" lon="3.67033">
        <ele>226.53</ele>
        <time>2013-04-28T07:07:33Z</time>
      </trkpt>
      <trkpt lat="47.70869" lon="3.67045">
        <ele>227.97</ele>
        <time>2013-04-28T07:07:44Z</time>
      </trkpt>
      <trkpt lat="47.70863" lon="3.67052">
        <ele>228.45</ele>
        <time>2013-04-28T07:07:49Z</time>
      </trkpt>
      <trkpt lat="47.70859" lon="3.67057">
        <ele>229.41</ele>
        <time>2013-04-28T07:07:53Z</time>
      </trkpt>
      <trkpt lat="47.70855" lon="3.67059">
        <ele>229.89</ele>
        <time>2013-04-28T07:07:56Z</time>
      </trkpt>
      <trkpt lat="47.70849" lon="3.67067">
        <ele>230.37</ele>
        <time>2013-04-28T07:08:03Z</time>
      </trkpt>
      <trkpt lat="47.70836" lon="3.67081">
        <ele>232.3</ele>
        <time>2013-04-28T07:08:16Z</time>
      </trkpt>
      <trkpt lat="47.70833" lon="3.67085">
        <ele>233.26</ele>
        <time>2013-04-28T07:08:19Z</time>
      </trkpt>
      <trkpt lat="47.70827" lon="3.67089">
        <ele>233.74</ele>
        <time>2013-04-28T07:08:24Z</time>
      </trkpt>
      <trkpt lat="47.70813" lon="3.67102">
        <ele>236.62</ele>
        <time>2013-04-28T07:08:37Z</time>
      </trkpt>
      <trkpt lat="47.70801" lon="3.67109">
        <ele>238.54</ele>
        <time>2013-04-28T07:08:47Z</time>
      </trkpt>
      <trkpt lat="47.70789" lon="3.67123">
        <ele>240.95</ele>
        <time>2013-04-28T07:08:59Z</time>
      </trkpt>
      <trkpt lat="47.70784" lon="3.67131">
        <ele>241.91</ele>
        <time>2013-04-28T07:09:05Z</time>
      </trkpt>
      <trkpt lat="47.70781" lon="3.67134">
        <ele>242.39</ele>
        <time>2013-04-28T07:09:08Z</time>
      </trkpt>
      <trkpt lat="47.70772" lon="3.67144">
        <ele>243.83</ele>
        <time>2013-04-28T07:09:17Z</time>
      </trkpt>
      <trkpt lat="47.7077" lon="3.67147">
        <ele>243.83</ele>
        <time>2013-04-28T07:09:20Z</time>
      </trkpt>
      <trkpt lat="47.70768" lon="3.67151">
        <ele>244.31</ele>
        <time>2013-04-28T07:09:23Z</time>
      </trkpt>
      <trkpt lat="47.70761" lon="3.67159">
        <ele>246.72</ele>
        <time>2013-04-28T07:09:31Z</time>
      </trkpt>
      <trkpt lat="47.7075" lon="3.67175">
        <ele>249.12</ele>
        <time>2013-04-28T07:09:43Z</time>
      </trkpt>
      <trkpt lat="47.70749" lon="3.67176">
        <ele>249.6</ele>
        <time>2013-04-28T07:09:44Z</time>
      </trkpt>
      <trkpt lat="47.7074" lon="3.6719">
        <ele>251.52</ele>
        <time>2013-04-28T07:09:55Z</time>
      </trkpt>
      <trkpt lat="47.70731" lon="3.67202">
        <ele>252.96</ele>
        <time>2013-04-28T07:10:05Z</time>
      </trkpt>
      <trkpt lat="47.70723" lon="3.67216">
        <ele>255.37</ele>
        <time>2013-04-28T07:10:16Z</time>
      </trkpt>
      <trkpt lat="47.70716" lon="3.67229">
        <ele>256.81</ele>
        <time>2013-04-28T07:10:25Z</time>
      </trkpt>
      <trkpt lat="47.70712" lon="3.67237">
        <ele>257.77</ele>
        <time>2013-04-28T07:10:31Z</time>
      </trkpt>
      <trkpt lat="47.70706" lon="3.6725">
        <ele>260.17</ele>
        <time>2013-04-28T07:10:42Z</time>
      </trkpt>
      <trkpt lat="47.70703" lon="3.67261">
        <ele>261.14</ele>
        <time>2013-04-28T07:10:49Z</time>
      </trkpt>
      <trkpt lat="47.70701" lon="3.67261">
        <ele>262.1</ele>
        <time>2013-04-28T07:10:52Z</time>
      </trkpt>
      <trkpt lat="47.70694" lon="3.67257">
        <ele>264.02</ele>
        <time>2013-04-28T07:11:00Z</time>
      </trkpt>
      <trkpt lat="47.7069" lon="3.67253">
        <ele>264.02</ele>
        <time>2013-04-28T07:11:03Z</time>
      </trkpt>
      <trkpt lat="47.70689" lon="3.67251">
        <ele>264.5</ele>
        <time>2013-04-28T07:11:05Z</time>
      </trkpt>
      <trkpt lat="47.70687" lon="3.67244">
        <ele>265.94</ele>
        <time>2013-04-28T07:11:11Z</time>
      </trkpt>
      <trkpt lat="47.70681" lon="3.67235">
        <ele>267.86</ele>
        <time>2013-04-28T07:11:21Z</time>
      </trkpt>
      <trkpt lat="47.70677" lon="3.6723">
        <ele>268.35</ele>
        <time>2013-04-28T07:11:25Z</time>
      </trkpt>
      <trkpt lat="47.70669" lon="3.67221">
        <ele>270.27</ele>
        <time>2013-04-28T07:11:34Z</time>
      </trkpt>
      <trkpt lat="47.70663" lon="3.67215">
        <ele>270.75</ele>
        <time>2013-04-28T07:11:39Z</time>
      </trkpt>
      <trkpt lat="47.70658" lon="3.67201">
        <ele>271.23</ele>
        <time>2013-04-28T07:11:47Z</time>
      </trkpt>
      <trkpt lat="47.70658" lon="3.67181">
        <ele>270.75</ele>
        <time>2013-04-28T07:11:58Z</time>
      </trkpt>
      <trkpt lat="47.7065" lon="3.67168">
        <ele>271.23</ele>
        <time>2013-04-28T07:12:08Z</time>
      </trkpt>
      <trkpt lat="47.70648" lon="3.67166">
        <ele>271.23</ele>
        <time>2013-04-28T07:12:10Z</time>
      </trkpt>
      <trkpt lat="47.70644" lon="3.67162">
        <ele>271.71</ele>
        <time>2013-04-28T07:12:13Z</time>
      </trkpt>
      <trkpt lat="47.70637" lon="3.67156">
        <ele>272.67</ele>
        <time>2013-04-28T07:12:18Z</time>
      </trkpt>
      <trkpt lat="47.70629" lon="3.67148">
        <ele>273.15</ele>
        <time>2013-04-28T07:12:24Z</time>
      </trkpt>
      <trkpt lat="47.70624" lon="3.67143">
        <ele>273.63</ele>
        <time>2013-04-28T07:12:28Z</time>
      </trkpt>
      <trkpt lat="47.70612" lon="3.67128">
        <ele>274.11</ele>
        <time>2013-04-28T07:12:39Z</time>
      </trkpt>
      <trkpt lat="47.70602" lon="3.6711">
        <ele>273.63</ele>
        <time>2013-04-28T07:12:50Z</time>
      </trkpt>
      <trkpt lat="47.7059" lon="3.67094">
        <ele>274.11</ele>
        <time>2013-04-28T07:13:01Z</time>
      </trkpt>
      <trkpt lat="47.70579" lon="3.67082">
        <ele>275.07</ele>
        <time>2013-04-28T07:13:11Z</time>
      </trkpt>
      <trkpt lat="47.70575" lon="3.67077">
        <ele>275.07</ele>
        <time>2013-04-28T07:13:15Z</time>
      </trkpt>
      <trkpt lat="47.70563" lon="3.67065">
        <ele>275.56</ele>
        <time>2013-04-28T07:13:26Z</time>
      </trkpt>
      <trkpt lat="47.70549" lon="3.67058">
        <ele>276.52</ele>
        <time>2013-04-28T07:13:36Z</time>
      </trkpt>
      <trkpt lat="47.70537" lon="3.67042">
        <ele>277</ele>
        <time>2013-04-28T07:13:48Z</time>
      </trkpt>
      <trkpt lat="47.70524" lon="3.67027">
        <ele>277</ele>
        <time>2013-04-28T07:13:59Z</time>
      </trkpt>
      <trkpt lat="47.70514" lon="3.67013">
        <ele>277</ele>
        <time>2013-04-28T07:14:09Z</time>
      </trkpt>
      <trkpt lat="47.70512" lon="3.67011">
        <ele>277</ele>
        <time>2013-04-28T07:14:11Z</time>
      </trkpt>
      <trkpt lat="47.70501" lon="3.66998">
        <ele>277</ele>
        <time>2013-04-28T07:14:20Z</time>
      </trkpt>
      <trkpt lat="47.70494" lon="3.66977">
        <ele>276.04</ele>
        <time>2013-04-28T07:14:31Z</time>
      </trkpt>
      <trkpt lat="47.70486" lon="3.66958">
        <ele>275.07</ele>
        <time>2013-04-28T07:14:42Z</time>
      </trkpt>
      <trkpt lat="47.70476" lon="3.66946">
        <ele>274.59</ele>
        <time>2013-04-28T07:14:51Z</time>
      </trkpt>
      <trkpt lat="47.70467" lon="3.66936">
        <ele>274.59</ele>
        <time>2013-04-28T07:15:01Z</time>
      </trkpt>
      <trkpt lat="47.70466" lon="3.66932">
        <ele>274.11</ele>
        <time>2013-04-28T07:15:04Z</time>
      </trkpt>
      <trkpt lat="47.70457" lon="3.66916">
        <ele>272.19</ele>
        <time>2013-04-28T07:15:13Z</time>
      </trkpt>
      <trkpt lat="47.70452" lon="3.66911">
        <ele>271.23</ele>
        <time>2013-04-28T07:15:17Z</time>
      </trkpt>
      <trkpt lat="47.70442" lon="3.66902">
        <ele>272.19</ele>
        <time>2013-04-28T07:15:26Z</time>
      </trkpt>
      <trkpt lat="47.70438" lon="3.66902">
        <ele>272.67</ele>
        <time>2013-04-28T07:15:29Z</time>
      </trkpt>
      <trkpt lat="47.70422" lon="3.66898">
        <ele>274.11</ele>
        <time>2013-04-28T07:15:41Z</time>
      </trkpt>
      <trkpt lat="47.70413" lon="3.66896">
        <ele>274.59</ele>
        <time>2013-04-28T07:15:47Z</time>
      </trkpt>
      <trkpt lat="47.70399" lon="3.66893">
        <ele>275.56</ele>
        <time>2013-04-28T07:15:57Z</time>
      </trkpt>
      <trkpt lat="47.70387" lon="3.66893">
        <ele>276.04</ele>
        <time>2013-04-28T07:16:07Z</time>
      </trkpt>
      <trkpt lat="47.70369" lon="3.66893">
        <ele>275.56</ele>
        <time>2013-04-28T07:16:19Z</time>
      </trkpt>
      <trkpt lat="47.70365" lon="3.66893">
        <ele>276.52</ele>
        <time>2013-04-28T07:16:22Z</time>
      </trkpt>
      <trkpt lat="47.70351" lon="3.66906">
        <ele>277.48</ele>
        <time>2013-04-28T07:16:34Z</time>
      </trkpt>
      <trkpt lat="47.70342" lon="3.66921">
        <ele>277.48</ele>
        <time>2013-04-28T07:16:44Z</time>
      </trkpt>
      <trkpt lat="47.70338" lon="3.66924">
        <ele>277.96</ele>
        <time>2013-04-28T07:16:47Z</time>
      </trkpt>
      <trkpt lat="47.70333" lon="3.66928">
        <ele>277.96</ele>
        <time>2013-04-28T07:16:51Z</time>
      </trkpt>
      <trkpt lat="47.70325" lon="3.66952">
        <ele>277.96</ele>
        <time>2013-04-28T07:17:04Z</time>
      </trkpt>
      <trkpt lat="47.70325" lon="3.66957">
        <ele>277.96</ele>
        <time>2013-04-28T07:17:06Z</time>
      </trkpt>
      <trkpt lat="47.70328" lon="3.66975">
        <ele>279.88</ele>
        <time>2013-04-28T07:17:17Z</time>
      </trkpt>
      <trkpt lat="47.70324" lon="3.66987">
        <ele>279.4</ele>
        <time>2013-04-28T07:17:26Z</time>
      </trkpt>
      <trkpt lat="47.70323" lon="3.66994">
        <ele>279.88</ele>
        <time>2013-04-28T07:17:30Z</time>
      </trkpt>
      <trkpt lat="47.70324" lon="3.67">
        <ele>279.88</ele>
        <time>2013-04-28T07:17:33Z</time>
      </trkpt>
      <trkpt lat="47.70324" lon="3.67009">
        <ele>279.4</ele>
        <time>2013-04-28T07:17:37Z</time>
      </trkpt>
      <trkpt lat="47.70326" lon="3.67019">
        <ele>278.92</ele>
        <time>2013-04-28T07:17:43Z</time>
      </trkpt>
      <trkpt lat="47.70328" lon="3.67028">
        <ele>278.92</ele>
        <time>2013-04-28T07:17:47Z</time>
      </trkpt>
      <trkpt lat="47.70329" lon="3.67037">
        <ele>278.92</ele>
        <time>2013-04-28T07:17:50Z</time>
      </trkpt>
      <trkpt lat="47.7033" lon="3.67046">
        <ele>278.44</ele>
        <time>2013-04-28T07:17:54Z</time>
      </trkpt>
      <trkpt lat="47.70333" lon="3.67065">
        <ele>278.92</ele>
        <time>2013-04-28T07:18:03Z</time>
      </trkpt>
      <trkpt lat="47.70335" lon="3.67077">
        <ele>280.36</ele>
        <time>2013-04-28T07:18:09Z</time>
      </trkpt>
      <trkpt lat="47.70335" lon="3.67093">
        <ele>279.88</ele>
        <time>2013-04-28T07:18:16Z</time>
      </trkpt>
      <trkpt lat="47.70337" lon="3.67099">
        <ele>279.88</ele>
        <time>2013-04-28T07:18:19Z</time>
      </trkpt>
      <trkpt lat="47.70339" lon="3.67114">
        <ele>280.36</ele>
        <time>2013-04-28T07:18:28Z</time>
      </trkpt>
      <trkpt lat="47.70338" lon="3.67125">
        <ele>279.88</ele>
        <time>2013-04-28T07:18:34Z</time>
      </trkpt>
      <trkpt lat="47.70342" lon="3.67138">
        <ele>280.36</ele>
        <time>2013-04-28T07:18:43Z</time>
      </trkpt>
      <trkpt lat="47.70347" lon="3.67149">
        <ele>279.88</ele>
        <time>2013-04-28T07:18:50Z</time>
      </trkpt>
      <trkpt lat="47.7035" lon="3.67173">
        <ele>280.36</ele>
        <time>2013-04-28T07:19:00Z</time>
      </trkpt>
      <trkpt lat="47.70354" lon="3.67198">
        <ele>280.84</ele>
        <time>2013-04-28T07:19:10Z</time>
      </trkpt>
      <trkpt lat="47.70358" lon="3.6722">
        <ele>280.36</ele>
        <time>2013-04-28T07:19:20Z</time>
      </trkpt>
      <trkpt lat="47.7036" lon="3.6724">
        <ele>280.36</ele>
        <time>2013-04-28T07:19:29Z</time>
      </trkpt>
      <trkpt lat="47.70366" lon="3.67263">
        <ele>279.88</ele>
        <time>2013-04-28T07:19:40Z</time>
      </trkpt>
      <trkpt lat="47.70374" lon="3.67286">
        <ele>279.88</ele>
        <time>2013-04-28T07:19:52Z</time>
      </trkpt>
      <trkpt lat="47.70376" lon="3.67297">
        <ele>280.36</ele>
        <time>2013-04-28T07:19:57Z</time>
      </trkpt>
      <trkpt lat="47.70379" lon="3.67306">
        <ele>280.84</ele>
        <time>2013-04-28T07:20:01Z</time>
      </trkpt>
      <trkpt lat="47.70389" lon="3.67332">
        <ele>281.32</ele>
        <time>2013-04-28T07:20:13Z</time>
      </trkpt>
      <trkpt lat="47.70397" lon="3.67355">
        <ele>281.8</ele>
        <time>2013-04-28T07:20:25Z</time>
      </trkpt>
      <trkpt lat="47.70405" lon="3.67378">
        <ele>283.25</ele>
        <time>2013-04-28T07:20:36Z</time>
      </trkpt>
      <trkpt lat="47.70415" lon="3.67398">
        <ele>283.73</ele>
        <time>2013-04-28T07:20:46Z</time>
      </trkpt>
      <trkpt lat="47.70416" lon="3.67409">
        <ele>283.25</ele>
        <time>2013-04-28T07:20:54Z</time>
      </trkpt>
      <trkpt lat="47.70416" lon="3.67414">
        <ele>282.77</ele>
        <time>2013-04-28T07:20:57Z</time>
      </trkpt>
      <trkpt lat="47.70418" lon="3.6743">
        <ele>281.8</ele>
        <time>2013-04-28T07:21:09Z</time>
      </trkpt>
      <trkpt lat="47.70419" lon="3.67435">
        <ele>281.8</ele>
        <time>2013-04-28T07:21:12Z</time>
      </trkpt>
      <trkpt lat="47.70419" lon="3.67447">
        <ele>282.28</ele>
        <time>2013-04-28T07:21:24Z</time>
      </trkpt>
      <trkpt lat="47.70421" lon="3.67453">
        <ele>281.32</ele>
        <time>2013-04-28T07:21:35Z</time>
      </trkpt>
      <trkpt lat="47.70425" lon="3.67462">
        <ele>281.8</ele>
        <time>2013-04-28T07:21:41Z</time>
      </trkpt>
      <trkpt lat="47.70426" lon="3.67467">
        <ele>281.8</ele>
        <time>2013-04-28T07:21:44Z</time>
      </trkpt>
      <trkpt lat="47.70433" lon="3.67489">
        <ele>281.8</ele>
        <time>2013-04-28T07:21:56Z</time>
      </trkpt>
      <trkpt lat="47.70435" lon="3.67499">
        <ele>281.32</ele>
        <time>2013-04-28T07:22:01Z</time>
      </trkpt>
      <trkpt lat="47.70438" lon="3.67505">
        <ele>281.8</ele>
        <time>2013-04-28T07:22:04Z</time>
      </trkpt>
      <trkpt lat="47.70439" lon="3.67512">
        <ele>281.8</ele>
        <time>2013-04-28T07:22:07Z</time>
      </trkpt>
      <trkpt lat="47.7044" lon="3.67522">
        <ele>282.28</ele>
        <time>2013-04-28T07:22:11Z</time>
      </trkpt>
      <trkpt lat="47.70443" lon="3.67535">
        <ele>282.28</ele>
        <time>2013-04-28T07:22:17Z</time>
      </trkpt>
      <trkpt lat="47.70447" lon="3.67552">
        <ele>281.8</ele>
        <time>2013-04-28T07:22:27Z</time>
      </trkpt>
      <trkpt lat="47.70448" lon="3.67559">
        <ele>282.77</ele>
        <time>2013-04-28T07:22:31Z</time>
      </trkpt>
      <trkpt lat="47.70452" lon="3.67566">
        <ele>283.73</ele>
        <time>2013-04-28T07:22:35Z</time>
      </trkpt>
      <trkpt lat="47.70455" lon="3.67584">
        <ele>284.21</ele>
        <time>2013-04-28T07:22:43Z</time>
      </trkpt>
      <trkpt lat="47.70459" lon="3.67592">
        <ele>285.65</ele>
        <time>2013-04-28T07:22:48Z</time>
      </trkpt>
      <trkpt lat="47.70459" lon="3.67603">
        <ele>283.73</ele>
        <time>2013-04-28T07:22:57Z</time>
      </trkpt>
      <trkpt lat="47.7046" lon="3.67608">
        <ele>283.25</ele>
        <time>2013-04-28T07:23:01Z</time>
      </trkpt>
      <trkpt lat="47.70462" lon="3.67612">
        <ele>283.25</ele>
        <time>2013-04-28T07:23:03Z</time>
      </trkpt>
      <trkpt lat="47.70468" lon="3.67632">
        <ele>284.21</ele>
        <time>2013-04-28T07:23:12Z</time>
      </trkpt>
      <trkpt lat="47.70464" lon="3.67653">
        <ele>281.8</ele>
        <time>2013-04-28T07:23:22Z</time>
      </trkpt>
      <trkpt lat="47.70462" lon="3.67656">
        <ele>280.84</ele>
        <time>2013-04-28T07:23:24Z</time>
      </trkpt>
      <trkpt lat="47.70457" lon="3.67662">
        <ele>279.4</ele>
        <time>2013-04-28T07:23:28Z</time>
      </trkpt>
      <trkpt lat="47.70449" lon="3.67667">
        <ele>276.52</ele>
        <time>2013-04-28T07:23:37Z</time>
      </trkpt>
      <trkpt lat="47.70446" lon="3.67669">
        <ele>275.07</ele>
        <time>2013-04-28T07:23:41Z</time>
      </trkpt>
      <trkpt lat="47.70442" lon="3.67671">
        <ele>273.15</ele>
        <time>2013-04-28T07:23:44Z</time>
      </trkpt>
      <trkpt lat="47.7044" lon="3.67672">
        <ele>272.19</ele>
        <time>2013-04-28T07:23:46Z</time>
      </trkpt>
      <trkpt lat="47.70438" lon="3.67673">
        <ele>271.71</ele>
        <time>2013-04-28T07:23:48Z</time>
      </trkpt>
      <trkpt lat="47.7043" lon="3.67673">
        <ele>268.35</ele>
        <time>2013-04-28T07:23:57Z</time>
      </trkpt>
      <trkpt lat="47.70426" lon="3.67671">
        <ele>267.86</ele>
        <time>2013-04-28T07:24:00Z</time>
      </trkpt>
      <trkpt lat="47.70421" lon="3.67671">
        <ele>265.94</ele>
        <time>2013-04-28T07:24:04Z</time>
      </trkpt>
      <trkpt lat="47.70418" lon="3.67673">
        <ele>264.5</ele>
        <time>2013-04-28T07:24:07Z</time>
      </trkpt>
      <trkpt lat="47.70411" lon="3.67675">
        <ele>262.58</ele>
        <time>2013-04-28T07:24:12Z</time>
      </trkpt>
      <trkpt lat="47.70404" lon="3.67679">
        <ele>259.21</ele>
        <time>2013-04-28T07:24:20Z</time>
      </trkpt>
      <trkpt lat="47.70396" lon="3.67683">
        <ele>257.29</ele>
        <time>2013-04-28T07:24:27Z</time>
      </trkpt>
      <trkpt lat="47.70386" lon="3.67685">
        <ele>253.93</ele>
        <time>2013-04-28T07:24:35Z</time>
      </trkpt>
      <trkpt lat="47.7038" lon="3.67688">
        <ele>251.52</ele>
        <time>2013-04-28T07:24:40Z</time>
      </trkpt>
      <trkpt lat="47.70375" lon="3.67688">
        <ele>250.08</ele>
        <time>2013-04-28T07:24:44Z</time>
      </trkpt>
      <trkpt lat="47.7037" lon="3.67693">
        <ele>248.64</ele>
        <time>2013-04-28T07:24:51Z</time>
      </trkpt>
      <trkpt lat="47.70363" lon="3.67694">
        <ele>246.72</ele>
        <time>2013-04-28T07:24:56Z</time>
      </trkpt>
      <trkpt lat="47.70353" lon="3.67696">
        <ele>244.31</ele>
        <time>2013-04-28T07:25:02Z</time>
      </trkpt>
      <trkpt lat="47.70345" lon="3.67698">
        <ele>242.39</ele>
        <time>2013-04-28T07:25:07Z</time>
      </trkpt>
      <trkpt lat="47.70331" lon="3.67702">
        <ele>238.54</ele>
        <time>2013-04-28T07:25:17Z</time>
      </trkpt>
      <trkpt lat="47.70321" lon="3.67706">
        <ele>235.66</ele>
        <time>2013-04-28T07:25:26Z</time>
      </trkpt>
      <trkpt lat="47.7031" lon="3.67711">
        <ele>232.3</ele>
        <time>2013-04-28T07:25:34Z</time>
      </trkpt>
      <trkpt lat="47.70296" lon="3.67713">
        <ele>228.93</ele>
        <time>2013-04-28T07:25:44Z</time>
      </trkpt>
      <trkpt lat="47.70292" lon="3.67714">
        <ele>227.49</ele>
        <time>2013-04-28T07:25:47Z</time>
      </trkpt>
      <trkpt lat="47.70282" lon="3.67721">
        <ele>225.09</ele>
        <time>2013-04-28T07:25:55Z</time>
      </trkpt>
      <trkpt lat="47.70281" lon="3.67723">
        <ele>224.61</ele>
        <time>2013-04-28T07:26:08Z</time>
      </trkpt>
      <trkpt lat="47.70279" lon="3.67728">
        <ele>224.61</ele>
        <time>2013-04-28T07:26:16Z</time>
      </trkpt>
      <trkpt lat="47.70279" lon="3.67728">
        <ele>225.09</ele>
        <time>2013-04-28T07:26:20Z</time>
      </trkpt>
      <trkpt lat="47.70278" lon="3.67731">
        <ele>225.09</ele>
        <time>2013-04-28T07:26:26Z</time>
      </trkpt>
      <trkpt lat="47.70278" lon="3.67749">
        <ele>225.57</ele>
        <time>2013-04-28T07:26:34Z</time>
      </trkpt>
      <trkpt lat="47.70278" lon="3.67756">
        <ele>225.57</ele>
        <time>2013-04-28T07:26:37Z</time>
      </trkpt>
      <trkpt lat="47.7028" lon="3.67768">
        <ele>226.05</ele>
        <time>2013-04-28T07:26:44Z</time>
      </trkpt>
      <trkpt lat="47.70284" lon="3.6779">
        <ele>226.53</ele>
        <time>2013-04-28T07:26:55Z</time>
      </trkpt>
      <trkpt lat="47.7029" lon="3.67809">
        <ele>226.53</ele>
        <time>2013-04-28T07:27:06Z</time>
      </trkpt>
      <trkpt lat="47.70298" lon="3.67827">
        <ele>227.01</ele>
        <time>2013-04-28T07:27:16Z</time>
      </trkpt>
      <trkpt lat="47.70299" lon="3.67828">
        <ele>226.53</ele>
        <time>2013-04-28T07:27:17Z</time>
      </trkpt>
      <trkpt lat="47.70301" lon="3.67832">
        <ele>227.01</ele>
        <time>2013-04-28T07:27:19Z</time>
      </trkpt>
      <trkpt lat="47.70304" lon="3.67838">
        <ele>227.49</ele>
        <time>2013-04-28T07:27:23Z</time>
      </trkpt>
      <trkpt lat="47.70318" lon="3.67856">
        <ele>227.97</ele>
        <time>2013-04-28T07:27:36Z</time>
      </trkpt>
      <trkpt lat="47.7033" lon="3.67871">
        <ele>228.93</ele>
        <time>2013-04-28T07:27:46Z</time>
      </trkpt>
      <trkpt lat="47.70332" lon="3.67873">
        <ele>228.93</ele>
        <time>2013-04-28T07:27:48Z</time>
      </trkpt>
      <trkpt lat="47.70334" lon="3.67876">
        <ele>229.89</ele>
        <time>2013-04-28T07:27:53Z</time>
      </trkpt>
      <trkpt lat="47.70337" lon="3.67882">
        <ele>229.89</ele>
        <time>2013-04-28T07:27:58Z</time>
      </trkpt>
      <trkpt lat="47.7035" lon="3.67895">
        <ele>230.37</ele>
        <time>2013-04-28T07:28:10Z</time>
      </trkpt>
      <trkpt lat="47.70363" lon="3.67908">
        <ele>230.85</ele>
        <time>2013-04-28T07:28:20Z</time>
      </trkpt>
      <trkpt lat="47.70367" lon="3.67912">
        <ele>231.33</ele>
        <time>2013-04-28T07:28:23Z</time>
      </trkpt>
      <trkpt lat="47.70378" lon="3.67924">
        <ele>231.81</ele>
        <time>2013-04-28T07:28:33Z</time>
      </trkpt>
      <trkpt lat="47.70383" lon="3.67932">
        <ele>232.3</ele>
        <time>2013-04-28T07:28:37Z</time>
      </trkpt>
      <trkpt lat="47.70388" lon="3.67938">
        <ele>232.78</ele>
        <time>2013-04-28T07:28:41Z</time>
      </trkpt>
      <trkpt lat="47.70392" lon="3.67946">
        <ele>233.26</ele>
        <time>2013-04-28T07:28:45Z</time>
      </trkpt>
      <trkpt lat="47.70398" lon="3.67956">
        <ele>233.74</ele>
        <time>2013-04-28T07:28:51Z</time>
      </trkpt>
      <trkpt lat="47.70408" lon="3.6798">
        <ele>235.66</ele>
        <time>2013-04-28T07:29:03Z</time>
      </trkpt>
      <trkpt lat="47.7041" lon="3.67987">
        <ele>235.66</ele>
        <time>2013-04-28T07:29:07Z</time>
      </trkpt>
      <trkpt lat="47.70413" lon="3.67996">
        <ele>236.14</ele>
        <time>2013-04-28T07:29:16Z</time>
      </trkpt>
      <trkpt lat="47.70413" lon="3.67998">
        <ele>236.14</ele>
        <time>2013-04-28T07:29:25Z</time>
      </trkpt>
      <trkpt lat="47.70416" lon="3.68011">
        <ele>237.1</ele>
        <time>2013-04-28T07:29:32Z</time>
      </trkpt>
      <trkpt lat="47.70422" lon="3.68036">
        <ele>237.58</ele>
        <time>2013-04-28T07:29:44Z</time>
      </trkpt>
      <trkpt lat="47.70424" lon="3.68041">
        <ele>237.58</ele>
        <time>2013-04-28T07:29:47Z</time>
      </trkpt>
      <trkpt lat="47.70427" lon="3.68055">
        <ele>238.06</ele>
        <time>2013-04-28T07:29:54Z</time>
      </trkpt>
      <trkpt lat="47.70434" lon="3.68081">
        <ele>238.54</ele>
        <time>2013-04-28T07:30:06Z</time>
      </trkpt>
      <trkpt lat="47.7044" lon="3.68098">
        <ele>239.02</ele>
        <time>2013-04-28T07:30:15Z</time>
      </trkpt>
      <trkpt lat="47.7045" lon="3.6812">
        <ele>239.02</ele>
        <time>2013-04-28T07:30:27Z</time>
      </trkpt>
      <trkpt lat="47.70455" lon="3.68131">
        <ele>239.51</ele>
        <time>2013-04-28T07:30:33Z</time>
      </trkpt>
      <trkpt lat="47.70461" lon="3.68142">
        <ele>240.47</ele>
        <time>2013-04-28T07:30:40Z</time>
      </trkpt>
      <trkpt lat="47.70471" lon="3.68161">
        <ele>241.43</ele>
        <time>2013-04-28T07:30:51Z</time>
      </trkpt>
      <trkpt lat="47.70471" lon="3.68164">
        <ele>241.43</ele>
        <time>2013-04-28T07:30:57Z</time>
      </trkpt>
      <trkpt lat="47.70476" lon="3.6818">
        <ele>242.39</ele>
        <time>2013-04-28T07:31:06Z</time>
      </trkpt>
      <trkpt lat="47.70479" lon="3.68184">
        <ele>242.39</ele>
        <time>2013-04-28T07:31:08Z</time>
      </trkpt>
      <trkpt lat="47.70482" lon="3.68189">
        <ele>242.39</ele>
        <time>2013-04-28T07:31:11Z</time>
      </trkpt>
      <trkpt lat="47.70489" lon="3.68202">
        <ele>242.87</ele>
        <time>2013-04-28T07:31:19Z</time>
      </trkpt>
      <trkpt lat="47.7049" lon="3.68203">
        <ele>243.35</ele>
        <time>2013-04-28T07:31:20Z</time>
      </trkpt>
      <trkpt lat="47.70491" lon="3.68207">
        <ele>243.35</ele>
        <time>2013-04-28T07:31:22Z</time>
      </trkpt>
      <trkpt lat="47.70498" lon="3.68221">
        <ele>243.83</ele>
        <time>2013-04-28T07:31:31Z</time>
      </trkpt>
      <trkpt lat="47.705" lon="3.68224">
        <ele>244.31</ele>
        <time>2013-04-28T07:31:35Z</time>
      </trkpt>
      <trkpt lat="47.70502" lon="3.68228">
        <ele>244.79</ele>
        <time>2013-04-28T07:31:38Z</time>
      </trkpt>
      <trkpt lat="47.70509" lon="3.68238">
        <ele>244.79</ele>
        <time>2013-04-28T07:31:45Z</time>
      </trkpt>
      <trkpt lat="47.70519" lon="3.68252">
        <ele>245.75</ele>
        <time>2013-04-28T07:31:55Z</time>
      </trkpt>
      <trkpt lat="47.70531" lon="3.68268">
        <ele>246.72</ele>
        <time>2013-04-28T07:32:06Z</time>
      </trkpt>
      <trkpt lat="47.70533" lon="3.6827">
        <ele>247.2</ele>
        <time>2013-04-28T07:32:08Z</time>
      </trkpt>
      <trkpt lat="47.70541" lon="3.68283">
        <ele>248.16</ele>
        <time>2013-04-28T07:32:18Z</time>
      </trkpt>
      <trkpt lat="47.70552" lon="3.68296">
        <ele>248.64</ele>
        <time>2013-04-28T07:32:29Z</time>
      </trkpt>
      <trkpt lat="47.70562" lon="3.68308">
        <ele>249.6</ele>
        <time>2013-04-28T07:32:39Z</time>
      </trkpt>
      <trkpt lat="47.70571" lon="3.68319">
        <ele>250.08</ele>
        <time>2013-04-28T07:32:47Z</time>
      </trkpt>
      <trkpt lat="47.70572" lon="3.68321">
        <ele>250.56</ele>
        <time>2013-04-28T07:32:48Z</time>
      </trkpt>
      <trkpt lat="47.70576" lon="3.68327">
        <ele>251.04</ele>
        <time>2013-04-28T07:32:52Z</time>
      </trkpt>
      <trkpt lat="47.70577" lon="3.68331">
        <ele>251.04</ele>
        <time>2013-04-28T07:32:54Z</time>
      </trkpt>
      <trkpt lat="47.70589" lon="3.68345">
        <ele>251.52</ele>
        <time>2013-04-28T07:33:04Z</time>
      </trkpt>
      <trkpt lat="47.70596" lon="3.68354">
        <ele>252</ele>
        <time>2013-04-28T07:33:11Z</time>
      </trkpt>
      <trkpt lat="47.70603" lon="3.68363">
        <ele>252.48</ele>
        <time>2013-04-28T07:33:17Z</time>
      </trkpt>
      <trkpt lat="47.70608" lon="3.68373">
        <ele>252.96</ele>
        <time>2013-04-28T07:33:25Z</time>
      </trkpt>
      <trkpt lat="47.70614" lon="3.68381">
        <ele>252.96</ele>
        <time>2013-04-28T07:33:30Z</time>
      </trkpt>
      <trkpt lat="47.70616" lon="3.68384">
        <ele>252.96</ele>
        <time>2013-04-28T07:33:33Z</time>
      </trkpt>
      <trkpt lat="47.70624" lon="3.68396">
        <ele>253.93</ele>
        <time>2013-04-28T07:33:44Z</time>
      </trkpt>
      <trkpt lat="47.70628" lon="3.68402">
        <ele>253.44</ele>
        <time>2013-04-28T07:33:53Z</time>
      </trkpt>
      <trkpt lat="47.70637" lon="3.68412">
        <ele>253.44</ele>
        <time>2013-04-28T07:34:01Z</time>
      </trkpt>
      <trkpt lat="47.70643" lon="3.68418">
        <ele>253.93</ele>
        <time>2013-04-28T07:34:07Z</time>
      </trkpt>
      <trkpt lat="47.70649" lon="3.68426">
        <ele>254.41</ele>
        <time>2013-04-28T07:34:16Z</time>
      </trkpt>
      <trkpt lat="47.70657" lon="3.68439">
        <ele>254.41</ele>
        <time>2013-04-28T07:34:26Z</time>
      </trkpt>
      <trkpt lat="47.70659" lon="3.68443">
        <ele>254.89</ele>
        <time>2013-04-28T07:34:29Z</time>
      </trkpt>
      <trkpt lat="47.70664" lon="3.68452">
        <ele>254.41</ele>
        <time>2013-04-28T07:34:40Z</time>
      </trkpt>
      <trkpt lat="47.70665" lon="3.68454">
        <ele>254.89</ele>
        <time>2013-04-28T07:34:43Z</time>
      </trkpt>
      <trkpt lat="47.70672" lon="3.68463">
        <ele>255.37</ele>
        <time>2013-04-28T07:34:53Z</time>
      </trkpt>
      <trkpt lat="47.70674" lon="3.68466">
        <ele>255.37</ele>
        <time>2013-04-28T07:34:55Z</time>
      </trkpt>
      <trkpt lat="47.70676" lon="3.68467">
        <ele>255.37</ele>
        <time>2013-04-28T07:34:57Z</time>
      </trkpt>
      <trkpt lat="47.70681" lon="3.68476">
        <ele>255.37</ele>
        <time>2013-04-28T07:35:04Z</time>
      </trkpt>
      <trkpt lat="47.70683" lon="3.68479">
        <ele>255.37</ele>
        <time>2013-04-28T07:35:06Z</time>
      </trkpt>
      <trkpt lat="47.70692" lon="3.68494">
        <ele>255.85</ele>
        <time>2013-04-28T07:35:16Z</time>
      </trkpt>
      <trkpt lat="47.70699" lon="3.68505">
        <ele>255.85</ele>
        <time>2013-04-28T07:35:23Z</time>
      </trkpt>
      <trkpt lat="47.70702" lon="3.6851">
        <ele>256.33</ele>
        <time>2013-04-28T07:35:26Z</time>
      </trkpt>
      <trkpt lat="47.70704" lon="3.68513">
        <ele>255.85</ele>
        <time>2013-04-28T07:35:28Z</time>
      </trkpt>
      <trkpt lat="47.70705" lon="3.68517">
        <ele>256.33</ele>
        <time>2013-04-28T07:35:30Z</time>
      </trkpt>
      <trkpt lat="47.70709" lon="3.68525">
        <ele>255.85</ele>
        <time>2013-04-28T07:35:36Z</time>
      </trkpt>
      <trkpt lat="47.70719" lon="3.68539">
        <ele>256.81</ele>
        <time>2013-04-28T07:35:46Z</time>
      </trkpt>
      <trkpt lat="47.70728" lon="3.68551">
        <ele>256.33</ele>
        <time>2013-04-28T07:35:54Z</time>
      </trkpt>
      <trkpt lat="47.70736" lon="3.68564">
        <ele>256.81</ele>
        <time>2013-04-28T07:36:03Z</time>
      </trkpt>
      <trkpt lat="47.70741" lon="3.68573">
        <ele>256.81</ele>
        <time>2013-04-28T07:36:10Z</time>
      </trkpt>
      <trkpt lat="47.70743" lon="3.68575">
        <ele>256.81</ele>
        <time>2013-04-28T07:36:12Z</time>
      </trkpt>
      <trkpt lat="47.70751" lon="3.6859">
        <ele>257.29</ele>
        <time>2013-04-28T07:36:21Z</time>
      </trkpt>
      <trkpt lat="47.70761" lon="3.68606">
        <ele>257.77</ele>
        <time>2013-04-28T07:36:31Z</time>
      </trkpt>
      <trkpt lat="47.70765" lon="3.68609">
        <ele>257.77</ele>
        <time>2013-04-28T07:36:34Z</time>
      </trkpt>
      <trkpt lat="47.70767" lon="3.68614">
        <ele>258.25</ele>
        <time>2013-04-28T07:36:38Z</time>
      </trkpt>
      <trkpt lat="47.70769" lon="3.68618">
        <ele>258.25</ele>
        <time>2013-04-28T07:36:42Z</time>
      </trkpt>
      <trkpt lat="47.70778" lon="3.68632">
        <ele>258.73</ele>
        <time>2013-04-28T07:36:53Z</time>
      </trkpt>
      <trkpt lat="47.70781" lon="3.68641">
        <ele>258.73</ele>
        <time>2013-04-28T07:36:57Z</time>
      </trkpt>
      <trkpt lat="47.70785" lon="3.68647">
        <ele>259.21</ele>
        <time>2013-04-28T07:37:01Z</time>
      </trkpt>
      <trkpt lat="47.70789" lon="3.68659">
        <ele>259.21</ele>
        <time>2013-04-28T07:37:09Z</time>
      </trkpt>
      <trkpt lat="47.70786" lon="3.68683">
        <ele>258.25</ele>
        <time>2013-04-28T07:37:20Z</time>
      </trkpt>
      <trkpt lat="47.70779" lon="3.68699">
        <ele>257.29</ele>
        <time>2013-04-28T07:37:30Z</time>
      </trkpt>
      <trkpt lat="47.70768" lon="3.68707">
        <ele>256.81</ele>
        <time>2013-04-28T07:37:39Z</time>
      </trkpt>
      <trkpt lat="47.7076" lon="3.6871">
        <ele>256.81</ele>
        <time>2013-04-28T07:37:46Z</time>
      </trkpt>
      <trkpt lat="47.70744" lon="3.6872">
        <ele>254.89</ele>
        <time>2013-04-28T07:37:59Z</time>
      </trkpt>
      <trkpt lat="47.70728" lon="3.68731">
        <ele>253.93</ele>
        <time>2013-04-28T07:38:11Z</time>
      </trkpt>
      <trkpt lat="47.70709" lon="3.68738">
        <ele>252.48</ele>
        <time>2013-04-28T07:38:26Z</time>
      </trkpt>
      <trkpt lat="47.7069" lon="3.68738">
        <ele>250.56</ele>
        <time>2013-04-28T07:38:39Z</time>
      </trkpt>
      <trkpt lat="47.70672" lon="3.68738">
        <ele>249.6</ele>
        <time>2013-04-28T07:38:51Z</time>
      </trkpt>
      <trkpt lat="47.70659" lon="3.68736">
        <ele>248.64</ele>
        <time>2013-04-28T07:39:02Z</time>
      </trkpt>
      <trkpt lat="47.70644" lon="3.68736">
        <ele>247.68</ele>
        <time>2013-04-28T07:39:12Z</time>
      </trkpt>
      <trkpt lat="47.70626" lon="3.68737">
        <ele>246.72</ele>
        <time>2013-04-28T07:39:24Z</time>
      </trkpt>
      <trkpt lat="47.70612" lon="3.68735">
        <ele>245.75</ele>
        <time>2013-04-28T07:39:35Z</time>
      </trkpt>
      <trkpt lat="47.70594" lon="3.68736">
        <ele>244.79</ele>
        <time>2013-04-28T07:39:47Z</time>
      </trkpt>
      <trkpt lat="47.70577" lon="3.6873">
        <ele>244.31</ele>
        <time>2013-04-28T07:39:59Z</time>
      </trkpt>
      <trkpt lat="47.70575" lon="3.6873">
        <ele>244.31</ele>
        <time>2013-04-28T07:40:01Z</time>
      </trkpt>
      <trkpt lat="47.7057" lon="3.68729">
        <ele>244.31</ele>
        <time>2013-04-28T07:40:05Z</time>
      </trkpt>
      <trkpt lat="47.70552" lon="3.68728">
        <ele>243.35</ele>
        <time>2013-04-28T07:40:18Z</time>
      </trkpt>
      <trkpt lat="47.70535" lon="3.68729">
        <ele>242.87</ele>
        <time>2013-04-28T07:40:29Z</time>
      </trkpt>
      <trkpt lat="47.70522" lon="3.68725">
        <ele>242.39</ele>
        <time>2013-04-28T07:40:39Z</time>
      </trkpt>
      <trkpt lat="47.70508" lon="3.68723">
        <ele>241.43</ele>
        <time>2013-04-28T07:40:49Z</time>
      </trkpt>
      <trkpt lat="47.70494" lon="3.68723">
        <ele>240.47</ele>
        <time>2013-04-28T07:41:00Z</time>
      </trkpt>
      <trkpt lat="47.70493" lon="3.68723">
        <ele>240.47</ele>
        <time>2013-04-28T07:41:01Z</time>
      </trkpt>
      <trkpt lat="47.70484" lon="3.68723">
        <ele>239.99</ele>
        <time>2013-04-28T07:41:08Z</time>
      </trkpt>
      <trkpt lat="47.70477" lon="3.68722">
        <ele>239.99</ele>
        <time>2013-04-28T07:41:13Z</time>
      </trkpt>
      <trkpt lat="47.70471" lon="3.6872">
        <ele>239.51</ele>
        <time>2013-04-28T07:41:17Z</time>
      </trkpt>
      <trkpt lat="47.70453" lon="3.68723">
        <ele>238.54</ele>
        <time>2013-04-28T07:41:30Z</time>
      </trkpt>
      <trkpt lat="47.70438" lon="3.68722">
        <ele>237.1</ele>
        <time>2013-04-28T07:41:42Z</time>
      </trkpt>
      <trkpt lat="47.70423" lon="3.68723">
        <ele>236.14</ele>
        <time>2013-04-28T07:41:52Z</time>
      </trkpt>
      <trkpt lat="47.70407" lon="3.68721">
        <ele>234.7</ele>
        <time>2013-04-28T07:42:05Z</time>
      </trkpt>
      <trkpt lat="47.70407" lon="3.68717">
        <ele>235.18</ele>
        <time>2013-04-28T07:42:08Z</time>
      </trkpt>
      <trkpt lat="47.70405" lon="3.6871">
        <ele>235.66</ele>
        <time>2013-04-28T07:42:20Z</time>
      </trkpt>
      <trkpt lat="47.70405" lon="3.6871">
        <ele>235.66</ele>
        <time>2013-04-28T07:42:26Z</time>
      </trkpt>
      <trkpt lat="47.70406" lon="3.68716">
        <ele>235.66</ele>
        <time>2013-04-28T07:42:30Z</time>
      </trkpt>
      <trkpt lat="47.70405" lon="3.68721">
        <ele>235.18</ele>
        <time>2013-04-28T07:42:34Z</time>
      </trkpt>
      <trkpt lat="47.70395" lon="3.68724">
        <ele>234.22</ele>
        <time>2013-04-28T07:42:46Z</time>
      </trkpt>
      <trkpt lat="47.70389" lon="3.68724">
        <ele>234.22</ele>
        <time>2013-04-28T07:42:51Z</time>
      </trkpt>
      <trkpt lat="47.70383" lon="3.68724">
        <ele>233.74</ele>
        <time>2013-04-28T07:42:55Z</time>
      </trkpt>
      <trkpt lat="47.70362" lon="3.6872">
        <ele>232.3</ele>
        <time>2013-04-28T07:43:09Z</time>
      </trkpt>
      <trkpt lat="47.70353" lon="3.68718">
        <ele>232.3</ele>
        <time>2013-04-28T07:43:16Z</time>
      </trkpt>
      <trkpt lat="47.70335" lon="3.68716">
        <ele>231.33</ele>
        <time>2013-04-28T07:43:27Z</time>
      </trkpt>
      <trkpt lat="47.70317" lon="3.68711">
        <ele>230.37</ele>
        <time>2013-04-28T07:43:39Z</time>
      </trkpt>
      <trkpt lat="47.70297" lon="3.68706">
        <ele>229.41</ele>
        <time>2013-04-28T07:43:52Z</time>
      </trkpt>
      <trkpt lat="47.70296" lon="3.68705">
        <ele>229.41</ele>
        <time>2013-04-28T07:43:53Z</time>
      </trkpt>
      <trkpt lat="47.70279" lon="3.68705">
        <ele>228.45</ele>
        <time>2013-04-28T07:44:04Z</time>
      </trkpt>
      <trkpt lat="47.70267" lon="3.68705">
        <ele>227.97</ele>
        <time>2013-04-28T07:44:13Z</time>
      </trkpt>
      <trkpt lat="47.70263" lon="3.68706">
        <ele>227.49</ele>
        <time>2013-04-28T07:44:17Z</time>
      </trkpt>
      <trkpt lat="47.70246" lon="3.687">
        <ele>226.53</ele>
        <time>2013-04-28T07:44:28Z</time>
      </trkpt>
      <trkpt lat="47.70245" lon="3.687">
        <ele>226.53</ele>
        <time>2013-04-28T07:44:29Z</time>
      </trkpt>
      <trkpt lat="47.70228" lon="3.68698">
        <ele>225.57</ele>
        <time>2013-04-28T07:44:39Z</time>
      </trkpt>
      <trkpt lat="47.70216" lon="3.68697">
        <ele>225.09</ele>
        <time>2013-04-28T07:44:45Z</time>
      </trkpt>
      <trkpt lat="47.70209" lon="3.68698">
        <ele>224.61</ele>
        <time>2013-04-28T07:44:51Z</time>
      </trkpt>
      <trkpt lat="47.70202" lon="3.68698">
        <ele>224.12</ele>
        <time>2013-04-28T07:44:56Z</time>
      </trkpt>
      <trkpt lat="47.70193" lon="3.68694">
        <ele>223.16</ele>
        <time>2013-04-28T07:45:02Z</time>
      </trkpt>
      <trkpt lat="47.7018" lon="3.68687">
        <ele>223.16</ele>
        <time>2013-04-28T07:45:10Z</time>
      </trkpt>
      <trkpt lat="47.70177" lon="3.68686">
        <ele>222.68</ele>
        <time>2013-04-28T07:45:12Z</time>
      </trkpt>
      <trkpt lat="47.70168" lon="3.68686">
        <ele>222.2</ele>
        <time>2013-04-28T07:45:18Z</time>
      </trkpt>
      <trkpt lat="47.70159" lon="3.68683">
        <ele>222.2</ele>
        <time>2013-04-28T07:45:23Z</time>
      </trkpt>
      <trkpt lat="47.70144" lon="3.68683">
        <ele>220.76</ele>
        <time>2013-04-28T07:45:34Z</time>
      </trkpt>
      <trkpt lat="47.70138" lon="3.68682">
        <ele>220.76</ele>
        <time>2013-04-28T07:45:38Z</time>
      </trkpt>
      <trkpt lat="47.70119" lon="3.68681">
        <ele>219.8</ele>
        <time>2013-04-28T07:45:51Z</time>
      </trkpt>
      <trkpt lat="47.70099" lon="3.68689">
        <ele>218.84</ele>
        <time>2013-04-28T07:46:04Z</time>
      </trkpt>
      <trkpt lat="47.70083" lon="3.68699">
        <ele>217.88</ele>
        <time>2013-04-28T07:46:15Z</time>
      </trkpt>
      <trkpt lat="47.70063" lon="3.68712">
        <ele>216.43</ele>
        <time>2013-04-28T07:46:29Z</time>
      </trkpt>
      <trkpt lat="47.70049" lon="3.68721">
        <ele>215.95</ele>
        <time>2013-04-28T07:46:39Z</time>
      </trkpt>
      <trkpt lat="47.70034" lon="3.68733">
        <ele>214.99</ele>
        <time>2013-04-28T07:46:49Z</time>
      </trkpt>
      <trkpt lat="47.70016" lon="3.68745">
        <ele>213.55</ele>
        <time>2013-04-28T07:47:02Z</time>
      </trkpt>
      <trkpt lat="47.69999" lon="3.68754">
        <ele>212.11</ele>
        <time>2013-04-28T07:47:14Z</time>
      </trkpt>
      <trkpt lat="47.69989" lon="3.68759">
        <ele>211.15</ele>
        <time>2013-04-28T07:47:20Z</time>
      </trkpt>
      <trkpt lat="47.69981" lon="3.68763">
        <ele>210.67</ele>
        <time>2013-04-28T07:47:26Z</time>
      </trkpt>
      <trkpt lat="47.69978" lon="3.68764">
        <ele>210.19</ele>
        <time>2013-04-28T07:47:28Z</time>
      </trkpt>
      <trkpt lat="47.69971" lon="3.68769">
        <ele>209.7</ele>
        <time>2013-04-28T07:47:33Z</time>
      </trkpt>
      <trkpt lat="47.69955" lon="3.68776">
        <ele>207.3</ele>
        <time>2013-04-28T07:47:44Z</time>
      </trkpt>
      <trkpt lat="47.69945" lon="3.68783">
        <ele>205.86</ele>
        <time>2013-04-28T07:47:52Z</time>
      </trkpt>
      <trkpt lat="47.6993" lon="3.68797">
        <ele>204.42</ele>
        <time>2013-04-28T07:48:04Z</time>
      </trkpt>
      <trkpt lat="47.69913" lon="3.68816">
        <ele>202.01</ele>
        <time>2013-04-28T07:48:17Z</time>
      </trkpt>
      <trkpt lat="47.69899" lon="3.68829">
        <ele>200.09</ele>
        <time>2013-04-28T07:48:29Z</time>
      </trkpt>
      <trkpt lat="47.69885" lon="3.68843">
        <ele>198.17</ele>
        <time>2013-04-28T07:48:40Z</time>
      </trkpt>
      <trkpt lat="47.69872" lon="3.68854">
        <ele>196.25</ele>
        <time>2013-04-28T07:48:50Z</time>
      </trkpt>
      <trkpt lat="47.69863" lon="3.68864">
        <ele>195.28</ele>
        <time>2013-04-28T07:48:57Z</time>
      </trkpt>
      <trkpt lat="47.69857" lon="3.68872">
        <ele>194.32</ele>
        <time>2013-04-28T07:49:02Z</time>
      </trkpt>
      <trkpt lat="47.69855" lon="3.68874">
        <ele>193.36</ele>
        <time>2013-04-28T07:49:05Z</time>
      </trkpt>
      <trkpt lat="47.69848" lon="3.68881">
        <ele>192.88</ele>
        <time>2013-04-28T07:49:10Z</time>
      </trkpt>
      <trkpt lat="47.69837" lon="3.68891">
        <ele>191.44</ele>
        <time>2013-04-28T07:49:18Z</time>
      </trkpt>
      <trkpt lat="47.69821" lon="3.68901">
        <ele>189.52</ele>
        <time>2013-04-28T07:49:28Z</time>
      </trkpt>
      <trkpt lat="47.69819" lon="3.68903">
        <ele>189.04</ele>
        <time>2013-04-28T07:49:30Z</time>
      </trkpt>
      <trkpt lat="47.69815" lon="3.68906">
        <ele>188.56</ele>
        <time>2013-04-28T07:49:34Z</time>
      </trkpt>
      <trkpt lat="47.69801" lon="3.68918">
        <ele>186.15</ele>
        <time>2013-04-28T07:49:44Z</time>
      </trkpt>
      <trkpt lat="47.69789" lon="3.68927">
        <ele>184.23</ele>
        <time>2013-04-28T07:49:54Z</time>
      </trkpt>
      <trkpt lat="47.69781" lon="3.68932">
        <ele>183.27</ele>
        <time>2013-04-28T07:50:00Z</time>
      </trkpt>
      <trkpt lat="47.69774" lon="3.68938">
        <ele>181.83</ele>
        <time>2013-04-28T07:50:05Z</time>
      </trkpt>
      <trkpt lat="47.69761" lon="3.68949">
        <ele>180.38</ele>
        <time>2013-04-28T07:50:15Z</time>
      </trkpt>
      <trkpt lat="47.69747" lon="3.68962">
        <ele>177.98</ele>
        <time>2013-04-28T07:50:25Z</time>
      </trkpt>
      <trkpt lat="47.69736" lon="3.68971">
        <ele>176.06</ele>
        <time>2013-04-28T07:50:34Z</time>
      </trkpt>
      <trkpt lat="47.69724" lon="3.68988">
        <ele>174.62</ele>
        <time>2013-04-28T07:50:44Z</time>
      </trkpt>
      <trkpt lat="47.69713" lon="3.69003">
        <ele>172.69</ele>
        <time>2013-04-28T07:50:55Z</time>
      </trkpt>
      <trkpt lat="47.69711" lon="3.69006">
        <ele>172.21</ele>
        <time>2013-04-28T07:50:57Z</time>
      </trkpt>
      <trkpt lat="47.69696" lon="3.69025">
        <ele>170.77</ele>
        <time>2013-04-28T07:51:09Z</time>
      </trkpt>
      <trkpt lat="47.69681" lon="3.69039">
        <ele>168.85</ele>
        <time>2013-04-28T07:51:21Z</time>
      </trkpt>
      <trkpt lat="47.69665" lon="3.6905">
        <ele>167.89</ele>
        <time>2013-04-28T07:51:32Z</time>
      </trkpt>
      <trkpt lat="47.69649" lon="3.69054">
        <ele>166.45</ele>
        <time>2013-04-28T07:51:42Z</time>
      </trkpt>
      <trkpt lat="47.69647" lon="3.69054">
        <ele>166.45</ele>
        <time>2013-04-28T07:51:43Z</time>
      </trkpt>
      <trkpt lat="47.69636" lon="3.69049">
        <ele>165.48</ele>
        <time>2013-04-28T07:51:52Z</time>
      </trkpt>
      <trkpt lat="47.69634" lon="3.69046">
        <ele>165.48</ele>
        <time>2013-04-28T07:51:54Z</time>
      </trkpt>
      <trkpt lat="47.69624" lon="3.6904">
        <ele>164.52</ele>
        <time>2013-04-28T07:52:02Z</time>
      </trkpt>
      <trkpt lat="47.69617" lon="3.6904">
        <ele>164.04</ele>
        <time>2013-04-28T07:52:06Z</time>
      </trkpt>
      <trkpt lat="47.69597" lon="3.69031">
        <ele>162.6</ele>
        <time>2013-04-28T07:52:19Z</time>
      </trkpt>
      <trkpt lat="47.69579" lon="3.69021">
        <ele>161.64</ele>
        <time>2013-04-28T07:52:30Z</time>
      </trkpt>
      <trkpt lat="47.69578" lon="3.69021">
        <ele>161.64</ele>
        <time>2013-04-28T07:52:31Z</time>
      </trkpt>
      <trkpt lat="47.69565" lon="3.69011">
        <ele>160.68</ele>
        <time>2013-04-28T07:52:41Z</time>
      </trkpt>
      <trkpt lat="47.69549" lon="3.69003">
        <ele>160.2</ele>
        <time>2013-04-28T07:52:52Z</time>
      </trkpt>
      <trkpt lat="47.69529" lon="3.68994">
        <ele>158.27</ele>
        <time>2013-04-28T07:53:04Z</time>
      </trkpt>
      <trkpt lat="47.69513" lon="3.68989">
        <ele>157.31</ele>
        <time>2013-04-28T07:53:15Z</time>
      </trkpt>
      <trkpt lat="47.69497" lon="3.68984">
        <ele>154.91</ele>
        <time>2013-04-28T07:53:26Z</time>
      </trkpt>
      <trkpt lat="47.69494" lon="3.68983">
        <ele>155.39</ele>
        <time>2013-04-28T07:53:28Z</time>
      </trkpt>
      <trkpt lat="47.69491" lon="3.68982">
        <ele>154.43</ele>
        <time>2013-04-28T07:53:30Z</time>
      </trkpt>
      <trkpt lat="47.69482" lon="3.6898">
        <ele>154.43</ele>
        <time>2013-04-28T07:53:35Z</time>
      </trkpt>
      <trkpt lat="47.69468" lon="3.6898">
        <ele>153.47</ele>
        <time>2013-04-28T07:53:45Z</time>
      </trkpt>
      <trkpt lat="47.6946" lon="3.68981">
        <ele>152.51</ele>
        <time>2013-04-28T07:53:51Z</time>
      </trkpt>
      <trkpt lat="47.69456" lon="3.68981">
        <ele>152.03</ele>
        <time>2013-04-28T07:53:55Z</time>
      </trkpt>
      <trkpt lat="47.69452" lon="3.68982">
        <ele>152.51</ele>
        <time>2013-04-28T07:53:57Z</time>
      </trkpt>
      <trkpt lat="47.69441" lon="3.68982">
        <ele>152.03</ele>
        <time>2013-04-28T07:54:03Z</time>
      </trkpt>
      <trkpt lat="47.69429" lon="3.68983">
        <ele>151.06</ele>
        <time>2013-04-28T07:54:10Z</time>
      </trkpt>
      <trkpt lat="47.69414" lon="3.68984">
        <ele>150.58</ele>
        <time>2013-04-28T07:54:19Z</time>
      </trkpt>
      <trkpt lat="47.69399" lon="3.68982">
        <ele>149.62</ele>
        <time>2013-04-28T07:54:31Z</time>
      </trkpt>
      <trkpt lat="47.69395" lon="3.68982">
        <ele>149.14</ele>
        <time>2013-04-28T07:54:35Z</time>
      </trkpt>
      <trkpt lat="47.69389" lon="3.68981">
        <ele>149.14</ele>
        <time>2013-04-28T07:54:39Z</time>
      </trkpt>
      <trkpt lat="47.6938" lon="3.6898">
        <ele>148.66</ele>
        <time>2013-04-28T07:54:44Z</time>
      </trkpt>
      <trkpt lat="47.69364" lon="3.68983">
        <ele>148.18</ele>
        <time>2013-04-28T07:54:54Z</time>
      </trkpt>
      <trkpt lat="47.6936" lon="3.68983">
        <ele>147.7</ele>
        <time>2013-04-28T07:54:57Z</time>
      </trkpt>
      <trkpt lat="47.69346" lon="3.68987">
        <ele>146.74</ele>
        <time>2013-04-28T07:55:06Z</time>
      </trkpt>
      <trkpt lat="47.69342" lon="3.68988">
        <ele>146.26</ele>
        <time>2013-04-28T07:55:08Z</time>
      </trkpt>
      <trkpt lat="47.69329" lon="3.68993">
        <ele>146.26</ele>
        <time>2013-04-28T07:55:16Z</time>
      </trkpt>
      <trkpt lat="47.69321" lon="3.69001">
        <ele>145.3</ele>
        <time>2013-04-28T07:55:22Z</time>
      </trkpt>
      <trkpt lat="47.69308" lon="3.69007">
        <ele>144.34</ele>
        <time>2013-04-28T07:55:31Z</time>
      </trkpt>
      <trkpt lat="47.69296" lon="3.69011">
        <ele>143.85</ele>
        <time>2013-04-28T07:55:39Z</time>
      </trkpt>
      <trkpt lat="47.6928" lon="3.69011">
        <ele>142.89</ele>
        <time>2013-04-28T07:55:48Z</time>
      </trkpt>
      <trkpt lat="47.69273" lon="3.69011">
        <ele>142.89</ele>
        <time>2013-04-28T07:55:53Z</time>
      </trkpt>
      <trkpt lat="47.69259" lon="3.69011">
        <ele>142.89</ele>
        <time>2013-04-28T07:56:01Z</time>
      </trkpt>
      <trkpt lat="47.69252" lon="3.69011">
        <ele>142.41</ele>
        <time>2013-04-28T07:56:05Z</time>
      </trkpt>
      <trkpt lat="47.69246" lon="3.69012">
        <ele>142.41</ele>
        <time>2013-04-28T07:56:08Z</time>
      </trkpt>
      <trkpt lat="47.69236" lon="3.69013">
        <ele>141.45</ele>
        <time>2013-04-28T07:56:14Z</time>
      </trkpt>
      <trkpt lat="47.69232" lon="3.69014">
        <ele>141.93</ele>
        <time>2013-04-28T07:56:17Z</time>
      </trkpt>
      <trkpt lat="47.69225" lon="3.69019">
        <ele>141.93</ele>
        <time>2013-04-28T07:56:24Z</time>
      </trkpt>
      <trkpt lat="47.69215" lon="3.69019">
        <ele>141.45</ele>
        <time>2013-04-28T07:56:31Z</time>
      </trkpt>
      <trkpt lat="47.69196" lon="3.69019">
        <ele>140.97</ele>
        <time>2013-04-28T07:56:42Z</time>
      </trkpt>
      <trkpt lat="47.69187" lon="3.69021">
        <ele>140.97</ele>
        <time>2013-04-28T07:56:48Z</time>
      </trkpt>
      <trkpt lat="47.69175" lon="3.69022">
        <ele>140.97</ele>
        <time>2013-04-28T07:56:54Z</time>
      </trkpt>
      <trkpt lat="47.69164" lon="3.69025">
        <ele>140.01</ele>
        <time>2013-04-28T07:57:02Z</time>
      </trkpt>
      <trkpt lat="47.69162" lon="3.69025">
        <ele>140.01</ele>
        <time>2013-04-28T07:57:03Z</time>
      </trkpt>
      <trkpt lat="47.69153" lon="3.69025">
        <ele>140.01</ele>
        <time>2013-04-28T07:57:09Z</time>
      </trkpt>
      <trkpt lat="47.69147" lon="3.69025">
        <ele>140.01</ele>
        <time>2013-04-28T07:57:13Z</time>
      </trkpt>
      <trkpt lat="47.69144" lon="3.69025">
        <ele>139.53</ele>
        <time>2013-04-28T07:57:15Z</time>
      </trkpt>
      <trkpt lat="47.69129" lon="3.69026">
        <ele>139.53</ele>
        <time>2013-04-28T07:57:26Z</time>
      </trkpt>
      <trkpt lat="47.69125" lon="3.69026">
        <ele>139.53</ele>
        <time>2013-04-28T07:57:28Z</time>
      </trkpt>
      <trkpt lat="47.69113" lon="3.69023">
        <ele>139.05</ele>
        <time>2013-04-28T07:57:36Z</time>
      </trkpt>
      <trkpt lat="47.69099" lon="3.6902">
        <ele>139.05</ele>
        <time>2013-04-28T07:57:44Z</time>
      </trkpt>
      <trkpt lat="47.69092" lon="3.6902">
        <ele>139.05</ele>
        <time>2013-04-28T07:57:48Z</time>
      </trkpt>
      <trkpt lat="47.69075" lon="3.69016">
        <ele>138.09</ele>
        <time>2013-04-28T07:57:59Z</time>
      </trkpt>
      <trkpt lat="47.69067" lon="3.69014">
        <ele>138.57</ele>
        <time>2013-04-28T07:58:03Z</time>
      </trkpt>
      <trkpt lat="47.69049" lon="3.6901">
        <ele>137.61</ele>
        <time>2013-04-28T07:58:12Z</time>
      </trkpt>
      <trkpt lat="47.69035" lon="3.69008">
        <ele>137.61</ele>
        <time>2013-04-28T07:58:21Z</time>
      </trkpt>
      <trkpt lat="47.69031" lon="3.69008">
        <ele>137.13</ele>
        <time>2013-04-28T07:58:24Z</time>
      </trkpt>
      <trkpt lat="47.69019" lon="3.69009">
        <ele>137.13</ele>
        <time>2013-04-28T07:58:34Z</time>
      </trkpt>
      <trkpt lat="47.69017" lon="3.69008">
        <ele>137.13</ele>
        <time>2013-04-28T07:58:35Z</time>
      </trkpt>
      <trkpt lat="47.68996" lon="3.69003">
        <ele>136.16</ele>
        <time>2013-04-28T07:58:48Z</time>
      </trkpt>
      <trkpt lat="47.68988" lon="3.68999">
        <ele>136.64</ele>
        <time>2013-04-28T07:58:54Z</time>
      </trkpt>
      <trkpt lat="47.68982" lon="3.68997">
        <ele>136.16</ele>
        <time>2013-04-28T07:58:58Z</time>
      </trkpt>
      <trkpt lat="47.68974" lon="3.68996">
        <ele>136.16</ele>
        <time>2013-04-28T07:59:03Z</time>
      </trkpt>
      <trkpt lat="47.68971" lon="3.68996">
        <ele>135.68</ele>
        <time>2013-04-28T07:59:06Z</time>
      </trkpt>
      <trkpt lat="47.68968" lon="3.68997">
        <ele>135.68</ele>
        <time>2013-04-28T07:59:09Z</time>
      </trkpt>
      <trkpt lat="47.68959" lon="3.68995">
        <ele>135.68</ele>
        <time>2013-04-28T07:59:15Z</time>
      </trkpt>
      <trkpt lat="47.68956" lon="3.68995">
        <ele>135.68</ele>
        <time>2013-04-28T07:59:17Z</time>
      </trkpt>
      <trkpt lat="47.68946" lon="3.68989">
        <ele>135.2</ele>
        <time>2013-04-28T07:59:26Z</time>
      </trkpt>
      <trkpt lat="47.68939" lon="3.68987">
        <ele>135.2</ele>
        <time>2013-04-28T07:59:31Z</time>
      </trkpt>
      <trkpt lat="47.68934" lon="3.68985">
        <ele>134.72</ele>
        <time>2013-04-28T07:59:35Z</time>
      </trkpt>
      <trkpt lat="47.68927" lon="3.68982">
        <ele>134.72</ele>
        <time>2013-04-28T07:59:39Z</time>
      </trkpt>
      <trkpt lat="47.68913" lon="3.68977">
        <ele>134.72</ele>
        <time>2013-04-28T07:59:48Z</time>
      </trkpt>
      <trkpt lat="47.689" lon="3.68976">
        <ele>134.24</ele>
        <time>2013-04-28T07:59:56Z</time>
      </trkpt>
      <trkpt lat="47.68899" lon="3.68976">
        <ele>134.24</ele>
        <time>2013-04-28T07:59:57Z</time>
      </trkpt>
      <trkpt lat="47.68891" lon="3.68977">
        <ele>134.24</ele>
        <time>2013-04-28T08:00:06Z</time>
      </trkpt>
      <trkpt lat="47.6889" lon="3.68976">
        <ele>134.72</ele>
        <time>2013-04-28T08:00:08Z</time>
      </trkpt>
      <trkpt lat="47.68886" lon="3.68973">
        <ele>134.24</ele>
        <time>2013-04-28T08:00:11Z</time>
      </trkpt>
      <trkpt lat="47.6888" lon="3.6897">
        <ele>134.24</ele>
        <time>2013-04-28T08:00:16Z</time>
      </trkpt>
      <trkpt lat="47.68873" lon="3.68972">
        <ele>133.76</ele>
        <time>2013-04-28T08:00:23Z</time>
      </trkpt>
      <trkpt lat="47.68865" lon="3.68976">
        <ele>133.76</ele>
        <time>2013-04-28T08:00:31Z</time>
      </trkpt>
      <trkpt lat="47.68854" lon="3.68974">
        <ele>133.76</ele>
        <time>2013-04-28T08:00:39Z</time>
      </trkpt>
      <trkpt lat="47.68842" lon="3.68973">
        <ele>133.28</ele>
        <time>2013-04-28T08:00:47Z</time>
      </trkpt>
      <trkpt lat="47.68841" lon="3.68974">
        <ele>133.28</ele>
        <time>2013-04-28T08:00:48Z</time>
      </trkpt>
      <trkpt lat="47.68831" lon="3.68975">
        <ele>132.8</ele>
        <time>2013-04-28T08:00:55Z</time>
      </trkpt>
      <trkpt lat="47.68823" lon="3.68979">
        <ele>132.8</ele>
        <time>2013-04-28T08:01:00Z</time>
      </trkpt>
      <trkpt lat="47.68815" lon="3.68982">
        <ele>132.32</ele>
        <time>2013-04-28T08:01:05Z</time>
      </trkpt>
      <trkpt lat="47.68799" lon="3.68991">
        <ele>132.32</ele>
        <time>2013-04-28T08:01:16Z</time>
      </trkpt>
      <trkpt lat="47.68795" lon="3.68992">
        <ele>131.84</ele>
        <time>2013-04-28T08:01:19Z</time>
      </trkpt>
      <trkpt lat="47.68777" lon="3.69003">
        <ele>131.36</ele>
        <time>2013-04-28T08:01:32Z</time>
      </trkpt>
      <trkpt lat="47.68765" lon="3.6901">
        <ele>131.84</ele>
        <time>2013-04-28T08:01:41Z</time>
      </trkpt>
      <trkpt lat="47.6875" lon="3.69018">
        <ele>130.88</ele>
        <time>2013-04-28T08:01:52Z</time>
      </trkpt>
      <trkpt lat="47.68748" lon="3.6902">
        <ele>131.36</ele>
        <time>2013-04-28T08:01:54Z</time>
      </trkpt>
      <trkpt lat="47.6874" lon="3.69024">
        <ele>131.84</ele>
        <time>2013-04-28T08:01:59Z</time>
      </trkpt>
      <trkpt lat="47.68733" lon="3.69029">
        <ele>130.4</ele>
        <time>2013-04-28T08:02:04Z</time>
      </trkpt>
      <trkpt lat="47.68727" lon="3.69032">
        <ele>130.4</ele>
        <time>2013-04-28T08:02:08Z</time>
      </trkpt>
      <trkpt lat="47.68721" lon="3.69031">
        <ele>130.4</ele>
        <time>2013-04-28T08:02:13Z</time>
      </trkpt>
      <trkpt lat="47.68703" lon="3.69041">
        <ele>130.4</ele>
        <time>2013-04-28T08:02:24Z</time>
      </trkpt>
      <trkpt lat="47.68694" lon="3.69045">
        <ele>130.4</ele>
        <time>2013-04-28T08:02:30Z</time>
      </trkpt>
      <trkpt lat="47.6869" lon="3.69044">
        <ele>129.92</ele>
        <time>2013-04-28T08:02:32Z</time>
      </trkpt>
      <trkpt lat="47.6868" lon="3.69045">
        <ele>129.43</ele>
        <time>2013-04-28T08:02:39Z</time>
      </trkpt>
      <trkpt lat="47.6866" lon="3.69042">
        <ele>128.95</ele>
        <time>2013-04-28T08:02:52Z</time>
      </trkpt>
      <trkpt lat="47.68645" lon="3.69038">
        <ele>127.99</ele>
        <time>2013-04-28T08:03:03Z</time>
      </trkpt>
      <trkpt lat="47.68627" lon="3.69036">
        <ele>128.47</ele>
        <time>2013-04-28T08:03:15Z</time>
      </trkpt>
      <trkpt lat="47.68617" lon="3.69036">
        <ele>128.47</ele>
        <time>2013-04-28T08:03:22Z</time>
      </trkpt>
      <trkpt lat="47.68596" lon="3.69034">
        <ele>128.47</ele>
        <time>2013-04-28T08:03:37Z</time>
      </trkpt>
      <trkpt lat="47.6858" lon="3.69041">
        <ele>127.51</ele>
        <time>2013-04-28T08:03:49Z</time>
      </trkpt>
      <trkpt lat="47.68573" lon="3.69044">
        <ele>128.95</ele>
        <time>2013-04-28T08:03:54Z</time>
      </trkpt>
      <trkpt lat="47.6857" lon="3.69045">
        <ele>125.11</ele>
        <time>2013-04-28T08:03:57Z</time>
      </trkpt>
      <trkpt lat="47.68567" lon="3.69046">
        <ele>127.51</ele>
        <time>2013-04-28T08:03:59Z</time>
      </trkpt>
      <trkpt lat="47.68553" lon="3.69053">
        <ele>126.07</ele>
        <time>2013-04-28T08:04:11Z</time>
      </trkpt>
      <trkpt lat="47.6855" lon="3.69055">
        <ele>128.95</ele>
        <time>2013-04-28T08:04:13Z</time>
      </trkpt>
      <trkpt lat="47.68549" lon="3.69058">
        <ele>127.03</ele>
        <time>2013-04-28T08:04:14Z</time>
      </trkpt>
      <trkpt lat="47.68542" lon="3.69063">
        <ele>127.99</ele>
        <time>2013-04-28T08:04:19Z</time>
      </trkpt>
      <trkpt lat="47.68525" lon="3.69074">
        <ele>128.95</ele>
        <time>2013-04-28T08:04:33Z</time>
      </trkpt>
      <trkpt lat="47.68523" lon="3.69075">
        <ele>128.95</ele>
        <time>2013-04-28T08:04:34Z</time>
      </trkpt>
      <trkpt lat="47.68517" lon="3.69074">
        <ele>128.47</ele>
        <time>2013-04-28T08:04:45Z</time>
      </trkpt>
      <trkpt lat="47.68517" lon="3.69073">
        <ele>127.03</ele>
        <time>2013-04-28T08:04:56Z</time>
      </trkpt>
      <trkpt lat="47.68516" lon="3.69074">
        <ele>129.43</ele>
        <time>2013-04-28T08:05:00Z</time>
      </trkpt>
      <trkpt lat="47.68513" lon="3.69078">
        <ele>127.03</ele>
        <time>2013-04-28T08:05:03Z</time>
      </trkpt>
      <trkpt lat="47.68509" lon="3.69084">
        <ele>128.95</ele>
        <time>2013-04-28T08:05:07Z</time>
      </trkpt>
      <trkpt lat="47.68495" lon="3.69093">
        <ele>128.47</ele>
        <time>2013-04-28T08:05:20Z</time>
      </trkpt>
      <trkpt lat="47.6848" lon="3.69101">
        <ele>127.51</ele>
        <time>2013-04-28T08:05:33Z</time>
      </trkpt>
      <trkpt lat="47.6847" lon="3.69095">
        <ele>127.99</ele>
        <time>2013-04-28T08:05:41Z</time>
      </trkpt>
      <trkpt lat="47.68466" lon="3.6909">
        <ele>129.92</ele>
        <time>2013-04-28T08:05:45Z</time>
      </trkpt>
      <trkpt lat="47.68466" lon="3.69089">
        <ele>126.55</ele>
        <time>2013-04-28T08:05:46Z</time>
      </trkpt>
      <trkpt lat="47.68466" lon="3.69089">
        <ele>129.92</ele>
        <time>2013-04-28T08:05:47Z</time>
      </trkpt>
      <trkpt lat="47.68467" lon="3.69089">
        <ele>128.47</ele>
        <time>2013-04-28T08:05:51Z</time>
      </trkpt>
      <trkpt lat="47.68466" lon="3.69089">
        <ele>128.95</ele>
        <time>2013-04-28T08:05:55Z</time>
      </trkpt>
      <trkpt lat="47.68462" lon="3.69088">
        <ele>127.99</ele>
        <time>2013-04-28T08:06:04Z</time>
      </trkpt>
      <trkpt lat="47.68458" lon="3.69078">
        <ele>127.99</ele>
        <time>2013-04-28T08:06:13Z</time>
      </trkpt>
      <trkpt lat="47.68455" lon="3.69074">
        <ele>128.47</ele>
        <time>2013-04-28T08:06:16Z</time>
      </trkpt>
      <trkpt lat="47.68448" lon="3.69066">
        <ele>128.47</ele>
        <time>2013-04-28T08:06:24Z</time>
      </trkpt>
      <trkpt lat="47.68439" lon="3.69063">
        <ele>128.47</ele>
        <time>2013-04-28T08:06:33Z</time>
      </trkpt>
      <trkpt lat="47.68428" lon="3.69071">
        <ele>127.51</ele>
        <time>2013-04-28T08:06:42Z</time>
      </trkpt>
      <trkpt lat="47.68422" lon="3.69076">
        <ele>126.55</ele>
        <time>2013-04-28T08:06:47Z</time>
      </trkpt>
      <trkpt lat="47.68412" lon="3.69084">
        <ele>125.59</ele>
        <time>2013-04-28T08:06:56Z</time>
      </trkpt>
      <trkpt lat="47.68408" lon="3.69087">
        <ele>125.59</ele>
        <time>2013-04-28T08:06:59Z</time>
      </trkpt>
      <trkpt lat="47.68405" lon="3.6909">
        <ele>125.11</ele>
        <time>2013-04-28T08:07:02Z</time>
      </trkpt>
      <trkpt lat="47.68394" lon="3.69097">
        <ele>124.63</ele>
        <time>2013-04-28T08:07:11Z</time>
      </trkpt>
      <trkpt lat="47.68385" lon="3.691">
        <ele>123.67</ele>
        <time>2013-04-28T08:07:17Z</time>
      </trkpt>
      <trkpt lat="47.68368" lon="3.69104">
        <ele>122.22</ele>
        <time>2013-04-28T08:07:30Z</time>
      </trkpt>
      <trkpt lat="47.68364" lon="3.69103">
        <ele>121.26</ele>
        <time>2013-04-28T08:07:34Z</time>
      </trkpt>
      <trkpt lat="47.68355" lon="3.691">
        <ele>120.78</ele>
        <time>2013-04-28T08:07:42Z</time>
      </trkpt>
      <trkpt lat="47.68345" lon="3.69098">
        <ele>119.82</ele>
        <time>2013-04-28T08:07:50Z</time>
      </trkpt>
      <trkpt lat="47.68331" lon="3.69089">
        <ele>118.38</ele>
        <time>2013-04-28T08:08:00Z</time>
      </trkpt>
      <trkpt lat="47.6832" lon="3.69083">
        <ele>117.42</ele>
        <time>2013-04-28T08:08:09Z</time>
      </trkpt>
      <trkpt lat="47.68303" lon="3.69074">
        <ele>115.98</ele>
        <time>2013-04-28T08:08:22Z</time>
      </trkpt>
      <trkpt lat="47.68297" lon="3.69075">
        <ele>115.5</ele>
        <time>2013-04-28T08:08:33Z</time>
      </trkpt>
      <trkpt lat="47.68292" lon="3.69073">
        <ele>115.01</ele>
        <time>2013-04-28T08:08:42Z</time>
      </trkpt>
      <trkpt lat="47.68291" lon="3.69072">
        <ele>115.01</ele>
        <time>2013-04-28T08:08:55Z</time>
      </trkpt>
      <trkpt lat="47.68291" lon="3.69072">
        <ele>114.53</ele>
        <time>2013-04-28T08:09:01Z</time>
      </trkpt>
      <trkpt lat="47.6829" lon="3.69066">
        <ele>114.05</ele>
        <time>2013-04-28T08:09:06Z</time>
      </trkpt>
      <trkpt lat="47.68283" lon="3.69042">
        <ele>113.57</ele>
        <time>2013-04-28T08:09:18Z</time>
      </trkpt>
      <trkpt lat="47.68282" lon="3.69038">
        <ele>113.57</ele>
        <time>2013-04-28T08:09:20Z</time>
      </trkpt>
      <trkpt lat="47.6828" lon="3.69032">
        <ele>113.57</ele>
        <time>2013-04-28T08:09:23Z</time>
      </trkpt>
      <trkpt lat="47.68279" lon="3.69026">
        <ele>113.09</ele>
        <time>2013-04-28T08:09:26Z</time>
      </trkpt>
      <trkpt lat="47.68272" lon="3.68994">
        <ele>112.61</ele>
        <time>2013-04-28T08:09:39Z</time>
      </trkpt>
      <trkpt lat="47.68271" lon="3.68984">
        <ele>112.13</ele>
        <time>2013-04-28T08:09:43Z</time>
      </trkpt>
      <trkpt lat="47.68269" lon="3.68973">
        <ele>112.13</ele>
        <time>2013-04-28T08:09:50Z</time>
      </trkpt>
      <trkpt lat="47.68268" lon="3.68969">
        <ele>112.13</ele>
        <time>2013-04-28T08:09:53Z</time>
      </trkpt>
      <trkpt lat="47.68265" lon="3.68966">
        <ele>112.13</ele>
        <time>2013-04-28T08:09:58Z</time>
      </trkpt>
      <trkpt lat="47.68262" lon="3.68964">
        <ele>112.61</ele>
        <time>2013-04-28T08:10:01Z</time>
      </trkpt>
      <trkpt lat="47.68248" lon="3.6896">
        <ele>112.13</ele>
        <time>2013-04-28T08:10:12Z</time>
      </trkpt>
      <trkpt lat="47.68245" lon="3.68961">
        <ele>112.13</ele>
        <time>2013-04-28T08:10:21Z</time>
      </trkpt>
      <trkpt lat="47.68245" lon="3.68961">
        <ele>112.13</ele>
        <time>2013-04-28T08:10:23Z</time>
      </trkpt>
      <trkpt lat="47.68238" lon="3.6896">
        <ele>112.13</ele>
        <time>2013-04-28T08:10:29Z</time>
      </trkpt>
      <trkpt lat="47.68234" lon="3.68958">
        <ele>112.61</ele>
        <time>2013-04-28T08:10:32Z</time>
      </trkpt>
      <trkpt lat="47.68216" lon="3.68953">
        <ele>112.61</ele>
        <time>2013-04-28T08:10:43Z</time>
      </trkpt>
      <trkpt lat="47.68213" lon="3.68954">
        <ele>112.61</ele>
        <time>2013-04-28T08:10:46Z</time>
      </trkpt>
      <trkpt lat="47.6821" lon="3.68955">
        <ele>112.61</ele>
        <time>2013-04-28T08:10:48Z</time>
      </trkpt>
      <trkpt lat="47.68202" lon="3.68956">
        <ele>112.61</ele>
        <time>2013-04-28T08:10:56Z</time>
      </trkpt>
      <trkpt lat="47.68192" lon="3.6896">
        <ele>113.09</ele>
        <time>2013-04-28T08:11:04Z</time>
      </trkpt>
      <trkpt lat="47.6818" lon="3.68956">
        <ele>112.61</ele>
        <time>2013-04-28T08:11:11Z</time>
      </trkpt>
      <trkpt lat="47.68178" lon="3.68952">
        <ele>112.61</ele>
        <time>2013-04-28T08:11:13Z</time>
      </trkpt>
      <trkpt lat="47.68172" lon="3.68952">
        <ele>112.61</ele>
        <time>2013-04-28T08:11:17Z</time>
      </trkpt>
      <trkpt lat="47.68162" lon="3.68951">
        <ele>112.13</ele>
        <time>2013-04-28T08:11:27Z</time>
      </trkpt>
      <trkpt lat="47.68162" lon="3.68952">
        <ele>112.13</ele>
        <time>2013-04-28T08:11:35Z</time>
      </trkpt>
      <trkpt lat="47.68149" lon="3.68945">
        <ele>111.65</ele>
        <time>2013-04-28T08:11:45Z</time>
      </trkpt>
      <trkpt lat="47.68145" lon="3.68945">
        <ele>111.17</ele>
        <time>2013-04-28T08:11:48Z</time>
      </trkpt>
      <trkpt lat="47.68137" lon="3.68952">
        <ele>110.69</ele>
        <time>2013-04-28T08:11:55Z</time>
      </trkpt>
      <trkpt lat="47.68132" lon="3.68963">
        <ele>111.17</ele>
        <time>2013-04-28T08:12:03Z</time>
      </trkpt>
      <trkpt lat="47.68131" lon="3.68968">
        <ele>111.17</ele>
        <time>2013-04-28T08:12:05Z</time>
      </trkpt>
      <trkpt lat="47.68125" lon="3.6898">
        <ele>111.17</ele>
        <time>2013-04-28T08:12:11Z</time>
      </trkpt>
      <trkpt lat="47.68114" lon="3.68997">
        <ele>111.65</ele>
        <time>2013-04-28T08:12:20Z</time>
      </trkpt>
      <trkpt lat="47.68109" lon="3.69003">
        <ele>111.65</ele>
        <time>2013-04-28T08:12:24Z</time>
      </trkpt>
      <trkpt lat="47.68102" lon="3.69026">
        <ele>112.13</ele>
        <time>2013-04-28T08:12:35Z</time>
      </trkpt>
      <trkpt lat="47.68101" lon="3.69028">
        <ele>112.61</ele>
        <time>2013-04-28T08:12:36Z</time>
      </trkpt>
      <trkpt lat="47.68097" lon="3.69044">
        <ele>113.09</ele>
        <time>2013-04-28T08:12:44Z</time>
      </trkpt>
      <trkpt lat="47.68091" lon="3.69064">
        <ele>112.61</ele>
        <time>2013-04-28T08:12:54Z</time>
      </trkpt>
      <trkpt lat="47.68083" lon="3.69082">
        <ele>112.61</ele>
        <time>2013-04-28T08:13:02Z</time>
      </trkpt>
      <trkpt lat="47.6808" lon="3.69107">
        <ele>112.61</ele>
        <time>2013-04-28T08:13:13Z</time>
      </trkpt>
      <trkpt lat="47.6808" lon="3.69113">
        <ele>113.09</ele>
        <time>2013-04-28T08:13:16Z</time>
      </trkpt>
      <trkpt lat="47.6807" lon="3.69131">
        <ele>113.09</ele>
        <time>2013-04-28T08:13:26Z</time>
      </trkpt>
      <trkpt lat="47.68061" lon="3.69139">
        <ele>112.61</ele>
        <time>2013-04-28T08:13:33Z</time>
      </trkpt>
      <trkpt lat="47.68048" lon="3.69156">
        <ele>112.61</ele>
        <time>2013-04-28T08:13:44Z</time>
      </trkpt>
      <trkpt lat="47.68047" lon="3.69157">
        <ele>112.61</ele>
        <time>2013-04-28T08:13:45Z</time>
      </trkpt>
      <trkpt lat="47.68035" lon="3.69167">
        <ele>113.09</ele>
        <time>2013-04-28T08:13:54Z</time>
      </trkpt>
      <trkpt lat="47.68023" lon="3.69186">
        <ele>114.05</ele>
        <time>2013-04-28T08:14:07Z</time>
      </trkpt>
      <trkpt lat="47.68023" lon="3.69186">
        <ele>114.05</ele>
        <time>2013-04-28T08:14:08Z</time>
      </trkpt>
      <trkpt lat="47.68019" lon="3.69192">
        <ele>114.53</ele>
        <time>2013-04-28T08:14:13Z</time>
      </trkpt>
      <trkpt lat="47.68013" lon="3.69202">
        <ele>115.5</ele>
        <time>2013-04-28T08:14:23Z</time>
      </trkpt>
      <trkpt lat="47.68012" lon="3.69208">
        <ele>115.98</ele>
        <time>2013-04-28T08:14:26Z</time>
      </trkpt>
      <trkpt lat="47.6801" lon="3.69213">
        <ele>116.46</ele>
        <time>2013-04-28T08:14:29Z</time>
      </trkpt>
      <trkpt lat="47.68008" lon="3.69217">
        <ele>116.94</ele>
        <time>2013-04-28T08:14:32Z</time>
      </trkpt>
      <trkpt lat="47.68008" lon="3.69222">
        <ele>117.9</ele>
        <time>2013-04-28T08:14:38Z</time>
      </trkpt>
      <trkpt lat="47.68009" lon="3.6922">
        <ele>117.42</ele>
        <time>2013-04-28T08:14:40Z</time>
      </trkpt>
      <trkpt lat="47.68012" lon="3.69213">
        <ele>116.94</ele>
        <time>2013-04-28T08:14:45Z</time>
      </trkpt>
      <trkpt lat="47.68013" lon="3.6921">
        <ele>116.46</ele>
        <time>2013-04-28T08:14:54Z</time>
      </trkpt>
      <trkpt lat="47.68012" lon="3.69211">
        <ele>116.46</ele>
        <time>2013-04-28T08:14:55Z</time>
      </trkpt>
      <trkpt lat="47.68008" lon="3.69222">
        <ele>117.42</ele>
        <time>2013-04-28T08:15:00Z</time>
      </trkpt>
      <trkpt lat="47.68001" lon="3.69241">
        <ele>119.34</ele>
        <time>2013-04-28T08:15:10Z</time>
      </trkpt>
      <trkpt lat="47.67994" lon="3.69259">
        <ele>121.74</ele>
        <time>2013-04-28T08:15:20Z</time>
      </trkpt>
      <trkpt lat="47.67991" lon="3.69266">
        <ele>122.71</ele>
        <time>2013-04-28T08:15:25Z</time>
      </trkpt>
      <trkpt lat="47.67985" lon="3.69274">
        <ele>124.15</ele>
        <time>2013-04-28T08:15:31Z</time>
      </trkpt>
      <trkpt lat="47.67967" lon="3.69289">
        <ele>125.59</ele>
        <time>2013-04-28T08:15:44Z</time>
      </trkpt>
      <trkpt lat="47.67957" lon="3.69293">
        <ele>126.55</ele>
        <time>2013-04-28T08:15:52Z</time>
      </trkpt>
      <trkpt lat="47.6794" lon="3.69301">
        <ele>127.03</ele>
        <time>2013-04-28T08:16:03Z</time>
      </trkpt>
      <trkpt lat="47.67939" lon="3.69302">
        <ele>127.03</ele>
        <time>2013-04-28T08:16:04Z</time>
      </trkpt>
      <trkpt lat="47.67931" lon="3.69306">
        <ele>127.51</ele>
        <time>2013-04-28T08:16:09Z</time>
      </trkpt>
      <trkpt lat="47.67927" lon="3.69307">
        <ele>127.51</ele>
        <time>2013-04-28T08:16:12Z</time>
      </trkpt>
      <trkpt lat="47.67915" lon="3.69313">
        <ele>127.51</ele>
        <time>2013-04-28T08:16:21Z</time>
      </trkpt>
      <trkpt lat="47.67911" lon="3.69314">
        <ele>127.51</ele>
        <time>2013-04-28T08:16:24Z</time>
      </trkpt>
      <trkpt lat="47.679" lon="3.69322">
        <ele>127.99</ele>
        <time>2013-04-28T08:16:32Z</time>
      </trkpt>
      <trkpt lat="47.67893" lon="3.69333">
        <ele>128.95</ele>
        <time>2013-04-28T08:16:39Z</time>
      </trkpt>
      <trkpt lat="47.67891" lon="3.69338">
        <ele>129.43</ele>
        <time>2013-04-28T08:16:42Z</time>
      </trkpt>
      <trkpt lat="47.67886" lon="3.69354">
        <ele>132.32</ele>
        <time>2013-04-28T08:16:52Z</time>
      </trkpt>
      <trkpt lat="47.67885" lon="3.69357">
        <ele>132.8</ele>
        <time>2013-04-28T08:16:54Z</time>
      </trkpt>
      <trkpt lat="47.67878" lon="3.69371">
        <ele>135.68</ele>
        <time>2013-04-28T08:17:05Z</time>
      </trkpt>
      <trkpt lat="47.67871" lon="3.69386">
        <ele>138.09</ele>
        <time>2013-04-28T08:17:16Z</time>
      </trkpt>
      <trkpt lat="47.67863" lon="3.69401">
        <ele>140.49</ele>
        <time>2013-04-28T08:17:26Z</time>
      </trkpt>
      <trkpt lat="47.67856" lon="3.69414">
        <ele>141.93</ele>
        <time>2013-04-28T08:17:36Z</time>
      </trkpt>
      <trkpt lat="47.67851" lon="3.69428">
        <ele>143.85</ele>
        <time>2013-04-28T08:17:46Z</time>
      </trkpt>
      <trkpt lat="47.67845" lon="3.6944">
        <ele>145.78</ele>
        <time>2013-04-28T08:17:55Z</time>
      </trkpt>
      <trkpt lat="47.6784" lon="3.69449">
        <ele>146.74</ele>
        <time>2013-04-28T08:18:02Z</time>
      </trkpt>
      <trkpt lat="47.67837" lon="3.69461">
        <ele>148.18</ele>
        <time>2013-04-28T08:18:12Z</time>
      </trkpt>
      <trkpt lat="47.67834" lon="3.69474">
        <ele>150.1</ele>
        <time>2013-04-28T08:18:21Z</time>
      </trkpt>
      <trkpt lat="47.67829" lon="3.69486">
        <ele>152.03</ele>
        <time>2013-04-28T08:18:31Z</time>
      </trkpt>
      <trkpt lat="47.67827" lon="3.69498">
        <ele>153.47</ele>
        <time>2013-04-28T08:18:41Z</time>
      </trkpt>
      <trkpt lat="47.67824" lon="3.69511">
        <ele>154.91</ele>
        <time>2013-04-28T08:18:51Z</time>
      </trkpt>
      <trkpt lat="47.67819" lon="3.69525">
        <ele>156.83</ele>
        <time>2013-04-28T08:19:00Z</time>
      </trkpt>
      <trkpt lat="47.67818" lon="3.69536">
        <ele>158.27</ele>
        <time>2013-04-28T08:19:08Z</time>
      </trkpt>
      <trkpt lat="47.67816" lon="3.69554">
        <ele>160.2</ele>
        <time>2013-04-28T08:19:19Z</time>
      </trkpt>
      <trkpt lat="47.67813" lon="3.69573">
        <ele>162.6</ele>
        <time>2013-04-28T08:19:30Z</time>
      </trkpt>
      <trkpt lat="47.67809" lon="3.69586">
        <ele>164.04</ele>
        <time>2013-04-28T08:19:39Z</time>
      </trkpt>
      <trkpt lat="47.67807" lon="3.69597">
        <ele>166.45</ele>
        <time>2013-04-28T08:19:49Z</time>
      </trkpt>
      <trkpt lat="47.67806" lon="3.69604">
        <ele>168.37</ele>
        <time>2013-04-28T08:19:57Z</time>
      </trkpt>
      <trkpt lat="47.67803" lon="3.69615">
        <ele>169.81</ele>
        <time>2013-04-28T08:20:07Z</time>
      </trkpt>
      <trkpt lat="47.67797" lon="3.69632">
        <ele>173.17</ele>
        <time>2013-04-28T08:20:19Z</time>
      </trkpt>
      <trkpt lat="47.67792" lon="3.6964">
        <ele>174.62</ele>
        <time>2013-04-28T08:20:27Z</time>
      </trkpt>
      <trkpt lat="47.67784" lon="3.69649">
        <ele>176.06</ele>
        <time>2013-04-28T08:20:37Z</time>
      </trkpt>
      <trkpt lat="47.67776" lon="3.69658">
        <ele>177.98</ele>
        <time>2013-04-28T08:20:47Z</time>
      </trkpt>
      <trkpt lat="47.67769" lon="3.69659">
        <ele>179.9</ele>
        <time>2013-04-28T08:20:57Z</time>
      </trkpt>
      <trkpt lat="47.67767" lon="3.6966">
        <ele>179.9</ele>
        <time>2013-04-28T08:20:59Z</time>
      </trkpt>
      <trkpt lat="47.67757" lon="3.69658">
        <ele>181.83</ele>
        <time>2013-04-28T08:21:08Z</time>
      </trkpt>
      <trkpt lat="47.67748" lon="3.69657">
        <ele>183.75</ele>
        <time>2013-04-28T08:21:18Z</time>
      </trkpt>
      <trkpt lat="47.6774" lon="3.6966">
        <ele>186.63</ele>
        <time>2013-04-28T08:21:31Z</time>
      </trkpt>
      <trkpt lat="47.67731" lon="3.69663">
        <ele>188.56</ele>
        <time>2013-04-28T08:21:41Z</time>
      </trkpt>
      <trkpt lat="47.67723" lon="3.69668">
        <ele>189.52</ele>
        <time>2013-04-28T08:21:50Z</time>
      </trkpt>
      <trkpt lat="47.67716" lon="3.69671">
        <ele>191.44</ele>
        <time>2013-04-28T08:21:58Z</time>
      </trkpt>
      <trkpt lat="47.67705" lon="3.69672">
        <ele>191.44</ele>
        <time>2013-04-28T08:22:09Z</time>
      </trkpt>
      <trkpt lat="47.67699" lon="3.69675">
        <ele>191.92</ele>
        <time>2013-04-28T08:22:14Z</time>
      </trkpt>
      <trkpt lat="47.6769" lon="3.69681">
        <ele>192.88</ele>
        <time>2013-04-28T08:22:23Z</time>
      </trkpt>
      <trkpt lat="47.67684" lon="3.6969">
        <ele>193.84</ele>
        <time>2013-04-28T08:22:32Z</time>
      </trkpt>
      <trkpt lat="47.67681" lon="3.69692">
        <ele>193.84</ele>
        <time>2013-04-28T08:22:34Z</time>
      </trkpt>
      <trkpt lat="47.67664" lon="3.69704">
        <ele>195.28</ele>
        <time>2013-04-28T08:22:47Z</time>
      </trkpt>
      <trkpt lat="47.67663" lon="3.69704">
        <ele>195.77</ele>
        <time>2013-04-28T08:22:49Z</time>
      </trkpt>
      <trkpt lat="47.67657" lon="3.69705">
        <ele>195.77</ele>
        <time>2013-04-28T08:22:54Z</time>
      </trkpt>
      <trkpt lat="47.67643" lon="3.69706">
        <ele>195.77</ele>
        <time>2013-04-28T08:23:04Z</time>
      </trkpt>
      <trkpt lat="47.67634" lon="3.69705">
        <ele>196.25</ele>
        <time>2013-04-28T08:23:12Z</time>
      </trkpt>
      <trkpt lat="47.67626" lon="3.69707">
        <ele>195.77</ele>
        <time>2013-04-28T08:23:18Z</time>
      </trkpt>
      <trkpt lat="47.67616" lon="3.69719">
        <ele>196.25</ele>
        <time>2013-04-28T08:23:28Z</time>
      </trkpt>
      <trkpt lat="47.67611" lon="3.69729">
        <ele>196.25</ele>
        <time>2013-04-28T08:23:32Z</time>
      </trkpt>
      <trkpt lat="47.67611" lon="3.6974">
        <ele>196.25</ele>
        <time>2013-04-28T08:23:37Z</time>
      </trkpt>
      <trkpt lat="47.67612" lon="3.69747">
        <ele>196.25</ele>
        <time>2013-04-28T08:23:40Z</time>
      </trkpt>
      <trkpt lat="47.67618" lon="3.69765">
        <ele>196.73</ele>
        <time>2013-04-28T08:23:52Z</time>
      </trkpt>
      <trkpt lat="47.67618" lon="3.69767">
        <ele>196.73</ele>
        <time>2013-04-28T08:23:53Z</time>
      </trkpt>
      <trkpt lat="47.67619" lon="3.69774">
        <ele>196.73</ele>
        <time>2013-04-28T08:23:56Z</time>
      </trkpt>
      <trkpt lat="47.67624" lon="3.69794">
        <ele>196.73</ele>
        <time>2013-04-28T08:24:06Z</time>
      </trkpt>
      <trkpt lat="47.67624" lon="3.69797">
        <ele>196.73</ele>
        <time>2013-04-28T08:24:08Z</time>
      </trkpt>
      <trkpt lat="47.67617" lon="3.69809">
        <ele>196.73</ele>
        <time>2013-04-28T08:24:15Z</time>
      </trkpt>
      <trkpt lat="47.67615" lon="3.69812">
        <ele>196.73</ele>
        <time>2013-04-28T08:24:17Z</time>
      </trkpt>
      <trkpt lat="47.6761" lon="3.69817">
        <ele>196.73</ele>
        <time>2013-04-28T08:24:22Z</time>
      </trkpt>
      <trkpt lat="47.67602" lon="3.69834">
        <ele>196.73</ele>
        <time>2013-04-28T08:24:29Z</time>
      </trkpt>
      <trkpt lat="47.67587" lon="3.69859">
        <ele>197.21</ele>
        <time>2013-04-28T08:24:43Z</time>
      </trkpt>
      <trkpt lat="47.67576" lon="3.69874">
        <ele>197.21</ele>
        <time>2013-04-28T08:24:53Z</time>
      </trkpt>
      <trkpt lat="47.67566" lon="3.69887">
        <ele>197.21</ele>
        <time>2013-04-28T08:25:03Z</time>
      </trkpt>
      <trkpt lat="47.67555" lon="3.69901">
        <ele>197.21</ele>
        <time>2013-04-28T08:25:13Z</time>
      </trkpt>
      <trkpt lat="47.67541" lon="3.69916">
        <ele>196.73</ele>
        <time>2013-04-28T08:25:25Z</time>
      </trkpt>
      <trkpt lat="47.67537" lon="3.69924">
        <ele>197.21</ele>
        <time>2013-04-28T08:25:30Z</time>
      </trkpt>
      <trkpt lat="47.67537" lon="3.69927">
        <ele>197.21</ele>
        <time>2013-04-28T08:25:32Z</time>
      </trkpt>
      <trkpt lat="47.67527" lon="3.69937">
        <ele>196.73</ele>
        <time>2013-04-28T08:25:40Z</time>
      </trkpt>
      <trkpt lat="47.67512" lon="3.69954">
        <ele>195.28</ele>
        <time>2013-04-28T08:25:52Z</time>
      </trkpt>
      <trkpt lat="47.67501" lon="3.6997">
        <ele>194.32</ele>
        <time>2013-04-28T08:26:04Z</time>
      </trkpt>
      <trkpt lat="47.67492" lon="3.69983">
        <ele>193.36</ele>
        <time>2013-04-28T08:26:13Z</time>
      </trkpt>
      <trkpt lat="47.67484" lon="3.69995">
        <ele>193.84</ele>
        <time>2013-04-28T08:26:21Z</time>
      </trkpt>
      <trkpt lat="47.67473" lon="3.70008">
        <ele>194.32</ele>
        <time>2013-04-28T08:26:32Z</time>
      </trkpt>
      <trkpt lat="47.67473" lon="3.70009">
        <ele>194.32</ele>
        <time>2013-04-28T08:26:33Z</time>
      </trkpt>
      <trkpt lat="47.67463" lon="3.70023">
        <ele>195.28</ele>
        <time>2013-04-28T08:26:42Z</time>
      </trkpt>
      <trkpt lat="47.67453" lon="3.70032">
        <ele>196.73</ele>
        <time>2013-04-28T08:26:52Z</time>
      </trkpt>
      <trkpt lat="47.67438" lon="3.70047">
        <ele>197.69</ele>
        <time>2013-04-28T08:27:04Z</time>
      </trkpt>
      <trkpt lat="47.67426" lon="3.7006">
        <ele>198.65</ele>
        <time>2013-04-28T08:27:14Z</time>
      </trkpt>
      <trkpt lat="47.67424" lon="3.7006">
        <ele>198.65</ele>
        <time>2013-04-28T08:27:15Z</time>
      </trkpt>
      <trkpt lat="47.67413" lon="3.70069">
        <ele>199.13</ele>
        <time>2013-04-28T08:27:24Z</time>
      </trkpt>
      <trkpt lat="47.67408" lon="3.70071">
        <ele>199.61</ele>
        <time>2013-04-28T08:27:28Z</time>
      </trkpt>
      <trkpt lat="47.67404" lon="3.70075">
        <ele>199.61</ele>
        <time>2013-04-28T08:27:32Z</time>
      </trkpt>
      <trkpt lat="47.67391" lon="3.7009">
        <ele>200.09</ele>
        <time>2013-04-28T08:27:44Z</time>
      </trkpt>
      <trkpt lat="47.67388" lon="3.70093">
        <ele>199.61</ele>
        <time>2013-04-28T08:27:47Z</time>
      </trkpt>
      <trkpt lat="47.67383" lon="3.70097">
        <ele>200.57</ele>
        <time>2013-04-28T08:27:51Z</time>
      </trkpt>
      <trkpt lat="47.6737" lon="3.70111">
        <ele>200.57</ele>
        <time>2013-04-28T08:28:03Z</time>
      </trkpt>
      <trkpt lat="47.67367" lon="3.70116">
        <ele>200.57</ele>
        <time>2013-04-28T08:28:07Z</time>
      </trkpt>
      <trkpt lat="47.67358" lon="3.70128">
        <ele>200.57</ele>
        <time>2013-04-28T08:28:16Z</time>
      </trkpt>
      <trkpt lat="47.67352" lon="3.70134">
        <ele>200.57</ele>
        <time>2013-04-28T08:28:21Z</time>
      </trkpt>
      <trkpt lat="47.67338" lon="3.70151">
        <ele>200.57</ele>
        <time>2013-04-28T08:28:34Z</time>
      </trkpt>
      <trkpt lat="47.67334" lon="3.70158">
        <ele>200.57</ele>
        <time>2013-04-28T08:28:40Z</time>
      </trkpt>
      <trkpt lat="47.67326" lon="3.70172">
        <ele>200.57</ele>
        <time>2013-04-28T08:28:49Z</time>
      </trkpt>
      <trkpt lat="47.67317" lon="3.70184">
        <ele>200.57</ele>
        <time>2013-04-28T08:28:57Z</time>
      </trkpt>
      <trkpt lat="47.67313" lon="3.70188">
        <ele>200.09</ele>
        <time>2013-04-28T08:29:01Z</time>
      </trkpt>
      <trkpt lat="47.67303" lon="3.70203">
        <ele>200.09</ele>
        <time>2013-04-28T08:29:11Z</time>
      </trkpt>
      <trkpt lat="47.67297" lon="3.70213">
        <ele>200.09</ele>
        <time>2013-04-28T08:29:17Z</time>
      </trkpt>
      <trkpt lat="47.67294" lon="3.70218">
        <ele>199.61</ele>
        <time>2013-04-28T08:29:21Z</time>
      </trkpt>
      <trkpt lat="47.67293" lon="3.70222">
        <ele>199.61</ele>
        <time>2013-04-28T08:29:23Z</time>
      </trkpt>
      <trkpt lat="47.67288" lon="3.70227">
        <ele>199.13</ele>
        <time>2013-04-28T08:29:27Z</time>
      </trkpt>
      <trkpt lat="47.6728" lon="3.70241">
        <ele>198.65</ele>
        <time>2013-04-28T08:29:36Z</time>
      </trkpt>
      <trkpt lat="47.67278" lon="3.70248">
        <ele>198.17</ele>
        <time>2013-04-28T08:29:39Z</time>
      </trkpt>
      <trkpt lat="47.67268" lon="3.70266">
        <ele>198.17</ele>
        <time>2013-04-28T08:29:50Z</time>
      </trkpt>
      <trkpt lat="47.67261" lon="3.70279">
        <ele>197.21</ele>
        <time>2013-04-28T08:29:59Z</time>
      </trkpt>
      <trkpt lat="47.67251" lon="3.70294">
        <ele>196.73</ele>
        <time>2013-04-28T08:30:08Z</time>
      </trkpt>
      <trkpt lat="47.67247" lon="3.70298">
        <ele>196.73</ele>
        <time>2013-04-28T08:30:11Z</time>
      </trkpt>
      <trkpt lat="47.67236" lon="3.7031">
        <ele>195.77</ele>
        <time>2013-04-28T08:30:21Z</time>
      </trkpt>
      <trkpt lat="47.67224" lon="3.70324">
        <ele>194.8</ele>
        <time>2013-04-28T08:30:32Z</time>
      </trkpt>
      <trkpt lat="47.67219" lon="3.7033">
        <ele>194.8</ele>
        <time>2013-04-28T08:30:37Z</time>
      </trkpt>
      <trkpt lat="47.67215" lon="3.70336">
        <ele>193.84</ele>
        <time>2013-04-28T08:30:41Z</time>
      </trkpt>
      <trkpt lat="47.67209" lon="3.70346">
        <ele>192.88</ele>
        <time>2013-04-28T08:30:47Z</time>
      </trkpt>
      <trkpt lat="47.672" lon="3.70361">
        <ele>191.92</ele>
        <time>2013-04-28T08:30:56Z</time>
      </trkpt>
      <trkpt lat="47.67193" lon="3.70371">
        <ele>190.96</ele>
        <time>2013-04-28T08:31:02Z</time>
      </trkpt>
      <trkpt lat="47.67181" lon="3.70386">
        <ele>189.52</ele>
        <time>2013-04-28T08:31:13Z</time>
      </trkpt>
      <trkpt lat="47.6717" lon="3.704">
        <ele>188.08</ele>
        <time>2013-04-28T08:31:24Z</time>
      </trkpt>
      <trkpt lat="47.67164" lon="3.70407">
        <ele>187.59</ele>
        <time>2013-04-28T08:31:30Z</time>
      </trkpt>
      <trkpt lat="47.67156" lon="3.70415">
        <ele>186.63</ele>
        <time>2013-04-28T08:31:36Z</time>
      </trkpt>
      <trkpt lat="47.67146" lon="3.70431">
        <ele>184.71</ele>
        <time>2013-04-28T08:31:48Z</time>
      </trkpt>
      <trkpt lat="47.67141" lon="3.70453">
        <ele>183.27</ele>
        <time>2013-04-28T08:31:58Z</time>
      </trkpt>
      <trkpt lat="47.67138" lon="3.70465">
        <ele>182.31</ele>
        <time>2013-04-28T08:32:04Z</time>
      </trkpt>
      <trkpt lat="47.67131" lon="3.70493">
        <ele>179.9</ele>
        <time>2013-04-28T08:32:18Z</time>
      </trkpt>
      <trkpt lat="47.67126" lon="3.70518">
        <ele>177.98</ele>
        <time>2013-04-28T08:32:30Z</time>
      </trkpt>
      <trkpt lat="47.67121" lon="3.70536">
        <ele>176.54</ele>
        <time>2013-04-28T08:32:40Z</time>
      </trkpt>
      <trkpt lat="47.67115" lon="3.70562">
        <ele>174.14</ele>
        <time>2013-04-28T08:32:54Z</time>
      </trkpt>
      <trkpt lat="47.67109" lon="3.70581">
        <ele>171.73</ele>
        <time>2013-04-28T08:33:05Z</time>
      </trkpt>
      <trkpt lat="47.67103" lon="3.70603">
        <ele>168.85</ele>
        <time>2013-04-28T08:33:18Z</time>
      </trkpt>
      <trkpt lat="47.67097" lon="3.70621">
        <ele>166.45</ele>
        <time>2013-04-28T08:33:30Z</time>
      </trkpt>
      <trkpt lat="47.67091" lon="3.70637">
        <ele>164.04</ele>
        <time>2013-04-28T08:33:40Z</time>
      </trkpt>
      <trkpt lat="47.67082" lon="3.7066">
        <ele>161.16</ele>
        <time>2013-04-28T08:33:52Z</time>
      </trkpt>
      <trkpt lat="47.67073" lon="3.70678">
        <ele>158.75</ele>
        <time>2013-04-28T08:34:03Z</time>
      </trkpt>
      <trkpt lat="47.67062" lon="3.70693">
        <ele>155.87</ele>
        <time>2013-04-28T08:34:16Z</time>
      </trkpt>
      <trkpt lat="47.67052" lon="3.70713">
        <ele>153.47</ele>
        <time>2013-04-28T08:34:28Z</time>
      </trkpt>
      <trkpt lat="47.67046" lon="3.70724">
        <ele>152.03</ele>
        <time>2013-04-28T08:34:35Z</time>
      </trkpt>
      <trkpt lat="47.67039" lon="3.70729">
        <ele>151.06</ele>
        <time>2013-04-28T08:34:40Z</time>
      </trkpt>
      <trkpt lat="47.67027" lon="3.70737">
        <ele>149.62</ele>
        <time>2013-04-28T08:34:51Z</time>
      </trkpt>
      <trkpt lat="47.67014" lon="3.70747">
        <ele>148.18</ele>
        <time>2013-04-28T08:35:01Z</time>
      </trkpt>
      <trkpt lat="47.66998" lon="3.70755">
        <ele>146.74</ele>
        <time>2013-04-28T08:35:12Z</time>
      </trkpt>
      <trkpt lat="47.66985" lon="3.70761">
        <ele>145.3</ele>
        <time>2013-04-28T08:35:23Z</time>
      </trkpt>
      <trkpt lat="47.66973" lon="3.70772">
        <ele>144.34</ele>
        <time>2013-04-28T08:35:33Z</time>
      </trkpt>
      <trkpt lat="47.66958" lon="3.70781">
        <ele>142.41</ele>
        <time>2013-04-28T08:35:44Z</time>
      </trkpt>
      <trkpt lat="47.66946" lon="3.70785">
        <ele>140.97</ele>
        <time>2013-04-28T08:35:54Z</time>
      </trkpt>
      <trkpt lat="47.66929" lon="3.70799">
        <ele>139.53</ele>
        <time>2013-04-28T08:36:08Z</time>
      </trkpt>
      <trkpt lat="47.66914" lon="3.70805">
        <ele>138.57</ele>
        <time>2013-04-28T08:36:19Z</time>
      </trkpt>
      <trkpt lat="47.66903" lon="3.70813">
        <ele>138.09</ele>
        <time>2013-04-28T08:36:29Z</time>
      </trkpt>
      <trkpt lat="47.66887" lon="3.70824">
        <ele>136.16</ele>
        <time>2013-04-28T08:36:42Z</time>
      </trkpt>
      <trkpt lat="47.66876" lon="3.70829">
        <ele>136.16</ele>
        <time>2013-04-28T08:36:50Z</time>
      </trkpt>
      <trkpt lat="47.66868" lon="3.70835">
        <ele>135.68</ele>
        <time>2013-04-28T08:36:57Z</time>
      </trkpt>
      <trkpt lat="47.66853" lon="3.70846">
        <ele>134.72</ele>
        <time>2013-04-28T08:37:09Z</time>
      </trkpt>
      <trkpt lat="47.66835" lon="3.70856">
        <ele>134.72</ele>
        <time>2013-04-28T08:37:22Z</time>
      </trkpt>
      <trkpt lat="47.66823" lon="3.70865">
        <ele>133.76</ele>
        <time>2013-04-28T08:37:33Z</time>
      </trkpt>
      <trkpt lat="47.66817" lon="3.70868">
        <ele>133.76</ele>
        <time>2013-04-28T08:37:38Z</time>
      </trkpt>
      <trkpt lat="47.66803" lon="3.70878">
        <ele>133.76</ele>
        <time>2013-04-28T08:37:49Z</time>
      </trkpt>
      <trkpt lat="47.66789" lon="3.70887">
        <ele>132.8</ele>
        <time>2013-04-28T08:38:01Z</time>
      </trkpt>
      <trkpt lat="47.6678" lon="3.70892">
        <ele>132.32</ele>
        <time>2013-04-28T08:38:10Z</time>
      </trkpt>
      <trkpt lat="47.66762" lon="3.70899">
        <ele>131.36</ele>
        <time>2013-04-28T08:38:23Z</time>
      </trkpt>
      <trkpt lat="47.66741" lon="3.70905">
        <ele>129.92</ele>
        <time>2013-04-28T08:38:38Z</time>
      </trkpt>
      <trkpt lat="47.66727" lon="3.70905">
        <ele>129.43</ele>
        <time>2013-04-28T08:38:49Z</time>
      </trkpt>
      <trkpt lat="47.66712" lon="3.70907">
        <ele>128.95</ele>
        <time>2013-04-28T08:39:00Z</time>
      </trkpt>
      <trkpt lat="47.66702" lon="3.70909">
        <ele>127.99</ele>
        <time>2013-04-28T08:39:08Z</time>
      </trkpt>
      <trkpt lat="47.66684" lon="3.70912">
        <ele>127.51</ele>
        <time>2013-04-28T08:39:21Z</time>
      </trkpt>
      <trkpt lat="47.66667" lon="3.70913">
        <ele>126.55</ele>
        <time>2013-04-28T08:39:34Z</time>
      </trkpt>
      <trkpt lat="47.66649" lon="3.70915">
        <ele>126.07</ele>
        <time>2013-04-28T08:39:46Z</time>
      </trkpt>
      <trkpt lat="47.66632" lon="3.70917">
        <ele>125.11</ele>
        <time>2013-04-28T08:39:59Z</time>
      </trkpt>
      <trkpt lat="47.66613" lon="3.7092">
        <ele>123.67</ele>
        <time>2013-04-28T08:40:12Z</time>
      </trkpt>
      <trkpt lat="47.66602" lon="3.70915">
        <ele>123.67</ele>
        <time>2013-04-28T08:40:20Z</time>
      </trkpt>
      <trkpt lat="47.6659" lon="3.70918">
        <ele>122.22</ele>
        <time>2013-04-28T08:40:30Z</time>
      </trkpt>
      <trkpt lat="47.66585" lon="3.70934">
        <ele>122.22</ele>
        <time>2013-04-28T08:40:40Z</time>
      </trkpt>
      <trkpt lat="47.66585" lon="3.70941">
        <ele>122.22</ele>
        <time>2013-04-28T08:40:44Z</time>
      </trkpt>
      <trkpt lat="47.66584" lon="3.70966">
        <ele>121.74</ele>
        <time>2013-04-28T08:40:56Z</time>
      </trkpt>
      <trkpt lat="47.66583" lon="3.70972">
        <ele>121.74</ele>
        <time>2013-04-28T08:40:59Z</time>
      </trkpt>
      <trkpt lat="47.66578" lon="3.70989">
        <ele>121.26</ele>
        <time>2013-04-28T08:41:10Z</time>
      </trkpt>
      <trkpt lat="47.66565" lon="3.7099">
        <ele>119.82</ele>
        <time>2013-04-28T08:41:20Z</time>
      </trkpt>
      <trkpt lat="47.66554" lon="3.70988">
        <ele>118.86</ele>
        <time>2013-04-28T08:41:28Z</time>
      </trkpt>
      <trkpt lat="47.66538" lon="3.70986">
        <ele>118.38</ele>
        <time>2013-04-28T08:41:41Z</time>
      </trkpt>
      <trkpt lat="47.66525" lon="3.70982">
        <ele>117.42</ele>
        <time>2013-04-28T08:41:52Z</time>
      </trkpt>
      <trkpt lat="47.66509" lon="3.70977">
        <ele>116.94</ele>
        <time>2013-04-28T08:42:03Z</time>
      </trkpt>
      <trkpt lat="47.665" lon="3.70977">
        <ele>116.46</ele>
        <time>2013-04-28T08:42:10Z</time>
      </trkpt>
      <trkpt lat="47.66498" lon="3.70978">
        <ele>115.98</ele>
        <time>2013-04-28T08:42:12Z</time>
      </trkpt>
      <trkpt lat="47.66495" lon="3.70977">
        <ele>115.98</ele>
        <time>2013-04-28T08:42:15Z</time>
      </trkpt>
      <trkpt lat="47.6649" lon="3.70978">
        <ele>115.5</ele>
        <time>2013-04-28T08:42:19Z</time>
      </trkpt>
      <trkpt lat="47.66483" lon="3.70976">
        <ele>115.5</ele>
        <time>2013-04-28T08:42:24Z</time>
      </trkpt>
      <trkpt lat="47.6648" lon="3.70975">
        <ele>115.5</ele>
        <time>2013-04-28T08:42:27Z</time>
      </trkpt>
      <trkpt lat="47.66475" lon="3.70973">
        <ele>115.01</ele>
        <time>2013-04-28T08:42:30Z</time>
      </trkpt>
      <trkpt lat="47.66459" lon="3.70968">
        <ele>114.05</ele>
        <time>2013-04-28T08:42:42Z</time>
      </trkpt>
      <trkpt lat="47.66442" lon="3.70962">
        <ele>114.53</ele>
        <time>2013-04-28T08:42:55Z</time>
      </trkpt>
      <trkpt lat="47.66427" lon="3.70958">
        <ele>111.17</ele>
        <time>2013-04-28T08:43:06Z</time>
      </trkpt>
      <trkpt lat="47.66412" lon="3.70957">
        <ele>110.21</ele>
        <time>2013-04-28T08:43:18Z</time>
      </trkpt>
      <trkpt lat="47.66411" lon="3.70957">
        <ele>110.21</ele>
        <time>2013-04-28T08:43:19Z</time>
      </trkpt>
      <trkpt lat="47.66409" lon="3.70956">
        <ele>113.57</ele>
        <time>2013-04-28T08:43:21Z</time>
      </trkpt>
      <trkpt lat="47.66408" lon="3.70956">
        <ele>110.69</ele>
        <time>2013-04-28T08:43:22Z</time>
      </trkpt>
      <trkpt lat="47.66388" lon="3.70947">
        <ele>110.69</ele>
        <time>2013-04-28T08:43:37Z</time>
      </trkpt>
      <trkpt lat="47.6638" lon="3.70947">
        <ele>110.69</ele>
        <time>2013-04-28T08:43:44Z</time>
      </trkpt>
      <trkpt lat="47.66365" lon="3.70945">
        <ele>111.17</ele>
        <time>2013-04-28T08:43:55Z</time>
      </trkpt>
      <trkpt lat="47.66362" lon="3.70945">
        <ele>111.17</ele>
        <time>2013-04-28T08:43:58Z</time>
      </trkpt>
      <trkpt lat="47.66345" lon="3.70944">
        <ele>112.13</ele>
        <time>2013-04-28T08:44:13Z</time>
      </trkpt>
      <trkpt lat="47.66345" lon="3.70944">
        <ele>115.01</ele>
        <time>2013-04-28T08:44:14Z</time>
      </trkpt>
      <trkpt lat="47.66344" lon="3.70944">
        <ele>112.13</ele>
        <time>2013-04-28T08:44:15Z</time>
      </trkpt>
      <trkpt lat="47.66335" lon="3.70941">
        <ele>112.13</ele>
        <time>2013-04-28T08:44:21Z</time>
      </trkpt>
      <trkpt lat="47.66332" lon="3.70939">
        <ele>112.61</ele>
        <time>2013-04-28T08:44:24Z</time>
      </trkpt>
      <trkpt lat="47.6633" lon="3.70938">
        <ele>112.61</ele>
        <time>2013-04-28T08:44:26Z</time>
      </trkpt>
      <trkpt lat="47.66319" lon="3.70931">
        <ele>113.09</ele>
        <time>2013-04-28T08:44:36Z</time>
      </trkpt>
      <trkpt lat="47.66309" lon="3.70928">
        <ele>113.57</ele>
        <time>2013-04-28T08:44:45Z</time>
      </trkpt>
      <trkpt lat="47.66296" lon="3.70925">
        <ele>113.57</ele>
        <time>2013-04-28T08:44:55Z</time>
      </trkpt>
      <trkpt lat="47.66287" lon="3.70922">
        <ele>114.05</ele>
        <time>2013-04-28T08:45:03Z</time>
      </trkpt>
      <trkpt lat="47.66283" lon="3.70923">
        <ele>113.57</ele>
        <time>2013-04-28T08:45:06Z</time>
      </trkpt>
      <trkpt lat="47.66272" lon="3.7092">
        <ele>113.57</ele>
        <time>2013-04-28T08:45:14Z</time>
      </trkpt>
      <trkpt lat="47.66264" lon="3.70919">
        <ele>113.57</ele>
        <time>2013-04-28T08:45:22Z</time>
      </trkpt>
      <trkpt lat="47.66252" lon="3.70917">
        <ele>113.57</ele>
        <time>2013-04-28T08:45:33Z</time>
      </trkpt>
      <trkpt lat="47.66251" lon="3.70917">
        <ele>113.57</ele>
        <time>2013-04-28T08:45:34Z</time>
      </trkpt>
      <trkpt lat="47.66241" lon="3.70915">
        <ele>112.61</ele>
        <time>2013-04-28T08:45:42Z</time>
      </trkpt>
      <trkpt lat="47.66231" lon="3.70912">
        <ele>112.13</ele>
        <time>2013-04-28T08:45:51Z</time>
      </trkpt>
      <trkpt lat="47.66224" lon="3.7091">
        <ele>111.17</ele>
        <time>2013-04-28T08:45:57Z</time>
      </trkpt>
      <trkpt lat="47.66218" lon="3.70925">
        <ele>109.73</ele>
        <time>2013-04-28T08:46:06Z</time>
      </trkpt>
      <trkpt lat="47.66211" lon="3.70956">
        <ele>109.25</ele>
        <time>2013-04-28T08:46:18Z</time>
      </trkpt>
      <trkpt lat="47.6621" lon="3.70967">
        <ele>109.73</ele>
        <time>2013-04-28T08:46:24Z</time>
      </trkpt>
      <trkpt lat="47.66211" lon="3.70973">
        <ele>109.25</ele>
        <time>2013-04-28T08:46:28Z</time>
      </trkpt>
      <trkpt lat="47.66213" lon="3.70977">
        <ele>109.25</ele>
        <time>2013-04-28T08:46:31Z</time>
      </trkpt>
      <trkpt lat="47.66211" lon="3.70991">
        <ele>109.25</ele>
        <time>2013-04-28T08:46:37Z</time>
      </trkpt>
      <trkpt lat="47.66206" lon="3.71006">
        <ele>108.77</ele>
        <time>2013-04-28T08:46:43Z</time>
      </trkpt>
      <trkpt lat="47.66205" lon="3.71027">
        <ele>109.25</ele>
        <time>2013-04-28T08:46:52Z</time>
      </trkpt>
      <trkpt lat="47.66206" lon="3.71037">
        <ele>108.77</ele>
        <time>2013-04-28T08:46:58Z</time>
      </trkpt>
      <trkpt lat="47.66206" lon="3.71043">
        <ele>107.81</ele>
        <time>2013-04-28T08:47:02Z</time>
      </trkpt>
      <trkpt lat="47.66206" lon="3.71046">
        <ele>109.25</ele>
        <time>2013-04-28T08:47:04Z</time>
      </trkpt>
      <trkpt lat="47.66206" lon="3.71053">
        <ele>108.77</ele>
        <time>2013-04-28T08:47:09Z</time>
      </trkpt>
      <trkpt lat="47.66206" lon="3.71067">
        <ele>111.17</ele>
        <time>2013-04-28T08:47:22Z</time>
      </trkpt>
      <trkpt lat="47.66206" lon="3.71067">
        <ele>108.29</ele>
        <time>2013-04-28T08:47:23Z</time>
      </trkpt>
      <trkpt lat="47.66206" lon="3.7107">
        <ele>108.77</ele>
        <time>2013-04-28T08:47:31Z</time>
      </trkpt>
      <trkpt lat="47.66205" lon="3.7107">
        <ele>108.77</ele>
        <time>2013-04-28T08:47:42Z</time>
      </trkpt>
      <trkpt lat="47.66206" lon="3.7107">
        <ele>108.77</ele>
        <time>2013-04-28T08:47:52Z</time>
      </trkpt>
      <trkpt lat="47.66207" lon="3.71071">
        <ele>108.77</ele>
        <time>2013-04-28T08:48:00Z</time>
      </trkpt>
      <trkpt lat="47.66207" lon="3.71071">
        <ele>108.77</ele>
        <time>2013-04-28T08:48:11Z</time>
      </trkpt>
      <trkpt lat="47.66209" lon="3.7107">
        <ele>108.77</ele>
        <time>2013-04-28T08:48:21Z</time>
      </trkpt>
      <trkpt lat="47.6621" lon="3.7107">
        <ele>108.77</ele>
        <time>2013-04-28T08:48:33Z</time>
      </trkpt>
      <trkpt lat="47.66205" lon="3.71071">
        <ele>109.25</ele>
        <time>2013-04-28T08:48:44Z</time>
      </trkpt>
      <trkpt lat="47.66205" lon="3.71072">
        <ele>108.77</ele>
        <time>2013-04-28T08:48:56Z</time>
      </trkpt>
      <trkpt lat="47.66205" lon="3.71071">
        <ele>109.25</ele>
        <time>2013-04-28T08:49:09Z</time>
      </trkpt>
      <trkpt lat="47.66207" lon="3.71068">
        <ele>108.77</ele>
        <time>2013-04-28T08:49:19Z</time>
      </trkpt>
      <trkpt lat="47.66212" lon="3.71064">
        <ele>108.29</ele>
        <time>2013-04-28T08:49:28Z</time>
      </trkpt>
      <trkpt lat="47.66214" lon="3.71061">
        <ele>108.29</ele>
        <time>2013-04-28T08:49:37Z</time>
      </trkpt>
      <trkpt lat="47.66215" lon="3.7106">
        <ele>108.29</ele>
        <time>2013-04-28T08:49:56Z</time>
      </trkpt>
      <trkpt lat="47.66215" lon="3.71062">
        <ele>108.29</ele>
        <time>2013-04-28T08:50:05Z</time>
      </trkpt>
      <trkpt lat="47.66214" lon="3.71062">
        <ele>108.29</ele>
        <time>2013-04-28T08:50:06Z</time>
      </trkpt>
      <trkpt lat="47.66209" lon="3.71064">
        <ele>108.29</ele>
        <time>2013-04-28T08:50:12Z</time>
      </trkpt>
      <trkpt lat="47.66207" lon="3.71068">
        <ele>108.29</ele>
        <time>2013-04-28T08:50:21Z</time>
      </trkpt>
      <trkpt lat="47.66207" lon="3.71069">
        <ele>108.77</ele>
        <time>2013-04-28T08:50:36Z</time>
      </trkpt>
      <trkpt lat="47.66207" lon="3.7107">
        <ele>108.77</ele>
        <time>2013-04-28T08:50:50Z</time>
      </trkpt>
      <trkpt lat="47.66206" lon="3.7107">
        <ele>108.77</ele>
        <time>2013-04-28T08:51:04Z</time>
      </trkpt>
      <trkpt lat="47.66206" lon="3.71071">
        <ele>108.77</ele>
        <time>2013-04-28T08:51:20Z</time>
      </trkpt>
      <trkpt lat="47.66205" lon="3.71071">
        <ele>108.77</ele>
        <time>2013-04-28T08:51:33Z</time>
      </trkpt>
      <trkpt lat="47.66205" lon="3.7107">
        <ele>108.29</ele>
        <time>2013-04-28T08:51:49Z</time>
      </trkpt>
      <trkpt lat="47.66205" lon="3.7107">
        <ele>108.77</ele>
        <time>2013-04-28T08:52:01Z</time>
      </trkpt>
      <trkpt lat="47.66205" lon="3.7107">
        <ele>108.77</ele>
        <time>2013-04-28T08:52:16Z</time>
      </trkpt>
      <trkpt lat="47.66205" lon="3.71071">
        <ele>108.77</ele>
        <time>2013-04-28T08:52:28Z</time>
      </trkpt>
      <trkpt lat="47.66205" lon="3.71071">
        <ele>108.77</ele>
        <time>2013-04-28T08:52:43Z</time>
      </trkpt>
      <trkpt lat="47.66204" lon="3.7107">
        <ele>108.77</ele>
        <time>2013-04-28T08:52:58Z</time>
      </trkpt>
      <trkpt lat="47.66205" lon="3.71069">
        <ele>108.77</ele>
        <time>2013-04-28T08:53:12Z</time>
      </trkpt>
      <trkpt lat="47.66205" lon="3.71069">
        <ele>108.77</ele>
        <time>2013-04-28T08:53:20Z</time>
      </trkpt>
      <trkpt lat="47.66208" lon="3.71071">
        <ele>108.77</ele>
        <time>2013-04-28T08:53:32Z</time>
      </trkpt>
      <trkpt lat="47.6621" lon="3.71071">
        <ele>109.25</ele>
        <time>2013-04-28T08:53:49Z</time>
      </trkpt>
      <trkpt lat="47.66211" lon="3.7107">
        <ele>108.77</ele>
        <time>2013-04-28T08:53:57Z</time>
      </trkpt>
      <trkpt lat="47.66211" lon="3.71069">
        <ele>108.77</ele>
        <time>2013-04-28T08:54:10Z</time>
      </trkpt>
      <trkpt lat="47.66208" lon="3.71073">
        <ele>108.77</ele>
        <time>2013-04-28T08:54:20Z</time>
      </trkpt>
      <trkpt lat="47.66209" lon="3.71071">
        <ele>109.25</ele>
        <time>2013-04-28T08:54:30Z</time>
      </trkpt>
      <trkpt lat="47.66207" lon="3.7107">
        <ele>108.77</ele>
        <time>2013-04-28T08:54:40Z</time>
      </trkpt>
      <trkpt lat="47.66204" lon="3.7107">
        <ele>109.25</ele>
        <time>2013-04-28T08:54:50Z</time>
      </trkpt>
      <trkpt lat="47.66205" lon="3.71069">
        <ele>109.25</ele>
        <time>2013-04-28T08:55:02Z</time>
      </trkpt>
      <trkpt lat="47.66205" lon="3.71069">
        <ele>109.73</ele>
        <time>2013-04-28T08:55:08Z</time>
      </trkpt>
      <trkpt lat="47.66201" lon="3.71076">
        <ele>109.25</ele>
        <time>2013-04-28T08:55:16Z</time>
      </trkpt>
      <trkpt lat="47.66199" lon="3.71078">
        <ele>109.25</ele>
        <time>2013-04-28T08:55:18Z</time>
      </trkpt>
      <trkpt lat="47.66198" lon="3.71082">
        <ele>109.25</ele>
        <time>2013-04-28T08:55:21Z</time>
      </trkpt>
      <trkpt lat="47.66191" lon="3.71087">
        <ele>109.73</ele>
        <time>2013-04-28T08:55:29Z</time>
      </trkpt>
      <trkpt lat="47.66189" lon="3.7109">
        <ele>109.73</ele>
        <time>2013-04-28T08:55:31Z</time>
      </trkpt>
      <trkpt lat="47.66185" lon="3.71096">
        <ele>109.25</ele>
        <time>2013-04-28T08:55:35Z</time>
      </trkpt>
      <trkpt lat="47.66173" lon="3.71105">
        <ele>109.73</ele>
        <time>2013-04-28T08:55:45Z</time>
      </trkpt>
      <trkpt lat="47.66171" lon="3.71107">
        <ele>109.73</ele>
        <time>2013-04-28T08:55:47Z</time>
      </trkpt>
      <trkpt lat="47.66163" lon="3.71112">
        <ele>110.21</ele>
        <time>2013-04-28T08:55:53Z</time>
      </trkpt>
      <trkpt lat="47.66161" lon="3.71112">
        <ele>111.17</ele>
        <time>2013-04-28T08:55:55Z</time>
      </trkpt>
      <trkpt lat="47.66158" lon="3.71113">
        <ele>107.81</ele>
        <time>2013-04-28T08:55:57Z</time>
      </trkpt>
      <trkpt lat="47.66153" lon="3.71116">
        <ele>110.21</ele>
        <time>2013-04-28T08:56:00Z</time>
      </trkpt>
      <trkpt lat="47.66148" lon="3.71118">
        <ele>111.17</ele>
        <time>2013-04-28T08:56:05Z</time>
      </trkpt>
      <trkpt lat="47.66145" lon="3.7112">
        <ele>110.21</ele>
        <time>2013-04-28T08:56:07Z</time>
      </trkpt>
      <trkpt lat="47.66135" lon="3.71126">
        <ele>110.21</ele>
        <time>2013-04-28T08:56:17Z</time>
      </trkpt>
      <trkpt lat="47.66126" lon="3.71132">
        <ele>110.69</ele>
        <time>2013-04-28T08:56:26Z</time>
      </trkpt>
      <trkpt lat="47.66112" lon="3.71142">
        <ele>110.69</ele>
        <time>2013-04-28T08:56:38Z</time>
      </trkpt>
      <trkpt lat="47.66102" lon="3.71149">
        <ele>111.65</ele>
        <time>2013-04-28T08:56:48Z</time>
      </trkpt>
      <trkpt lat="47.66095" lon="3.71154">
        <ele>111.65</ele>
        <time>2013-04-28T08:56:55Z</time>
      </trkpt>
      <trkpt lat="47.6609" lon="3.71154">
        <ele>112.13</ele>
        <time>2013-04-28T08:57:00Z</time>
      </trkpt>
      <trkpt lat="47.66083" lon="3.71162">
        <ele>112.61</ele>
        <time>2013-04-28T08:57:05Z</time>
      </trkpt>
      <trkpt lat="47.66072" lon="3.71175">
        <ele>113.57</ele>
        <time>2013-04-28T08:57:16Z</time>
      </trkpt>
      <trkpt lat="47.66066" lon="3.71182">
        <ele>114.05</ele>
        <time>2013-04-28T08:57:23Z</time>
      </trkpt>
      <trkpt lat="47.66054" lon="3.71201">
        <ele>115.5</ele>
        <time>2013-04-28T08:57:33Z</time>
      </trkpt>
      <trkpt lat="47.66052" lon="3.71207">
        <ele>115.01</ele>
        <time>2013-04-28T08:57:36Z</time>
      </trkpt>
      <trkpt lat="47.66045" lon="3.71218">
        <ele>115.98</ele>
        <time>2013-04-28T08:57:45Z</time>
      </trkpt>
      <trkpt lat="47.66035" lon="3.71236">
        <ele>116.46</ele>
        <time>2013-04-28T08:57:56Z</time>
      </trkpt>
      <trkpt lat="47.66024" lon="3.7125">
        <ele>116.46</ele>
        <time>2013-04-28T08:58:05Z</time>
      </trkpt>
      <trkpt lat="47.66022" lon="3.71252">
        <ele>116.94</ele>
        <time>2013-04-28T08:58:07Z</time>
      </trkpt>
      <trkpt lat="47.66014" lon="3.71261">
        <ele>116.94</ele>
        <time>2013-04-28T08:58:15Z</time>
      </trkpt>
      <trkpt lat="47.66" lon="3.7127">
        <ele>117.9</ele>
        <time>2013-04-28T08:58:25Z</time>
      </trkpt>
      <trkpt lat="47.65987" lon="3.71276">
        <ele>118.38</ele>
        <time>2013-04-28T08:58:36Z</time>
      </trkpt>
      <trkpt lat="47.65979" lon="3.71286">
        <ele>118.86</ele>
        <time>2013-04-28T08:58:44Z</time>
      </trkpt>
      <trkpt lat="47.65975" lon="3.71298">
        <ele>118.86</ele>
        <time>2013-04-28T08:58:53Z</time>
      </trkpt>
      <trkpt lat="47.65973" lon="3.71305">
        <ele>118.86</ele>
        <time>2013-04-28T08:58:57Z</time>
      </trkpt>
      <trkpt lat="47.65966" lon="3.71325">
        <ele>118.86</ele>
        <time>2013-04-28T08:59:08Z</time>
      </trkpt>
      <trkpt lat="47.65965" lon="3.71329">
        <ele>118.38</ele>
        <time>2013-04-28T08:59:11Z</time>
      </trkpt>
      <trkpt lat="47.65964" lon="3.71341">
        <ele>118.86</ele>
        <time>2013-04-28T08:59:15Z</time>
      </trkpt>
      <trkpt lat="47.65957" lon="3.71362">
        <ele>118.38</ele>
        <time>2013-04-28T08:59:26Z</time>
      </trkpt>
      <trkpt lat="47.65951" lon="3.71381">
        <ele>118.38</ele>
        <time>2013-04-28T08:59:37Z</time>
      </trkpt>
      <trkpt lat="47.65943" lon="3.71402">
        <ele>118.86</ele>
        <time>2013-04-28T08:59:47Z</time>
      </trkpt>
      <trkpt lat="47.65942" lon="3.71407">
        <ele>119.34</ele>
        <time>2013-04-28T08:59:52Z</time>
      </trkpt>
      <trkpt lat="47.65938" lon="3.71416">
        <ele>119.82</ele>
        <time>2013-04-28T08:59:57Z</time>
      </trkpt>
      <trkpt lat="47.65933" lon="3.7143">
        <ele>119.34</ele>
        <time>2013-04-28T09:00:05Z</time>
      </trkpt>
      <trkpt lat="47.6593" lon="3.71439">
        <ele>119.34</ele>
        <time>2013-04-28T09:00:10Z</time>
      </trkpt>
      <trkpt lat="47.65922" lon="3.71464">
        <ele>119.34</ele>
        <time>2013-04-28T09:00:21Z</time>
      </trkpt>
      <trkpt lat="47.65917" lon="3.71485">
        <ele>119.34</ele>
        <time>2013-04-28T09:00:31Z</time>
      </trkpt>
      <trkpt lat="47.65908" lon="3.71505">
        <ele>119.34</ele>
        <time>2013-04-28T09:00:41Z</time>
      </trkpt>
      <trkpt lat="47.65901" lon="3.7152">
        <ele>119.34</ele>
        <time>2013-04-28T09:00:50Z</time>
      </trkpt>
      <trkpt lat="47.65895" lon="3.71531">
        <ele>119.82</ele>
        <time>2013-04-28T09:00:59Z</time>
      </trkpt>
      <trkpt lat="47.65887" lon="3.71544">
        <ele>119.82</ele>
        <time>2013-04-28T09:01:08Z</time>
      </trkpt>
      <trkpt lat="47.65886" lon="3.71548">
        <ele>119.82</ele>
        <time>2013-04-28T09:01:12Z</time>
      </trkpt>
      <trkpt lat="47.65882" lon="3.71553">
        <ele>119.82</ele>
        <time>2013-04-28T09:01:15Z</time>
      </trkpt>
      <trkpt lat="47.6587" lon="3.71571">
        <ele>120.3</ele>
        <time>2013-04-28T09:01:25Z</time>
      </trkpt>
      <trkpt lat="47.65868" lon="3.71575">
        <ele>120.78</ele>
        <time>2013-04-28T09:01:29Z</time>
      </trkpt>
      <trkpt lat="47.65861" lon="3.71584">
        <ele>120.78</ele>
        <time>2013-04-28T09:01:35Z</time>
      </trkpt>
      <trkpt lat="47.65853" lon="3.71602">
        <ele>121.26</ele>
        <time>2013-04-28T09:01:46Z</time>
      </trkpt>
      <trkpt lat="47.65843" lon="3.71619">
        <ele>120.78</ele>
        <time>2013-04-28T09:01:55Z</time>
      </trkpt>
      <trkpt lat="47.65833" lon="3.71638">
        <ele>121.74</ele>
        <time>2013-04-28T09:02:07Z</time>
      </trkpt>
      <trkpt lat="47.65824" lon="3.7166">
        <ele>121.74</ele>
        <time>2013-04-28T09:02:18Z</time>
      </trkpt>
      <trkpt lat="47.65816" lon="3.71675">
        <ele>121.74</ele>
        <time>2013-04-28T09:02:26Z</time>
      </trkpt>
      <trkpt lat="47.65809" lon="3.71691">
        <ele>122.22</ele>
        <time>2013-04-28T09:02:35Z</time>
      </trkpt>
      <trkpt lat="47.65803" lon="3.71707">
        <ele>122.22</ele>
        <time>2013-04-28T09:02:44Z</time>
      </trkpt>
      <trkpt lat="47.65794" lon="3.71729">
        <ele>122.71</ele>
        <time>2013-04-28T09:02:56Z</time>
      </trkpt>
      <trkpt lat="47.65785" lon="3.71749">
        <ele>122.71</ele>
        <time>2013-04-28T09:03:08Z</time>
      </trkpt>
      <trkpt lat="47.65779" lon="3.71771">
        <ele>123.19</ele>
        <time>2013-04-28T09:03:19Z</time>
      </trkpt>
      <trkpt lat="47.65772" lon="3.71792">
        <ele>123.67</ele>
        <time>2013-04-28T09:03:30Z</time>
      </trkpt>
      <trkpt lat="47.65767" lon="3.71812">
        <ele>123.67</ele>
        <time>2013-04-28T09:03:40Z</time>
      </trkpt>
      <trkpt lat="47.6576" lon="3.71835">
        <ele>123.67</ele>
        <time>2013-04-28T09:03:51Z</time>
      </trkpt>
      <trkpt lat="47.65755" lon="3.7186">
        <ele>124.15</ele>
        <time>2013-04-28T09:04:04Z</time>
      </trkpt>
      <trkpt lat="47.65754" lon="3.71863">
        <ele>124.15</ele>
        <time>2013-04-28T09:04:06Z</time>
      </trkpt>
      <trkpt lat="47.65751" lon="3.71872">
        <ele>124.63</ele>
        <time>2013-04-28T09:04:11Z</time>
      </trkpt>
      <trkpt lat="47.65746" lon="3.71897">
        <ele>125.11</ele>
        <time>2013-04-28T09:04:23Z</time>
      </trkpt>
      <trkpt lat="47.6574" lon="3.71921">
        <ele>125.11</ele>
        <time>2013-04-28T09:04:35Z</time>
      </trkpt>
      <trkpt lat="47.65733" lon="3.71947">
        <ele>125.59</ele>
        <time>2013-04-28T09:04:48Z</time>
      </trkpt>
      <trkpt lat="47.65729" lon="3.7197">
        <ele>126.07</ele>
        <time>2013-04-28T09:04:59Z</time>
      </trkpt>
      <trkpt lat="47.65724" lon="3.71991">
        <ele>126.07</ele>
        <time>2013-04-28T09:05:10Z</time>
      </trkpt>
      <trkpt lat="47.65719" lon="3.7202">
        <ele>126.07</ele>
        <time>2013-04-28T09:05:23Z</time>
      </trkpt>
      <trkpt lat="47.65713" lon="3.72046">
        <ele>127.03</ele>
        <time>2013-04-28T09:05:37Z</time>
      </trkpt>
      <trkpt lat="47.65709" lon="3.72068">
        <ele>127.51</ele>
        <time>2013-04-28T09:05:48Z</time>
      </trkpt>
      <trkpt lat="47.65703" lon="3.72092">
        <ele>127.51</ele>
        <time>2013-04-28T09:05:59Z</time>
      </trkpt>
      <trkpt lat="47.65698" lon="3.72116">
        <ele>128.47</ele>
        <time>2013-04-28T09:06:11Z</time>
      </trkpt>
      <trkpt lat="47.65693" lon="3.72142">
        <ele>128.95</ele>
        <time>2013-04-28T09:06:23Z</time>
      </trkpt>
      <trkpt lat="47.65684" lon="3.72166">
        <ele>129.43</ele>
        <time>2013-04-28T09:06:35Z</time>
      </trkpt>
      <trkpt lat="47.65678" lon="3.72185">
        <ele>129.92</ele>
        <time>2013-04-28T09:06:46Z</time>
      </trkpt>
      <trkpt lat="47.65675" lon="3.72196">
        <ele>130.4</ele>
        <time>2013-04-28T09:06:52Z</time>
      </trkpt>
      <trkpt lat="47.65672" lon="3.72205">
        <ele>130.4</ele>
        <time>2013-04-28T09:06:56Z</time>
      </trkpt>
      <trkpt lat="47.65665" lon="3.72224">
        <ele>130.4</ele>
        <time>2013-04-28T09:07:06Z</time>
      </trkpt>
      <trkpt lat="47.65657" lon="3.72244">
        <ele>131.36</ele>
        <time>2013-04-28T09:07:18Z</time>
      </trkpt>
      <trkpt lat="47.6565" lon="3.72266">
        <ele>132.32</ele>
        <time>2013-04-28T09:07:30Z</time>
      </trkpt>
      <trkpt lat="47.65649" lon="3.7227">
        <ele>132.32</ele>
        <time>2013-04-28T09:07:32Z</time>
      </trkpt>
      <trkpt lat="47.65639" lon="3.7229">
        <ele>132.8</ele>
        <time>2013-04-28T09:07:44Z</time>
      </trkpt>
      <trkpt lat="47.65638" lon="3.72294">
        <ele>132.8</ele>
        <time>2013-04-28T09:07:46Z</time>
      </trkpt>
      <trkpt lat="47.65629" lon="3.72318">
        <ele>134.24</ele>
        <time>2013-04-28T09:07:58Z</time>
      </trkpt>
      <trkpt lat="47.65622" lon="3.72338">
        <ele>134.24</ele>
        <time>2013-04-28T09:08:08Z</time>
      </trkpt>
      <trkpt lat="47.65611" lon="3.72359">
        <ele>134.72</ele>
        <time>2013-04-28T09:08:19Z</time>
      </trkpt>
      <trkpt lat="47.65604" lon="3.72382">
        <ele>135.2</ele>
        <time>2013-04-28T09:08:31Z</time>
      </trkpt>
      <trkpt lat="47.65603" lon="3.72384">
        <ele>134.72</ele>
        <time>2013-04-28T09:08:32Z</time>
      </trkpt>
      <trkpt lat="47.65598" lon="3.72397">
        <ele>135.2</ele>
        <time>2013-04-28T09:08:40Z</time>
      </trkpt>
      <trkpt lat="47.65591" lon="3.72411">
        <ele>134.72</ele>
        <time>2013-04-28T09:08:50Z</time>
      </trkpt>
      <trkpt lat="47.65583" lon="3.72429">
        <ele>135.2</ele>
        <time>2013-04-28T09:09:01Z</time>
      </trkpt>
      <trkpt lat="47.65575" lon="3.7244">
        <ele>134.24</ele>
        <time>2013-04-28T09:09:10Z</time>
      </trkpt>
      <trkpt lat="47.65575" lon="3.72441">
        <ele>134.24</ele>
        <time>2013-04-28T09:09:11Z</time>
      </trkpt>
      <trkpt lat="47.65569" lon="3.72452">
        <ele>133.28</ele>
        <time>2013-04-28T09:09:20Z</time>
      </trkpt>
      <trkpt lat="47.65565" lon="3.72458">
        <ele>132.8</ele>
        <time>2013-04-28T09:09:23Z</time>
      </trkpt>
      <trkpt lat="47.65553" lon="3.72475">
        <ele>132.8</ele>
        <time>2013-04-28T09:09:33Z</time>
      </trkpt>
      <trkpt lat="47.65544" lon="3.72491">
        <ele>131.84</ele>
        <time>2013-04-28T09:09:44Z</time>
      </trkpt>
      <trkpt lat="47.65536" lon="3.72499">
        <ele>131.36</ele>
        <time>2013-04-28T09:09:50Z</time>
      </trkpt>
      <trkpt lat="47.65525" lon="3.72513">
        <ele>129.92</ele>
        <time>2013-04-28T09:10:01Z</time>
      </trkpt>
      <trkpt lat="47.65524" lon="3.72515">
        <ele>129.92</ele>
        <time>2013-04-28T09:10:03Z</time>
      </trkpt>
      <trkpt lat="47.65514" lon="3.72527">
        <ele>128.95</ele>
        <time>2013-04-28T09:10:12Z</time>
      </trkpt>
      <trkpt lat="47.65511" lon="3.7253">
        <ele>128.47</ele>
        <time>2013-04-28T09:10:14Z</time>
      </trkpt>
      <trkpt lat="47.655" lon="3.72545">
        <ele>127.99</ele>
        <time>2013-04-28T09:10:24Z</time>
      </trkpt>
      <trkpt lat="47.65496" lon="3.72549">
        <ele>127.99</ele>
        <time>2013-04-28T09:10:27Z</time>
      </trkpt>
      <trkpt lat="47.65494" lon="3.72549">
        <ele>127.51</ele>
        <time>2013-04-28T09:10:29Z</time>
      </trkpt>
      <trkpt lat="47.65483" lon="3.72556">
        <ele>126.07</ele>
        <time>2013-04-28T09:10:38Z</time>
      </trkpt>
      <trkpt lat="47.65474" lon="3.72564">
        <ele>125.11</ele>
        <time>2013-04-28T09:10:44Z</time>
      </trkpt>
      <trkpt lat="47.65463" lon="3.72573">
        <ele>123.67</ele>
        <time>2013-04-28T09:10:54Z</time>
      </trkpt>
      <trkpt lat="47.65456" lon="3.72578">
        <ele>122.22</ele>
        <time>2013-04-28T09:11:00Z</time>
      </trkpt>
      <trkpt lat="47.65453" lon="3.7258">
        <ele>122.22</ele>
        <time>2013-04-28T09:11:02Z</time>
      </trkpt>
      <trkpt lat="47.65435" lon="3.72584">
        <ele>119.82</ele>
        <time>2013-04-28T09:11:15Z</time>
      </trkpt>
      <trkpt lat="47.65425" lon="3.72591">
        <ele>118.38</ele>
        <time>2013-04-28T09:11:24Z</time>
      </trkpt>
      <trkpt lat="47.6541" lon="3.72593">
        <ele>116.46</ele>
        <time>2013-04-28T09:11:34Z</time>
      </trkpt>
      <trkpt lat="47.65398" lon="3.72596">
        <ele>115.5</ele>
        <time>2013-04-28T09:11:42Z</time>
      </trkpt>
      <trkpt lat="47.65385" lon="3.72606">
        <ele>115.01</ele>
        <time>2013-04-28T09:11:50Z</time>
      </trkpt>
      <trkpt lat="47.65375" lon="3.72608">
        <ele>114.53</ele>
        <time>2013-04-28T09:11:57Z</time>
      </trkpt>
      <trkpt lat="47.6536" lon="3.72614">
        <ele>113.09</ele>
        <time>2013-04-28T09:12:08Z</time>
      </trkpt>
      <trkpt lat="47.65351" lon="3.72614">
        <ele>112.61</ele>
        <time>2013-04-28T09:12:15Z</time>
      </trkpt>
      <trkpt lat="47.65347" lon="3.72612">
        <ele>112.61</ele>
        <time>2013-04-28T09:12:19Z</time>
      </trkpt>
      <trkpt lat="47.65342" lon="3.72614">
        <ele>112.13</ele>
        <time>2013-04-28T09:12:22Z</time>
      </trkpt>
      <trkpt lat="47.65334" lon="3.72616">
        <ele>112.13</ele>
        <time>2013-04-28T09:12:30Z</time>
      </trkpt>
      <trkpt lat="47.65331" lon="3.72617">
        <ele>112.13</ele>
        <time>2013-04-28T09:12:32Z</time>
      </trkpt>
      <trkpt lat="47.65324" lon="3.72622">
        <ele>112.13</ele>
        <time>2013-04-28T09:12:38Z</time>
      </trkpt>
      <trkpt lat="47.6532" lon="3.72625">
        <ele>112.13</ele>
        <time>2013-04-28T09:12:40Z</time>
      </trkpt>
      <trkpt lat="47.65306" lon="3.7263">
        <ele>111.65</ele>
        <time>2013-04-28T09:12:50Z</time>
      </trkpt>
      <trkpt lat="47.65302" lon="3.72634">
        <ele>112.13</ele>
        <time>2013-04-28T09:12:53Z</time>
      </trkpt>
      <trkpt lat="47.65297" lon="3.72636">
        <ele>112.13</ele>
        <time>2013-04-28T09:12:56Z</time>
      </trkpt>
      <trkpt lat="47.6529" lon="3.72639">
        <ele>112.13</ele>
        <time>2013-04-28T09:13:02Z</time>
      </trkpt>
      <trkpt lat="47.65285" lon="3.72638">
        <ele>112.13</ele>
        <time>2013-04-28T09:13:07Z</time>
      </trkpt>
      <trkpt lat="47.65282" lon="3.72639">
        <ele>112.13</ele>
        <time>2013-04-28T09:13:09Z</time>
      </trkpt>
      <trkpt lat="47.65268" lon="3.72648">
        <ele>112.13</ele>
        <time>2013-04-28T09:13:20Z</time>
      </trkpt>
      <trkpt lat="47.65256" lon="3.72653">
        <ele>113.09</ele>
        <time>2013-04-28T09:13:28Z</time>
      </trkpt>
      <trkpt lat="47.65247" lon="3.72653">
        <ele>113.57</ele>
        <time>2013-04-28T09:13:35Z</time>
      </trkpt>
      <trkpt lat="47.6524" lon="3.7265">
        <ele>114.53</ele>
        <time>2013-04-28T09:13:44Z</time>
      </trkpt>
      <trkpt lat="47.65239" lon="3.7265">
        <ele>114.53</ele>
        <time>2013-04-28T09:13:45Z</time>
      </trkpt>
      <trkpt lat="47.65226" lon="3.72652">
        <ele>115.01</ele>
        <time>2013-04-28T09:13:54Z</time>
      </trkpt>
      <trkpt lat="47.65216" lon="3.72655">
        <ele>115.01</ele>
        <time>2013-04-28T09:13:59Z</time>
      </trkpt>
      <trkpt lat="47.65199" lon="3.72656">
        <ele>115.01</ele>
        <time>2013-04-28T09:14:11Z</time>
      </trkpt>
      <trkpt lat="47.65186" lon="3.72655">
        <ele>114.53</ele>
        <time>2013-04-28T09:14:19Z</time>
      </trkpt>
      <trkpt lat="47.65177" lon="3.7265">
        <ele>114.53</ele>
        <time>2013-04-28T09:14:28Z</time>
      </trkpt>
      <trkpt lat="47.65163" lon="3.72647">
        <ele>113.57</ele>
        <time>2013-04-28T09:14:37Z</time>
      </trkpt>
      <trkpt lat="47.6515" lon="3.72646">
        <ele>113.09</ele>
        <time>2013-04-28T09:14:47Z</time>
      </trkpt>
      <trkpt lat="47.65134" lon="3.72642">
        <ele>113.09</ele>
        <time>2013-04-28T09:14:57Z</time>
      </trkpt>
      <trkpt lat="47.65128" lon="3.7264">
        <ele>113.57</ele>
        <time>2013-04-28T09:15:00Z</time>
      </trkpt>
      <trkpt lat="47.65121" lon="3.72641">
        <ele>113.57</ele>
        <time>2013-04-28T09:15:05Z</time>
      </trkpt>
      <trkpt lat="47.65111" lon="3.72643">
        <ele>113.57</ele>
        <time>2013-04-28T09:15:11Z</time>
      </trkpt>
      <trkpt lat="47.651" lon="3.72637">
        <ele>114.05</ele>
        <time>2013-04-28T09:15:19Z</time>
      </trkpt>
      <trkpt lat="47.65095" lon="3.72636">
        <ele>114.05</ele>
        <time>2013-04-28T09:15:22Z</time>
      </trkpt>
      <trkpt lat="47.65085" lon="3.72635">
        <ele>114.05</ele>
        <time>2013-04-28T09:15:29Z</time>
      </trkpt>
      <trkpt lat="47.65072" lon="3.72633">
        <ele>114.05</ele>
        <time>2013-04-28T09:15:38Z</time>
      </trkpt>
      <trkpt lat="47.65063" lon="3.72633">
        <ele>114.05</ele>
        <time>2013-04-28T09:15:46Z</time>
      </trkpt>
      <trkpt lat="47.65058" lon="3.72631">
        <ele>114.05</ele>
        <time>2013-04-28T09:15:53Z</time>
      </trkpt>
      <trkpt lat="47.65049" lon="3.72629">
        <ele>114.05</ele>
        <time>2013-04-28T09:16:01Z</time>
      </trkpt>
      <trkpt lat="47.65034" lon="3.72622">
        <ele>114.53</ele>
        <time>2013-04-28T09:16:10Z</time>
      </trkpt>
      <trkpt lat="47.65019" lon="3.72616">
        <ele>115.01</ele>
        <time>2013-04-28T09:16:18Z</time>
      </trkpt>
      <trkpt lat="47.65011" lon="3.72611">
        <ele>115.5</ele>
        <time>2013-04-28T09:16:22Z</time>
      </trkpt>
      <trkpt lat="47.65003" lon="3.72608">
        <ele>115.5</ele>
        <time>2013-04-28T09:16:26Z</time>
      </trkpt>
      <trkpt lat="47.64991" lon="3.72603">
        <ele>115.98</ele>
        <time>2013-04-28T09:16:36Z</time>
      </trkpt>
      <trkpt lat="47.64981" lon="3.72597">
        <ele>116.46</ele>
        <time>2013-04-28T09:16:46Z</time>
      </trkpt>
      <trkpt lat="47.6497" lon="3.72595">
        <ele>116.94</ele>
        <time>2013-04-28T09:16:55Z</time>
      </trkpt>
      <trkpt lat="47.64956" lon="3.72585">
        <ele>118.38</ele>
        <time>2013-04-28T09:17:05Z</time>
      </trkpt>
      <trkpt lat="47.64948" lon="3.72585">
        <ele>119.82</ele>
        <time>2013-04-28T09:17:16Z</time>
      </trkpt>
      <trkpt lat="47.64942" lon="3.72582">
        <ele>120.78</ele>
        <time>2013-04-28T09:17:22Z</time>
      </trkpt>
      <trkpt lat="47.64934" lon="3.72576">
        <ele>122.22</ele>
        <time>2013-04-28T09:17:28Z</time>
      </trkpt>
      <trkpt lat="47.6492" lon="3.72568">
        <ele>123.19</ele>
        <time>2013-04-28T09:17:38Z</time>
      </trkpt>
      <trkpt lat="47.6491" lon="3.72561">
        <ele>124.63</ele>
        <time>2013-04-28T09:17:47Z</time>
      </trkpt>
      <trkpt lat="47.64897" lon="3.72556">
        <ele>125.11</ele>
        <time>2013-04-28T09:17:58Z</time>
      </trkpt>
      <trkpt lat="47.64889" lon="3.7255">
        <ele>125.59</ele>
        <time>2013-04-28T09:18:07Z</time>
      </trkpt>
      <trkpt lat="47.64879" lon="3.72548">
        <ele>126.55</ele>
        <time>2013-04-28T09:18:15Z</time>
      </trkpt>
      <trkpt lat="47.64868" lon="3.72544">
        <ele>127.99</ele>
        <time>2013-04-28T09:18:25Z</time>
      </trkpt>
      <trkpt lat="47.6486" lon="3.72543">
        <ele>128.47</ele>
        <time>2013-04-28T09:18:33Z</time>
      </trkpt>
      <trkpt lat="47.64848" lon="3.7254">
        <ele>129.43</ele>
        <time>2013-04-28T09:18:42Z</time>
      </trkpt>
      <trkpt lat="47.64829" lon="3.72534">
        <ele>130.4</ele>
        <time>2013-04-28T09:18:54Z</time>
      </trkpt>
      <trkpt lat="47.64822" lon="3.72534">
        <ele>131.84</ele>
        <time>2013-04-28T09:19:04Z</time>
      </trkpt>
      <trkpt lat="47.6482" lon="3.72533">
        <ele>131.84</ele>
        <time>2013-04-28T09:19:06Z</time>
      </trkpt>
      <trkpt lat="47.64805" lon="3.72531">
        <ele>133.28</ele>
        <time>2013-04-28T09:19:14Z</time>
      </trkpt>
      <trkpt lat="47.648" lon="3.72529">
        <ele>133.76</ele>
        <time>2013-04-28T09:19:17Z</time>
      </trkpt>
      <trkpt lat="47.64781" lon="3.72521">
        <ele>134.72</ele>
        <time>2013-04-28T09:19:27Z</time>
      </trkpt>
      <trkpt lat="47.64768" lon="3.72519">
        <ele>136.16</ele>
        <time>2013-04-28T09:19:36Z</time>
      </trkpt>
      <trkpt lat="47.64763" lon="3.72517">
        <ele>136.16</ele>
        <time>2013-04-28T09:19:40Z</time>
      </trkpt>
      <trkpt lat="47.64755" lon="3.72512">
        <ele>136.64</ele>
        <time>2013-04-28T09:19:46Z</time>
      </trkpt>
      <trkpt lat="47.64742" lon="3.72513">
        <ele>138.09</ele>
        <time>2013-04-28T09:19:54Z</time>
      </trkpt>
      <trkpt lat="47.64729" lon="3.72512">
        <ele>137.61</ele>
        <time>2013-04-28T09:20:02Z</time>
      </trkpt>
      <trkpt lat="47.64727" lon="3.72512">
        <ele>138.09</ele>
        <time>2013-04-28T09:20:03Z</time>
      </trkpt>
      <trkpt lat="47.64709" lon="3.72502">
        <ele>137.61</ele>
        <time>2013-04-28T09:20:14Z</time>
      </trkpt>
      <trkpt lat="47.64704" lon="3.72496">
        <ele>137.61</ele>
        <time>2013-04-28T09:20:16Z</time>
      </trkpt>
      <trkpt lat="47.6469" lon="3.72487">
        <ele>137.61</ele>
        <time>2013-04-28T09:20:25Z</time>
      </trkpt>
      <trkpt lat="47.64681" lon="3.72488">
        <ele>137.13</ele>
        <time>2013-04-28T09:20:31Z</time>
      </trkpt>
      <trkpt lat="47.64666" lon="3.72496">
        <ele>137.13</ele>
        <time>2013-04-28T09:20:40Z</time>
      </trkpt>
      <trkpt lat="47.64662" lon="3.72495">
        <ele>137.61</ele>
        <time>2013-04-28T09:20:44Z</time>
      </trkpt>
      <trkpt lat="47.64654" lon="3.72493">
        <ele>137.13</ele>
        <time>2013-04-28T09:20:51Z</time>
      </trkpt>
      <trkpt lat="47.6465" lon="3.72493">
        <ele>136.64</ele>
        <time>2013-04-28T09:20:55Z</time>
      </trkpt>
      <trkpt lat="47.64647" lon="3.72492">
        <ele>136.64</ele>
        <time>2013-04-28T09:20:59Z</time>
      </trkpt>
      <trkpt lat="47.64642" lon="3.72493">
        <ele>136.64</ele>
        <time>2013-04-28T09:21:04Z</time>
      </trkpt>
      <trkpt lat="47.64639" lon="3.72492">
        <ele>136.16</ele>
        <time>2013-04-28T09:21:07Z</time>
      </trkpt>
      <trkpt lat="47.64622" lon="3.72506">
        <ele>135.68</ele>
        <time>2013-04-28T09:21:17Z</time>
      </trkpt>
      <trkpt lat="47.64615" lon="3.72509">
        <ele>135.68</ele>
        <time>2013-04-28T09:21:26Z</time>
      </trkpt>
      <trkpt lat="47.64613" lon="3.7251">
        <ele>135.68</ele>
        <time>2013-04-28T09:21:28Z</time>
      </trkpt>
      <trkpt lat="47.64606" lon="3.72514">
        <ele>135.68</ele>
        <time>2013-04-28T09:21:31Z</time>
      </trkpt>
      <trkpt lat="47.646" lon="3.72521">
        <ele>135.68</ele>
        <time>2013-04-28T09:21:34Z</time>
      </trkpt>
      <trkpt lat="47.64585" lon="3.72532">
        <ele>135.2</ele>
        <time>2013-04-28T09:21:43Z</time>
      </trkpt>
      <trkpt lat="47.64581" lon="3.72535">
        <ele>135.68</ele>
        <time>2013-04-28T09:21:46Z</time>
      </trkpt>
      <trkpt lat="47.64572" lon="3.72537">
        <ele>135.68</ele>
        <time>2013-04-28T09:21:55Z</time>
      </trkpt>
      <trkpt lat="47.64569" lon="3.72537">
        <ele>135.2</ele>
        <time>2013-04-28T09:21:58Z</time>
      </trkpt>
      <trkpt lat="47.64555" lon="3.72545">
        <ele>135.68</ele>
        <time>2013-04-28T09:22:06Z</time>
      </trkpt>
      <trkpt lat="47.6455" lon="3.72548">
        <ele>135.68</ele>
        <time>2013-04-28T09:22:09Z</time>
      </trkpt>
      <trkpt lat="47.64541" lon="3.72551">
        <ele>136.16</ele>
        <time>2013-04-28T09:22:16Z</time>
      </trkpt>
      <trkpt lat="47.64533" lon="3.72558">
        <ele>136.16</ele>
        <time>2013-04-28T09:22:22Z</time>
      </trkpt>
      <trkpt lat="47.6452" lon="3.72567">
        <ele>137.13</ele>
        <time>2013-04-28T09:22:30Z</time>
      </trkpt>
      <trkpt lat="47.64511" lon="3.72568">
        <ele>136.64</ele>
        <time>2013-04-28T09:22:38Z</time>
      </trkpt>
      <trkpt lat="47.6451" lon="3.72569">
        <ele>137.13</ele>
        <time>2013-04-28T09:22:39Z</time>
      </trkpt>
      <trkpt lat="47.64503" lon="3.72574">
        <ele>136.64</ele>
        <time>2013-04-28T09:22:44Z</time>
      </trkpt>
      <trkpt lat="47.645" lon="3.72576">
        <ele>136.64</ele>
        <time>2013-04-28T09:22:47Z</time>
      </trkpt>
      <trkpt lat="47.64488" lon="3.72586">
        <ele>136.16</ele>
        <time>2013-04-28T09:22:54Z</time>
      </trkpt>
      <trkpt lat="47.64481" lon="3.7259">
        <ele>135.68</ele>
        <time>2013-04-28T09:23:00Z</time>
      </trkpt>
      <trkpt lat="47.64469" lon="3.726">
        <ele>135.68</ele>
        <time>2013-04-28T09:23:08Z</time>
      </trkpt>
      <trkpt lat="47.64459" lon="3.72604">
        <ele>135.68</ele>
        <time>2013-04-28T09:23:16Z</time>
      </trkpt>
      <trkpt lat="47.64456" lon="3.72606">
        <ele>135.68</ele>
        <time>2013-04-28T09:23:18Z</time>
      </trkpt>
      <trkpt lat="47.64452" lon="3.72613">
        <ele>134.24</ele>
        <time>2013-04-28T09:23:27Z</time>
      </trkpt>
      <trkpt lat="47.6445" lon="3.72615">
        <ele>134.24</ele>
        <time>2013-04-28T09:23:29Z</time>
      </trkpt>
      <trkpt lat="47.64437" lon="3.72631">
        <ele>133.76</ele>
        <time>2013-04-28T09:23:38Z</time>
      </trkpt>
      <trkpt lat="47.64435" lon="3.72633">
        <ele>133.76</ele>
        <time>2013-04-28T09:23:42Z</time>
      </trkpt>
      <trkpt lat="47.64428" lon="3.72635">
        <ele>133.76</ele>
        <time>2013-04-28T09:23:51Z</time>
      </trkpt>
      <trkpt lat="47.64427" lon="3.72636">
        <ele>133.28</ele>
        <time>2013-04-28T09:23:53Z</time>
      </trkpt>
      <trkpt lat="47.64425" lon="3.72638">
        <ele>133.28</ele>
        <time>2013-04-28T09:23:54Z</time>
      </trkpt>
      <trkpt lat="47.64422" lon="3.72642">
        <ele>133.28</ele>
        <time>2013-04-28T09:23:56Z</time>
      </trkpt>
      <trkpt lat="47.6442" lon="3.72645">
        <ele>133.28</ele>
        <time>2013-04-28T09:23:59Z</time>
      </trkpt>
      <trkpt lat="47.64404" lon="3.72661">
        <ele>132.32</ele>
        <time>2013-04-28T09:24:08Z</time>
      </trkpt>
      <trkpt lat="47.644" lon="3.72664">
        <ele>132.32</ele>
        <time>2013-04-28T09:24:10Z</time>
      </trkpt>
      <trkpt lat="47.6439" lon="3.72676">
        <ele>130.88</ele>
        <time>2013-04-28T09:24:17Z</time>
      </trkpt>
      <trkpt lat="47.64385" lon="3.72681">
        <ele>130.88</ele>
        <time>2013-04-28T09:24:21Z</time>
      </trkpt>
      <trkpt lat="47.64375" lon="3.72697">
        <ele>128.95</ele>
        <time>2013-04-28T09:24:32Z</time>
      </trkpt>
      <trkpt lat="47.64372" lon="3.72699">
        <ele>127.51</ele>
        <time>2013-04-28T09:24:40Z</time>
      </trkpt>
      <trkpt lat="47.6437" lon="3.72702">
        <ele>127.51</ele>
        <time>2013-04-28T09:24:44Z</time>
      </trkpt>
      <trkpt lat="47.64367" lon="3.72705">
        <ele>126.55</ele>
        <time>2013-04-28T09:24:51Z</time>
      </trkpt>
      <trkpt lat="47.6436" lon="3.72709">
        <ele>126.07</ele>
        <time>2013-04-28T09:24:58Z</time>
      </trkpt>
      <trkpt lat="47.64341" lon="3.72742">
        <ele>125.59</ele>
        <time>2013-04-28T09:25:06Z</time>
      </trkpt>
      <trkpt lat="47.64329" lon="3.72765">
        <ele>125.11</ele>
        <time>2013-04-28T09:25:16Z</time>
      </trkpt>
      <trkpt lat="47.64322" lon="3.72779">
        <ele>124.63</ele>
        <time>2013-04-28T09:25:24Z</time>
      </trkpt>
      <trkpt lat="47.64313" lon="3.72795">
        <ele>123.67</ele>
        <time>2013-04-28T09:25:32Z</time>
      </trkpt>
      <trkpt lat="47.64309" lon="3.72802">
        <ele>123.67</ele>
        <time>2013-04-28T09:25:40Z</time>
      </trkpt>
      <trkpt lat="47.64305" lon="3.72808">
        <ele>123.67</ele>
        <time>2013-04-28T09:25:47Z</time>
      </trkpt>
      <trkpt lat="47.64302" lon="3.72814">
        <ele>123.19</ele>
        <time>2013-04-28T09:25:53Z</time>
      </trkpt>
      <trkpt lat="47.64292" lon="3.72828">
        <ele>122.71</ele>
        <time>2013-04-28T09:25:58Z</time>
      </trkpt>
      <trkpt lat="47.64283" lon="3.72837">
        <ele>123.19</ele>
        <time>2013-04-28T09:26:04Z</time>
      </trkpt>
      <trkpt lat="47.64278" lon="3.72841">
        <ele>123.19</ele>
        <time>2013-04-28T09:26:07Z</time>
      </trkpt>
      <trkpt lat="47.64273" lon="3.72846">
        <ele>122.71</ele>
        <time>2013-04-28T09:26:10Z</time>
      </trkpt>
      <trkpt lat="47.64268" lon="3.72851">
        <ele>122.71</ele>
        <time>2013-04-28T09:26:16Z</time>
      </trkpt>
      <trkpt lat="47.64255" lon="3.72854">
        <ele>122.22</ele>
        <time>2013-04-28T09:26:25Z</time>
      </trkpt>
      <trkpt lat="47.6425" lon="3.72851">
        <ele>121.74</ele>
        <time>2013-04-28T09:26:31Z</time>
      </trkpt>
      <trkpt lat="47.64239" lon="3.72847">
        <ele>120.78</ele>
        <time>2013-04-28T09:26:39Z</time>
      </trkpt>
      <trkpt lat="47.64228" lon="3.72846">
        <ele>118.86</ele>
        <time>2013-04-28T09:26:47Z</time>
      </trkpt>
      <trkpt lat="47.64219" lon="3.72844">
        <ele>117.9</ele>
        <time>2013-04-28T09:26:53Z</time>
      </trkpt>
      <trkpt lat="47.64211" lon="3.72837">
        <ele>116.46</ele>
        <time>2013-04-28T09:27:01Z</time>
      </trkpt>
      <trkpt lat="47.64202" lon="3.72839">
        <ele>115.01</ele>
        <time>2013-04-28T09:27:10Z</time>
      </trkpt>
      <trkpt lat="47.642" lon="3.72849">
        <ele>115.01</ele>
        <time>2013-04-28T09:27:18Z</time>
      </trkpt>
      <trkpt lat="47.64198" lon="3.7286">
        <ele>114.53</ele>
        <time>2013-04-28T09:27:24Z</time>
      </trkpt>
      <trkpt lat="47.642" lon="3.72864">
        <ele>114.53</ele>
        <time>2013-04-28T09:27:28Z</time>
      </trkpt>
      <trkpt lat="47.64204" lon="3.72872">
        <ele>114.53</ele>
        <time>2013-04-28T09:27:35Z</time>
      </trkpt>
      <trkpt lat="47.64202" lon="3.72888">
        <ele>114.05</ele>
        <time>2013-04-28T09:27:39Z</time>
      </trkpt>
      <trkpt lat="47.64199" lon="3.72909">
        <ele>113.57</ele>
        <time>2013-04-28T09:27:49Z</time>
      </trkpt>
      <trkpt lat="47.64194" lon="3.72924">
        <ele>114.05</ele>
        <time>2013-04-28T09:27:58Z</time>
      </trkpt>
      <trkpt lat="47.6419" lon="3.72933">
        <ele>114.05</ele>
        <time>2013-04-28T09:28:03Z</time>
      </trkpt>
      <trkpt lat="47.64187" lon="3.72937">
        <ele>114.05</ele>
        <time>2013-04-28T09:28:05Z</time>
      </trkpt>
      <trkpt lat="47.64182" lon="3.72951">
        <ele>113.09</ele>
        <time>2013-04-28T09:28:13Z</time>
      </trkpt>
      <trkpt lat="47.64172" lon="3.72965">
        <ele>113.09</ele>
        <time>2013-04-28T09:28:25Z</time>
      </trkpt>
      <trkpt lat="47.64164" lon="3.7298">
        <ele>112.61</ele>
        <time>2013-04-28T09:28:35Z</time>
      </trkpt>
      <trkpt lat="47.64159" lon="3.72991">
        <ele>111.65</ele>
        <time>2013-04-28T09:28:45Z</time>
      </trkpt>
      <trkpt lat="47.64157" lon="3.73">
        <ele>111.65</ele>
        <time>2013-04-28T09:28:58Z</time>
      </trkpt>
      <trkpt lat="47.64156" lon="3.73002">
        <ele>111.17</ele>
        <time>2013-04-28T09:28:59Z</time>
      </trkpt>
      <trkpt lat="47.64152" lon="3.73014">
        <ele>110.21</ele>
        <time>2013-04-28T09:29:06Z</time>
      </trkpt>
      <trkpt lat="47.6415" lon="3.73018">
        <ele>110.69</ele>
        <time>2013-04-28T09:29:07Z</time>
      </trkpt>
      <trkpt lat="47.64141" lon="3.7304">
        <ele>109.73</ele>
        <time>2013-04-28T09:29:19Z</time>
      </trkpt>
      <trkpt lat="47.64133" lon="3.73061">
        <ele>109.25</ele>
        <time>2013-04-28T09:29:28Z</time>
      </trkpt>
      <trkpt lat="47.64126" lon="3.73075">
        <ele>108.77</ele>
        <time>2013-04-28T09:29:38Z</time>
      </trkpt>
      <trkpt lat="47.64125" lon="3.73077">
        <ele>109.25</ele>
        <time>2013-04-28T09:29:40Z</time>
      </trkpt>
      <trkpt lat="47.64121" lon="3.73086">
        <ele>109.25</ele>
        <time>2013-04-28T09:29:45Z</time>
      </trkpt>
      <trkpt lat="47.64112" lon="3.73108">
        <ele>108.29</ele>
        <time>2013-04-28T09:29:57Z</time>
      </trkpt>
      <trkpt lat="47.6411" lon="3.73113">
        <ele>108.77</ele>
        <time>2013-04-28T09:30:00Z</time>
      </trkpt>
      <trkpt lat="47.64101" lon="3.73122">
        <ele>108.29</ele>
        <time>2013-04-28T09:30:08Z</time>
      </trkpt>
      <trkpt lat="47.641" lon="3.73129">
        <ele>108.29</ele>
        <time>2013-04-28T09:30:12Z</time>
      </trkpt>
      <trkpt lat="47.64087" lon="3.73154">
        <ele>108.29</ele>
        <time>2013-04-28T09:30:21Z</time>
      </trkpt>
      <trkpt lat="47.64076" lon="3.73169">
        <ele>108.77</ele>
        <time>2013-04-28T09:30:29Z</time>
      </trkpt>
      <trkpt lat="47.64069" lon="3.73181">
        <ele>108.77</ele>
        <time>2013-04-28T09:30:36Z</time>
      </trkpt>
      <trkpt lat="47.64061" lon="3.7319">
        <ele>108.77</ele>
        <time>2013-04-28T09:30:45Z</time>
      </trkpt>
      <trkpt lat="47.6405" lon="3.73204">
        <ele>108.29</ele>
        <time>2013-04-28T09:30:54Z</time>
      </trkpt>
      <trkpt lat="47.64044" lon="3.73214">
        <ele>108.77</ele>
        <time>2013-04-28T09:31:01Z</time>
      </trkpt>
      <trkpt lat="47.64042" lon="3.73218">
        <ele>108.29</ele>
        <time>2013-04-28T09:31:04Z</time>
      </trkpt>
      <trkpt lat="47.64041" lon="3.73225">
        <ele>107.81</ele>
        <time>2013-04-28T09:31:08Z</time>
      </trkpt>
      <trkpt lat="47.64034" lon="3.73228">
        <ele>108.77</ele>
        <time>2013-04-28T09:31:17Z</time>
      </trkpt>
      <trkpt lat="47.64031" lon="3.73231">
        <ele>108.77</ele>
        <time>2013-04-28T09:31:19Z</time>
      </trkpt>
      <trkpt lat="47.64027" lon="3.73235">
        <ele>108.77</ele>
        <time>2013-04-28T09:31:22Z</time>
      </trkpt>
      <trkpt lat="47.64008" lon="3.73249">
        <ele>108.77</ele>
        <time>2013-04-28T09:31:33Z</time>
      </trkpt>
      <trkpt lat="47.64006" lon="3.73251">
        <ele>108.77</ele>
        <time>2013-04-28T09:31:36Z</time>
      </trkpt>
      <trkpt lat="47.63998" lon="3.73268">
        <ele>108.77</ele>
        <time>2013-04-28T09:31:46Z</time>
      </trkpt>
      <trkpt lat="47.63996" lon="3.73274">
        <ele>108.77</ele>
        <time>2013-04-28T09:31:49Z</time>
      </trkpt>
      <trkpt lat="47.63984" lon="3.73287">
        <ele>109.25</ele>
        <time>2013-04-28T09:31:59Z</time>
      </trkpt>
      <trkpt lat="47.63982" lon="3.73289">
        <ele>109.25</ele>
        <time>2013-04-28T09:32:01Z</time>
      </trkpt>
      <trkpt lat="47.63975" lon="3.73299">
        <ele>109.25</ele>
        <time>2013-04-28T09:32:10Z</time>
      </trkpt>
      <trkpt lat="47.63974" lon="3.733">
        <ele>109.25</ele>
        <time>2013-04-28T09:32:11Z</time>
      </trkpt>
      <trkpt lat="47.6396" lon="3.73311">
        <ele>109.73</ele>
        <time>2013-04-28T09:32:20Z</time>
      </trkpt>
      <trkpt lat="47.63952" lon="3.73316">
        <ele>109.73</ele>
        <time>2013-04-28T09:32:27Z</time>
      </trkpt>
      <trkpt lat="47.63942" lon="3.73326">
        <ele>110.21</ele>
        <time>2013-04-28T09:32:35Z</time>
      </trkpt>
      <trkpt lat="47.63937" lon="3.73335">
        <ele>110.21</ele>
        <time>2013-04-28T09:32:43Z</time>
      </trkpt>
      <trkpt lat="47.63932" lon="3.73343">
        <ele>110.21</ele>
        <time>2013-04-28T09:32:46Z</time>
      </trkpt>
      <trkpt lat="47.63925" lon="3.73352">
        <ele>110.21</ele>
        <time>2013-04-28T09:32:53Z</time>
      </trkpt>
      <trkpt lat="47.63918" lon="3.7335">
        <ele>110.69</ele>
        <time>2013-04-28T09:33:02Z</time>
      </trkpt>
      <trkpt lat="47.63912" lon="3.73354">
        <ele>110.69</ele>
        <time>2013-04-28T09:33:06Z</time>
      </trkpt>
      <trkpt lat="47.63907" lon="3.73359">
        <ele>111.17</ele>
        <time>2013-04-28T09:33:11Z</time>
      </trkpt>
      <trkpt lat="47.63903" lon="3.73362">
        <ele>110.69</ele>
        <time>2013-04-28T09:33:12Z</time>
      </trkpt>
      <trkpt lat="47.63885" lon="3.73378">
        <ele>110.69</ele>
        <time>2013-04-28T09:33:22Z</time>
      </trkpt>
      <trkpt lat="47.6387" lon="3.73393">
        <ele>110.69</ele>
        <time>2013-04-28T09:33:33Z</time>
      </trkpt>
      <trkpt lat="47.63858" lon="3.73403">
        <ele>110.69</ele>
        <time>2013-04-28T09:33:42Z</time>
      </trkpt>
      <trkpt lat="47.63849" lon="3.73413">
        <ele>110.69</ele>
        <time>2013-04-28T09:33:49Z</time>
      </trkpt>
      <trkpt lat="47.63848" lon="3.73415">
        <ele>110.21</ele>
        <time>2013-04-28T09:33:54Z</time>
      </trkpt>
      <trkpt lat="47.63847" lon="3.73417">
        <ele>110.69</ele>
        <time>2013-04-28T09:33:56Z</time>
      </trkpt>
      <trkpt lat="47.63833" lon="3.73426">
        <ele>110.69</ele>
        <time>2013-04-28T09:34:06Z</time>
      </trkpt>
      <trkpt lat="47.63821" lon="3.73433">
        <ele>110.69</ele>
        <time>2013-04-28T09:34:13Z</time>
      </trkpt>
      <trkpt lat="47.63809" lon="3.73444">
        <ele>110.69</ele>
        <time>2013-04-28T09:34:20Z</time>
      </trkpt>
      <trkpt lat="47.638" lon="3.73453">
        <ele>111.17</ele>
        <time>2013-04-28T09:34:29Z</time>
      </trkpt>
      <trkpt lat="47.63791" lon="3.73465">
        <ele>111.17</ele>
        <time>2013-04-28T09:34:38Z</time>
      </trkpt>
      <trkpt lat="47.63786" lon="3.73469">
        <ele>111.65</ele>
        <time>2013-04-28T09:34:47Z</time>
      </trkpt>
      <trkpt lat="47.63786" lon="3.73471">
        <ele>111.65</ele>
        <time>2013-04-28T09:34:49Z</time>
      </trkpt>
      <trkpt lat="47.63785" lon="3.73471">
        <ele>111.65</ele>
        <time>2013-04-28T09:34:50Z</time>
      </trkpt>
      <trkpt lat="47.63778" lon="3.73481">
        <ele>111.65</ele>
        <time>2013-04-28T09:34:56Z</time>
      </trkpt>
      <trkpt lat="47.63774" lon="3.73502">
        <ele>111.17</ele>
        <time>2013-04-28T09:35:03Z</time>
      </trkpt>
      <trkpt lat="47.63768" lon="3.73514">
        <ele>111.17</ele>
        <time>2013-04-28T09:35:08Z</time>
      </trkpt>
      <trkpt lat="47.63765" lon="3.7352">
        <ele>111.17</ele>
        <time>2013-04-28T09:35:11Z</time>
      </trkpt>
      <trkpt lat="47.63755" lon="3.73536">
        <ele>111.17</ele>
        <time>2013-04-28T09:35:21Z</time>
      </trkpt>
      <trkpt lat="47.63752" lon="3.73545">
        <ele>111.17</ele>
        <time>2013-04-28T09:35:26Z</time>
      </trkpt>
      <trkpt lat="47.63743" lon="3.73566">
        <ele>111.17</ele>
        <time>2013-04-28T09:35:36Z</time>
      </trkpt>
      <trkpt lat="47.63731" lon="3.73582">
        <ele>111.17</ele>
        <time>2013-04-28T09:35:44Z</time>
      </trkpt>
      <trkpt lat="47.6373" lon="3.73584">
        <ele>110.69</ele>
        <time>2013-04-28T09:35:45Z</time>
      </trkpt>
      <trkpt lat="47.63725" lon="3.73601">
        <ele>111.17</ele>
        <time>2013-04-28T09:35:53Z</time>
      </trkpt>
      <trkpt lat="47.6372" lon="3.73618">
        <ele>111.17</ele>
        <time>2013-04-28T09:36:02Z</time>
      </trkpt>
      <trkpt lat="47.63717" lon="3.73622">
        <ele>110.69</ele>
        <time>2013-04-28T09:36:06Z</time>
      </trkpt>
      <trkpt lat="47.63708" lon="3.73648">
        <ele>111.17</ele>
        <time>2013-04-28T09:36:18Z</time>
      </trkpt>
      <trkpt lat="47.63699" lon="3.73669">
        <ele>111.17</ele>
        <time>2013-04-28T09:36:29Z</time>
      </trkpt>
      <trkpt lat="47.63694" lon="3.7368">
        <ele>111.17</ele>
        <time>2013-04-28T09:36:38Z</time>
      </trkpt>
      <trkpt lat="47.63689" lon="3.73688">
        <ele>111.17</ele>
        <time>2013-04-28T09:36:43Z</time>
      </trkpt>
      <trkpt lat="47.63678" lon="3.73705">
        <ele>111.17</ele>
        <time>2013-04-28T09:36:54Z</time>
      </trkpt>
      <trkpt lat="47.6367" lon="3.73714">
        <ele>111.17</ele>
        <time>2013-04-28T09:37:05Z</time>
      </trkpt>
      <trkpt lat="47.63662" lon="3.73721">
        <ele>111.17</ele>
        <time>2013-04-28T09:37:14Z</time>
      </trkpt>
      <trkpt lat="47.63656" lon="3.73727">
        <ele>110.69</ele>
        <time>2013-04-28T09:37:22Z</time>
      </trkpt>
      <trkpt lat="47.63649" lon="3.73735">
        <ele>111.17</ele>
        <time>2013-04-28T09:37:28Z</time>
      </trkpt>
      <trkpt lat="47.63639" lon="3.73744">
        <ele>111.17</ele>
        <time>2013-04-28T09:37:33Z</time>
      </trkpt>
      <trkpt lat="47.63628" lon="3.73752">
        <ele>110.69</ele>
        <time>2013-04-28T09:37:42Z</time>
      </trkpt>
      <trkpt lat="47.63624" lon="3.73754">
        <ele>110.69</ele>
        <time>2013-04-28T09:37:48Z</time>
      </trkpt>
      <trkpt lat="47.63616" lon="3.7376">
        <ele>111.17</ele>
        <time>2013-04-28T09:37:56Z</time>
      </trkpt>
      <trkpt lat="47.63615" lon="3.73762">
        <ele>111.65</ele>
        <time>2013-04-28T09:37:57Z</time>
      </trkpt>
      <trkpt lat="47.63611" lon="3.73765">
        <ele>111.17</ele>
        <time>2013-04-28T09:38:01Z</time>
      </trkpt>
      <trkpt lat="47.63597" lon="3.73775">
        <ele>111.17</ele>
        <time>2013-04-28T09:38:09Z</time>
      </trkpt>
      <trkpt lat="47.63584" lon="3.73788">
        <ele>111.65</ele>
        <time>2013-04-28T09:38:18Z</time>
      </trkpt>
      <trkpt lat="47.63583" lon="3.73789">
        <ele>111.65</ele>
        <time>2013-04-28T09:38:19Z</time>
      </trkpt>
      <trkpt lat="47.63576" lon="3.73794">
        <ele>111.17</ele>
        <time>2013-04-28T09:38:24Z</time>
      </trkpt>
      <trkpt lat="47.63559" lon="3.73804">
        <ele>110.69</ele>
        <time>2013-04-28T09:38:34Z</time>
      </trkpt>
      <trkpt lat="47.63548" lon="3.73806">
        <ele>110.69</ele>
        <time>2013-04-28T09:38:41Z</time>
      </trkpt>
      <trkpt lat="47.63534" lon="3.73808">
        <ele>111.17</ele>
        <time>2013-04-28T09:38:50Z</time>
      </trkpt>
      <trkpt lat="47.63533" lon="3.73807">
        <ele>111.17</ele>
        <time>2013-04-28T09:38:51Z</time>
      </trkpt>
      <trkpt lat="47.63522" lon="3.73807">
        <ele>111.17</ele>
        <time>2013-04-28T09:38:59Z</time>
      </trkpt>
      <trkpt lat="47.63504" lon="3.73803">
        <ele>111.65</ele>
        <time>2013-04-28T09:39:11Z</time>
      </trkpt>
      <trkpt lat="47.635" lon="3.73801">
        <ele>111.65</ele>
        <time>2013-04-28T09:39:13Z</time>
      </trkpt>
      <trkpt lat="47.63494" lon="3.738">
        <ele>112.13</ele>
        <time>2013-04-28T09:39:16Z</time>
      </trkpt>
      <trkpt lat="47.63484" lon="3.73798">
        <ele>112.61</ele>
        <time>2013-04-28T09:39:23Z</time>
      </trkpt>
      <trkpt lat="47.63477" lon="3.73798">
        <ele>113.57</ele>
        <time>2013-04-28T09:39:30Z</time>
      </trkpt>
      <trkpt lat="47.63469" lon="3.73796">
        <ele>113.57</ele>
        <time>2013-04-28T09:39:37Z</time>
      </trkpt>
      <trkpt lat="47.63464" lon="3.73794">
        <ele>114.53</ele>
        <time>2013-04-28T09:39:41Z</time>
      </trkpt>
      <trkpt lat="47.63459" lon="3.73795">
        <ele>114.05</ele>
        <time>2013-04-28T09:39:44Z</time>
      </trkpt>
      <trkpt lat="47.63448" lon="3.73795">
        <ele>114.53</ele>
        <time>2013-04-28T09:39:52Z</time>
      </trkpt>
      <trkpt lat="47.63446" lon="3.73795">
        <ele>115.01</ele>
        <time>2013-04-28T09:39:54Z</time>
      </trkpt>
      <trkpt lat="47.63437" lon="3.73798">
        <ele>115.01</ele>
        <time>2013-04-28T09:40:02Z</time>
      </trkpt>
      <trkpt lat="47.63433" lon="3.73799">
        <ele>115.01</ele>
        <time>2013-04-28T09:40:04Z</time>
      </trkpt>
      <trkpt lat="47.63424" lon="3.73801">
        <ele>114.53</ele>
        <time>2013-04-28T09:40:11Z</time>
      </trkpt>
      <trkpt lat="47.63417" lon="3.73803">
        <ele>114.53</ele>
        <time>2013-04-28T09:40:14Z</time>
      </trkpt>
      <trkpt lat="47.63401" lon="3.73811">
        <ele>113.57</ele>
        <time>2013-04-28T09:40:23Z</time>
      </trkpt>
      <trkpt lat="47.63376" lon="3.73824">
        <ele>112.61</ele>
        <time>2013-04-28T09:40:33Z</time>
      </trkpt>
      <trkpt lat="47.63366" lon="3.73834">
        <ele>112.13</ele>
        <time>2013-04-28T09:40:37Z</time>
      </trkpt>
      <trkpt lat="47.63356" lon="3.73843">
        <ele>111.65</ele>
        <time>2013-04-28T09:40:41Z</time>
      </trkpt>
      <trkpt lat="47.63345" lon="3.73848">
        <ele>111.65</ele>
        <time>2013-04-28T09:40:47Z</time>
      </trkpt>
      <trkpt lat="47.6334" lon="3.73851">
        <ele>111.17</ele>
        <time>2013-04-28T09:40:50Z</time>
      </trkpt>
      <trkpt lat="47.63333" lon="3.73856">
        <ele>110.69</ele>
        <time>2013-04-28T09:40:54Z</time>
      </trkpt>
      <trkpt lat="47.63322" lon="3.73863">
        <ele>111.17</ele>
        <time>2013-04-28T09:41:04Z</time>
      </trkpt>
      <trkpt lat="47.6332" lon="3.73864">
        <ele>111.17</ele>
        <time>2013-04-28T09:41:06Z</time>
      </trkpt>
      <trkpt lat="47.63315" lon="3.73867">
        <ele>111.17</ele>
        <time>2013-04-28T09:41:09Z</time>
      </trkpt>
      <trkpt lat="47.63311" lon="3.73869">
        <ele>111.17</ele>
        <time>2013-04-28T09:41:13Z</time>
      </trkpt>
      <trkpt lat="47.63304" lon="3.73873">
        <ele>110.69</ele>
        <time>2013-04-28T09:41:22Z</time>
      </trkpt>
      <trkpt lat="47.633" lon="3.73874">
        <ele>111.17</ele>
        <time>2013-04-28T09:41:30Z</time>
      </trkpt>
      <trkpt lat="47.63294" lon="3.73877">
        <ele>110.21</ele>
        <time>2013-04-28T09:41:38Z</time>
      </trkpt>
      <trkpt lat="47.63287" lon="3.7388">
        <ele>110.69</ele>
        <time>2013-04-28T09:41:46Z</time>
      </trkpt>
      <trkpt lat="47.63284" lon="3.73881">
        <ele>111.17</ele>
        <time>2013-04-28T09:41:49Z</time>
      </trkpt>
      <trkpt lat="47.63264" lon="3.73888">
        <ele>110.21</ele>
        <time>2013-04-28T09:41:59Z</time>
      </trkpt>
      <trkpt lat="47.63253" lon="3.73895">
        <ele>111.17</ele>
        <time>2013-04-28T09:42:09Z</time>
      </trkpt>
      <trkpt lat="47.63246" lon="3.73897">
        <ele>111.17</ele>
        <time>2013-04-28T09:42:14Z</time>
      </trkpt>
      <trkpt lat="47.63243" lon="3.73897">
        <ele>111.17</ele>
        <time>2013-04-28T09:42:16Z</time>
      </trkpt>
      <trkpt lat="47.63231" lon="3.73902">
        <ele>111.65</ele>
        <time>2013-04-28T09:42:25Z</time>
      </trkpt>
      <trkpt lat="47.63223" lon="3.739">
        <ele>111.65</ele>
        <time>2013-04-28T09:42:33Z</time>
      </trkpt>
      <trkpt lat="47.63222" lon="3.739">
        <ele>111.65</ele>
        <time>2013-04-28T09:42:34Z</time>
      </trkpt>
      <trkpt lat="47.63195" lon="3.7391">
        <ele>111.17</ele>
        <time>2013-04-28T09:42:43Z</time>
      </trkpt>
      <trkpt lat="47.63175" lon="3.73914">
        <ele>111.65</ele>
        <time>2013-04-28T09:42:52Z</time>
      </trkpt>
      <trkpt lat="47.63159" lon="3.73909">
        <ele>111.65</ele>
        <time>2013-04-28T09:43:02Z</time>
      </trkpt>
      <trkpt lat="47.63141" lon="3.73909">
        <ele>111.65</ele>
        <time>2013-04-28T09:43:12Z</time>
      </trkpt>
      <trkpt lat="47.63129" lon="3.73903">
        <ele>111.65</ele>
        <time>2013-04-28T09:43:22Z</time>
      </trkpt>
      <trkpt lat="47.6312" lon="3.73899">
        <ele>111.65</ele>
        <time>2013-04-28T09:43:30Z</time>
      </trkpt>
      <trkpt lat="47.63099" lon="3.73894">
        <ele>111.65</ele>
        <time>2013-04-28T09:43:41Z</time>
      </trkpt>
      <trkpt lat="47.6309" lon="3.73891">
        <ele>111.17</ele>
        <time>2013-04-28T09:43:47Z</time>
      </trkpt>
      <trkpt lat="47.63082" lon="3.73889">
        <ele>111.17</ele>
        <time>2013-04-28T09:43:52Z</time>
      </trkpt>
      <trkpt lat="47.63066" lon="3.73885">
        <ele>111.17</ele>
        <time>2013-04-28T09:44:03Z</time>
      </trkpt>
      <trkpt lat="47.6306" lon="3.73885">
        <ele>111.17</ele>
        <time>2013-04-28T09:44:09Z</time>
      </trkpt>
      <trkpt lat="47.6305" lon="3.73883">
        <ele>111.17</ele>
        <time>2013-04-28T09:44:17Z</time>
      </trkpt>
      <trkpt lat="47.63043" lon="3.73879">
        <ele>110.69</ele>
        <time>2013-04-28T09:44:23Z</time>
      </trkpt>
      <trkpt lat="47.63026" lon="3.73867">
        <ele>111.17</ele>
        <time>2013-04-28T09:44:34Z</time>
      </trkpt>
      <trkpt lat="47.63008" lon="3.73857">
        <ele>110.69</ele>
        <time>2013-04-28T09:44:45Z</time>
      </trkpt>
      <trkpt lat="47.63" lon="3.73851">
        <ele>110.69</ele>
        <time>2013-04-28T09:44:49Z</time>
      </trkpt>
      <trkpt lat="47.62989" lon="3.73848">
        <ele>110.69</ele>
        <time>2013-04-28T09:44:57Z</time>
      </trkpt>
      <trkpt lat="47.62982" lon="3.73842">
        <ele>110.69</ele>
        <time>2013-04-28T09:45:02Z</time>
      </trkpt>
      <trkpt lat="47.62969" lon="3.73836">
        <ele>110.69</ele>
        <time>2013-04-28T09:45:11Z</time>
      </trkpt>
      <trkpt lat="47.62961" lon="3.73835">
        <ele>110.21</ele>
        <time>2013-04-28T09:45:16Z</time>
      </trkpt>
      <trkpt lat="47.62949" lon="3.73827">
        <ele>110.21</ele>
        <time>2013-04-28T09:45:23Z</time>
      </trkpt>
      <trkpt lat="47.6293" lon="3.73817">
        <ele>110.21</ele>
        <time>2013-04-28T09:45:33Z</time>
      </trkpt>
      <trkpt lat="47.62916" lon="3.73805">
        <ele>109.73</ele>
        <time>2013-04-28T09:45:43Z</time>
      </trkpt>
      <trkpt lat="47.62911" lon="3.73803">
        <ele>110.21</ele>
        <time>2013-04-28T09:45:47Z</time>
      </trkpt>
      <trkpt lat="47.62897" lon="3.73796">
        <ele>110.21</ele>
        <time>2013-04-28T09:45:57Z</time>
      </trkpt>
      <trkpt lat="47.6288" lon="3.73785">
        <ele>110.21</ele>
        <time>2013-04-28T09:46:07Z</time>
      </trkpt>
      <trkpt lat="47.62877" lon="3.73784">
        <ele>110.21</ele>
        <time>2013-04-28T09:46:09Z</time>
      </trkpt>
      <trkpt lat="47.62862" lon="3.73776">
        <ele>110.21</ele>
        <time>2013-04-28T09:46:19Z</time>
      </trkpt>
      <trkpt lat="47.62861" lon="3.73775">
        <ele>110.21</ele>
        <time>2013-04-28T09:46:20Z</time>
      </trkpt>
      <trkpt lat="47.62849" lon="3.7377">
        <ele>110.69</ele>
        <time>2013-04-28T09:46:27Z</time>
      </trkpt>
      <trkpt lat="47.62832" lon="3.73762">
        <ele>110.21</ele>
        <time>2013-04-28T09:46:38Z</time>
      </trkpt>
      <trkpt lat="47.62822" lon="3.73758">
        <ele>110.21</ele>
        <time>2013-04-28T09:46:43Z</time>
      </trkpt>
      <trkpt lat="47.62807" lon="3.73756">
        <ele>110.21</ele>
        <time>2013-04-28T09:46:53Z</time>
      </trkpt>
      <trkpt lat="47.62803" lon="3.73755">
        <ele>110.21</ele>
        <time>2013-04-28T09:46:56Z</time>
      </trkpt>
      <trkpt lat="47.62794" lon="3.73752">
        <ele>110.69</ele>
        <time>2013-04-28T09:47:02Z</time>
      </trkpt>
      <trkpt lat="47.62777" lon="3.73749">
        <ele>110.21</ele>
        <time>2013-04-28T09:47:11Z</time>
      </trkpt>
      <trkpt lat="47.6277" lon="3.7375">
        <ele>110.21</ele>
        <time>2013-04-28T09:47:15Z</time>
      </trkpt>
      <trkpt lat="47.62753" lon="3.73752">
        <ele>110.21</ele>
        <time>2013-04-28T09:47:28Z</time>
      </trkpt>
      <trkpt lat="47.62742" lon="3.73751">
        <ele>110.21</ele>
        <time>2013-04-28T09:47:34Z</time>
      </trkpt>
      <trkpt lat="47.6273" lon="3.73749">
        <ele>110.21</ele>
        <time>2013-04-28T09:47:42Z</time>
      </trkpt>
      <trkpt lat="47.62721" lon="3.73748">
        <ele>110.21</ele>
        <time>2013-04-28T09:47:48Z</time>
      </trkpt>
      <trkpt lat="47.62706" lon="3.7375">
        <ele>106.84</ele>
        <time>2013-04-28T09:47:57Z</time>
      </trkpt>
      <trkpt lat="47.62704" lon="3.7375">
        <ele>116.46</ele>
        <time>2013-04-28T09:47:58Z</time>
      </trkpt>
      <trkpt lat="47.62702" lon="3.73749">
        <ele>110.69</ele>
        <time>2013-04-28T09:47:59Z</time>
      </trkpt>
      <trkpt lat="47.62683" lon="3.73747">
        <ele>112.61</ele>
        <time>2013-04-28T09:48:11Z</time>
      </trkpt>
      <trkpt lat="47.6268" lon="3.73747">
        <ele>110.21</ele>
        <time>2013-04-28T09:48:13Z</time>
      </trkpt>
      <trkpt lat="47.62664" lon="3.73747">
        <ele>110.21</ele>
        <time>2013-04-28T09:48:25Z</time>
      </trkpt>
      <trkpt lat="47.62659" lon="3.73747">
        <ele>110.69</ele>
        <time>2013-04-28T09:48:34Z</time>
      </trkpt>
      <trkpt lat="47.62644" lon="3.73748">
        <ele>109.73</ele>
        <time>2013-04-28T09:48:45Z</time>
      </trkpt>
      <trkpt lat="47.62639" lon="3.73747">
        <ele>103.48</ele>
        <time>2013-04-28T09:48:49Z</time>
      </trkpt>
      <trkpt lat="47.62638" lon="3.73747">
        <ele>111.65</ele>
        <time>2013-04-28T09:48:50Z</time>
      </trkpt>
      <trkpt lat="47.62633" lon="3.73748">
        <ele>108.77</ele>
        <time>2013-04-28T09:48:53Z</time>
      </trkpt>
      <trkpt lat="47.6263" lon="3.73748">
        <ele>115.5</ele>
        <time>2013-04-28T09:48:55Z</time>
      </trkpt>
      <trkpt lat="47.62629" lon="3.73747">
        <ele>110.69</ele>
        <time>2013-04-28T09:48:56Z</time>
      </trkpt>
      <trkpt lat="47.62626" lon="3.73746">
        <ele>106.36</ele>
        <time>2013-04-28T09:48:59Z</time>
      </trkpt>
      <trkpt lat="47.62625" lon="3.73746">
        <ele>113.09</ele>
        <time>2013-04-28T09:49:00Z</time>
      </trkpt>
      <trkpt lat="47.62624" lon="3.73745">
        <ele>111.65</ele>
        <time>2013-04-28T09:49:01Z</time>
      </trkpt>
      <trkpt lat="47.62622" lon="3.73744">
        <ele>110.21</ele>
        <time>2013-04-28T09:49:03Z</time>
      </trkpt>
      <trkpt lat="47.62621" lon="3.73744">
        <ele>110.21</ele>
        <time>2013-04-28T09:49:04Z</time>
      </trkpt>
      <trkpt lat="47.62615" lon="3.73741">
        <ele>110.69</ele>
        <time>2013-04-28T09:49:09Z</time>
      </trkpt>
      <trkpt lat="47.62595" lon="3.73733">
        <ele>111.17</ele>
        <time>2013-04-28T09:49:21Z</time>
      </trkpt>
      <trkpt lat="47.62579" lon="3.73735">
        <ele>111.17</ele>
        <time>2013-04-28T09:49:33Z</time>
      </trkpt>
      <trkpt lat="47.62578" lon="3.73735">
        <ele>111.17</ele>
        <time>2013-04-28T09:49:34Z</time>
      </trkpt>
      <trkpt lat="47.6257" lon="3.73735">
        <ele>111.65</ele>
        <time>2013-04-28T09:49:40Z</time>
      </trkpt>
      <trkpt lat="47.62555" lon="3.73731">
        <ele>111.65</ele>
        <time>2013-04-28T09:49:50Z</time>
      </trkpt>
      <trkpt lat="47.62537" lon="3.73738">
        <ele>111.17</ele>
        <time>2013-04-28T09:50:01Z</time>
      </trkpt>
      <trkpt lat="47.62527" lon="3.73739">
        <ele>111.17</ele>
        <time>2013-04-28T09:50:10Z</time>
      </trkpt>
      <trkpt lat="47.62521" lon="3.73742">
        <ele>111.17</ele>
        <time>2013-04-28T09:50:15Z</time>
      </trkpt>
      <trkpt lat="47.62508" lon="3.73749">
        <ele>111.17</ele>
        <time>2013-04-28T09:50:23Z</time>
      </trkpt>
      <trkpt lat="47.6249" lon="3.7376">
        <ele>111.17</ele>
        <time>2013-04-28T09:50:34Z</time>
      </trkpt>
      <trkpt lat="47.62474" lon="3.73769">
        <ele>111.17</ele>
        <time>2013-04-28T09:50:45Z</time>
      </trkpt>
      <trkpt lat="47.62464" lon="3.73778">
        <ele>111.17</ele>
        <time>2013-04-28T09:50:53Z</time>
      </trkpt>
      <trkpt lat="47.62451" lon="3.73786">
        <ele>111.65</ele>
        <time>2013-04-28T09:51:02Z</time>
      </trkpt>
      <trkpt lat="47.62434" lon="3.73799">
        <ele>112.13</ele>
        <time>2013-04-28T09:51:13Z</time>
      </trkpt>
      <trkpt lat="47.62424" lon="3.73807">
        <ele>112.61</ele>
        <time>2013-04-28T09:51:19Z</time>
      </trkpt>
      <trkpt lat="47.62422" lon="3.73809">
        <ele>112.61</ele>
        <time>2013-04-28T09:51:21Z</time>
      </trkpt>
      <trkpt lat="47.62407" lon="3.73814">
        <ele>112.13</ele>
        <time>2013-04-28T09:51:32Z</time>
      </trkpt>
      <trkpt lat="47.62405" lon="3.73814">
        <ele>111.17</ele>
        <time>2013-04-28T09:51:33Z</time>
      </trkpt>
      <trkpt lat="47.62392" lon="3.73818">
        <ele>112.61</ele>
        <time>2013-04-28T09:51:42Z</time>
      </trkpt>
      <trkpt lat="47.62379" lon="3.73823">
        <ele>113.09</ele>
        <time>2013-04-28T09:51:52Z</time>
      </trkpt>
      <trkpt lat="47.62367" lon="3.7383">
        <ele>113.57</ele>
        <time>2013-04-28T09:52:01Z</time>
      </trkpt>
      <trkpt lat="47.62354" lon="3.73842">
        <ele>114.53</ele>
        <time>2013-04-28T09:52:13Z</time>
      </trkpt>
      <trkpt lat="47.62353" lon="3.73842">
        <ele>114.05</ele>
        <time>2013-04-28T09:52:23Z</time>
      </trkpt>
      <trkpt lat="47.62354" lon="3.73842">
        <ele>114.05</ele>
        <time>2013-04-28T09:52:31Z</time>
      </trkpt>
      <trkpt lat="47.6235" lon="3.73853">
        <ele>114.05</ele>
        <time>2013-04-28T09:52:39Z</time>
      </trkpt>
      <trkpt lat="47.62345" lon="3.73865">
        <ele>113.57</ele>
        <time>2013-04-28T09:52:45Z</time>
      </trkpt>
      <trkpt lat="47.62336" lon="3.73881">
        <ele>113.57</ele>
        <time>2013-04-28T09:52:55Z</time>
      </trkpt>
      <trkpt lat="47.62321" lon="3.73895">
        <ele>113.57</ele>
        <time>2013-04-28T09:53:06Z</time>
      </trkpt>
      <trkpt lat="47.62307" lon="3.73905">
        <ele>113.57</ele>
        <time>2013-04-28T09:53:17Z</time>
      </trkpt>
      <trkpt lat="47.62294" lon="3.7392">
        <ele>114.05</ele>
        <time>2013-04-28T09:53:29Z</time>
      </trkpt>
      <trkpt lat="47.62288" lon="3.73927">
        <ele>113.57</ele>
        <time>2013-04-28T09:53:34Z</time>
      </trkpt>
      <trkpt lat="47.62291" lon="3.73937">
        <ele>112.13</ele>
        <time>2013-04-28T09:53:44Z</time>
      </trkpt>
      <trkpt lat="47.62294" lon="3.73942">
        <ele>112.13</ele>
        <time>2013-04-28T09:53:48Z</time>
      </trkpt>
      <trkpt lat="47.62298" lon="3.73948">
        <ele>111.65</ele>
        <time>2013-04-28T09:53:51Z</time>
      </trkpt>
      <trkpt lat="47.62309" lon="3.73959">
        <ele>111.17</ele>
        <time>2013-04-28T09:54:01Z</time>
      </trkpt>
      <trkpt lat="47.6231" lon="3.73959">
        <ele>111.17</ele>
        <time>2013-04-28T09:54:13Z</time>
      </trkpt>
      <trkpt lat="47.62308" lon="3.73964">
        <ele>111.17</ele>
        <time>2013-04-28T09:54:17Z</time>
      </trkpt>
      <trkpt lat="47.62306" lon="3.73968">
        <ele>111.17</ele>
        <time>2013-04-28T09:54:20Z</time>
      </trkpt>
      <trkpt lat="47.62299" lon="3.73984">
        <ele>111.17</ele>
        <time>2013-04-28T09:54:29Z</time>
      </trkpt>
      <trkpt lat="47.62298" lon="3.73986">
        <ele>111.17</ele>
        <time>2013-04-28T09:54:30Z</time>
      </trkpt>
      <trkpt lat="47.62296" lon="3.73991">
        <ele>111.17</ele>
        <time>2013-04-28T09:54:34Z</time>
      </trkpt>
      <trkpt lat="47.62294" lon="3.73997">
        <ele>111.17</ele>
        <time>2013-04-28T09:54:37Z</time>
      </trkpt>
      <trkpt lat="47.62289" lon="3.74004">
        <ele>111.17</ele>
        <time>2013-04-28T09:54:42Z</time>
      </trkpt>
      <trkpt lat="47.62285" lon="3.74012">
        <ele>111.17</ele>
        <time>2013-04-28T09:54:47Z</time>
      </trkpt>
      <trkpt lat="47.62272" lon="3.74031">
        <ele>111.17</ele>
        <time>2013-04-28T09:55:00Z</time>
      </trkpt>
      <trkpt lat="47.62272" lon="3.74032">
        <ele>111.65</ele>
        <time>2013-04-28T09:55:01Z</time>
      </trkpt>
      <trkpt lat="47.62269" lon="3.74038">
        <ele>111.65</ele>
        <time>2013-04-28T09:55:04Z</time>
      </trkpt>
      <trkpt lat="47.6226" lon="3.74048">
        <ele>111.65</ele>
        <time>2013-04-28T09:55:11Z</time>
      </trkpt>
      <trkpt lat="47.62253" lon="3.74061">
        <ele>112.13</ele>
        <time>2013-04-28T09:55:20Z</time>
      </trkpt>
      <trkpt lat="47.62252" lon="3.74062">
        <ele>112.13</ele>
        <time>2013-04-28T09:55:21Z</time>
      </trkpt>
      <trkpt lat="47.62244" lon="3.74085">
        <ele>111.65</ele>
        <time>2013-04-28T09:55:33Z</time>
      </trkpt>
      <trkpt lat="47.62242" lon="3.74093">
        <ele>111.65</ele>
        <time>2013-04-28T09:55:40Z</time>
      </trkpt>
      <trkpt lat="47.62241" lon="3.74093">
        <ele>111.65</ele>
        <time>2013-04-28T09:55:42Z</time>
      </trkpt>
      <trkpt lat="47.62236" lon="3.74103">
        <ele>112.13</ele>
        <time>2013-04-28T09:55:46Z</time>
      </trkpt>
      <trkpt lat="47.62231" lon="3.74115">
        <ele>111.65</ele>
        <time>2013-04-28T09:55:52Z</time>
      </trkpt>
      <trkpt lat="47.62227" lon="3.74126">
        <ele>112.13</ele>
        <time>2013-04-28T09:55:57Z</time>
      </trkpt>
      <trkpt lat="47.62222" lon="3.74134">
        <ele>112.13</ele>
        <time>2013-04-28T09:56:05Z</time>
      </trkpt>
      <trkpt lat="47.6222" lon="3.74136">
        <ele>112.13</ele>
        <time>2013-04-28T09:56:07Z</time>
      </trkpt>
      <trkpt lat="47.62216" lon="3.74144">
        <ele>112.13</ele>
        <time>2013-04-28T09:56:12Z</time>
      </trkpt>
      <trkpt lat="47.62204" lon="3.74159">
        <ele>111.65</ele>
        <time>2013-04-28T09:56:23Z</time>
      </trkpt>
      <trkpt lat="47.622" lon="3.74171">
        <ele>111.17</ele>
        <time>2013-04-28T09:56:32Z</time>
      </trkpt>
      <trkpt lat="47.62196" lon="3.74178">
        <ele>111.17</ele>
        <time>2013-04-28T09:56:37Z</time>
      </trkpt>
      <trkpt lat="47.62186" lon="3.7419">
        <ele>111.65</ele>
        <time>2013-04-28T09:56:47Z</time>
      </trkpt>
      <trkpt lat="47.62184" lon="3.74196">
        <ele>112.13</ele>
        <time>2013-04-28T09:56:54Z</time>
      </trkpt>
      <trkpt lat="47.62182" lon="3.74198">
        <ele>112.13</ele>
        <time>2013-04-28T09:57:05Z</time>
      </trkpt>
      <trkpt lat="47.62181" lon="3.742">
        <ele>111.65</ele>
        <time>2013-04-28T09:57:07Z</time>
      </trkpt>
      <trkpt lat="47.62178" lon="3.74206">
        <ele>112.13</ele>
        <time>2013-04-28T09:57:12Z</time>
      </trkpt>
      <trkpt lat="47.62173" lon="3.74214">
        <ele>111.65</ele>
        <time>2013-04-28T09:57:17Z</time>
      </trkpt>
      <trkpt lat="47.62165" lon="3.74228">
        <ele>111.65</ele>
        <time>2013-04-28T09:57:26Z</time>
      </trkpt>
      <trkpt lat="47.62154" lon="3.74243">
        <ele>111.65</ele>
        <time>2013-04-28T09:57:36Z</time>
      </trkpt>
      <trkpt lat="47.62138" lon="3.74258">
        <ele>112.13</ele>
        <time>2013-04-28T09:57:47Z</time>
      </trkpt>
      <trkpt lat="47.62135" lon="3.74261">
        <ele>112.13</ele>
        <time>2013-04-28T09:57:49Z</time>
      </trkpt>
      <trkpt lat="47.6212" lon="3.74273">
        <ele>112.13</ele>
        <time>2013-04-28T09:58:01Z</time>
      </trkpt>
      <trkpt lat="47.62108" lon="3.74284">
        <ele>112.13</ele>
        <time>2013-04-28T09:58:11Z</time>
      </trkpt>
      <trkpt lat="47.62107" lon="3.74285">
        <ele>112.13</ele>
        <time>2013-04-28T09:58:12Z</time>
      </trkpt>
      <trkpt lat="47.62093" lon="3.74296">
        <ele>112.13</ele>
        <time>2013-04-28T09:58:22Z</time>
      </trkpt>
      <trkpt lat="47.62079" lon="3.7431">
        <ele>111.65</ele>
        <time>2013-04-28T09:58:33Z</time>
      </trkpt>
      <trkpt lat="47.62067" lon="3.74322">
        <ele>111.65</ele>
        <time>2013-04-28T09:58:43Z</time>
      </trkpt>
      <trkpt lat="47.6205" lon="3.74337">
        <ele>111.65</ele>
        <time>2013-04-28T09:58:54Z</time>
      </trkpt>
      <trkpt lat="47.62049" lon="3.74339">
        <ele>111.65</ele>
        <time>2013-04-28T09:58:55Z</time>
      </trkpt>
      <trkpt lat="47.62043" lon="3.74342">
        <ele>111.17</ele>
        <time>2013-04-28T09:59:01Z</time>
      </trkpt>
      <trkpt lat="47.62031" lon="3.74351">
        <ele>111.17</ele>
        <time>2013-04-28T09:59:10Z</time>
      </trkpt>
      <trkpt lat="47.62025" lon="3.74356">
        <ele>111.65</ele>
        <time>2013-04-28T09:59:16Z</time>
      </trkpt>
      <trkpt lat="47.62016" lon="3.74363">
        <ele>112.13</ele>
        <time>2013-04-28T09:59:24Z</time>
      </trkpt>
      <trkpt lat="47.62008" lon="3.74371">
        <ele>111.65</ele>
        <time>2013-04-28T09:59:30Z</time>
      </trkpt>
      <trkpt lat="47.62007" lon="3.74375">
        <ele>112.13</ele>
        <time>2013-04-28T09:59:32Z</time>
      </trkpt>
      <trkpt lat="47.62011" lon="3.74392">
        <ele>111.65</ele>
        <time>2013-04-28T09:59:41Z</time>
      </trkpt>
      <trkpt lat="47.62014" lon="3.74399">
        <ele>112.13</ele>
        <time>2013-04-28T09:59:44Z</time>
      </trkpt>
      <trkpt lat="47.62016" lon="3.74407">
        <ele>112.13</ele>
        <time>2013-04-28T09:59:49Z</time>
      </trkpt>
      <trkpt lat="47.62013" lon="3.7441">
        <ele>111.65</ele>
        <time>2013-04-28T09:59:52Z</time>
      </trkpt>
      <trkpt lat="47.62" lon="3.74425">
        <ele>111.65</ele>
        <time>2013-04-28T10:00:01Z</time>
      </trkpt>
      <trkpt lat="47.6199" lon="3.74432">
        <ele>111.65</ele>
        <time>2013-04-28T10:00:10Z</time>
      </trkpt>
      <trkpt lat="47.61981" lon="3.7443">
        <ele>111.65</ele>
        <time>2013-04-28T10:00:16Z</time>
      </trkpt>
      <trkpt lat="47.61972" lon="3.74422">
        <ele>111.65</ele>
        <time>2013-04-28T10:00:23Z</time>
      </trkpt>
      <trkpt lat="47.61964" lon="3.74408">
        <ele>112.13</ele>
        <time>2013-04-28T10:00:31Z</time>
      </trkpt>
      <trkpt lat="47.61956" lon="3.74382">
        <ele>112.61</ele>
        <time>2013-04-28T10:00:43Z</time>
      </trkpt>
      <trkpt lat="47.61955" lon="3.74368">
        <ele>113.09</ele>
        <time>2013-04-28T10:00:51Z</time>
      </trkpt>
      <trkpt lat="47.61955" lon="3.74362">
        <ele>113.09</ele>
        <time>2013-04-28T10:00:54Z</time>
      </trkpt>
      <trkpt lat="47.61947" lon="3.74342">
        <ele>113.09</ele>
        <time>2013-04-28T10:01:04Z</time>
      </trkpt>
      <trkpt lat="47.6194" lon="3.74325">
        <ele>113.09</ele>
        <time>2013-04-28T10:01:12Z</time>
      </trkpt>
      <trkpt lat="47.61937" lon="3.74314">
        <ele>113.09</ele>
        <time>2013-04-28T10:01:18Z</time>
      </trkpt>
      <trkpt lat="47.61932" lon="3.74299">
        <ele>113.09</ele>
        <time>2013-04-28T10:01:25Z</time>
      </trkpt>
      <trkpt lat="47.61925" lon="3.74276">
        <ele>113.09</ele>
        <time>2013-04-28T10:01:34Z</time>
      </trkpt>
      <trkpt lat="47.61919" lon="3.74255">
        <ele>113.09</ele>
        <time>2013-04-28T10:01:44Z</time>
      </trkpt>
      <trkpt lat="47.61917" lon="3.74251">
        <ele>113.09</ele>
        <time>2013-04-28T10:01:46Z</time>
      </trkpt>
      <trkpt lat="47.61917" lon="3.74243">
        <ele>113.09</ele>
        <time>2013-04-28T10:01:54Z</time>
      </trkpt>
      <trkpt lat="47.61915" lon="3.74236">
        <ele>113.09</ele>
        <time>2013-04-28T10:01:58Z</time>
      </trkpt>
      <trkpt lat="47.61908" lon="3.74212">
        <ele>113.57</ele>
        <time>2013-04-28T10:02:08Z</time>
      </trkpt>
      <trkpt lat="47.61903" lon="3.74185">
        <ele>113.57</ele>
        <time>2013-04-28T10:02:19Z</time>
      </trkpt>
      <trkpt lat="47.61898" lon="3.74179">
        <ele>114.05</ele>
        <time>2013-04-28T10:02:26Z</time>
      </trkpt>
      <trkpt lat="47.61897" lon="3.74178">
        <ele>114.05</ele>
        <time>2013-04-28T10:02:27Z</time>
      </trkpt>
      <trkpt lat="47.61894" lon="3.74177">
        <ele>114.05</ele>
        <time>2013-04-28T10:02:29Z</time>
      </trkpt>
      <trkpt lat="47.61886" lon="3.74177">
        <ele>114.05</ele>
        <time>2013-04-28T10:02:35Z</time>
      </trkpt>
      <trkpt lat="47.6188" lon="3.74166">
        <ele>114.53</ele>
        <time>2013-04-28T10:02:43Z</time>
      </trkpt>
      <trkpt lat="47.61876" lon="3.74154">
        <ele>115.98</ele>
        <time>2013-04-28T10:02:49Z</time>
      </trkpt>
      <trkpt lat="47.61875" lon="3.74147">
        <ele>115.5</ele>
        <time>2013-04-28T10:02:54Z</time>
      </trkpt>
      <trkpt lat="47.61871" lon="3.74145">
        <ele>115.98</ele>
        <time>2013-04-28T10:02:57Z</time>
      </trkpt>
      <trkpt lat="47.61862" lon="3.74141">
        <ele>115.5</ele>
        <time>2013-04-28T10:03:06Z</time>
      </trkpt>
      <trkpt lat="47.61861" lon="3.74141">
        <ele>115.98</ele>
        <time>2013-04-28T10:03:07Z</time>
      </trkpt>
      <trkpt lat="47.61846" lon="3.74138">
        <ele>117.9</ele>
        <time>2013-04-28T10:03:17Z</time>
      </trkpt>
      <trkpt lat="47.61836" lon="3.7413">
        <ele>118.38</ele>
        <time>2013-04-28T10:03:25Z</time>
      </trkpt>
      <trkpt lat="47.61831" lon="3.74127">
        <ele>118.38</ele>
        <time>2013-04-28T10:03:29Z</time>
      </trkpt>
      <trkpt lat="47.61814" lon="3.74127">
        <ele>118.86</ele>
        <time>2013-04-28T10:03:41Z</time>
      </trkpt>
      <trkpt lat="47.61797" lon="3.74134">
        <ele>119.34</ele>
        <time>2013-04-28T10:03:53Z</time>
      </trkpt>
      <trkpt lat="47.61785" lon="3.74137">
        <ele>119.34</ele>
        <time>2013-04-28T10:04:02Z</time>
      </trkpt>
      <trkpt lat="47.6178" lon="3.74142">
        <ele>119.82</ele>
        <time>2013-04-28T10:04:06Z</time>
      </trkpt>
      <trkpt lat="47.61773" lon="3.74145">
        <ele>120.3</ele>
        <time>2013-04-28T10:04:10Z</time>
      </trkpt>
      <trkpt lat="47.61761" lon="3.74161">
        <ele>119.82</ele>
        <time>2013-04-28T10:04:22Z</time>
      </trkpt>
      <trkpt lat="47.61746" lon="3.74173">
        <ele>120.3</ele>
        <time>2013-04-28T10:04:33Z</time>
      </trkpt>
      <trkpt lat="47.61742" lon="3.74175">
        <ele>120.3</ele>
        <time>2013-04-28T10:04:36Z</time>
      </trkpt>
      <trkpt lat="47.61729" lon="3.74185">
        <ele>120.78</ele>
        <time>2013-04-28T10:04:46Z</time>
      </trkpt>
      <trkpt lat="47.61725" lon="3.74187">
        <ele>121.26</ele>
        <time>2013-04-28T10:04:49Z</time>
      </trkpt>
      <trkpt lat="47.61719" lon="3.7419">
        <ele>120.78</ele>
        <time>2013-04-28T10:04:53Z</time>
      </trkpt>
      <trkpt lat="47.61703" lon="3.74194">
        <ele>121.26</ele>
        <time>2013-04-28T10:05:05Z</time>
      </trkpt>
      <trkpt lat="47.61688" lon="3.74202">
        <ele>120.3</ele>
        <time>2013-04-28T10:05:17Z</time>
      </trkpt>
      <trkpt lat="47.61679" lon="3.74207">
        <ele>119.82</ele>
        <time>2013-04-28T10:05:25Z</time>
      </trkpt>
      <trkpt lat="47.6167" lon="3.74218">
        <ele>119.34</ele>
        <time>2013-04-28T10:05:32Z</time>
      </trkpt>
      <trkpt lat="47.61664" lon="3.74231">
        <ele>117.9</ele>
        <time>2013-04-28T10:05:43Z</time>
      </trkpt>
      <trkpt lat="47.61651" lon="3.7423">
        <ele>119.34</ele>
        <time>2013-04-28T10:05:53Z</time>
      </trkpt>
      <trkpt lat="47.61637" lon="3.74226">
        <ele>120.78</ele>
        <time>2013-04-28T10:06:04Z</time>
      </trkpt>
      <trkpt lat="47.61624" lon="3.74225">
        <ele>122.71</ele>
        <time>2013-04-28T10:06:14Z</time>
      </trkpt>
      <trkpt lat="47.61611" lon="3.74222">
        <ele>125.59</ele>
        <time>2013-04-28T10:06:27Z</time>
      </trkpt>
      <trkpt lat="47.61603" lon="3.74217">
        <ele>127.03</ele>
        <time>2013-04-28T10:06:37Z</time>
      </trkpt>
      <trkpt lat="47.61591" lon="3.74209">
        <ele>130.4</ele>
        <time>2013-04-28T10:06:50Z</time>
      </trkpt>
      <trkpt lat="47.61581" lon="3.742">
        <ele>131.84</ele>
        <time>2013-04-28T10:07:01Z</time>
      </trkpt>
      <trkpt lat="47.61573" lon="3.74192">
        <ele>134.24</ele>
        <time>2013-04-28T10:07:12Z</time>
      </trkpt>
      <trkpt lat="47.6156" lon="3.74187">
        <ele>136.16</ele>
        <time>2013-04-28T10:07:22Z</time>
      </trkpt>
      <trkpt lat="47.61552" lon="3.74182">
        <ele>137.13</ele>
        <time>2013-04-28T10:07:31Z</time>
      </trkpt>
      <trkpt lat="47.61547" lon="3.74182">
        <ele>139.05</ele>
        <time>2013-04-28T10:07:40Z</time>
      </trkpt>
      <trkpt lat="47.61539" lon="3.74179">
        <ele>140.49</ele>
        <time>2013-04-28T10:07:48Z</time>
      </trkpt>
      <trkpt lat="47.6153" lon="3.7418">
        <ele>142.89</ele>
        <time>2013-04-28T10:07:58Z</time>
      </trkpt>
      <trkpt lat="47.61516" lon="3.74181">
        <ele>145.3</ele>
        <time>2013-04-28T10:08:09Z</time>
      </trkpt>
      <trkpt lat="47.61512" lon="3.74182">
        <ele>145.78</ele>
        <time>2013-04-28T10:08:12Z</time>
      </trkpt>
      <trkpt lat="47.61501" lon="3.74184">
        <ele>147.7</ele>
        <time>2013-04-28T10:08:21Z</time>
      </trkpt>
      <trkpt lat="47.61491" lon="3.74183">
        <ele>149.62</ele>
        <time>2013-04-28T10:08:30Z</time>
      </trkpt>
      <trkpt lat="47.61482" lon="3.74184">
        <ele>151.54</ele>
        <time>2013-04-28T10:08:38Z</time>
      </trkpt>
      <trkpt lat="47.61479" lon="3.74186">
        <ele>151.54</ele>
        <time>2013-04-28T10:08:41Z</time>
      </trkpt>
      <trkpt lat="47.61473" lon="3.74185">
        <ele>152.51</ele>
        <time>2013-04-28T10:08:47Z</time>
      </trkpt>
      <trkpt lat="47.6146" lon="3.74188">
        <ele>154.91</ele>
        <time>2013-04-28T10:08:59Z</time>
      </trkpt>
      <trkpt lat="47.61449" lon="3.74188">
        <ele>156.83</ele>
        <time>2013-04-28T10:09:08Z</time>
      </trkpt>
      <trkpt lat="47.61444" lon="3.74189">
        <ele>157.79</ele>
        <time>2013-04-28T10:09:12Z</time>
      </trkpt>
      <trkpt lat="47.61433" lon="3.74196">
        <ele>159.72</ele>
        <time>2013-04-28T10:09:22Z</time>
      </trkpt>
      <trkpt lat="47.61431" lon="3.74197">
        <ele>159.72</ele>
        <time>2013-04-28T10:09:23Z</time>
      </trkpt>
      <trkpt lat="47.61423" lon="3.74202">
        <ele>161.16</ele>
        <time>2013-04-28T10:09:30Z</time>
      </trkpt>
      <trkpt lat="47.61408" lon="3.74209">
        <ele>163.56</ele>
        <time>2013-04-28T10:09:41Z</time>
      </trkpt>
      <trkpt lat="47.61404" lon="3.74211">
        <ele>164.52</ele>
        <time>2013-04-28T10:09:44Z</time>
      </trkpt>
      <trkpt lat="47.61398" lon="3.74214">
        <ele>165</ele>
        <time>2013-04-28T10:09:49Z</time>
      </trkpt>
      <trkpt lat="47.61392" lon="3.7422">
        <ele>165.96</ele>
        <time>2013-04-28T10:09:55Z</time>
      </trkpt>
      <trkpt lat="47.61375" lon="3.7423">
        <ele>167.41</ele>
        <time>2013-04-28T10:10:08Z</time>
      </trkpt>
      <trkpt lat="47.61361" lon="3.74235">
        <ele>168.85</ele>
        <time>2013-04-28T10:10:18Z</time>
      </trkpt>
      <trkpt lat="47.61359" lon="3.74236">
        <ele>168.85</ele>
        <time>2013-04-28T10:10:20Z</time>
      </trkpt>
      <trkpt lat="47.61356" lon="3.74238">
        <ele>169.33</ele>
        <time>2013-04-28T10:10:22Z</time>
      </trkpt>
      <trkpt lat="47.61342" lon="3.7424">
        <ele>169.81</ele>
        <time>2013-04-28T10:10:32Z</time>
      </trkpt>
      <trkpt lat="47.61337" lon="3.74243">
        <ele>170.29</ele>
        <time>2013-04-28T10:10:36Z</time>
      </trkpt>
      <trkpt lat="47.61332" lon="3.74241">
        <ele>170.77</ele>
        <time>2013-04-28T10:10:42Z</time>
      </trkpt>
      <trkpt lat="47.61324" lon="3.74245">
        <ele>171.73</ele>
        <time>2013-04-28T10:10:46Z</time>
      </trkpt>
      <trkpt lat="47.61321" lon="3.74246">
        <ele>171.73</ele>
        <time>2013-04-28T10:10:48Z</time>
      </trkpt>
      <trkpt lat="47.61303" lon="3.74252">
        <ele>172.21</ele>
        <time>2013-04-28T10:10:58Z</time>
      </trkpt>
      <trkpt lat="47.61292" lon="3.74257">
        <ele>173.17</ele>
        <time>2013-04-28T10:11:07Z</time>
      </trkpt>
      <trkpt lat="47.61284" lon="3.7426">
        <ele>173.66</ele>
        <time>2013-04-28T10:11:12Z</time>
      </trkpt>
      <trkpt lat="47.61269" lon="3.74263">
        <ele>174.14</ele>
        <time>2013-04-28T10:11:21Z</time>
      </trkpt>
      <trkpt lat="47.6126" lon="3.74267">
        <ele>174.62</ele>
        <time>2013-04-28T10:11:27Z</time>
      </trkpt>
      <trkpt lat="47.61246" lon="3.74274">
        <ele>175.1</ele>
        <time>2013-04-28T10:11:36Z</time>
      </trkpt>
      <trkpt lat="47.61234" lon="3.74278">
        <ele>176.06</ele>
        <time>2013-04-28T10:11:44Z</time>
      </trkpt>
      <trkpt lat="47.61226" lon="3.74277">
        <ele>176.06</ele>
        <time>2013-04-28T10:11:49Z</time>
      </trkpt>
      <trkpt lat="47.6122" lon="3.74279">
        <ele>176.54</ele>
        <time>2013-04-28T10:11:53Z</time>
      </trkpt>
      <trkpt lat="47.61213" lon="3.74279">
        <ele>177.02</ele>
        <time>2013-04-28T10:11:58Z</time>
      </trkpt>
      <trkpt lat="47.6121" lon="3.74281">
        <ele>177.5</ele>
        <time>2013-04-28T10:12:00Z</time>
      </trkpt>
      <trkpt lat="47.612" lon="3.74295">
        <ele>178.46</ele>
        <time>2013-04-28T10:12:10Z</time>
      </trkpt>
      <trkpt lat="47.61198" lon="3.74304">
        <ele>178.94</ele>
        <time>2013-04-28T10:12:17Z</time>
      </trkpt>
      <trkpt lat="47.61194" lon="3.74311">
        <ele>179.9</ele>
        <time>2013-04-28T10:12:21Z</time>
      </trkpt>
      <trkpt lat="47.61185" lon="3.7433">
        <ele>179.9</ele>
        <time>2013-04-28T10:12:30Z</time>
      </trkpt>
      <trkpt lat="47.61182" lon="3.74334">
        <ele>180.87</ele>
        <time>2013-04-28T10:12:32Z</time>
      </trkpt>
      <trkpt lat="47.61175" lon="3.74348">
        <ele>180.38</ele>
        <time>2013-04-28T10:12:40Z</time>
      </trkpt>
      <trkpt lat="47.61171" lon="3.74356">
        <ele>180.87</ele>
        <time>2013-04-28T10:12:45Z</time>
      </trkpt>
      <trkpt lat="47.61166" lon="3.74374">
        <ele>181.35</ele>
        <time>2013-04-28T10:12:55Z</time>
      </trkpt>
      <trkpt lat="47.6116" lon="3.74386">
        <ele>181.83</ele>
        <time>2013-04-28T10:13:01Z</time>
      </trkpt>
      <trkpt lat="47.61149" lon="3.74408">
        <ele>182.31</ele>
        <time>2013-04-28T10:13:12Z</time>
      </trkpt>
      <trkpt lat="47.61143" lon="3.74424">
        <ele>181.83</ele>
        <time>2013-04-28T10:13:21Z</time>
      </trkpt>
      <trkpt lat="47.61135" lon="3.74442">
        <ele>182.31</ele>
        <time>2013-04-28T10:13:30Z</time>
      </trkpt>
      <trkpt lat="47.61122" lon="3.74465">
        <ele>182.31</ele>
        <time>2013-04-28T10:13:42Z</time>
      </trkpt>
      <trkpt lat="47.61115" lon="3.74482">
        <ele>182.79</ele>
        <time>2013-04-28T10:13:51Z</time>
      </trkpt>
      <trkpt lat="47.61112" lon="3.74492">
        <ele>182.79</ele>
        <time>2013-04-28T10:13:59Z</time>
      </trkpt>
      <trkpt lat="47.61101" lon="3.74515">
        <ele>183.75</ele>
        <time>2013-04-28T10:14:09Z</time>
      </trkpt>
      <trkpt lat="47.61096" lon="3.74531">
        <ele>182.79</ele>
        <time>2013-04-28T10:14:19Z</time>
      </trkpt>
      <trkpt lat="47.61086" lon="3.74549">
        <ele>182.79</ele>
        <time>2013-04-28T10:14:29Z</time>
      </trkpt>
      <trkpt lat="47.61085" lon="3.74551">
        <ele>183.27</ele>
        <time>2013-04-28T10:14:30Z</time>
      </trkpt>
      <trkpt lat="47.61083" lon="3.74555">
        <ele>182.79</ele>
        <time>2013-04-28T10:14:32Z</time>
      </trkpt>
      <trkpt lat="47.61073" lon="3.74576">
        <ele>182.31</ele>
        <time>2013-04-28T10:14:43Z</time>
      </trkpt>
      <trkpt lat="47.61072" lon="3.74578">
        <ele>182.31</ele>
        <time>2013-04-28T10:14:44Z</time>
      </trkpt>
      <trkpt lat="47.61065" lon="3.74597">
        <ele>182.31</ele>
        <time>2013-04-28T10:14:52Z</time>
      </trkpt>
      <trkpt lat="47.61065" lon="3.74602">
        <ele>181.83</ele>
        <time>2013-04-28T10:15:04Z</time>
      </trkpt>
      <trkpt lat="47.61064" lon="3.74603">
        <ele>181.83</ele>
        <time>2013-04-28T10:15:11Z</time>
      </trkpt>
      <trkpt lat="47.61061" lon="3.74606">
        <ele>181.35</ele>
        <time>2013-04-28T10:15:13Z</time>
      </trkpt>
      <trkpt lat="47.61058" lon="3.74609">
        <ele>181.35</ele>
        <time>2013-04-28T10:15:15Z</time>
      </trkpt>
      <trkpt lat="47.6105" lon="3.74628">
        <ele>180.38</ele>
        <time>2013-04-28T10:15:25Z</time>
      </trkpt>
      <trkpt lat="47.61037" lon="3.74652">
        <ele>179.42</ele>
        <time>2013-04-28T10:15:37Z</time>
      </trkpt>
      <trkpt lat="47.61028" lon="3.74668">
        <ele>177.98</ele>
        <time>2013-04-28T10:15:48Z</time>
      </trkpt>
      <trkpt lat="47.61025" lon="3.74683">
        <ele>176.06</ele>
        <time>2013-04-28T10:15:59Z</time>
      </trkpt>
      <trkpt lat="47.6102" lon="3.74697">
        <ele>173.66</ele>
        <time>2013-04-28T10:16:13Z</time>
      </trkpt>
      <trkpt lat="47.61021" lon="3.74703">
        <ele>171.73</ele>
        <time>2013-04-28T10:16:21Z</time>
      </trkpt>
      <trkpt lat="47.61017" lon="3.74707">
        <ele>168.85</ele>
        <time>2013-04-28T10:16:32Z</time>
      </trkpt>
      <trkpt lat="47.61016" lon="3.74708">
        <ele>168.37</ele>
        <time>2013-04-28T10:16:34Z</time>
      </trkpt>
      <trkpt lat="47.61015" lon="3.74714">
        <ele>166.93</ele>
        <time>2013-04-28T10:16:42Z</time>
      </trkpt>
      <trkpt lat="47.61014" lon="3.74716">
        <ele>165.48</ele>
        <time>2013-04-28T10:16:47Z</time>
      </trkpt>
      <trkpt lat="47.61012" lon="3.74719">
        <ele>164.04</ele>
        <time>2013-04-28T10:16:55Z</time>
      </trkpt>
      <trkpt lat="47.6101" lon="3.7472">
        <ele>162.6</ele>
        <time>2013-04-28T10:17:04Z</time>
      </trkpt>
      <trkpt lat="47.61008" lon="3.74723">
        <ele>161.64</ele>
        <time>2013-04-28T10:17:16Z</time>
      </trkpt>
      <trkpt lat="47.61007" lon="3.74726">
        <ele>160.2</ele>
        <time>2013-04-28T10:17:27Z</time>
      </trkpt>
      <trkpt lat="47.61006" lon="3.7473">
        <ele>158.75</ele>
        <time>2013-04-28T10:17:38Z</time>
      </trkpt>
      <trkpt lat="47.61004" lon="3.74735">
        <ele>156.83</ele>
        <time>2013-04-28T10:17:51Z</time>
      </trkpt>
      <trkpt lat="47.61" lon="3.74738">
        <ele>154.43</ele>
        <time>2013-04-28T10:18:01Z</time>
      </trkpt>
      <trkpt lat="47.61" lon="3.7474">
        <ele>152.03</ele>
        <time>2013-04-28T10:18:12Z</time>
      </trkpt>
      <trkpt lat="47.60996" lon="3.74744">
        <ele>148.66</ele>
        <time>2013-04-28T10:18:21Z</time>
      </trkpt>
      <trkpt lat="47.60989" lon="3.74758">
        <ele>146.74</ele>
        <time>2013-04-28T10:18:31Z</time>
      </trkpt>
      <trkpt lat="47.60986" lon="3.74766">
        <ele>146.26</ele>
        <time>2013-04-28T10:18:40Z</time>
      </trkpt>
      <trkpt lat="47.60984" lon="3.74772">
        <ele>147.22</ele>
        <time>2013-04-28T10:18:54Z</time>
      </trkpt>
      <trkpt lat="47.60983" lon="3.74771">
        <ele>147.22</ele>
        <time>2013-04-28T10:19:05Z</time>
      </trkpt>
      <trkpt lat="47.60987" lon="3.74767">
        <ele>149.14</ele>
        <time>2013-04-28T10:19:17Z</time>
      </trkpt>
      <trkpt lat="47.60989" lon="3.74765">
        <ele>149.62</ele>
        <time>2013-04-28T10:19:36Z</time>
      </trkpt>
      <trkpt lat="47.6099" lon="3.74762">
        <ele>149.62</ele>
        <time>2013-04-28T10:19:59Z</time>
      </trkpt>
      <trkpt lat="47.60991" lon="3.74761">
        <ele>150.58</ele>
        <time>2013-04-28T10:20:19Z</time>
      </trkpt>
      <trkpt lat="47.60993" lon="3.74761">
        <ele>150.1</ele>
        <time>2013-04-28T10:20:45Z</time>
      </trkpt>
      <trkpt lat="47.60994" lon="3.74759">
        <ele>150.1</ele>
        <time>2013-04-28T10:21:02Z</time>
      </trkpt>
      <trkpt lat="47.60994" lon="3.74759">
        <ele>150.1</ele>
        <time>2013-04-28T10:21:19Z</time>
      </trkpt>
      <trkpt lat="47.60993" lon="3.74761">
        <ele>147.22</ele>
        <time>2013-04-28T10:21:28Z</time>
      </trkpt>
      <trkpt lat="47.60989" lon="3.74767">
        <ele>147.22</ele>
        <time>2013-04-28T10:21:38Z</time>
      </trkpt>
      <trkpt lat="47.60986" lon="3.74778">
        <ele>148.18</ele>
        <time>2013-04-28T10:21:47Z</time>
      </trkpt>
      <trkpt lat="47.6098" lon="3.7479">
        <ele>150.1</ele>
        <time>2013-04-28T10:21:57Z</time>
      </trkpt>
      <trkpt lat="47.60973" lon="3.748">
        <ele>152.51</ele>
        <time>2013-04-28T10:22:06Z</time>
      </trkpt>
      <trkpt lat="47.60965" lon="3.74812">
        <ele>154.91</ele>
        <time>2013-04-28T10:22:16Z</time>
      </trkpt>
      <trkpt lat="47.60958" lon="3.74824">
        <ele>157.31</ele>
        <time>2013-04-28T10:22:25Z</time>
      </trkpt>
      <trkpt lat="47.6095" lon="3.74839">
        <ele>159.24</ele>
        <time>2013-04-28T10:22:36Z</time>
      </trkpt>
      <trkpt lat="47.60947" lon="3.74846">
        <ele>160.68</ele>
        <time>2013-04-28T10:22:43Z</time>
      </trkpt>
      <trkpt lat="47.60944" lon="3.74852">
        <ele>162.12</ele>
        <time>2013-04-28T10:22:48Z</time>
      </trkpt>
      <trkpt lat="47.60941" lon="3.74863">
        <ele>164.04</ele>
        <time>2013-04-28T10:22:56Z</time>
      </trkpt>
      <trkpt lat="47.60936" lon="3.74873">
        <ele>166.93</ele>
        <time>2013-04-28T10:23:07Z</time>
      </trkpt>
      <trkpt lat="47.60932" lon="3.7488">
        <ele>168.85</ele>
        <time>2013-04-28T10:23:16Z</time>
      </trkpt>
      <trkpt lat="47.60927" lon="3.74886">
        <ele>171.25</ele>
        <time>2013-04-28T10:23:24Z</time>
      </trkpt>
      <trkpt lat="47.60921" lon="3.74898">
        <ele>173.17</ele>
        <time>2013-04-28T10:23:34Z</time>
      </trkpt>
      <trkpt lat="47.60921" lon="3.74899">
        <ele>173.17</ele>
        <time>2013-04-28T10:23:35Z</time>
      </trkpt>
      <trkpt lat="47.60916" lon="3.7491">
        <ele>174.62</ele>
        <time>2013-04-28T10:23:44Z</time>
      </trkpt>
      <trkpt lat="47.60909" lon="3.74921">
        <ele>176.06</ele>
        <time>2013-04-28T10:23:53Z</time>
      </trkpt>
      <trkpt lat="47.60909" lon="3.74923">
        <ele>176.54</ele>
        <time>2013-04-28T10:23:54Z</time>
      </trkpt>
      <trkpt lat="47.60903" lon="3.74933">
        <ele>177.02</ele>
        <time>2013-04-28T10:24:01Z</time>
      </trkpt>
      <trkpt lat="47.60898" lon="3.74939">
        <ele>177.5</ele>
        <time>2013-04-28T10:24:07Z</time>
      </trkpt>
      <trkpt lat="47.6089" lon="3.74956">
        <ele>177.98</ele>
        <time>2013-04-28T10:24:19Z</time>
      </trkpt>
      <trkpt lat="47.60881" lon="3.74968">
        <ele>177.98</ele>
        <time>2013-04-28T10:24:27Z</time>
      </trkpt>
      <trkpt lat="47.60872" lon="3.7499">
        <ele>176.54</ele>
        <time>2013-04-28T10:24:38Z</time>
      </trkpt>
      <trkpt lat="47.60865" lon="3.74999">
        <ele>175.58</ele>
        <time>2013-04-28T10:24:47Z</time>
      </trkpt>
      <trkpt lat="47.60856" lon="3.75016">
        <ele>174.62</ele>
        <time>2013-04-28T10:24:57Z</time>
      </trkpt>
      <trkpt lat="47.6085" lon="3.75026">
        <ele>173.17</ele>
        <time>2013-04-28T10:25:03Z</time>
      </trkpt>
      <trkpt lat="47.60843" lon="3.75038">
        <ele>170.77</ele>
        <time>2013-04-28T10:25:15Z</time>
      </trkpt>
      <trkpt lat="47.60841" lon="3.75042">
        <ele>170.29</ele>
        <time>2013-04-28T10:25:19Z</time>
      </trkpt>
      <trkpt lat="47.60835" lon="3.75048">
        <ele>167.41</ele>
        <time>2013-04-28T10:25:29Z</time>
      </trkpt>
      <trkpt lat="47.60829" lon="3.7505">
        <ele>166.45</ele>
        <time>2013-04-28T10:25:35Z</time>
      </trkpt>
      <trkpt lat="47.60816" lon="3.75058">
        <ele>162.6</ele>
        <time>2013-04-28T10:25:47Z</time>
      </trkpt>
      <trkpt lat="47.6081" lon="3.75063">
        <ele>160.68</ele>
        <time>2013-04-28T10:25:56Z</time>
      </trkpt>
      <trkpt lat="47.60802" lon="3.75068">
        <ele>158.27</ele>
        <time>2013-04-28T10:26:05Z</time>
      </trkpt>
      <trkpt lat="47.60792" lon="3.75079">
        <ele>155.39</ele>
        <time>2013-04-28T10:26:14Z</time>
      </trkpt>
      <trkpt lat="47.60787" lon="3.75086">
        <ele>153.95</ele>
        <time>2013-04-28T10:26:19Z</time>
      </trkpt>
      <trkpt lat="47.6078" lon="3.75099">
        <ele>149.14</ele>
        <time>2013-04-28T10:26:28Z</time>
      </trkpt>
      <trkpt lat="47.6078" lon="3.751">
        <ele>153.95</ele>
        <time>2013-04-28T10:26:29Z</time>
      </trkpt>
      <trkpt lat="47.60779" lon="3.75102">
        <ele>150.58</ele>
        <time>2013-04-28T10:26:30Z</time>
      </trkpt>
      <trkpt lat="47.60778" lon="3.75107">
        <ele>150.1</ele>
        <time>2013-04-28T10:26:34Z</time>
      </trkpt>
      <trkpt lat="47.60776" lon="3.75119">
        <ele>147.22</ele>
        <time>2013-04-28T10:26:44Z</time>
      </trkpt>
      <trkpt lat="47.60774" lon="3.75132">
        <ele>145.3</ele>
        <time>2013-04-28T10:26:53Z</time>
      </trkpt>
      <trkpt lat="47.60765" lon="3.75153">
        <ele>142.41</ele>
        <time>2013-04-28T10:27:03Z</time>
      </trkpt>
      <trkpt lat="47.60762" lon="3.75161">
        <ele>141.45</ele>
        <time>2013-04-28T10:27:07Z</time>
      </trkpt>
      <trkpt lat="47.60766" lon="3.75179">
        <ele>139.05</ele>
        <time>2013-04-28T10:27:18Z</time>
      </trkpt>
      <trkpt lat="47.60766" lon="3.75188">
        <ele>137.13</ele>
        <time>2013-04-28T10:27:23Z</time>
      </trkpt>
      <trkpt lat="47.60762" lon="3.7521">
        <ele>134.72</ele>
        <time>2013-04-28T10:27:34Z</time>
      </trkpt>
      <trkpt lat="47.6076" lon="3.75213">
        <ele>134.72</ele>
        <time>2013-04-28T10:27:36Z</time>
      </trkpt>
      <trkpt lat="47.60747" lon="3.75228">
        <ele>133.28</ele>
        <time>2013-04-28T10:27:46Z</time>
      </trkpt>
      <trkpt lat="47.60741" lon="3.7523">
        <ele>132.8</ele>
        <time>2013-04-28T10:27:50Z</time>
      </trkpt>
      <trkpt lat="47.60736" lon="3.75233">
        <ele>132.32</ele>
        <time>2013-04-28T10:27:54Z</time>
      </trkpt>
      <trkpt lat="47.60732" lon="3.75234">
        <ele>131.36</ele>
        <time>2013-04-28T10:27:56Z</time>
      </trkpt>
      <trkpt lat="47.60719" lon="3.75239">
        <ele>130.88</ele>
        <time>2013-04-28T10:28:04Z</time>
      </trkpt>
      <trkpt lat="47.60717" lon="3.7524">
        <ele>130.4</ele>
        <time>2013-04-28T10:28:06Z</time>
      </trkpt>
      <trkpt lat="47.60705" lon="3.75245">
        <ele>128.95</ele>
        <time>2013-04-28T10:28:15Z</time>
      </trkpt>
      <trkpt lat="47.60701" lon="3.75256">
        <ele>128.47</ele>
        <time>2013-04-28T10:28:21Z</time>
      </trkpt>
      <trkpt lat="47.60704" lon="3.75264">
        <ele>128.47</ele>
        <time>2013-04-28T10:28:27Z</time>
      </trkpt>
      <trkpt lat="47.60708" lon="3.75274">
        <ele>127.99</ele>
        <time>2013-04-28T10:28:33Z</time>
      </trkpt>
      <trkpt lat="47.60711" lon="3.75284">
        <ele>127.03</ele>
        <time>2013-04-28T10:28:38Z</time>
      </trkpt>
      <trkpt lat="47.60718" lon="3.75302">
        <ele>125.59</ele>
        <time>2013-04-28T10:28:49Z</time>
      </trkpt>
      <trkpt lat="47.60722" lon="3.7532">
        <ele>122.22</ele>
        <time>2013-04-28T10:29:01Z</time>
      </trkpt>
      <trkpt lat="47.6072" lon="3.75331">
        <ele>121.26</ele>
        <time>2013-04-28T10:29:11Z</time>
      </trkpt>
      <trkpt lat="47.60719" lon="3.75334">
        <ele>121.26</ele>
        <time>2013-04-28T10:29:23Z</time>
      </trkpt>
      <trkpt lat="47.60711" lon="3.75347">
        <ele>120.78</ele>
        <time>2013-04-28T10:29:34Z</time>
      </trkpt>
      <trkpt lat="47.60698" lon="3.75357">
        <ele>121.26</ele>
        <time>2013-04-28T10:29:46Z</time>
      </trkpt>
      <trkpt lat="47.60685" lon="3.75368">
        <ele>120.78</ele>
        <time>2013-04-28T10:29:58Z</time>
      </trkpt>
      <trkpt lat="47.60671" lon="3.75378">
        <ele>120.78</ele>
        <time>2013-04-28T10:30:10Z</time>
      </trkpt>
      <trkpt lat="47.60658" lon="3.7539">
        <ele>121.26</ele>
        <time>2013-04-28T10:30:20Z</time>
      </trkpt>
      <trkpt lat="47.60653" lon="3.75392">
        <ele>120.78</ele>
        <time>2013-04-28T10:30:24Z</time>
      </trkpt>
      <trkpt lat="47.60639" lon="3.75402">
        <ele>121.26</ele>
        <time>2013-04-28T10:30:36Z</time>
      </trkpt>
      <trkpt lat="47.60624" lon="3.75415">
        <ele>120.78</ele>
        <time>2013-04-28T10:30:49Z</time>
      </trkpt>
      <trkpt lat="47.60611" lon="3.75427">
        <ele>121.26</ele>
        <time>2013-04-28T10:31:01Z</time>
      </trkpt>
      <trkpt lat="47.60596" lon="3.75436">
        <ele>121.26</ele>
        <time>2013-04-28T10:31:13Z</time>
      </trkpt>
      <trkpt lat="47.60583" lon="3.75446">
        <ele>121.26</ele>
        <time>2013-04-28T10:31:24Z</time>
      </trkpt>
      <trkpt lat="47.60576" lon="3.75451">
        <ele>120.78</ele>
        <time>2013-04-28T10:31:29Z</time>
      </trkpt>
      <trkpt lat="47.60574" lon="3.75453">
        <ele>121.26</ele>
        <time>2013-04-28T10:31:31Z</time>
      </trkpt>
      <trkpt lat="47.60557" lon="3.75464">
        <ele>121.74</ele>
        <time>2013-04-28T10:31:44Z</time>
      </trkpt>
      <trkpt lat="47.60542" lon="3.75472">
        <ele>121.74</ele>
        <time>2013-04-28T10:31:57Z</time>
      </trkpt>
      <trkpt lat="47.60522" lon="3.75481">
        <ele>121.26</ele>
        <time>2013-04-28T10:32:11Z</time>
      </trkpt>
      <trkpt lat="47.60514" lon="3.75486">
        <ele>121.26</ele>
        <time>2013-04-28T10:32:17Z</time>
      </trkpt>
      <trkpt lat="47.60499" lon="3.75491">
        <ele>121.26</ele>
        <time>2013-04-28T10:32:30Z</time>
      </trkpt>
      <trkpt lat="47.60483" lon="3.75493">
        <ele>121.26</ele>
        <time>2013-04-28T10:32:41Z</time>
      </trkpt>
      <trkpt lat="47.60482" lon="3.75491">
        <ele>121.74</ele>
        <time>2013-04-28T10:32:52Z</time>
      </trkpt>
      <trkpt lat="47.60482" lon="3.75491">
        <ele>121.74</ele>
        <time>2013-04-28T10:33:15Z</time>
      </trkpt>
      <trkpt lat="47.60481" lon="3.75493">
        <ele>121.74</ele>
        <time>2013-04-28T10:33:26Z</time>
      </trkpt>
      <trkpt lat="47.60476" lon="3.75496">
        <ele>122.22</ele>
        <time>2013-04-28T10:33:30Z</time>
      </trkpt>
      <trkpt lat="47.60471" lon="3.75496">
        <ele>121.74</ele>
        <time>2013-04-28T10:33:34Z</time>
      </trkpt>
      <trkpt lat="47.60463" lon="3.75497">
        <ele>122.22</ele>
        <time>2013-04-28T10:33:40Z</time>
      </trkpt>
      <trkpt lat="47.60458" lon="3.75497">
        <ele>122.22</ele>
        <time>2013-04-28T10:33:46Z</time>
      </trkpt>
      <trkpt lat="47.60449" lon="3.75498">
        <ele>122.71</ele>
        <time>2013-04-28T10:33:53Z</time>
      </trkpt>
      <trkpt lat="47.60434" lon="3.75503">
        <ele>123.19</ele>
        <time>2013-04-28T10:34:04Z</time>
      </trkpt>
      <trkpt lat="47.60422" lon="3.75506">
        <ele>123.67</ele>
        <time>2013-04-28T10:34:15Z</time>
      </trkpt>
      <trkpt lat="47.60417" lon="3.75506">
        <ele>124.15</ele>
        <time>2013-04-28T10:34:20Z</time>
      </trkpt>
      <trkpt lat="47.60412" lon="3.755">
        <ele>124.63</ele>
        <time>2013-04-28T10:34:29Z</time>
      </trkpt>
      <trkpt lat="47.6041" lon="3.755">
        <ele>124.63</ele>
        <time>2013-04-28T10:34:40Z</time>
      </trkpt>
      <trkpt lat="47.6041" lon="3.75501">
        <ele>124.63</ele>
        <time>2013-04-28T10:34:56Z</time>
      </trkpt>
      <trkpt lat="47.6041" lon="3.75501">
        <ele>125.11</ele>
        <time>2013-04-28T10:35:08Z</time>
      </trkpt>
      <trkpt lat="47.6041" lon="3.75499">
        <ele>124.63</ele>
        <time>2013-04-28T10:35:18Z</time>
      </trkpt>
      <trkpt lat="47.60411" lon="3.75499">
        <ele>124.63</ele>
        <time>2013-04-28T10:35:34Z</time>
      </trkpt>
      <trkpt lat="47.6041" lon="3.755">
        <ele>125.11</ele>
        <time>2013-04-28T10:35:48Z</time>
      </trkpt>
      <trkpt lat="47.60411" lon="3.75501">
        <ele>124.63</ele>
        <time>2013-04-28T10:35:57Z</time>
      </trkpt>
      <trkpt lat="47.60411" lon="3.75501">
        <ele>124.15</ele>
        <time>2013-04-28T10:36:08Z</time>
      </trkpt>
      <trkpt lat="47.60411" lon="3.75502">
        <ele>124.63</ele>
        <time>2013-04-28T10:36:22Z</time>
      </trkpt>
      <trkpt lat="47.60411" lon="3.75502">
        <ele>124.63</ele>
        <time>2013-04-28T10:36:34Z</time>
      </trkpt>
      <trkpt lat="47.60408" lon="3.75502">
        <ele>125.11</ele>
        <time>2013-04-28T10:36:42Z</time>
      </trkpt>
      <trkpt lat="47.60408" lon="3.75503">
        <ele>124.63</ele>
        <time>2013-04-28T10:36:53Z</time>
      </trkpt>
      <trkpt lat="47.60409" lon="3.75503">
        <ele>125.11</ele>
        <time>2013-04-28T10:37:07Z</time>
      </trkpt>
      <trkpt lat="47.60408" lon="3.75504">
        <ele>125.11</ele>
        <time>2013-04-28T10:37:26Z</time>
      </trkpt>
      <trkpt lat="47.60408" lon="3.75513">
        <ele>125.11</ele>
        <time>2013-04-28T10:37:43Z</time>
      </trkpt>
      <trkpt lat="47.60408" lon="3.75512">
        <ele>125.11</ele>
        <time>2013-04-28T10:38:00Z</time>
      </trkpt>
      <trkpt lat="47.60408" lon="3.75513">
        <ele>125.11</ele>
        <time>2013-04-28T10:38:20Z</time>
      </trkpt>
      <trkpt lat="47.60408" lon="3.75512">
        <ele>125.11</ele>
        <time>2013-04-28T10:38:40Z</time>
      </trkpt>
      <trkpt lat="47.60408" lon="3.75513">
        <ele>125.11</ele>
        <time>2013-04-28T10:38:59Z</time>
      </trkpt>
      <trkpt lat="47.60409" lon="3.75511">
        <ele>125.11</ele>
        <time>2013-04-28T10:39:19Z</time>
      </trkpt>
      <trkpt lat="47.60405" lon="3.75514">
        <ele>125.11</ele>
        <time>2013-04-28T10:39:35Z</time>
      </trkpt>
      <trkpt lat="47.60407" lon="3.75515">
        <ele>125.11</ele>
        <time>2013-04-28T10:39:50Z</time>
      </trkpt>
      <trkpt lat="47.60407" lon="3.75512">
        <ele>125.59</ele>
        <time>2013-04-28T10:40:10Z</time>
      </trkpt>
      <trkpt lat="47.60408" lon="3.75513">
        <ele>125.59</ele>
        <time>2013-04-28T10:40:29Z</time>
      </trkpt>
      <trkpt lat="47.60409" lon="3.75512">
        <ele>125.59</ele>
        <time>2013-04-28T10:40:48Z</time>
      </trkpt>
      <trkpt lat="47.60409" lon="3.75511">
        <ele>125.11</ele>
        <time>2013-04-28T10:41:05Z</time>
      </trkpt>
      <trkpt lat="47.60411" lon="3.75507">
        <ele>125.59</ele>
        <time>2013-04-28T10:41:22Z</time>
      </trkpt>
      <trkpt lat="47.60411" lon="3.75507">
        <ele>125.11</ele>
        <time>2013-04-28T10:41:39Z</time>
      </trkpt>
      <trkpt lat="47.6041" lon="3.75506">
        <ele>125.59</ele>
        <time>2013-04-28T10:41:58Z</time>
      </trkpt>
      <trkpt lat="47.60413" lon="3.75504">
        <ele>125.59</ele>
        <time>2013-04-28T10:42:11Z</time>
      </trkpt>
      <trkpt lat="47.60414" lon="3.75504">
        <ele>124.63</ele>
        <time>2013-04-28T10:42:23Z</time>
      </trkpt>
      <trkpt lat="47.60414" lon="3.75503">
        <ele>125.11</ele>
        <time>2013-04-28T10:42:35Z</time>
      </trkpt>
      <trkpt lat="47.6041" lon="3.75503">
        <ele>125.11</ele>
        <time>2013-04-28T10:42:47Z</time>
      </trkpt>
      <trkpt lat="47.60411" lon="3.75504">
        <ele>124.63</ele>
        <time>2013-04-28T10:42:57Z</time>
      </trkpt>
      <trkpt lat="47.6041" lon="3.75504">
        <ele>124.63</ele>
        <time>2013-04-28T10:43:15Z</time>
      </trkpt>
      <trkpt lat="47.6041" lon="3.75504">
        <ele>124.15</ele>
        <time>2013-04-28T10:43:34Z</time>
      </trkpt>
      <trkpt lat="47.6041" lon="3.75504">
        <ele>121.26</ele>
        <time>2013-04-28T10:43:36Z</time>
      </trkpt>
      <trkpt lat="47.6041" lon="3.75503">
        <ele>127.99</ele>
        <time>2013-04-28T10:43:37Z</time>
      </trkpt>
      <trkpt lat="47.6041" lon="3.75503">
        <ele>127.99</ele>
        <time>2013-04-28T10:43:38Z</time>
      </trkpt>
      <trkpt lat="47.6041" lon="3.75503">
        <ele>125.11</ele>
        <time>2013-04-28T10:43:39Z</time>
      </trkpt>
      <trkpt lat="47.6041" lon="3.75503">
        <ele>124.63</ele>
        <time>2013-04-28T10:43:40Z</time>
      </trkpt>
      <trkpt lat="47.6041" lon="3.75504">
        <ele>124.63</ele>
        <time>2013-04-28T10:43:57Z</time>
      </trkpt>
      <trkpt lat="47.60411" lon="3.75503">
        <ele>124.15</ele>
        <time>2013-04-28T10:44:14Z</time>
      </trkpt>
      <trkpt lat="47.6041" lon="3.75503">
        <ele>127.99</ele>
        <time>2013-04-28T10:44:23Z</time>
      </trkpt>
      <trkpt lat="47.6041" lon="3.75503">
        <ele>124.15</ele>
        <time>2013-04-28T10:44:24Z</time>
      </trkpt>
      <trkpt lat="47.6041" lon="3.75503">
        <ele>125.11</ele>
        <time>2013-04-28T10:44:38Z</time>
      </trkpt>
      <trkpt lat="47.6041" lon="3.75504">
        <ele>125.11</ele>
        <time>2013-04-28T10:44:51Z</time>
      </trkpt>
      <trkpt lat="47.6041" lon="3.75505">
        <ele>124.63</ele>
        <time>2013-04-28T10:45:04Z</time>
      </trkpt>
      <trkpt lat="47.60409" lon="3.75505">
        <ele>125.11</ele>
        <time>2013-04-28T10:45:21Z</time>
      </trkpt>
      <trkpt lat="47.60409" lon="3.75506">
        <ele>124.63</ele>
        <time>2013-04-28T10:45:37Z</time>
      </trkpt>
      <trkpt lat="47.60408" lon="3.75504">
        <ele>124.63</ele>
        <time>2013-04-28T10:45:50Z</time>
      </trkpt>
      <trkpt lat="47.60409" lon="3.75503">
        <ele>124.63</ele>
        <time>2013-04-28T10:46:05Z</time>
      </trkpt>
      <trkpt lat="47.60409" lon="3.75504">
        <ele>124.63</ele>
        <time>2013-04-28T10:46:22Z</time>
      </trkpt>
      <trkpt lat="47.60408" lon="3.75504">
        <ele>124.63</ele>
        <time>2013-04-28T10:46:42Z</time>
      </trkpt>
      <trkpt lat="47.60408" lon="3.75504">
        <ele>124.63</ele>
        <time>2013-04-28T10:47:00Z</time>
      </trkpt>
      <trkpt lat="47.60408" lon="3.75503">
        <ele>124.63</ele>
        <time>2013-04-28T10:47:20Z</time>
      </trkpt>
      <trkpt lat="47.60409" lon="3.75502">
        <ele>124.63</ele>
        <time>2013-04-28T10:47:39Z</time>
      </trkpt>
      <trkpt lat="47.6041" lon="3.75499">
        <ele>124.15</ele>
        <time>2013-04-28T10:47:54Z</time>
      </trkpt>
      <trkpt lat="47.60411" lon="3.75496">
        <ele>124.63</ele>
        <time>2013-04-28T10:48:11Z</time>
      </trkpt>
      <trkpt lat="47.60411" lon="3.75497">
        <ele>124.15</ele>
        <time>2013-04-28T10:48:24Z</time>
      </trkpt>
      <trkpt lat="47.6041" lon="3.75496">
        <ele>124.15</ele>
        <time>2013-04-28T10:48:39Z</time>
      </trkpt>
      <trkpt lat="47.6041" lon="3.75497">
        <ele>123.67</ele>
        <time>2013-04-28T10:48:58Z</time>
      </trkpt>
      <trkpt lat="47.60411" lon="3.75494">
        <ele>123.67</ele>
        <time>2013-04-28T10:49:20Z</time>
      </trkpt>
      <trkpt lat="47.60409" lon="3.75495">
        <ele>123.67</ele>
        <time>2013-04-28T10:49:34Z</time>
      </trkpt>
      <trkpt lat="47.60409" lon="3.75495">
        <ele>123.67</ele>
        <time>2013-04-28T10:49:46Z</time>
      </trkpt>
      <trkpt lat="47.6041" lon="3.75496">
        <ele>123.19</ele>
        <time>2013-04-28T10:50:04Z</time>
      </trkpt>
      <trkpt lat="47.60411" lon="3.75498">
        <ele>123.19</ele>
        <time>2013-04-28T10:50:16Z</time>
      </trkpt>
      <trkpt lat="47.60411" lon="3.75499">
        <ele>123.19</ele>
        <time>2013-04-28T10:50:28Z</time>
      </trkpt>
      <trkpt lat="47.6041" lon="3.75493">
        <ele>122.22</ele>
        <time>2013-04-28T10:50:47Z</time>
      </trkpt>
      <trkpt lat="47.6041" lon="3.75496">
        <ele>126.07</ele>
        <time>2013-04-28T10:51:10Z</time>
      </trkpt>
      <trkpt lat="47.6041" lon="3.75497">
        <ele>122.71</ele>
        <time>2013-04-28T10:51:13Z</time>
      </trkpt>
      <trkpt lat="47.60409" lon="3.75499">
        <ele>119.82</ele>
        <time>2013-04-28T10:51:18Z</time>
      </trkpt>
      <trkpt lat="47.60409" lon="3.75499">
        <ele>123.19</ele>
        <time>2013-04-28T10:51:20Z</time>
      </trkpt>
      <trkpt lat="47.60409" lon="3.75499">
        <ele>121.74</ele>
        <time>2013-04-28T10:51:24Z</time>
      </trkpt>
      <trkpt lat="47.60409" lon="3.75499">
        <ele>125.11</ele>
        <time>2013-04-28T10:51:30Z</time>
      </trkpt>
      <trkpt lat="47.60409" lon="3.75499">
        <ele>121.74</ele>
        <time>2013-04-28T10:51:33Z</time>
      </trkpt>
      <trkpt lat="47.60409" lon="3.75499">
        <ele>121.74</ele>
        <time>2013-04-28T10:51:38Z</time>
      </trkpt>
      <trkpt lat="47.60412" lon="3.75501">
        <ele>121.74</ele>
        <time>2013-04-28T10:51:46Z</time>
      </trkpt>
      <trkpt lat="47.60413" lon="3.755">
        <ele>121.74</ele>
        <time>2013-04-28T10:51:55Z</time>
      </trkpt>
      <trkpt lat="47.60413" lon="3.755">
        <ele>121.74</ele>
        <time>2013-04-28T10:52:07Z</time>
      </trkpt>
      <trkpt lat="47.60414" lon="3.755">
        <ele>121.26</ele>
        <time>2013-04-28T10:52:21Z</time>
      </trkpt>
      <trkpt lat="47.60414" lon="3.755">
        <ele>121.26</ele>
        <time>2013-04-28T10:52:32Z</time>
      </trkpt>
      <trkpt lat="47.60414" lon="3.755">
        <ele>121.74</ele>
        <time>2013-04-28T10:52:46Z</time>
      </trkpt>
      <trkpt lat="47.60414" lon="3.755">
        <ele>122.22</ele>
        <time>2013-04-28T10:52:56Z</time>
      </trkpt>
      <trkpt lat="47.60414" lon="3.755">
        <ele>121.74</ele>
        <time>2013-04-28T10:53:14Z</time>
      </trkpt>
      <trkpt lat="47.60412" lon="3.75501">
        <ele>121.74</ele>
        <time>2013-04-28T10:53:31Z</time>
      </trkpt>
      <trkpt lat="47.60412" lon="3.75502">
        <ele>121.74</ele>
        <time>2013-04-28T10:53:41Z</time>
      </trkpt>
      <trkpt lat="47.60412" lon="3.75502">
        <ele>121.74</ele>
        <time>2013-04-28T10:53:51Z</time>
      </trkpt>
      <trkpt lat="47.60411" lon="3.75502">
        <ele>121.26</ele>
        <time>2013-04-28T10:54:07Z</time>
      </trkpt>
      <trkpt lat="47.60411" lon="3.75501">
        <ele>121.74</ele>
        <time>2013-04-28T10:54:21Z</time>
      </trkpt>
      <trkpt lat="47.60411" lon="3.75502">
        <ele>121.74</ele>
        <time>2013-04-28T10:54:33Z</time>
      </trkpt>
      <trkpt lat="47.60411" lon="3.75502">
        <ele>117.42</ele>
        <time>2013-04-28T10:54:38Z</time>
      </trkpt>
      <trkpt lat="47.60411" lon="3.75502">
        <ele>124.63</ele>
        <time>2013-04-28T10:54:39Z</time>
      </trkpt>
      <trkpt lat="47.60411" lon="3.75502">
        <ele>121.74</ele>
        <time>2013-04-28T10:54:40Z</time>
      </trkpt>
      <trkpt lat="47.60411" lon="3.75502">
        <ele>121.26</ele>
        <time>2013-04-28T10:54:53Z</time>
      </trkpt>
      <trkpt lat="47.6041" lon="3.75503">
        <ele>121.26</ele>
        <time>2013-04-28T10:55:06Z</time>
      </trkpt>
      <trkpt lat="47.6041" lon="3.75503">
        <ele>121.26</ele>
        <time>2013-04-28T10:55:23Z</time>
      </trkpt>
      <trkpt lat="47.60409" lon="3.75503">
        <ele>121.26</ele>
        <time>2013-04-28T10:55:36Z</time>
      </trkpt>
      <trkpt lat="47.60409" lon="3.75503">
        <ele>121.26</ele>
        <time>2013-04-28T10:55:48Z</time>
      </trkpt>
      <trkpt lat="47.60409" lon="3.75504">
        <ele>120.78</ele>
        <time>2013-04-28T10:55:59Z</time>
      </trkpt>
      <trkpt lat="47.60409" lon="3.75504">
        <ele>120.78</ele>
        <time>2013-04-28T10:56:03Z</time>
      </trkpt>
      <trkpt lat="47.60413" lon="3.75506">
        <ele>120.3</ele>
        <time>2013-04-28T10:56:07Z</time>
      </trkpt>
      <trkpt lat="47.60419" lon="3.75505">
        <ele>120.3</ele>
        <time>2013-04-28T10:56:13Z</time>
      </trkpt>
      <trkpt lat="47.60434" lon="3.75493">
        <ele>119.82</ele>
        <time>2013-04-28T10:56:26Z</time>
      </trkpt>
      <trkpt lat="47.60437" lon="3.75491">
        <ele>119.82</ele>
        <time>2013-04-28T10:56:28Z</time>
      </trkpt>
      <trkpt lat="47.6044" lon="3.75487">
        <ele>120.3</ele>
        <time>2013-04-28T10:56:31Z</time>
      </trkpt>
      <trkpt lat="47.60442" lon="3.75485">
        <ele>120.3</ele>
        <time>2013-04-28T10:56:33Z</time>
      </trkpt>
      <trkpt lat="47.60445" lon="3.75482">
        <ele>120.78</ele>
        <time>2013-04-28T10:56:37Z</time>
      </trkpt>
      <trkpt lat="47.60448" lon="3.75478">
        <ele>121.26</ele>
        <time>2013-04-28T10:56:41Z</time>
      </trkpt>
      <trkpt lat="47.60452" lon="3.75473">
        <ele>121.26</ele>
        <time>2013-04-28T10:56:45Z</time>
      </trkpt>
      <trkpt lat="47.60452" lon="3.75463">
        <ele>122.22</ele>
        <time>2013-04-28T10:56:52Z</time>
      </trkpt>
      <trkpt lat="47.60453" lon="3.75461">
        <ele>122.22</ele>
        <time>2013-04-28T10:56:54Z</time>
      </trkpt>
      <trkpt lat="47.60453" lon="3.75458">
        <ele>122.71</ele>
        <time>2013-04-28T10:56:56Z</time>
      </trkpt>
      <trkpt lat="47.60451" lon="3.75446">
        <ele>124.15</ele>
        <time>2013-04-28T10:57:05Z</time>
      </trkpt>
      <trkpt lat="47.60448" lon="3.75427">
        <ele>124.63</ele>
        <time>2013-04-28T10:57:16Z</time>
      </trkpt>
      <trkpt lat="47.60448" lon="3.75426">
        <ele>124.15</ele>
        <time>2013-04-28T10:57:17Z</time>
      </trkpt>
      <trkpt lat="47.60447" lon="3.75413">
        <ele>125.11</ele>
        <time>2013-04-28T10:57:26Z</time>
      </trkpt>
      <trkpt lat="47.60444" lon="3.75407">
        <ele>125.59</ele>
        <time>2013-04-28T10:57:29Z</time>
      </trkpt>
      <trkpt lat="47.60444" lon="3.75403">
        <ele>125.59</ele>
        <time>2013-04-28T10:57:31Z</time>
      </trkpt>
      <trkpt lat="47.60443" lon="3.75394">
        <ele>126.07</ele>
        <time>2013-04-28T10:57:35Z</time>
      </trkpt>
      <trkpt lat="47.60443" lon="3.7539">
        <ele>126.55</ele>
        <time>2013-04-28T10:57:37Z</time>
      </trkpt>
      <trkpt lat="47.60443" lon="3.75384">
        <ele>127.03</ele>
        <time>2013-04-28T10:57:40Z</time>
      </trkpt>
      <trkpt lat="47.60441" lon="3.7537">
        <ele>127.51</ele>
        <time>2013-04-28T10:57:47Z</time>
      </trkpt>
      <trkpt lat="47.6044" lon="3.75364">
        <ele>127.99</ele>
        <time>2013-04-28T10:57:50Z</time>
      </trkpt>
      <trkpt lat="47.6044" lon="3.75355">
        <ele>127.99</ele>
        <time>2013-04-28T10:57:54Z</time>
      </trkpt>
      <trkpt lat="47.60436" lon="3.75336">
        <ele>128.95</ele>
        <time>2013-04-28T10:58:03Z</time>
      </trkpt>
      <trkpt lat="47.60435" lon="3.75334">
        <ele>128.95</ele>
        <time>2013-04-28T10:58:04Z</time>
      </trkpt>
      <trkpt lat="47.60434" lon="3.7533">
        <ele>129.43</ele>
        <time>2013-04-28T10:58:07Z</time>
      </trkpt>
      <trkpt lat="47.60432" lon="3.75319">
        <ele>129.92</ele>
        <time>2013-04-28T10:58:13Z</time>
      </trkpt>
      <trkpt lat="47.60424" lon="3.75306">
        <ele>129.92</ele>
        <time>2013-04-28T10:58:23Z</time>
      </trkpt>
      <trkpt lat="47.60414" lon="3.75296">
        <ele>130.4</ele>
        <time>2013-04-28T10:58:31Z</time>
      </trkpt>
      <trkpt lat="47.60401" lon="3.7529">
        <ele>129.92</ele>
        <time>2013-04-28T10:58:40Z</time>
      </trkpt>
      <trkpt lat="47.60393" lon="3.75289">
        <ele>129.92</ele>
        <time>2013-04-28T10:58:46Z</time>
      </trkpt>
      <trkpt lat="47.60384" lon="3.75294">
        <ele>129.43</ele>
        <time>2013-04-28T10:58:53Z</time>
      </trkpt>
      <trkpt lat="47.60371" lon="3.75303">
        <ele>130.4</ele>
        <time>2013-04-28T10:59:04Z</time>
      </trkpt>
      <trkpt lat="47.6037" lon="3.75303">
        <ele>130.4</ele>
        <time>2013-04-28T10:59:05Z</time>
      </trkpt>
      <trkpt lat="47.60368" lon="3.75305">
        <ele>130.4</ele>
        <time>2013-04-28T10:59:07Z</time>
      </trkpt>
      <trkpt lat="47.60356" lon="3.75309">
        <ele>130.4</ele>
        <time>2013-04-28T10:59:15Z</time>
      </trkpt>
      <trkpt lat="47.6035" lon="3.75316">
        <ele>130.88</ele>
        <time>2013-04-28T10:59:22Z</time>
      </trkpt>
      <trkpt lat="47.60346" lon="3.75318">
        <ele>130.4</ele>
        <time>2013-04-28T10:59:26Z</time>
      </trkpt>
      <trkpt lat="47.60336" lon="3.75325">
        <ele>130.88</ele>
        <time>2013-04-28T10:59:35Z</time>
      </trkpt>
      <trkpt lat="47.60331" lon="3.75327">
        <ele>130.4</ele>
        <time>2013-04-28T10:59:39Z</time>
      </trkpt>
      <trkpt lat="47.60329" lon="3.75329">
        <ele>130.88</ele>
        <time>2013-04-28T10:59:41Z</time>
      </trkpt>
      <trkpt lat="47.60319" lon="3.75335">
        <ele>130.4</ele>
        <time>2013-04-28T10:59:48Z</time>
      </trkpt>
      <trkpt lat="47.60313" lon="3.7534">
        <ele>130.4</ele>
        <time>2013-04-28T10:59:53Z</time>
      </trkpt>
      <trkpt lat="47.60301" lon="3.75347">
        <ele>130.4</ele>
        <time>2013-04-28T11:00:03Z</time>
      </trkpt>
      <trkpt lat="47.6029" lon="3.75352">
        <ele>130.4</ele>
        <time>2013-04-28T11:00:11Z</time>
      </trkpt>
      <trkpt lat="47.60289" lon="3.75352">
        <ele>130.4</ele>
        <time>2013-04-28T11:00:12Z</time>
      </trkpt>
      <trkpt lat="47.60272" lon="3.75362">
        <ele>130.88</ele>
        <time>2013-04-28T11:00:24Z</time>
      </trkpt>
      <trkpt lat="47.60262" lon="3.75369">
        <ele>131.36</ele>
        <time>2013-04-28T11:00:33Z</time>
      </trkpt>
      <trkpt lat="47.60261" lon="3.7537">
        <ele>131.36</ele>
        <time>2013-04-28T11:00:34Z</time>
      </trkpt>
      <trkpt lat="47.60248" lon="3.75379">
        <ele>131.84</ele>
        <time>2013-04-28T11:00:45Z</time>
      </trkpt>
      <trkpt lat="47.60242" lon="3.75381">
        <ele>132.32</ele>
        <time>2013-04-28T11:00:49Z</time>
      </trkpt>
      <trkpt lat="47.60232" lon="3.7539">
        <ele>132.8</ele>
        <time>2013-04-28T11:00:58Z</time>
      </trkpt>
      <trkpt lat="47.6023" lon="3.75393">
        <ele>132.8</ele>
        <time>2013-04-28T11:01:00Z</time>
      </trkpt>
      <trkpt lat="47.60217" lon="3.75405">
        <ele>134.24</ele>
        <time>2013-04-28T11:01:12Z</time>
      </trkpt>
      <trkpt lat="47.60212" lon="3.75414">
        <ele>134.24</ele>
        <time>2013-04-28T11:01:18Z</time>
      </trkpt>
      <trkpt lat="47.60204" lon="3.75423">
        <ele>134.24</ele>
        <time>2013-04-28T11:01:26Z</time>
      </trkpt>
      <trkpt lat="47.60199" lon="3.75433">
        <ele>134.24</ele>
        <time>2013-04-28T11:01:32Z</time>
      </trkpt>
      <trkpt lat="47.60195" lon="3.75438">
        <ele>133.76</ele>
        <time>2013-04-28T11:01:36Z</time>
      </trkpt>
      <trkpt lat="47.60182" lon="3.75451">
        <ele>133.28</ele>
        <time>2013-04-28T11:01:48Z</time>
      </trkpt>
      <trkpt lat="47.60179" lon="3.75458">
        <ele>132.8</ele>
        <time>2013-04-28T11:01:54Z</time>
      </trkpt>
      <trkpt lat="47.60178" lon="3.75462">
        <ele>132.32</ele>
        <time>2013-04-28T11:01:57Z</time>
      </trkpt>
      <trkpt lat="47.60174" lon="3.75471">
        <ele>131.36</ele>
        <time>2013-04-28T11:02:03Z</time>
      </trkpt>
      <trkpt lat="47.60166" lon="3.75489">
        <ele>130.4</ele>
        <time>2013-04-28T11:02:14Z</time>
      </trkpt>
      <trkpt lat="47.60162" lon="3.75495">
        <ele>129.92</ele>
        <time>2013-04-28T11:02:18Z</time>
      </trkpt>
      <trkpt lat="47.60157" lon="3.75506">
        <ele>128.95</ele>
        <time>2013-04-28T11:02:24Z</time>
      </trkpt>
      <trkpt lat="47.60151" lon="3.75513">
        <ele>127.99</ele>
        <time>2013-04-28T11:02:29Z</time>
      </trkpt>
      <trkpt lat="47.60147" lon="3.75518">
        <ele>127.03</ele>
        <time>2013-04-28T11:02:33Z</time>
      </trkpt>
      <trkpt lat="47.60138" lon="3.75527">
        <ele>127.51</ele>
        <time>2013-04-28T11:02:42Z</time>
      </trkpt>
      <trkpt lat="47.60126" lon="3.75529">
        <ele>127.51</ele>
        <time>2013-04-28T11:02:52Z</time>
      </trkpt>
      <trkpt lat="47.60119" lon="3.75536">
        <ele>127.99</ele>
        <time>2013-04-28T11:03:00Z</time>
      </trkpt>
      <trkpt lat="47.60109" lon="3.75547">
        <ele>128.95</ele>
        <time>2013-04-28T11:03:10Z</time>
      </trkpt>
      <trkpt lat="47.601" lon="3.75559">
        <ele>129.43</ele>
        <time>2013-04-28T11:03:20Z</time>
      </trkpt>
      <trkpt lat="47.60094" lon="3.7557">
        <ele>129.92</ele>
        <time>2013-04-28T11:03:28Z</time>
      </trkpt>
      <trkpt lat="47.60098" lon="3.75587">
        <ele>129.43</ele>
        <time>2013-04-28T11:03:40Z</time>
      </trkpt>
      <trkpt lat="47.60099" lon="3.75591">
        <ele>129.43</ele>
        <time>2013-04-28T11:03:43Z</time>
      </trkpt>
      <trkpt lat="47.60102" lon="3.75594">
        <ele>128.95</ele>
        <time>2013-04-28T11:03:46Z</time>
      </trkpt>
      <trkpt lat="47.60111" lon="3.7561">
        <ele>127.51</ele>
        <time>2013-04-28T11:03:58Z</time>
      </trkpt>
      <trkpt lat="47.60112" lon="3.75616">
        <ele>127.03</ele>
        <time>2013-04-28T11:04:02Z</time>
      </trkpt>
      <trkpt lat="47.60106" lon="3.75627">
        <ele>128.47</ele>
        <time>2013-04-28T11:04:11Z</time>
      </trkpt>
      <trkpt lat="47.60097" lon="3.75639">
        <ele>129.43</ele>
        <time>2013-04-28T11:04:21Z</time>
      </trkpt>
      <trkpt lat="47.6009" lon="3.75649">
        <ele>130.4</ele>
        <time>2013-04-28T11:04:31Z</time>
      </trkpt>
      <trkpt lat="47.60089" lon="3.7565">
        <ele>130.4</ele>
        <time>2013-04-28T11:04:32Z</time>
      </trkpt>
      <trkpt lat="47.6008" lon="3.75658">
        <ele>130.88</ele>
        <time>2013-04-28T11:04:42Z</time>
      </trkpt>
      <trkpt lat="47.60073" lon="3.75666">
        <ele>131.36</ele>
        <time>2013-04-28T11:04:49Z</time>
      </trkpt>
      <trkpt lat="47.60066" lon="3.75674">
        <ele>131.36</ele>
        <time>2013-04-28T11:04:56Z</time>
      </trkpt>
      <trkpt lat="47.60056" lon="3.75679">
        <ele>132.32</ele>
        <time>2013-04-28T11:05:05Z</time>
      </trkpt>
      <trkpt lat="47.60043" lon="3.75685">
        <ele>132.32</ele>
        <time>2013-04-28T11:05:17Z</time>
      </trkpt>
      <trkpt lat="47.60035" lon="3.7569">
        <ele>133.28</ele>
        <time>2013-04-28T11:05:26Z</time>
      </trkpt>
      <trkpt lat="47.60032" lon="3.7569">
        <ele>132.8</ele>
        <time>2013-04-28T11:05:28Z</time>
      </trkpt>
      <trkpt lat="47.60024" lon="3.75697">
        <ele>133.76</ele>
        <time>2013-04-28T11:05:36Z</time>
      </trkpt>
      <trkpt lat="47.60011" lon="3.7572">
        <ele>131.84</ele>
        <time>2013-04-28T11:05:49Z</time>
      </trkpt>
      <trkpt lat="47.6001" lon="3.75722">
        <ele>131.84</ele>
        <time>2013-04-28T11:05:50Z</time>
      </trkpt>
      <trkpt lat="47.60001" lon="3.75729">
        <ele>130.88</ele>
        <time>2013-04-28T11:05:58Z</time>
      </trkpt>
      <trkpt lat="47.59991" lon="3.75736">
        <ele>130.4</ele>
        <time>2013-04-28T11:06:08Z</time>
      </trkpt>
      <trkpt lat="47.59981" lon="3.75743">
        <ele>129.92</ele>
        <time>2013-04-28T11:06:18Z</time>
      </trkpt>
      <trkpt lat="47.59976" lon="3.75749">
        <ele>128.95</ele>
        <time>2013-04-28T11:06:23Z</time>
      </trkpt>
      <trkpt lat="47.59963" lon="3.75757">
        <ele>127.51</ele>
        <time>2013-04-28T11:06:35Z</time>
      </trkpt>
      <trkpt lat="47.59962" lon="3.75759">
        <ele>127.51</ele>
        <time>2013-04-28T11:06:36Z</time>
      </trkpt>
      <trkpt lat="47.59949" lon="3.75771">
        <ele>126.07</ele>
        <time>2013-04-28T11:06:45Z</time>
      </trkpt>
      <trkpt lat="47.59936" lon="3.75782">
        <ele>124.15</ele>
        <time>2013-04-28T11:06:54Z</time>
      </trkpt>
      <trkpt lat="47.59924" lon="3.75792">
        <ele>122.22</ele>
        <time>2013-04-28T11:07:05Z</time>
      </trkpt>
      <trkpt lat="47.59916" lon="3.75795">
        <ele>120.78</ele>
        <time>2013-04-28T11:07:12Z</time>
      </trkpt>
      <trkpt lat="47.59902" lon="3.75804">
        <ele>120.78</ele>
        <time>2013-04-28T11:07:24Z</time>
      </trkpt>
      <trkpt lat="47.59889" lon="3.75805">
        <ele>121.26</ele>
        <time>2013-04-28T11:07:33Z</time>
      </trkpt>
      <trkpt lat="47.59873" lon="3.75802">
        <ele>123.19</ele>
        <time>2013-04-28T11:07:43Z</time>
      </trkpt>
      <trkpt lat="47.59871" lon="3.75802">
        <ele>123.19</ele>
        <time>2013-04-28T11:07:44Z</time>
      </trkpt>
      <trkpt lat="47.59868" lon="3.75802">
        <ele>123.67</ele>
        <time>2013-04-28T11:07:47Z</time>
      </trkpt>
      <trkpt lat="47.59865" lon="3.75805">
        <ele>124.15</ele>
        <time>2013-04-28T11:07:49Z</time>
      </trkpt>
      <trkpt lat="47.5986" lon="3.7581">
        <ele>124.63</ele>
        <time>2013-04-28T11:07:54Z</time>
      </trkpt>
      <trkpt lat="47.59857" lon="3.75813">
        <ele>125.59</ele>
        <time>2013-04-28T11:07:57Z</time>
      </trkpt>
      <trkpt lat="47.59847" lon="3.75825">
        <ele>128.47</ele>
        <time>2013-04-28T11:08:09Z</time>
      </trkpt>
      <trkpt lat="47.59845" lon="3.75835">
        <ele>128.95</ele>
        <time>2013-04-28T11:08:14Z</time>
      </trkpt>
      <trkpt lat="47.59844" lon="3.75839">
        <ele>129.92</ele>
        <time>2013-04-28T11:08:16Z</time>
      </trkpt>
      <trkpt lat="47.59841" lon="3.75845">
        <ele>129.92</ele>
        <time>2013-04-28T11:08:20Z</time>
      </trkpt>
      <trkpt lat="47.59833" lon="3.75864">
        <ele>131.36</ele>
        <time>2013-04-28T11:08:31Z</time>
      </trkpt>
      <trkpt lat="47.59829" lon="3.7587">
        <ele>132.32</ele>
        <time>2013-04-28T11:08:36Z</time>
      </trkpt>
      <trkpt lat="47.59821" lon="3.75881">
        <ele>132.8</ele>
        <time>2013-04-28T11:08:45Z</time>
      </trkpt>
      <trkpt lat="47.59819" lon="3.75885">
        <ele>134.24</ele>
        <time>2013-04-28T11:08:48Z</time>
      </trkpt>
      <trkpt lat="47.59814" lon="3.75888">
        <ele>134.24</ele>
        <time>2013-04-28T11:08:52Z</time>
      </trkpt>
      <trkpt lat="47.59805" lon="3.75898">
        <ele>135.68</ele>
        <time>2013-04-28T11:09:02Z</time>
      </trkpt>
      <trkpt lat="47.59802" lon="3.75902">
        <ele>136.16</ele>
        <time>2013-04-28T11:09:05Z</time>
      </trkpt>
      <trkpt lat="47.59796" lon="3.75909">
        <ele>136.64</ele>
        <time>2013-04-28T11:09:11Z</time>
      </trkpt>
      <trkpt lat="47.59787" lon="3.75917">
        <ele>138.09</ele>
        <time>2013-04-28T11:09:20Z</time>
      </trkpt>
      <trkpt lat="47.59774" lon="3.75929">
        <ele>139.53</ele>
        <time>2013-04-28T11:09:31Z</time>
      </trkpt>
      <trkpt lat="47.59768" lon="3.75937">
        <ele>140.49</ele>
        <time>2013-04-28T11:09:37Z</time>
      </trkpt>
      <trkpt lat="47.59751" lon="3.75942">
        <ele>141.45</ele>
        <time>2013-04-28T11:09:48Z</time>
      </trkpt>
      <trkpt lat="47.59742" lon="3.75955">
        <ele>142.41</ele>
        <time>2013-04-28T11:09:57Z</time>
      </trkpt>
      <trkpt lat="47.59737" lon="3.75958">
        <ele>143.37</ele>
        <time>2013-04-28T11:10:01Z</time>
      </trkpt>
      <trkpt lat="47.59731" lon="3.75971">
        <ele>143.37</ele>
        <time>2013-04-28T11:10:09Z</time>
      </trkpt>
      <trkpt lat="47.59728" lon="3.75977">
        <ele>143.37</ele>
        <time>2013-04-28T11:10:13Z</time>
      </trkpt>
      <trkpt lat="47.59723" lon="3.75981">
        <ele>143.37</ele>
        <time>2013-04-28T11:10:17Z</time>
      </trkpt>
      <trkpt lat="47.59718" lon="3.75987">
        <ele>143.85</ele>
        <time>2013-04-28T11:10:21Z</time>
      </trkpt>
      <trkpt lat="47.59713" lon="3.75993">
        <ele>143.85</ele>
        <time>2013-04-28T11:10:25Z</time>
      </trkpt>
      <trkpt lat="47.59708" lon="3.75995">
        <ele>143.85</ele>
        <time>2013-04-28T11:10:29Z</time>
      </trkpt>
      <trkpt lat="47.59702" lon="3.76002">
        <ele>144.34</ele>
        <time>2013-04-28T11:10:35Z</time>
      </trkpt>
      <trkpt lat="47.59696" lon="3.76011">
        <ele>144.82</ele>
        <time>2013-04-28T11:10:41Z</time>
      </trkpt>
      <trkpt lat="47.59689" lon="3.76029">
        <ele>144.82</ele>
        <time>2013-04-28T11:10:50Z</time>
      </trkpt>
      <trkpt lat="47.59684" lon="3.76035">
        <ele>145.3</ele>
        <time>2013-04-28T11:10:55Z</time>
      </trkpt>
      <trkpt lat="47.59676" lon="3.7604">
        <ele>146.74</ele>
        <time>2013-04-28T11:11:03Z</time>
      </trkpt>
      <trkpt lat="47.59674" lon="3.76041">
        <ele>147.22</ele>
        <time>2013-04-28T11:11:05Z</time>
      </trkpt>
      <trkpt lat="47.59661" lon="3.76037">
        <ele>148.66</ele>
        <time>2013-04-28T11:11:16Z</time>
      </trkpt>
      <trkpt lat="47.59653" lon="3.76029">
        <ele>150.58</ele>
        <time>2013-04-28T11:11:25Z</time>
      </trkpt>
      <trkpt lat="47.59643" lon="3.76018">
        <ele>152.03</ele>
        <time>2013-04-28T11:11:37Z</time>
      </trkpt>
      <trkpt lat="47.5964" lon="3.76015">
        <ele>152.51</ele>
        <time>2013-04-28T11:11:40Z</time>
      </trkpt>
      <trkpt lat="47.59633" lon="3.76005">
        <ele>154.43</ele>
        <time>2013-04-28T11:11:50Z</time>
      </trkpt>
      <trkpt lat="47.5962" lon="3.75999">
        <ele>155.87</ele>
        <time>2013-04-28T11:11:59Z</time>
      </trkpt>
      <trkpt lat="47.59614" lon="3.75997">
        <ele>156.35</ele>
        <time>2013-04-28T11:12:02Z</time>
      </trkpt>
      <trkpt lat="47.59603" lon="3.75995">
        <ele>157.79</ele>
        <time>2013-04-28T11:12:09Z</time>
      </trkpt>
      <trkpt lat="47.596" lon="3.75995">
        <ele>158.27</ele>
        <time>2013-04-28T11:12:11Z</time>
      </trkpt>
      <trkpt lat="47.59591" lon="3.75997">
        <ele>159.72</ele>
        <time>2013-04-28T11:12:18Z</time>
      </trkpt>
      <trkpt lat="47.59577" lon="3.75991">
        <ele>161.16</ele>
        <time>2013-04-28T11:12:28Z</time>
      </trkpt>
      <trkpt lat="47.59568" lon="3.75987">
        <ele>161.64</ele>
        <time>2013-04-28T11:12:34Z</time>
      </trkpt>
      <trkpt lat="47.59564" lon="3.75987">
        <ele>162.12</ele>
        <time>2013-04-28T11:12:37Z</time>
      </trkpt>
      <trkpt lat="47.59558" lon="3.75987">
        <ele>162.6</ele>
        <time>2013-04-28T11:12:43Z</time>
      </trkpt>
      <trkpt lat="47.59555" lon="3.75988">
        <ele>162.6</ele>
        <time>2013-04-28T11:12:46Z</time>
      </trkpt>
      <trkpt lat="47.59546" lon="3.75986">
        <ele>164.04</ele>
        <time>2013-04-28T11:12:54Z</time>
      </trkpt>
      <trkpt lat="47.59534" lon="3.75977">
        <ele>165.48</ele>
        <time>2013-04-28T11:13:03Z</time>
      </trkpt>
      <trkpt lat="47.59532" lon="3.75976">
        <ele>165.48</ele>
        <time>2013-04-28T11:13:05Z</time>
      </trkpt>
      <trkpt lat="47.59525" lon="3.75973">
        <ele>166.45</ele>
        <time>2013-04-28T11:13:10Z</time>
      </trkpt>
      <trkpt lat="47.59514" lon="3.75966">
        <ele>167.89</ele>
        <time>2013-04-28T11:13:19Z</time>
      </trkpt>
      <trkpt lat="47.59501" lon="3.75955">
        <ele>168.85</ele>
        <time>2013-04-28T11:13:28Z</time>
      </trkpt>
      <trkpt lat="47.59494" lon="3.75952">
        <ele>169.81</ele>
        <time>2013-04-28T11:13:34Z</time>
      </trkpt>
      <trkpt lat="47.59482" lon="3.7594">
        <ele>171.25</ele>
        <time>2013-04-28T11:13:45Z</time>
      </trkpt>
      <trkpt lat="47.5947" lon="3.75927">
        <ele>171.73</ele>
        <time>2013-04-28T11:13:55Z</time>
      </trkpt>
      <trkpt lat="47.59459" lon="3.75915">
        <ele>173.17</ele>
        <time>2013-04-28T11:14:05Z</time>
      </trkpt>
      <trkpt lat="47.59447" lon="3.75902">
        <ele>174.14</ele>
        <time>2013-04-28T11:14:13Z</time>
      </trkpt>
      <trkpt lat="47.59437" lon="3.75891">
        <ele>176.06</ele>
        <time>2013-04-28T11:14:23Z</time>
      </trkpt>
      <trkpt lat="47.59424" lon="3.75881">
        <ele>176.54</ele>
        <time>2013-04-28T11:14:33Z</time>
      </trkpt>
      <trkpt lat="47.5942" lon="3.75879">
        <ele>176.54</ele>
        <time>2013-04-28T11:14:36Z</time>
      </trkpt>
      <trkpt lat="47.59404" lon="3.75865">
        <ele>177.5</ele>
        <time>2013-04-28T11:14:46Z</time>
      </trkpt>
      <trkpt lat="47.59392" lon="3.75854">
        <ele>177.98</ele>
        <time>2013-04-28T11:14:54Z</time>
      </trkpt>
      <trkpt lat="47.59382" lon="3.75847">
        <ele>178.94</ele>
        <time>2013-04-28T11:15:01Z</time>
      </trkpt>
      <trkpt lat="47.59367" lon="3.75836">
        <ele>178.94</ele>
        <time>2013-04-28T11:15:11Z</time>
      </trkpt>
      <trkpt lat="47.59363" lon="3.75834">
        <ele>179.42</ele>
        <time>2013-04-28T11:15:14Z</time>
      </trkpt>
      <trkpt lat="47.5935" lon="3.75821">
        <ele>179.9</ele>
        <time>2013-04-28T11:15:25Z</time>
      </trkpt>
      <trkpt lat="47.59338" lon="3.75811">
        <ele>180.38</ele>
        <time>2013-04-28T11:15:33Z</time>
      </trkpt>
      <trkpt lat="47.59326" lon="3.75802">
        <ele>180.87</ele>
        <time>2013-04-28T11:15:41Z</time>
      </trkpt>
      <trkpt lat="47.59312" lon="3.75794">
        <ele>181.35</ele>
        <time>2013-04-28T11:15:51Z</time>
      </trkpt>
      <trkpt lat="47.59296" lon="3.75782">
        <ele>181.83</ele>
        <time>2013-04-28T11:16:01Z</time>
      </trkpt>
      <trkpt lat="47.5928" lon="3.75772">
        <ele>181.35</ele>
        <time>2013-04-28T11:16:12Z</time>
      </trkpt>
      <trkpt lat="47.59278" lon="3.75771">
        <ele>181.35</ele>
        <time>2013-04-28T11:16:14Z</time>
      </trkpt>
      <trkpt lat="47.59262" lon="3.75761">
        <ele>181.35</ele>
        <time>2013-04-28T11:16:25Z</time>
      </trkpt>
      <trkpt lat="47.59248" lon="3.75751">
        <ele>181.35</ele>
        <time>2013-04-28T11:16:35Z</time>
      </trkpt>
      <trkpt lat="47.59236" lon="3.75739">
        <ele>181.35</ele>
        <time>2013-04-28T11:16:44Z</time>
      </trkpt>
      <trkpt lat="47.59225" lon="3.75724">
        <ele>181.83</ele>
        <time>2013-04-28T11:16:54Z</time>
      </trkpt>
      <trkpt lat="47.59218" lon="3.75711">
        <ele>181.35</ele>
        <time>2013-04-28T11:17:04Z</time>
      </trkpt>
      <trkpt lat="47.59206" lon="3.75693">
        <ele>181.83</ele>
        <time>2013-04-28T11:17:16Z</time>
      </trkpt>
      <trkpt lat="47.59194" lon="3.75674">
        <ele>182.31</ele>
        <time>2013-04-28T11:17:27Z</time>
      </trkpt>
      <trkpt lat="47.59187" lon="3.75662">
        <ele>182.31</ele>
        <time>2013-04-28T11:17:37Z</time>
      </trkpt>
      <trkpt lat="47.59173" lon="3.75638">
        <ele>182.31</ele>
        <time>2013-04-28T11:17:49Z</time>
      </trkpt>
      <trkpt lat="47.59162" lon="3.75623">
        <ele>183.27</ele>
        <time>2013-04-28T11:18:00Z</time>
      </trkpt>
      <trkpt lat="47.59161" lon="3.7562">
        <ele>183.27</ele>
        <time>2013-04-28T11:18:03Z</time>
      </trkpt>
      <trkpt lat="47.59153" lon="3.75607">
        <ele>183.75</ele>
        <time>2013-04-28T11:18:12Z</time>
      </trkpt>
      <trkpt lat="47.59147" lon="3.75599">
        <ele>183.75</ele>
        <time>2013-04-28T11:18:16Z</time>
      </trkpt>
      <trkpt lat="47.59134" lon="3.75577">
        <ele>184.23</ele>
        <time>2013-04-28T11:18:28Z</time>
      </trkpt>
      <trkpt lat="47.59126" lon="3.75562">
        <ele>183.75</ele>
        <time>2013-04-28T11:18:37Z</time>
      </trkpt>
      <trkpt lat="47.59119" lon="3.75547">
        <ele>183.75</ele>
        <time>2013-04-28T11:18:45Z</time>
      </trkpt>
      <trkpt lat="47.59115" lon="3.75527">
        <ele>184.23</ele>
        <time>2013-04-28T11:18:56Z</time>
      </trkpt>
      <trkpt lat="47.59108" lon="3.75509">
        <ele>183.75</ele>
        <time>2013-04-28T11:19:04Z</time>
      </trkpt>
      <trkpt lat="47.59104" lon="3.75491">
        <ele>184.23</ele>
        <time>2013-04-28T11:19:13Z</time>
      </trkpt>
      <trkpt lat="47.59104" lon="3.7549">
        <ele>184.23</ele>
        <time>2013-04-28T11:19:14Z</time>
      </trkpt>
      <trkpt lat="47.591" lon="3.75473">
        <ele>184.23</ele>
        <time>2013-04-28T11:19:22Z</time>
      </trkpt>
      <trkpt lat="47.59097" lon="3.75437">
        <ele>184.23</ele>
        <time>2013-04-28T11:19:38Z</time>
      </trkpt>
      <trkpt lat="47.59098" lon="3.75412">
        <ele>183.75</ele>
        <time>2013-04-28T11:19:50Z</time>
      </trkpt>
      <trkpt lat="47.59098" lon="3.75391">
        <ele>183.75</ele>
        <time>2013-04-28T11:20:00Z</time>
      </trkpt>
      <trkpt lat="47.59097" lon="3.75367">
        <ele>183.75</ele>
        <time>2013-04-28T11:20:10Z</time>
      </trkpt>
      <trkpt lat="47.59096" lon="3.75359">
        <ele>184.23</ele>
        <time>2013-04-28T11:20:14Z</time>
      </trkpt>
      <trkpt lat="47.59097" lon="3.75351">
        <ele>184.23</ele>
        <time>2013-04-28T11:20:18Z</time>
      </trkpt>
      <trkpt lat="47.59099" lon="3.75342">
        <ele>184.23</ele>
        <time>2013-04-28T11:20:22Z</time>
      </trkpt>
      <trkpt lat="47.59097" lon="3.75327">
        <ele>184.71</ele>
        <time>2013-04-28T11:20:31Z</time>
      </trkpt>
      <trkpt lat="47.59093" lon="3.75325">
        <ele>185.67</ele>
        <time>2013-04-28T11:20:34Z</time>
      </trkpt>
      <trkpt lat="47.59084" lon="3.75327">
        <ele>185.67</ele>
        <time>2013-04-28T11:20:40Z</time>
      </trkpt>
      <trkpt lat="47.59082" lon="3.75328">
        <ele>185.67</ele>
        <time>2013-04-28T11:20:42Z</time>
      </trkpt>
      <trkpt lat="47.59064" lon="3.75329">
        <ele>186.63</ele>
        <time>2013-04-28T11:20:54Z</time>
      </trkpt>
      <trkpt lat="47.59062" lon="3.7533">
        <ele>187.11</ele>
        <time>2013-04-28T11:20:55Z</time>
      </trkpt>
      <trkpt lat="47.59047" lon="3.75331">
        <ele>187.59</ele>
        <time>2013-04-28T11:21:05Z</time>
      </trkpt>
      <trkpt lat="47.59032" lon="3.75335">
        <ele>188.08</ele>
        <time>2013-04-28T11:21:16Z</time>
      </trkpt>
      <trkpt lat="47.59023" lon="3.75337">
        <ele>188.08</ele>
        <time>2013-04-28T11:21:22Z</time>
      </trkpt>
      <trkpt lat="47.5901" lon="3.75342">
        <ele>187.59</ele>
        <time>2013-04-28T11:21:31Z</time>
      </trkpt>
      <trkpt lat="47.58996" lon="3.75344">
        <ele>188.08</ele>
        <time>2013-04-28T11:21:40Z</time>
      </trkpt>
      <trkpt lat="47.58979" lon="3.75351">
        <ele>187.11</ele>
        <time>2013-04-28T11:21:52Z</time>
      </trkpt>
      <trkpt lat="47.58962" lon="3.75362">
        <ele>186.63</ele>
        <time>2013-04-28T11:22:05Z</time>
      </trkpt>
      <trkpt lat="47.58945" lon="3.75369">
        <ele>186.63</ele>
        <time>2013-04-28T11:22:16Z</time>
      </trkpt>
      <trkpt lat="47.58925" lon="3.75374">
        <ele>186.15</ele>
        <time>2013-04-28T11:22:30Z</time>
      </trkpt>
      <trkpt lat="47.58909" lon="3.75378">
        <ele>185.19</ele>
        <time>2013-04-28T11:22:41Z</time>
      </trkpt>
      <trkpt lat="47.58891" lon="3.75378">
        <ele>185.19</ele>
        <time>2013-04-28T11:22:52Z</time>
      </trkpt>
      <trkpt lat="47.58878" lon="3.75376">
        <ele>185.67</ele>
        <time>2013-04-28T11:23:01Z</time>
      </trkpt>
      <trkpt lat="47.58862" lon="3.75374">
        <ele>185.67</ele>
        <time>2013-04-28T11:23:10Z</time>
      </trkpt>
      <trkpt lat="47.58847" lon="3.75371">
        <ele>185.19</ele>
        <time>2013-04-28T11:23:19Z</time>
      </trkpt>
      <trkpt lat="47.58839" lon="3.75367">
        <ele>185.67</ele>
        <time>2013-04-28T11:23:28Z</time>
      </trkpt>
      <trkpt lat="47.58836" lon="3.75365">
        <ele>185.67</ele>
        <time>2013-04-28T11:23:37Z</time>
      </trkpt>
      <trkpt lat="47.58833" lon="3.75366">
        <ele>185.67</ele>
        <time>2013-04-28T11:23:40Z</time>
      </trkpt>
      <trkpt lat="47.58823" lon="3.75365">
        <ele>187.11</ele>
        <time>2013-04-28T11:23:46Z</time>
      </trkpt>
      <trkpt lat="47.58811" lon="3.75368">
        <ele>188.56</ele>
        <time>2013-04-28T11:23:56Z</time>
      </trkpt>
      <trkpt lat="47.58807" lon="3.75369">
        <ele>190</ele>
        <time>2013-04-28T11:24:00Z</time>
      </trkpt>
      <trkpt lat="47.58794" lon="3.75376">
        <ele>191.92</ele>
        <time>2013-04-28T11:24:11Z</time>
      </trkpt>
      <trkpt lat="47.58783" lon="3.7538">
        <ele>193.84</ele>
        <time>2013-04-28T11:24:21Z</time>
      </trkpt>
      <trkpt lat="47.58773" lon="3.75383">
        <ele>196.25</ele>
        <time>2013-04-28T11:24:29Z</time>
      </trkpt>
      <trkpt lat="47.58766" lon="3.75388">
        <ele>198.17</ele>
        <time>2013-04-28T11:24:38Z</time>
      </trkpt>
      <trkpt lat="47.58758" lon="3.75396">
        <ele>200.57</ele>
        <time>2013-04-28T11:24:46Z</time>
      </trkpt>
      <trkpt lat="47.58758" lon="3.75396">
        <ele>200.57</ele>
        <time>2013-04-28T11:24:47Z</time>
      </trkpt>
      <trkpt lat="47.58753" lon="3.75403">
        <ele>202.98</ele>
        <time>2013-04-28T11:24:58Z</time>
      </trkpt>
      <trkpt lat="47.58746" lon="3.75413">
        <ele>204.9</ele>
        <time>2013-04-28T11:25:06Z</time>
      </trkpt>
      <trkpt lat="47.58736" lon="3.75424">
        <ele>207.3</ele>
        <time>2013-04-28T11:25:15Z</time>
      </trkpt>
      <trkpt lat="47.58728" lon="3.7543">
        <ele>208.26</ele>
        <time>2013-04-28T11:25:22Z</time>
      </trkpt>
      <trkpt lat="47.58719" lon="3.75438">
        <ele>210.19</ele>
        <time>2013-04-28T11:25:30Z</time>
      </trkpt>
      <trkpt lat="47.58707" lon="3.75443">
        <ele>212.59</ele>
        <time>2013-04-28T11:25:40Z</time>
      </trkpt>
      <trkpt lat="47.58705" lon="3.75444">
        <ele>213.55</ele>
        <time>2013-04-28T11:25:43Z</time>
      </trkpt>
      <trkpt lat="47.58695" lon="3.75446">
        <ele>215.47</ele>
        <time>2013-04-28T11:25:52Z</time>
      </trkpt>
      <trkpt lat="47.5869" lon="3.75447">
        <ele>215.47</ele>
        <time>2013-04-28T11:25:55Z</time>
      </trkpt>
      <trkpt lat="47.58684" lon="3.75448">
        <ele>216.43</ele>
        <time>2013-04-28T11:26:00Z</time>
      </trkpt>
      <trkpt lat="47.58671" lon="3.75451">
        <ele>218.36</ele>
        <time>2013-04-28T11:26:10Z</time>
      </trkpt>
      <trkpt lat="47.58665" lon="3.7545">
        <ele>219.32</ele>
        <time>2013-04-28T11:26:15Z</time>
      </trkpt>
      <trkpt lat="47.58654" lon="3.75448">
        <ele>220.28</ele>
        <time>2013-04-28T11:26:24Z</time>
      </trkpt>
      <trkpt lat="47.58653" lon="3.75447">
        <ele>220.76</ele>
        <time>2013-04-28T11:26:25Z</time>
      </trkpt>
      <trkpt lat="47.5864" lon="3.75443">
        <ele>222.2</ele>
        <time>2013-04-28T11:26:35Z</time>
      </trkpt>
      <trkpt lat="47.58629" lon="3.75444">
        <ele>222.68</ele>
        <time>2013-04-28T11:26:43Z</time>
      </trkpt>
      <trkpt lat="47.58625" lon="3.75442">
        <ele>223.16</ele>
        <time>2013-04-28T11:26:46Z</time>
      </trkpt>
      <trkpt lat="47.58611" lon="3.7544">
        <ele>224.12</ele>
        <time>2013-04-28T11:26:55Z</time>
      </trkpt>
      <trkpt lat="47.58608" lon="3.7544">
        <ele>224.12</ele>
        <time>2013-04-28T11:26:57Z</time>
      </trkpt>
      <trkpt lat="47.58594" lon="3.75434">
        <ele>225.57</ele>
        <time>2013-04-28T11:27:09Z</time>
      </trkpt>
      <trkpt lat="47.58589" lon="3.75432">
        <ele>226.05</ele>
        <time>2013-04-28T11:27:13Z</time>
      </trkpt>
      <trkpt lat="47.58587" lon="3.75431">
        <ele>226.05</ele>
        <time>2013-04-28T11:27:14Z</time>
      </trkpt>
      <trkpt lat="47.58572" lon="3.75432">
        <ele>227.01</ele>
        <time>2013-04-28T11:27:24Z</time>
      </trkpt>
      <trkpt lat="47.58569" lon="3.75431">
        <ele>227.01</ele>
        <time>2013-04-28T11:27:26Z</time>
      </trkpt>
      <trkpt lat="47.58561" lon="3.75428">
        <ele>227.97</ele>
        <time>2013-04-28T11:27:38Z</time>
      </trkpt>
      <trkpt lat="47.58561" lon="3.75426">
        <ele>227.49</ele>
        <time>2013-04-28T11:27:55Z</time>
      </trkpt>
      <trkpt lat="47.58559" lon="3.75426">
        <ele>227.01</ele>
        <time>2013-04-28T11:28:12Z</time>
      </trkpt>
      <trkpt lat="47.58557" lon="3.75426">
        <ele>227.97</ele>
        <time>2013-04-28T11:28:20Z</time>
      </trkpt>
      <trkpt lat="47.58554" lon="3.75425">
        <ele>227.49</ele>
        <time>2013-04-28T11:28:24Z</time>
      </trkpt>
      <trkpt lat="47.58546" lon="3.75421">
        <ele>228.45</ele>
        <time>2013-04-28T11:28:32Z</time>
      </trkpt>
      <trkpt lat="47.58534" lon="3.75419">
        <ele>228.45</ele>
        <time>2013-04-28T11:28:41Z</time>
      </trkpt>
      <trkpt lat="47.58523" lon="3.75413">
        <ele>228.93</ele>
        <time>2013-04-28T11:28:50Z</time>
      </trkpt>
      <trkpt lat="47.58514" lon="3.75413">
        <ele>229.41</ele>
        <time>2013-04-28T11:28:56Z</time>
      </trkpt>
      <trkpt lat="47.58504" lon="3.75412">
        <ele>229.41</ele>
        <time>2013-04-28T11:29:03Z</time>
      </trkpt>
      <trkpt lat="47.58492" lon="3.75407">
        <ele>228.93</ele>
        <time>2013-04-28T11:29:12Z</time>
      </trkpt>
      <trkpt lat="47.58478" lon="3.75405">
        <ele>229.41</ele>
        <time>2013-04-28T11:29:22Z</time>
      </trkpt>
      <trkpt lat="47.58472" lon="3.75407">
        <ele>229.41</ele>
        <time>2013-04-28T11:29:27Z</time>
      </trkpt>
      <trkpt lat="47.58456" lon="3.7541">
        <ele>229.41</ele>
        <time>2013-04-28T11:29:37Z</time>
      </trkpt>
      <trkpt lat="47.58454" lon="3.7541">
        <ele>229.41</ele>
        <time>2013-04-28T11:29:39Z</time>
      </trkpt>
      <trkpt lat="47.58446" lon="3.75412">
        <ele>228.93</ele>
        <time>2013-04-28T11:29:44Z</time>
      </trkpt>
      <trkpt lat="47.58432" lon="3.75413">
        <ele>229.41</ele>
        <time>2013-04-28T11:29:53Z</time>
      </trkpt>
      <trkpt lat="47.5842" lon="3.75412">
        <ele>228.93</ele>
        <time>2013-04-28T11:30:01Z</time>
      </trkpt>
      <trkpt lat="47.58409" lon="3.75411">
        <ele>229.41</ele>
        <time>2013-04-28T11:30:08Z</time>
      </trkpt>
      <trkpt lat="47.58399" lon="3.75414">
        <ele>228.93</ele>
        <time>2013-04-28T11:30:17Z</time>
      </trkpt>
      <trkpt lat="47.58393" lon="3.75415">
        <ele>228.93</ele>
        <time>2013-04-28T11:30:22Z</time>
      </trkpt>
      <trkpt lat="47.58379" lon="3.75419">
        <ele>228.93</ele>
        <time>2013-04-28T11:30:33Z</time>
      </trkpt>
      <trkpt lat="47.58376" lon="3.7542">
        <ele>228.93</ele>
        <time>2013-04-28T11:30:35Z</time>
      </trkpt>
      <trkpt lat="47.58368" lon="3.75425">
        <ele>228.45</ele>
        <time>2013-04-28T11:30:44Z</time>
      </trkpt>
      <trkpt lat="47.58356" lon="3.75438">
        <ele>227.97</ele>
        <time>2013-04-28T11:30:54Z</time>
      </trkpt>
      <trkpt lat="47.58343" lon="3.75453">
        <ele>227.97</ele>
        <time>2013-04-28T11:31:05Z</time>
      </trkpt>
      <trkpt lat="47.58336" lon="3.75462">
        <ele>227.49</ele>
        <time>2013-04-28T11:31:09Z</time>
      </trkpt>
      <trkpt lat="47.58325" lon="3.75488">
        <ele>227.01</ele>
        <time>2013-04-28T11:31:18Z</time>
      </trkpt>
      <trkpt lat="47.58319" lon="3.755">
        <ele>227.01</ele>
        <time>2013-04-28T11:31:23Z</time>
      </trkpt>
      <trkpt lat="47.58311" lon="3.75527">
        <ele>225.57</ele>
        <time>2013-04-28T11:31:35Z</time>
      </trkpt>
      <trkpt lat="47.58311" lon="3.75529">
        <ele>226.05</ele>
        <time>2013-04-28T11:31:36Z</time>
      </trkpt>
      <trkpt lat="47.58303" lon="3.75546">
        <ele>225.57</ele>
        <time>2013-04-28T11:31:45Z</time>
      </trkpt>
      <trkpt lat="47.58301" lon="3.75551">
        <ele>225.57</ele>
        <time>2013-04-28T11:31:47Z</time>
      </trkpt>
      <trkpt lat="47.58298" lon="3.7557">
        <ele>225.57</ele>
        <time>2013-04-28T11:31:55Z</time>
      </trkpt>
      <trkpt lat="47.58295" lon="3.75583">
        <ele>226.05</ele>
        <time>2013-04-28T11:32:01Z</time>
      </trkpt>
      <trkpt lat="47.58291" lon="3.75594">
        <ele>226.05</ele>
        <time>2013-04-28T11:32:09Z</time>
      </trkpt>
      <trkpt lat="47.58287" lon="3.75603">
        <ele>226.05</ele>
        <time>2013-04-28T11:32:13Z</time>
      </trkpt>
      <trkpt lat="47.58284" lon="3.75609">
        <ele>226.05</ele>
        <time>2013-04-28T11:32:16Z</time>
      </trkpt>
      <trkpt lat="47.58279" lon="3.7562">
        <ele>226.53</ele>
        <time>2013-04-28T11:32:21Z</time>
      </trkpt>
      <trkpt lat="47.58268" lon="3.75638">
        <ele>227.01</ele>
        <time>2013-04-28T11:32:32Z</time>
      </trkpt>
      <trkpt lat="47.58265" lon="3.75643">
        <ele>227.01</ele>
        <time>2013-04-28T11:32:37Z</time>
      </trkpt>
      <trkpt lat="47.5827" lon="3.7565">
        <ele>225.57</ele>
        <time>2013-04-28T11:32:47Z</time>
      </trkpt>
      <trkpt lat="47.58273" lon="3.75658">
        <ele>225.09</ele>
        <time>2013-04-28T11:32:55Z</time>
      </trkpt>
      <trkpt lat="47.58275" lon="3.75665">
        <ele>225.09</ele>
        <time>2013-04-28T11:33:17Z</time>
      </trkpt>
      <trkpt lat="47.58274" lon="3.75667">
        <ele>224.61</ele>
        <time>2013-04-28T11:33:39Z</time>
      </trkpt>
      <trkpt lat="47.58272" lon="3.75665">
        <ele>225.57</ele>
        <time>2013-04-28T11:33:49Z</time>
      </trkpt>
      <trkpt lat="47.58268" lon="3.75661">
        <ele>226.53</ele>
        <time>2013-04-28T11:33:59Z</time>
      </trkpt>
      <trkpt lat="47.58264" lon="3.75657">
        <ele>226.53</ele>
        <time>2013-04-28T11:34:08Z</time>
      </trkpt>
      <trkpt lat="47.58252" lon="3.75657">
        <ele>226.05</ele>
        <time>2013-04-28T11:34:19Z</time>
      </trkpt>
      <trkpt lat="47.58247" lon="3.75662">
        <ele>225.09</ele>
        <time>2013-04-28T11:34:25Z</time>
      </trkpt>
      <trkpt lat="47.58239" lon="3.75673">
        <ele>224.12</ele>
        <time>2013-04-28T11:34:31Z</time>
      </trkpt>
      <trkpt lat="47.58234" lon="3.75678">
        <ele>224.12</ele>
        <time>2013-04-28T11:34:34Z</time>
      </trkpt>
      <trkpt lat="47.58224" lon="3.75686">
        <ele>223.64</ele>
        <time>2013-04-28T11:34:42Z</time>
      </trkpt>
      <trkpt lat="47.58213" lon="3.75696">
        <ele>221.72</ele>
        <time>2013-04-28T11:34:52Z</time>
      </trkpt>
      <trkpt lat="47.58202" lon="3.7571">
        <ele>220.28</ele>
        <time>2013-04-28T11:35:03Z</time>
      </trkpt>
      <trkpt lat="47.58191" lon="3.75725">
        <ele>217.4</ele>
        <time>2013-04-28T11:35:13Z</time>
      </trkpt>
      <trkpt lat="47.58176" lon="3.75743">
        <ele>216.43</ele>
        <time>2013-04-28T11:35:26Z</time>
      </trkpt>
      <trkpt lat="47.58167" lon="3.75758">
        <ele>216.91</ele>
        <time>2013-04-28T11:35:38Z</time>
      </trkpt>
      <trkpt lat="47.5816" lon="3.75768">
        <ele>212.59</ele>
        <time>2013-04-28T11:35:46Z</time>
      </trkpt>
      <trkpt lat="47.58159" lon="3.75769">
        <ele>212.59</ele>
        <time>2013-04-28T11:35:47Z</time>
      </trkpt>
      <trkpt lat="47.58158" lon="3.7577">
        <ele>215.95</ele>
        <time>2013-04-28T11:35:48Z</time>
      </trkpt>
      <trkpt lat="47.58156" lon="3.75774">
        <ele>211.15</ele>
        <time>2013-04-28T11:35:50Z</time>
      </trkpt>
      <trkpt lat="47.58155" lon="3.75775">
        <ele>212.11</ele>
        <time>2013-04-28T11:35:51Z</time>
      </trkpt>
      <trkpt lat="47.58154" lon="3.75777">
        <ele>216.43</ele>
        <time>2013-04-28T11:35:52Z</time>
      </trkpt>
      <trkpt lat="47.58153" lon="3.75778">
        <ele>211.63</ele>
        <time>2013-04-28T11:35:53Z</time>
      </trkpt>
      <trkpt lat="47.58142" lon="3.75793">
        <ele>212.11</ele>
        <time>2013-04-28T11:36:04Z</time>
      </trkpt>
      <trkpt lat="47.58128" lon="3.75817">
        <ele>211.15</ele>
        <time>2013-04-28T11:36:18Z</time>
      </trkpt>
      <trkpt lat="47.58118" lon="3.7583">
        <ele>210.67</ele>
        <time>2013-04-28T11:36:28Z</time>
      </trkpt>
      <trkpt lat="47.58116" lon="3.7584">
        <ele>210.67</ele>
        <time>2013-04-28T11:36:34Z</time>
      </trkpt>
      <trkpt lat="47.58114" lon="3.75845">
        <ele>214.99</ele>
        <time>2013-04-28T11:36:37Z</time>
      </trkpt>
      <trkpt lat="47.58113" lon="3.75847">
        <ele>211.15</ele>
        <time>2013-04-28T11:36:38Z</time>
      </trkpt>
      <trkpt lat="47.58104" lon="3.75863">
        <ele>209.22</ele>
        <time>2013-04-28T11:36:48Z</time>
      </trkpt>
      <trkpt lat="47.58099" lon="3.75878">
        <ele>209.22</ele>
        <time>2013-04-28T11:36:59Z</time>
      </trkpt>
      <trkpt lat="47.58099" lon="3.75888">
        <ele>208.26</ele>
        <time>2013-04-28T11:37:09Z</time>
      </trkpt>
      <trkpt lat="47.58099" lon="3.75909">
        <ele>207.3</ele>
        <time>2013-04-28T11:37:20Z</time>
      </trkpt>
      <trkpt lat="47.58099" lon="3.7591">
        <ele>207.78</ele>
        <time>2013-04-28T11:37:21Z</time>
      </trkpt>
      <trkpt lat="47.58097" lon="3.75929">
        <ele>206.82</ele>
        <time>2013-04-28T11:37:30Z</time>
      </trkpt>
      <trkpt lat="47.58096" lon="3.75932">
        <ele>207.78</ele>
        <time>2013-04-28T11:37:32Z</time>
      </trkpt>
      <trkpt lat="47.58096" lon="3.75934">
        <ele>204.42</ele>
        <time>2013-04-28T11:37:33Z</time>
      </trkpt>
      <trkpt lat="47.58095" lon="3.75937">
        <ele>206.82</ele>
        <time>2013-04-28T11:37:34Z</time>
      </trkpt>
      <trkpt lat="47.58095" lon="3.75957">
        <ele>205.86</ele>
        <time>2013-04-28T11:37:43Z</time>
      </trkpt>
      <trkpt lat="47.58092" lon="3.75974">
        <ele>205.86</ele>
        <time>2013-04-28T11:37:52Z</time>
      </trkpt>
      <trkpt lat="47.58086" lon="3.76006">
        <ele>204.9</ele>
        <time>2013-04-28T11:38:06Z</time>
      </trkpt>
      <trkpt lat="47.58086" lon="3.76017">
        <ele>205.38</ele>
        <time>2013-04-28T11:38:12Z</time>
      </trkpt>
      <trkpt lat="47.58083" lon="3.76038">
        <ele>205.38</ele>
        <time>2013-04-28T11:38:21Z</time>
      </trkpt>
      <trkpt lat="47.58076" lon="3.76063">
        <ele>205.38</ele>
        <time>2013-04-28T11:38:33Z</time>
      </trkpt>
      <trkpt lat="47.58076" lon="3.7607">
        <ele>205.38</ele>
        <time>2013-04-28T11:38:37Z</time>
      </trkpt>
      <trkpt lat="47.58077" lon="3.76082">
        <ele>202.98</ele>
        <time>2013-04-28T11:38:42Z</time>
      </trkpt>
      <trkpt lat="47.58076" lon="3.76085">
        <ele>207.78</ele>
        <time>2013-04-28T11:38:44Z</time>
      </trkpt>
      <trkpt lat="47.58076" lon="3.76087">
        <ele>203.46</ele>
        <time>2013-04-28T11:38:45Z</time>
      </trkpt>
      <trkpt lat="47.58075" lon="3.76107">
        <ele>203.94</ele>
        <time>2013-04-28T11:38:56Z</time>
      </trkpt>
      <trkpt lat="47.58073" lon="3.76129">
        <ele>202.98</ele>
        <time>2013-04-28T11:39:06Z</time>
      </trkpt>
      <trkpt lat="47.58074" lon="3.76149">
        <ele>202.01</ele>
        <time>2013-04-28T11:39:15Z</time>
      </trkpt>
      <trkpt lat="47.58069" lon="3.76171">
        <ele>200.57</ele>
        <time>2013-04-28T11:39:25Z</time>
      </trkpt>
      <trkpt lat="47.58067" lon="3.76183">
        <ele>200.09</ele>
        <time>2013-04-28T11:39:30Z</time>
      </trkpt>
      <trkpt lat="47.58065" lon="3.76194">
        <ele>200.09</ele>
        <time>2013-04-28T11:39:34Z</time>
      </trkpt>
      <trkpt lat="47.58064" lon="3.76212">
        <ele>198.65</ele>
        <time>2013-04-28T11:39:43Z</time>
      </trkpt>
      <trkpt lat="47.58063" lon="3.76227">
        <ele>197.69</ele>
        <time>2013-04-28T11:39:52Z</time>
      </trkpt>
      <trkpt lat="47.58063" lon="3.76253">
        <ele>196.73</ele>
        <time>2013-04-28T11:40:01Z</time>
      </trkpt>
      <trkpt lat="47.58062" lon="3.76268">
        <ele>195.77</ele>
        <time>2013-04-28T11:40:07Z</time>
      </trkpt>
      <trkpt lat="47.58062" lon="3.76273">
        <ele>195.28</ele>
        <time>2013-04-28T11:40:09Z</time>
      </trkpt>
      <trkpt lat="47.58058" lon="3.76296">
        <ele>193.36</ele>
        <time>2013-04-28T11:40:19Z</time>
      </trkpt>
      <trkpt lat="47.58054" lon="3.76306">
        <ele>192.4</ele>
        <time>2013-04-28T11:40:24Z</time>
      </trkpt>
      <trkpt lat="47.58048" lon="3.76311">
        <ele>191.92</ele>
        <time>2013-04-28T11:40:29Z</time>
      </trkpt>
      <trkpt lat="47.58036" lon="3.76324">
        <ele>189.52</ele>
        <time>2013-04-28T11:40:40Z</time>
      </trkpt>
      <trkpt lat="47.58034" lon="3.76324">
        <ele>189.52</ele>
        <time>2013-04-28T11:40:42Z</time>
      </trkpt>
      <trkpt lat="47.58031" lon="3.76323">
        <ele>188.56</ele>
        <time>2013-04-28T11:40:46Z</time>
      </trkpt>
      <trkpt lat="47.58029" lon="3.76323">
        <ele>188.08</ele>
        <time>2013-04-28T11:40:48Z</time>
      </trkpt>
      <trkpt lat="47.58021" lon="3.76323">
        <ele>187.59</ele>
        <time>2013-04-28T11:40:53Z</time>
      </trkpt>
      <trkpt lat="47.58012" lon="3.76322">
        <ele>187.59</ele>
        <time>2013-04-28T11:40:58Z</time>
      </trkpt>
      <trkpt lat="47.57997" lon="3.76315">
        <ele>187.59</ele>
        <time>2013-04-28T11:41:06Z</time>
      </trkpt>
      <trkpt lat="47.57994" lon="3.76312">
        <ele>187.59</ele>
        <time>2013-04-28T11:41:09Z</time>
      </trkpt>
      <trkpt lat="47.57991" lon="3.7631">
        <ele>187.11</ele>
        <time>2013-04-28T11:41:11Z</time>
      </trkpt>
      <trkpt lat="47.57979" lon="3.76318">
        <ele>188.08</ele>
        <time>2013-04-28T11:41:20Z</time>
      </trkpt>
      <trkpt lat="47.57978" lon="3.76321">
        <ele>188.56</ele>
        <time>2013-04-28T11:41:23Z</time>
      </trkpt>
      <trkpt lat="47.57976" lon="3.76328">
        <ele>189.04</ele>
        <time>2013-04-28T11:41:27Z</time>
      </trkpt>
      <trkpt lat="47.57975" lon="3.76349">
        <ele>188.56</ele>
        <time>2013-04-28T11:41:38Z</time>
      </trkpt>
      <trkpt lat="47.57977" lon="3.76363">
        <ele>188.08</ele>
        <time>2013-04-28T11:41:46Z</time>
      </trkpt>
      <trkpt lat="47.57977" lon="3.7638">
        <ele>188.08</ele>
        <time>2013-04-28T11:41:54Z</time>
      </trkpt>
      <trkpt lat="47.57975" lon="3.76389">
        <ele>187.11</ele>
        <time>2013-04-28T11:41:59Z</time>
      </trkpt>
      <trkpt lat="47.57976" lon="3.76405">
        <ele>184.71</ele>
        <time>2013-04-28T11:42:08Z</time>
      </trkpt>
      <trkpt lat="47.57977" lon="3.76407">
        <ele>191.92</ele>
        <time>2013-04-28T11:42:09Z</time>
      </trkpt>
      <trkpt lat="47.57977" lon="3.76408">
        <ele>188.08</ele>
        <time>2013-04-28T11:42:10Z</time>
      </trkpt>
      <trkpt lat="47.57977" lon="3.76417">
        <ele>188.56</ele>
        <time>2013-04-28T11:42:17Z</time>
      </trkpt>
      <trkpt lat="47.57976" lon="3.76422">
        <ele>187.11</ele>
        <time>2013-04-28T11:42:19Z</time>
      </trkpt>
      <trkpt lat="47.57977" lon="3.76438">
        <ele>186.63</ele>
        <time>2013-04-28T11:42:24Z</time>
      </trkpt>
      <trkpt lat="47.57977" lon="3.76449">
        <ele>186.15</ele>
        <time>2013-04-28T11:42:28Z</time>
      </trkpt>
      <trkpt lat="47.57983" lon="3.7647">
        <ele>184.23</ele>
        <time>2013-04-28T11:42:39Z</time>
      </trkpt>
      <trkpt lat="47.57987" lon="3.76491">
        <ele>183.27</ele>
        <time>2013-04-28T11:42:47Z</time>
      </trkpt>
      <trkpt lat="47.57991" lon="3.76499">
        <ele>182.79</ele>
        <time>2013-04-28T11:42:51Z</time>
      </trkpt>
      <trkpt lat="47.57995" lon="3.76526">
        <ele>180.87</ele>
        <time>2013-04-28T11:43:02Z</time>
      </trkpt>
      <trkpt lat="47.57995" lon="3.76528">
        <ele>180.38</ele>
        <time>2013-04-28T11:43:03Z</time>
      </trkpt>
      <trkpt lat="47.57998" lon="3.7655">
        <ele>178.94</ele>
        <time>2013-04-28T11:43:13Z</time>
      </trkpt>
      <trkpt lat="47.57998" lon="3.7656">
        <ele>177.98</ele>
        <time>2013-04-28T11:43:17Z</time>
      </trkpt>
      <trkpt lat="47.58" lon="3.76571">
        <ele>177.02</ele>
        <time>2013-04-28T11:43:22Z</time>
      </trkpt>
      <trkpt lat="47.57996" lon="3.76593">
        <ele>176.06</ele>
        <time>2013-04-28T11:43:31Z</time>
      </trkpt>
      <trkpt lat="47.57996" lon="3.76597">
        <ele>176.06</ele>
        <time>2013-04-28T11:43:33Z</time>
      </trkpt>
      <trkpt lat="47.57995" lon="3.76602">
        <ele>176.06</ele>
        <time>2013-04-28T11:43:36Z</time>
      </trkpt>
      <trkpt lat="47.57996" lon="3.76621">
        <ele>173.66</ele>
        <time>2013-04-28T11:43:47Z</time>
      </trkpt>
      <trkpt lat="47.57997" lon="3.76625">
        <ele>172.69</ele>
        <time>2013-04-28T11:43:51Z</time>
      </trkpt>
      <trkpt lat="47.5801" lon="3.76644">
        <ele>172.21</ele>
        <time>2013-04-28T11:44:00Z</time>
      </trkpt>
      <trkpt lat="47.58018" lon="3.76652">
        <ele>171.73</ele>
        <time>2013-04-28T11:44:07Z</time>
      </trkpt>
      <trkpt lat="47.58031" lon="3.76657">
        <ele>170.77</ele>
        <time>2013-04-28T11:44:16Z</time>
      </trkpt>
      <trkpt lat="47.58048" lon="3.7667">
        <ele>169.81</ele>
        <time>2013-04-28T11:44:25Z</time>
      </trkpt>
      <trkpt lat="47.58061" lon="3.76679">
        <ele>169.33</ele>
        <time>2013-04-28T11:44:33Z</time>
      </trkpt>
      <trkpt lat="47.58075" lon="3.76692">
        <ele>167.41</ele>
        <time>2013-04-28T11:44:46Z</time>
      </trkpt>
      <trkpt lat="47.58081" lon="3.76699">
        <ele>166.93</ele>
        <time>2013-04-28T11:44:51Z</time>
      </trkpt>
      <trkpt lat="47.58085" lon="3.76707">
        <ele>165.96</ele>
        <time>2013-04-28T11:44:55Z</time>
      </trkpt>
      <trkpt lat="47.58091" lon="3.76719">
        <ele>164.52</ele>
        <time>2013-04-28T11:45:03Z</time>
      </trkpt>
      <trkpt lat="47.58096" lon="3.76731">
        <ele>164.04</ele>
        <time>2013-04-28T11:45:10Z</time>
      </trkpt>
      <trkpt lat="47.58098" lon="3.76742">
        <ele>162.6</ele>
        <time>2013-04-28T11:45:17Z</time>
      </trkpt>
      <trkpt lat="47.58099" lon="3.76746">
        <ele>162.12</ele>
        <time>2013-04-28T11:45:19Z</time>
      </trkpt>
      <trkpt lat="47.58104" lon="3.76759">
        <ele>161.16</ele>
        <time>2013-04-28T11:45:26Z</time>
      </trkpt>
      <trkpt lat="47.58115" lon="3.76771">
        <ele>160.2</ele>
        <time>2013-04-28T11:45:36Z</time>
      </trkpt>
      <trkpt lat="47.58121" lon="3.76788">
        <ele>158.75</ele>
        <time>2013-04-28T11:45:45Z</time>
      </trkpt>
      <trkpt lat="47.58126" lon="3.76798">
        <ele>158.27</ele>
        <time>2013-04-28T11:45:52Z</time>
      </trkpt>
      <trkpt lat="47.58129" lon="3.76805">
        <ele>157.79</ele>
        <time>2013-04-28T11:45:56Z</time>
      </trkpt>
      <trkpt lat="47.58138" lon="3.76821">
        <ele>156.83</ele>
        <time>2013-04-28T11:46:04Z</time>
      </trkpt>
      <trkpt lat="47.58141" lon="3.7683">
        <ele>156.83</ele>
        <time>2013-04-28T11:46:08Z</time>
      </trkpt>
      <trkpt lat="47.58144" lon="3.76848">
        <ele>155.87</ele>
        <time>2013-04-28T11:46:16Z</time>
      </trkpt>
      <trkpt lat="47.58144" lon="3.76855">
        <ele>155.87</ele>
        <time>2013-04-28T11:46:19Z</time>
      </trkpt>
      <trkpt lat="47.58145" lon="3.76864">
        <ele>154.91</ele>
        <time>2013-04-28T11:46:26Z</time>
      </trkpt>
      <trkpt lat="47.58146" lon="3.7687">
        <ele>154.91</ele>
        <time>2013-04-28T11:46:29Z</time>
      </trkpt>
      <trkpt lat="47.58154" lon="3.76883">
        <ele>153.95</ele>
        <time>2013-04-28T11:46:37Z</time>
      </trkpt>
      <trkpt lat="47.58155" lon="3.76886">
        <ele>153.95</ele>
        <time>2013-04-28T11:46:39Z</time>
      </trkpt>
      <trkpt lat="47.5816" lon="3.76903">
        <ele>152.99</ele>
        <time>2013-04-28T11:46:46Z</time>
      </trkpt>
      <trkpt lat="47.58162" lon="3.76906">
        <ele>152.51</ele>
        <time>2013-04-28T11:46:57Z</time>
      </trkpt>
      <trkpt lat="47.58162" lon="3.76906">
        <ele>152.51</ele>
        <time>2013-04-28T11:47:07Z</time>
      </trkpt>
      <trkpt lat="47.58163" lon="3.7691">
        <ele>152.03</ele>
        <time>2013-04-28T11:47:16Z</time>
      </trkpt>
      <trkpt lat="47.58164" lon="3.76915">
        <ele>152.03</ele>
        <time>2013-04-28T11:47:19Z</time>
      </trkpt>
      <trkpt lat="47.58166" lon="3.76922">
        <ele>151.54</ele>
        <time>2013-04-28T11:47:25Z</time>
      </trkpt>
      <trkpt lat="47.58172" lon="3.7694">
        <ele>150.1</ele>
        <time>2013-04-28T11:47:37Z</time>
      </trkpt>
      <trkpt lat="47.58175" lon="3.76945">
        <ele>150.58</ele>
        <time>2013-04-28T11:47:44Z</time>
      </trkpt>
      <trkpt lat="47.58175" lon="3.76946">
        <ele>150.1</ele>
        <time>2013-04-28T11:47:46Z</time>
      </trkpt>
      <trkpt lat="47.58177" lon="3.7695">
        <ele>149.62</ele>
        <time>2013-04-28T11:47:49Z</time>
      </trkpt>
      <trkpt lat="47.5818" lon="3.76957">
        <ele>149.62</ele>
        <time>2013-04-28T11:47:54Z</time>
      </trkpt>
      <trkpt lat="47.58185" lon="3.76967">
        <ele>149.14</ele>
        <time>2013-04-28T11:48:02Z</time>
      </trkpt>
      <trkpt lat="47.58191" lon="3.76979">
        <ele>148.18</ele>
        <time>2013-04-28T11:48:10Z</time>
      </trkpt>
      <trkpt lat="47.58193" lon="3.7698">
        <ele>147.7</ele>
        <time>2013-04-28T11:48:12Z</time>
      </trkpt>
      <trkpt lat="47.58195" lon="3.76982">
        <ele>147.7</ele>
        <time>2013-04-28T11:48:14Z</time>
      </trkpt>
      <trkpt lat="47.58198" lon="3.76988">
        <ele>147.22</ele>
        <time>2013-04-28T11:48:19Z</time>
      </trkpt>
      <trkpt lat="47.58202" lon="3.76995">
        <ele>147.22</ele>
        <time>2013-04-28T11:48:24Z</time>
      </trkpt>
      <trkpt lat="47.58208" lon="3.77016">
        <ele>146.74</ele>
        <time>2013-04-28T11:48:33Z</time>
      </trkpt>
      <trkpt lat="47.58214" lon="3.77035">
        <ele>145.78</ele>
        <time>2013-04-28T11:48:42Z</time>
      </trkpt>
      <trkpt lat="47.58221" lon="3.77046">
        <ele>144.82</ele>
        <time>2013-04-28T11:48:51Z</time>
      </trkpt>
      <trkpt lat="47.58229" lon="3.77057">
        <ele>143.37</ele>
        <time>2013-04-28T11:49:00Z</time>
      </trkpt>
      <trkpt lat="47.58237" lon="3.77074">
        <ele>142.41</ele>
        <time>2013-04-28T11:49:10Z</time>
      </trkpt>
      <trkpt lat="47.58239" lon="3.77088">
        <ele>140.97</ele>
        <time>2013-04-28T11:49:16Z</time>
      </trkpt>
      <trkpt lat="47.58241" lon="3.77101">
        <ele>140.49</ele>
        <time>2013-04-28T11:49:21Z</time>
      </trkpt>
      <trkpt lat="47.58244" lon="3.7711">
        <ele>139.53</ele>
        <time>2013-04-28T11:49:25Z</time>
      </trkpt>
      <trkpt lat="47.58247" lon="3.77115">
        <ele>138.57</ele>
        <time>2013-04-28T11:49:30Z</time>
      </trkpt>
      <trkpt lat="47.58253" lon="3.77131">
        <ele>137.61</ele>
        <time>2013-04-28T11:49:40Z</time>
      </trkpt>
      <trkpt lat="47.58258" lon="3.77138">
        <ele>136.64</ele>
        <time>2013-04-28T11:49:45Z</time>
      </trkpt>
      <trkpt lat="47.58263" lon="3.77155">
        <ele>135.2</ele>
        <time>2013-04-28T11:49:54Z</time>
      </trkpt>
      <trkpt lat="47.58272" lon="3.77168">
        <ele>133.28</ele>
        <time>2013-04-28T11:50:03Z</time>
      </trkpt>
      <trkpt lat="47.58273" lon="3.77173">
        <ele>132.8</ele>
        <time>2013-04-28T11:50:05Z</time>
      </trkpt>
      <trkpt lat="47.58282" lon="3.77188">
        <ele>131.84</ele>
        <time>2013-04-28T11:50:14Z</time>
      </trkpt>
      <trkpt lat="47.58284" lon="3.7719">
        <ele>131.36</ele>
        <time>2013-04-28T11:50:15Z</time>
      </trkpt>
      <trkpt lat="47.58286" lon="3.77193">
        <ele>131.36</ele>
        <time>2013-04-28T11:50:17Z</time>
      </trkpt>
      <trkpt lat="47.58291" lon="3.77206">
        <ele>130.4</ele>
        <time>2013-04-28T11:50:26Z</time>
      </trkpt>
      <trkpt lat="47.58292" lon="3.77205">
        <ele>130.88</ele>
        <time>2013-04-28T11:50:34Z</time>
      </trkpt>
      <trkpt lat="47.58293" lon="3.77206">
        <ele>127.51</ele>
        <time>2013-04-28T11:50:51Z</time>
      </trkpt>
      <trkpt lat="47.58293" lon="3.77206">
        <ele>127.51</ele>
        <time>2013-04-28T11:50:52Z</time>
      </trkpt>
      <trkpt lat="47.58293" lon="3.77206">
        <ele>134.24</ele>
        <time>2013-04-28T11:50:53Z</time>
      </trkpt>
      <trkpt lat="47.58293" lon="3.77206">
        <ele>130.88</ele>
        <time>2013-04-28T11:50:54Z</time>
      </trkpt>
      <trkpt lat="47.58293" lon="3.77205">
        <ele>130.88</ele>
        <time>2013-04-28T11:51:09Z</time>
      </trkpt>
      <trkpt lat="47.58292" lon="3.77205">
        <ele>130.88</ele>
        <time>2013-04-28T11:51:31Z</time>
      </trkpt>
      <trkpt lat="47.58292" lon="3.77206">
        <ele>130.88</ele>
        <time>2013-04-28T11:51:56Z</time>
      </trkpt>
      <trkpt lat="47.58292" lon="3.77206">
        <ele>131.36</ele>
        <time>2013-04-28T11:52:21Z</time>
      </trkpt>
      <trkpt lat="47.58295" lon="3.77208">
        <ele>130.88</ele>
        <time>2013-04-28T11:52:31Z</time>
      </trkpt>
      <trkpt lat="47.58296" lon="3.77211">
        <ele>130.88</ele>
        <time>2013-04-28T11:52:34Z</time>
      </trkpt>
      <trkpt lat="47.58302" lon="3.77219">
        <ele>130.88</ele>
        <time>2013-04-28T11:52:42Z</time>
      </trkpt>
      <trkpt lat="47.58309" lon="3.77236">
        <ele>129.92</ele>
        <time>2013-04-28T11:52:50Z</time>
      </trkpt>
      <trkpt lat="47.58313" lon="3.77245">
        <ele>129.43</ele>
        <time>2013-04-28T11:52:56Z</time>
      </trkpt>
      <trkpt lat="47.58315" lon="3.77255">
        <ele>128.95</ele>
        <time>2013-04-28T11:53:01Z</time>
      </trkpt>
      <trkpt lat="47.58323" lon="3.77271">
        <ele>127.51</ele>
        <time>2013-04-28T11:53:13Z</time>
      </trkpt>
      <trkpt lat="47.58331" lon="3.77281">
        <ele>126.55</ele>
        <time>2013-04-28T11:53:22Z</time>
      </trkpt>
      <trkpt lat="47.58334" lon="3.77283">
        <ele>126.55</ele>
        <time>2013-04-28T11:53:24Z</time>
      </trkpt>
      <trkpt lat="47.58343" lon="3.77295">
        <ele>125.59</ele>
        <time>2013-04-28T11:53:35Z</time>
      </trkpt>
      <trkpt lat="47.58361" lon="3.77296">
        <ele>125.11</ele>
        <time>2013-04-28T11:53:48Z</time>
      </trkpt>
      <trkpt lat="47.58378" lon="3.77285">
        <ele>124.63</ele>
        <time>2013-04-28T11:53:58Z</time>
      </trkpt>
      <trkpt lat="47.58389" lon="3.77272">
        <ele>124.15</ele>
        <time>2013-04-28T11:54:07Z</time>
      </trkpt>
      <trkpt lat="47.58395" lon="3.77263">
        <ele>124.63</ele>
        <time>2013-04-28T11:54:13Z</time>
      </trkpt>
      <trkpt lat="47.58405" lon="3.77245">
        <ele>124.63</ele>
        <time>2013-04-28T11:54:23Z</time>
      </trkpt>
      <trkpt lat="47.58414" lon="3.77228">
        <ele>123.67</ele>
        <time>2013-04-28T11:54:35Z</time>
      </trkpt>
      <trkpt lat="47.58423" lon="3.77213">
        <ele>122.71</ele>
        <time>2013-04-28T11:54:46Z</time>
      </trkpt>
      <trkpt lat="47.58435" lon="3.77197">
        <ele>122.22</ele>
        <time>2013-04-28T11:54:57Z</time>
      </trkpt>
      <trkpt lat="47.58444" lon="3.77184">
        <ele>121.26</ele>
        <time>2013-04-28T11:55:06Z</time>
      </trkpt>
      <trkpt lat="47.5845" lon="3.77178">
        <ele>121.26</ele>
        <time>2013-04-28T11:55:15Z</time>
      </trkpt>
      <trkpt lat="47.58459" lon="3.7717">
        <ele>120.78</ele>
        <time>2013-04-28T11:55:24Z</time>
      </trkpt>
      <trkpt lat="47.58464" lon="3.77167">
        <ele>120.78</ele>
        <time>2013-04-28T11:55:28Z</time>
      </trkpt>
      <trkpt lat="47.58468" lon="3.77166">
        <ele>120.78</ele>
        <time>2013-04-28T11:55:32Z</time>
      </trkpt>
      <trkpt lat="47.5848" lon="3.77156">
        <ele>121.74</ele>
        <time>2013-04-28T11:55:40Z</time>
      </trkpt>
      <trkpt lat="47.58483" lon="3.77155">
        <ele>120.78</ele>
        <time>2013-04-28T11:55:42Z</time>
      </trkpt>
      <trkpt lat="47.58501" lon="3.77142">
        <ele>119.82</ele>
        <time>2013-04-28T11:55:55Z</time>
      </trkpt>
      <trkpt lat="47.58518" lon="3.77127">
        <ele>119.34</ele>
        <time>2013-04-28T11:56:06Z</time>
      </trkpt>
      <trkpt lat="47.5853" lon="3.77118">
        <ele>118.86</ele>
        <time>2013-04-28T11:56:15Z</time>
      </trkpt>
      <trkpt lat="47.58547" lon="3.77111">
        <ele>119.34</ele>
        <time>2013-04-28T11:56:27Z</time>
      </trkpt>
      <trkpt lat="47.58566" lon="3.77102">
        <ele>118.86</ele>
        <time>2013-04-28T11:56:39Z</time>
      </trkpt>
      <trkpt lat="47.58576" lon="3.77097">
        <ele>118.38</ele>
        <time>2013-04-28T11:56:47Z</time>
      </trkpt>
      <trkpt lat="47.58579" lon="3.77096">
        <ele>118.38</ele>
        <time>2013-04-28T11:56:50Z</time>
      </trkpt>
      <trkpt lat="47.58585" lon="3.77095">
        <ele>115.01</ele>
        <time>2013-04-28T11:56:54Z</time>
      </trkpt>
      <trkpt lat="47.58587" lon="3.77094">
        <ele>118.86</ele>
        <time>2013-04-28T11:56:55Z</time>
      </trkpt>
      <trkpt lat="47.58597" lon="3.77096">
        <ele>117.9</ele>
        <time>2013-04-28T11:57:03Z</time>
      </trkpt>
      <trkpt lat="47.58596" lon="3.77093">
        <ele>118.86</ele>
        <time>2013-04-28T11:57:10Z</time>
      </trkpt>
      <trkpt lat="47.58598" lon="3.77095">
        <ele>116.94</ele>
        <time>2013-04-28T11:57:18Z</time>
      </trkpt>
      <trkpt lat="47.58599" lon="3.77095">
        <ele>118.38</ele>
        <time>2013-04-28T11:57:19Z</time>
      </trkpt>
      <trkpt lat="47.586" lon="3.77102">
        <ele>117.9</ele>
        <time>2013-04-28T11:57:28Z</time>
      </trkpt>
      <trkpt lat="47.58601" lon="3.77117">
        <ele>117.9</ele>
        <time>2013-04-28T11:57:36Z</time>
      </trkpt>
      <trkpt lat="47.58599" lon="3.77139">
        <ele>117.9</ele>
        <time>2013-04-28T11:57:45Z</time>
      </trkpt>
      <trkpt lat="47.58595" lon="3.77159">
        <ele>118.38</ele>
        <time>2013-04-28T11:57:52Z</time>
      </trkpt>
      <trkpt lat="47.58592" lon="3.77173">
        <ele>120.3</ele>
        <time>2013-04-28T11:57:57Z</time>
      </trkpt>
      <trkpt lat="47.58591" lon="3.77179">
        <ele>118.38</ele>
        <time>2013-04-28T11:58:00Z</time>
      </trkpt>
      <trkpt lat="47.58583" lon="3.77206">
        <ele>119.34</ele>
        <time>2013-04-28T11:58:13Z</time>
      </trkpt>
      <trkpt lat="47.5858" lon="3.77218">
        <ele>118.86</ele>
        <time>2013-04-28T11:58:18Z</time>
      </trkpt>
      <trkpt lat="47.58574" lon="3.7724">
        <ele>119.34</ele>
        <time>2013-04-28T11:58:28Z</time>
      </trkpt>
      <trkpt lat="47.58568" lon="3.77263">
        <ele>119.82</ele>
        <time>2013-04-28T11:58:40Z</time>
      </trkpt>
      <trkpt lat="47.58559" lon="3.77284">
        <ele>119.82</ele>
        <time>2013-04-28T11:58:52Z</time>
      </trkpt>
      <trkpt lat="47.58552" lon="3.77304">
        <ele>120.3</ele>
        <time>2013-04-28T11:59:02Z</time>
      </trkpt>
      <trkpt lat="47.58544" lon="3.77321">
        <ele>120.3</ele>
        <time>2013-04-28T11:59:12Z</time>
      </trkpt>
      <trkpt lat="47.58541" lon="3.77327">
        <ele>120.3</ele>
        <time>2013-04-28T11:59:15Z</time>
      </trkpt>
      <trkpt lat="47.58533" lon="3.7734">
        <ele>120.3</ele>
        <time>2013-04-28T11:59:23Z</time>
      </trkpt>
      <trkpt lat="47.5852" lon="3.77362">
        <ele>120.78</ele>
        <time>2013-04-28T11:59:34Z</time>
      </trkpt>
      <trkpt lat="47.58512" lon="3.77376">
        <ele>121.26</ele>
        <time>2013-04-28T11:59:44Z</time>
      </trkpt>
      <trkpt lat="47.58515" lon="3.77376">
        <ele>120.78</ele>
        <time>2013-04-28T12:00:00Z</time>
      </trkpt>
      <trkpt lat="47.58515" lon="3.77374">
        <ele>121.26</ele>
        <time>2013-04-28T12:00:22Z</time>
      </trkpt>
      <trkpt lat="47.58514" lon="3.77375">
        <ele>121.74</ele>
        <time>2013-04-28T12:00:36Z</time>
      </trkpt>
      <trkpt lat="47.58505" lon="3.77388">
        <ele>121.26</ele>
        <time>2013-04-28T12:00:47Z</time>
      </trkpt>
      <trkpt lat="47.58502" lon="3.7739">
        <ele>121.26</ele>
        <time>2013-04-28T12:00:49Z</time>
      </trkpt>
      <trkpt lat="47.58493" lon="3.77401">
        <ele>121.74</ele>
        <time>2013-04-28T12:00:57Z</time>
      </trkpt>
      <trkpt lat="47.5848" lon="3.77415">
        <ele>121.26</ele>
        <time>2013-04-28T12:01:07Z</time>
      </trkpt>
      <trkpt lat="47.58475" lon="3.77421">
        <ele>121.74</ele>
        <time>2013-04-28T12:01:12Z</time>
      </trkpt>
      <trkpt lat="47.58468" lon="3.7743">
        <ele>122.22</ele>
        <time>2013-04-28T12:01:22Z</time>
      </trkpt>
      <trkpt lat="47.58461" lon="3.77437">
        <ele>122.22</ele>
        <time>2013-04-28T12:01:30Z</time>
      </trkpt>
      <trkpt lat="47.58454" lon="3.77447">
        <ele>122.22</ele>
        <time>2013-04-28T12:01:38Z</time>
      </trkpt>
      <trkpt lat="47.58453" lon="3.77449">
        <ele>122.22</ele>
        <time>2013-04-28T12:01:40Z</time>
      </trkpt>
      <trkpt lat="47.58449" lon="3.77455">
        <ele>122.71</ele>
        <time>2013-04-28T12:01:45Z</time>
      </trkpt>
      <trkpt lat="47.58433" lon="3.77471">
        <ele>122.71</ele>
        <time>2013-04-28T12:01:57Z</time>
      </trkpt>
      <trkpt lat="47.58424" lon="3.77483">
        <ele>123.19</ele>
        <time>2013-04-28T12:02:07Z</time>
      </trkpt>
      <trkpt lat="47.58423" lon="3.77484">
        <ele>122.71</ele>
        <time>2013-04-28T12:02:08Z</time>
      </trkpt>
      <trkpt lat="47.58418" lon="3.77493">
        <ele>123.19</ele>
        <time>2013-04-28T12:02:14Z</time>
      </trkpt>
      <trkpt lat="47.58404" lon="3.77508">
        <ele>123.19</ele>
        <time>2013-04-28T12:02:26Z</time>
      </trkpt>
      <trkpt lat="47.58395" lon="3.77513">
        <ele>122.71</ele>
        <time>2013-04-28T12:02:37Z</time>
      </trkpt>
      <trkpt lat="47.58385" lon="3.77516">
        <ele>122.71</ele>
        <time>2013-04-28T12:02:48Z</time>
      </trkpt>
      <trkpt lat="47.58376" lon="3.77521">
        <ele>122.71</ele>
        <time>2013-04-28T12:02:55Z</time>
      </trkpt>
      <trkpt lat="47.5837" lon="3.77522">
        <ele>122.22</ele>
        <time>2013-04-28T12:02:59Z</time>
      </trkpt>
      <trkpt lat="47.58348" lon="3.77531">
        <ele>122.22</ele>
        <time>2013-04-28T12:03:10Z</time>
      </trkpt>
      <trkpt lat="47.5834" lon="3.77536">
        <ele>122.22</ele>
        <time>2013-04-28T12:03:16Z</time>
      </trkpt>
      <trkpt lat="47.58328" lon="3.77539">
        <ele>121.74</ele>
        <time>2013-04-28T12:03:27Z</time>
      </trkpt>
      <trkpt lat="47.58312" lon="3.77539">
        <ele>121.74</ele>
        <time>2013-04-28T12:03:39Z</time>
      </trkpt>
      <trkpt lat="47.58301" lon="3.77536">
        <ele>121.74</ele>
        <time>2013-04-28T12:03:48Z</time>
      </trkpt>
      <trkpt lat="47.58289" lon="3.77536">
        <ele>121.26</ele>
        <time>2013-04-28T12:03:59Z</time>
      </trkpt>
      <trkpt lat="47.58281" lon="3.77537">
        <ele>121.26</ele>
        <time>2013-04-28T12:04:04Z</time>
      </trkpt>
      <trkpt lat="47.58274" lon="3.77539">
        <ele>121.26</ele>
        <time>2013-04-28T12:04:08Z</time>
      </trkpt>
      <trkpt lat="47.58252" lon="3.77555">
        <ele>120.78</ele>
        <time>2013-04-28T12:04:20Z</time>
      </trkpt>
      <trkpt lat="47.58245" lon="3.77557">
        <ele>120.3</ele>
        <time>2013-04-28T12:04:29Z</time>
      </trkpt>
      <trkpt lat="47.58241" lon="3.77562">
        <ele>120.78</ele>
        <time>2013-04-28T12:04:34Z</time>
      </trkpt>
      <trkpt lat="47.58238" lon="3.77567">
        <ele>120.78</ele>
        <time>2013-04-28T12:04:37Z</time>
      </trkpt>
      <trkpt lat="47.58232" lon="3.77569">
        <ele>120.3</ele>
        <time>2013-04-28T12:04:44Z</time>
      </trkpt>
      <trkpt lat="47.58229" lon="3.77573">
        <ele>119.82</ele>
        <time>2013-04-28T12:04:47Z</time>
      </trkpt>
      <trkpt lat="47.58224" lon="3.77578">
        <ele>120.3</ele>
        <time>2013-04-28T12:04:52Z</time>
      </trkpt>
      <trkpt lat="47.58212" lon="3.77589">
        <ele>120.3</ele>
        <time>2013-04-28T12:05:00Z</time>
      </trkpt>
      <trkpt lat="47.58211" lon="3.77591">
        <ele>120.3</ele>
        <time>2013-04-28T12:05:01Z</time>
      </trkpt>
      <trkpt lat="47.58207" lon="3.77593">
        <ele>120.3</ele>
        <time>2013-04-28T12:05:03Z</time>
      </trkpt>
      <trkpt lat="47.58197" lon="3.77599">
        <ele>120.3</ele>
        <time>2013-04-28T12:05:09Z</time>
      </trkpt>
      <trkpt lat="47.58194" lon="3.77601">
        <ele>120.3</ele>
        <time>2013-04-28T12:05:11Z</time>
      </trkpt>
      <trkpt lat="47.58182" lon="3.7761">
        <ele>120.3</ele>
        <time>2013-04-28T12:05:21Z</time>
      </trkpt>
      <trkpt lat="47.58172" lon="3.77613">
        <ele>120.3</ele>
        <time>2013-04-28T12:05:30Z</time>
      </trkpt>
      <trkpt lat="47.58159" lon="3.77621">
        <ele>120.78</ele>
        <time>2013-04-28T12:05:39Z</time>
      </trkpt>
      <trkpt lat="47.58156" lon="3.77623">
        <ele>120.78</ele>
        <time>2013-04-28T12:05:41Z</time>
      </trkpt>
      <trkpt lat="47.58139" lon="3.77632">
        <ele>120.78</ele>
        <time>2013-04-28T12:05:52Z</time>
      </trkpt>
      <trkpt lat="47.58131" lon="3.77634">
        <ele>120.78</ele>
        <time>2013-04-28T12:05:58Z</time>
      </trkpt>
      <trkpt lat="47.58118" lon="3.7764">
        <ele>121.26</ele>
        <time>2013-04-28T12:06:08Z</time>
      </trkpt>
      <trkpt lat="47.58111" lon="3.77642">
        <ele>121.26</ele>
        <time>2013-04-28T12:06:14Z</time>
      </trkpt>
      <trkpt lat="47.58101" lon="3.77643">
        <ele>121.26</ele>
        <time>2013-04-28T12:06:20Z</time>
      </trkpt>
      <trkpt lat="47.58086" lon="3.77646">
        <ele>120.78</ele>
        <time>2013-04-28T12:06:31Z</time>
      </trkpt>
      <trkpt lat="47.58071" lon="3.77648">
        <ele>120.78</ele>
        <time>2013-04-28T12:06:40Z</time>
      </trkpt>
      <trkpt lat="47.58056" lon="3.7765">
        <ele>121.26</ele>
        <time>2013-04-28T12:06:51Z</time>
      </trkpt>
      <trkpt lat="47.58044" lon="3.77645">
        <ele>121.26</ele>
        <time>2013-04-28T12:07:01Z</time>
      </trkpt>
      <trkpt lat="47.5803" lon="3.77646">
        <ele>121.26</ele>
        <time>2013-04-28T12:07:11Z</time>
      </trkpt>
      <trkpt lat="47.58027" lon="3.77646">
        <ele>121.26</ele>
        <time>2013-04-28T12:07:13Z</time>
      </trkpt>
      <trkpt lat="47.58005" lon="3.77646">
        <ele>121.26</ele>
        <time>2013-04-28T12:07:26Z</time>
      </trkpt>
      <trkpt lat="47.58002" lon="3.77646">
        <ele>121.26</ele>
        <time>2013-04-28T12:07:28Z</time>
      </trkpt>
      <trkpt lat="47.57986" lon="3.77642">
        <ele>121.74</ele>
        <time>2013-04-28T12:07:41Z</time>
      </trkpt>
      <trkpt lat="47.57974" lon="3.77645">
        <ele>121.74</ele>
        <time>2013-04-28T12:07:51Z</time>
      </trkpt>
      <trkpt lat="47.57971" lon="3.77648">
        <ele>121.74</ele>
        <time>2013-04-28T12:07:54Z</time>
      </trkpt>
      <trkpt lat="47.57956" lon="3.7765">
        <ele>121.74</ele>
        <time>2013-04-28T12:08:07Z</time>
      </trkpt>
      <trkpt lat="47.57951" lon="3.77653">
        <ele>121.26</ele>
        <time>2013-04-28T12:08:11Z</time>
      </trkpt>
      <trkpt lat="47.57947" lon="3.77659">
        <ele>121.74</ele>
        <time>2013-04-28T12:08:15Z</time>
      </trkpt>
      <trkpt lat="47.5793" lon="3.77669">
        <ele>121.26</ele>
        <time>2013-04-28T12:08:27Z</time>
      </trkpt>
      <trkpt lat="47.57915" lon="3.77678">
        <ele>121.26</ele>
        <time>2013-04-28T12:08:38Z</time>
      </trkpt>
      <trkpt lat="47.57906" lon="3.77682">
        <ele>121.26</ele>
        <time>2013-04-28T12:08:43Z</time>
      </trkpt>
      <trkpt lat="47.57895" lon="3.77686">
        <ele>121.26</ele>
        <time>2013-04-28T12:08:55Z</time>
      </trkpt>
      <trkpt lat="47.5789" lon="3.77689">
        <ele>121.26</ele>
        <time>2013-04-28T12:09:01Z</time>
      </trkpt>
      <trkpt lat="47.57881" lon="3.777">
        <ele>121.26</ele>
        <time>2013-04-28T12:09:07Z</time>
      </trkpt>
      <trkpt lat="47.57868" lon="3.77715">
        <ele>121.26</ele>
        <time>2013-04-28T12:09:17Z</time>
      </trkpt>
      <trkpt lat="47.57856" lon="3.77722">
        <ele>121.26</ele>
        <time>2013-04-28T12:09:26Z</time>
      </trkpt>
      <trkpt lat="47.57854" lon="3.77724">
        <ele>121.26</ele>
        <time>2013-04-28T12:09:28Z</time>
      </trkpt>
      <trkpt lat="47.5784" lon="3.77739">
        <ele>120.78</ele>
        <time>2013-04-28T12:09:39Z</time>
      </trkpt>
      <trkpt lat="47.57825" lon="3.77756">
        <ele>120.3</ele>
        <time>2013-04-28T12:09:49Z</time>
      </trkpt>
      <trkpt lat="47.57816" lon="3.77764">
        <ele>120.3</ele>
        <time>2013-04-28T12:09:59Z</time>
      </trkpt>
      <trkpt lat="47.57815" lon="3.77765">
        <ele>120.3</ele>
        <time>2013-04-28T12:10:00Z</time>
      </trkpt>
      <trkpt lat="47.57808" lon="3.77769">
        <ele>120.3</ele>
        <time>2013-04-28T12:10:05Z</time>
      </trkpt>
      <trkpt lat="47.578" lon="3.77775">
        <ele>120.3</ele>
        <time>2013-04-28T12:10:09Z</time>
      </trkpt>
      <trkpt lat="47.57781" lon="3.7778">
        <ele>120.78</ele>
        <time>2013-04-28T12:10:20Z</time>
      </trkpt>
      <trkpt lat="47.57772" lon="3.77779">
        <ele>120.78</ele>
        <time>2013-04-28T12:10:30Z</time>
      </trkpt>
      <trkpt lat="47.5777" lon="3.77779">
        <ele>120.78</ele>
        <time>2013-04-28T12:10:32Z</time>
      </trkpt>
      <trkpt lat="47.5776" lon="3.77777">
        <ele>120.78</ele>
        <time>2013-04-28T12:10:39Z</time>
      </trkpt>
      <trkpt lat="47.57747" lon="3.77774">
        <ele>120.78</ele>
        <time>2013-04-28T12:10:47Z</time>
      </trkpt>
      <trkpt lat="47.57738" lon="3.77778">
        <ele>121.26</ele>
        <time>2013-04-28T12:10:55Z</time>
      </trkpt>
      <trkpt lat="47.57726" lon="3.7778">
        <ele>121.74</ele>
        <time>2013-04-28T12:11:07Z</time>
      </trkpt>
      <trkpt lat="47.57716" lon="3.77783">
        <ele>120.3</ele>
        <time>2013-04-28T12:11:17Z</time>
      </trkpt>
      <trkpt lat="47.57712" lon="3.77783">
        <ele>123.19</ele>
        <time>2013-04-28T12:11:21Z</time>
      </trkpt>
      <trkpt lat="47.5771" lon="3.77785">
        <ele>121.26</ele>
        <time>2013-04-28T12:11:31Z</time>
      </trkpt>
      <trkpt lat="47.57709" lon="3.77784">
        <ele>121.26</ele>
        <time>2013-04-28T12:11:44Z</time>
      </trkpt>
      <trkpt lat="47.57708" lon="3.77784">
        <ele>121.74</ele>
        <time>2013-04-28T12:11:57Z</time>
      </trkpt>
      <trkpt lat="47.57711" lon="3.77781">
        <ele>121.26</ele>
        <time>2013-04-28T12:12:04Z</time>
      </trkpt>
      <trkpt lat="47.57717" lon="3.77779">
        <ele>121.26</ele>
        <time>2013-04-28T12:12:14Z</time>
      </trkpt>
      <trkpt lat="47.57719" lon="3.77781">
        <ele>121.74</ele>
        <time>2013-04-28T12:12:19Z</time>
      </trkpt>
      <trkpt lat="47.57733" lon="3.77783">
        <ele>121.26</ele>
        <time>2013-04-28T12:12:27Z</time>
      </trkpt>
      <trkpt lat="47.57741" lon="3.77786">
        <ele>121.74</ele>
        <time>2013-04-28T12:12:32Z</time>
      </trkpt>
      <trkpt lat="47.57744" lon="3.7779">
        <ele>121.74</ele>
        <time>2013-04-28T12:12:36Z</time>
      </trkpt>
      <trkpt lat="47.5775" lon="3.77796">
        <ele>121.74</ele>
        <time>2013-04-28T12:12:44Z</time>
      </trkpt>
      <trkpt lat="47.57751" lon="3.77796">
        <ele>121.26</ele>
        <time>2013-04-28T12:12:45Z</time>
      </trkpt>
      <trkpt lat="47.57756" lon="3.77801">
        <ele>121.74</ele>
        <time>2013-04-28T12:12:51Z</time>
      </trkpt>
      <trkpt lat="47.5776" lon="3.77807">
        <ele>121.74</ele>
        <time>2013-04-28T12:12:57Z</time>
      </trkpt>
      <trkpt lat="47.5777" lon="3.77821">
        <ele>121.74</ele>
        <time>2013-04-28T12:13:10Z</time>
      </trkpt>
      <trkpt lat="47.57775" lon="3.77829">
        <ele>121.26</ele>
        <time>2013-04-28T12:13:21Z</time>
      </trkpt>
      <trkpt lat="47.5778" lon="3.77839">
        <ele>122.22</ele>
        <time>2013-04-28T12:13:31Z</time>
      </trkpt>
      <trkpt lat="47.57785" lon="3.77846">
        <ele>125.11</ele>
        <time>2013-04-28T12:13:39Z</time>
      </trkpt>
      <trkpt lat="47.57786" lon="3.77847">
        <ele>125.11</ele>
        <time>2013-04-28T12:13:40Z</time>
      </trkpt>
      <trkpt lat="47.57789" lon="3.7785">
        <ele>122.22</ele>
        <time>2013-04-28T12:13:42Z</time>
      </trkpt>
      <trkpt lat="47.57792" lon="3.77854">
        <ele>125.11</ele>
        <time>2013-04-28T12:13:44Z</time>
      </trkpt>
      <trkpt lat="47.57793" lon="3.77857">
        <ele>121.74</ele>
        <time>2013-04-28T12:13:46Z</time>
      </trkpt>
      <trkpt lat="47.57803" lon="3.77868">
        <ele>125.11</ele>
        <time>2013-04-28T12:13:59Z</time>
      </trkpt>
      <trkpt lat="47.57826" lon="3.77891">
        <ele>123.67</ele>
        <time>2013-04-28T12:14:15Z</time>
      </trkpt>
      <trkpt lat="47.57847" lon="3.77901">
        <ele>124.63</ele>
        <time>2013-04-28T12:14:28Z</time>
      </trkpt>
      <trkpt lat="47.57847" lon="3.77901">
        <ele>124.63</ele>
        <time>2013-04-28T12:14:29Z</time>
      </trkpt>
      <trkpt lat="47.57837" lon="3.77894">
        <ele>124.15</ele>
        <time>2013-04-28T12:14:40Z</time>
      </trkpt>
      <trkpt lat="47.5783" lon="3.77883">
        <ele>123.19</ele>
        <time>2013-04-28T12:14:51Z</time>
      </trkpt>
      <trkpt lat="47.57826" lon="3.77879">
        <ele>127.03</ele>
        <time>2013-04-28T12:14:56Z</time>
      </trkpt>
      <trkpt lat="47.57826" lon="3.77879">
        <ele>123.67</ele>
        <time>2013-04-28T12:14:57Z</time>
      </trkpt>
      <trkpt lat="47.57817" lon="3.77868">
        <ele>123.19</ele>
        <time>2013-04-28T12:15:07Z</time>
      </trkpt>
      <trkpt lat="47.57807" lon="3.77856">
        <ele>122.22</ele>
        <time>2013-04-28T12:15:19Z</time>
      </trkpt>
      <trkpt lat="47.57791" lon="3.77836">
        <ele>122.22</ele>
        <time>2013-04-28T12:15:33Z</time>
      </trkpt>
      <trkpt lat="47.57776" lon="3.7782">
        <ele>121.74</ele>
        <time>2013-04-28T12:15:44Z</time>
      </trkpt>
      <trkpt lat="47.57758" lon="3.77806">
        <ele>121.74</ele>
        <time>2013-04-28T12:16:00Z</time>
      </trkpt>
      <trkpt lat="47.57748" lon="3.77798">
        <ele>121.74</ele>
        <time>2013-04-28T12:16:10Z</time>
      </trkpt>
      <trkpt lat="47.57734" lon="3.77783">
        <ele>121.74</ele>
        <time>2013-04-28T12:16:23Z</time>
      </trkpt>
      <trkpt lat="47.57733" lon="3.77782">
        <ele>122.22</ele>
        <time>2013-04-28T12:16:24Z</time>
      </trkpt>
      <trkpt lat="47.57712" lon="3.77783">
        <ele>122.22</ele>
        <time>2013-04-28T12:16:38Z</time>
      </trkpt>
      <trkpt lat="47.57695" lon="3.77788">
        <ele>122.22</ele>
        <time>2013-04-28T12:16:50Z</time>
      </trkpt>
      <trkpt lat="47.57693" lon="3.77789">
        <ele>122.71</ele>
        <time>2013-04-28T12:16:52Z</time>
      </trkpt>
      <trkpt lat="47.57685" lon="3.7779">
        <ele>122.71</ele>
        <time>2013-04-28T12:16:57Z</time>
      </trkpt>
      <trkpt lat="47.57673" lon="3.77787">
        <ele>122.71</ele>
        <time>2013-04-28T12:17:07Z</time>
      </trkpt>
      <trkpt lat="47.57671" lon="3.77786">
        <ele>122.71</ele>
        <time>2013-04-28T12:17:09Z</time>
      </trkpt>
      <trkpt lat="47.57669" lon="3.77785">
        <ele>123.19</ele>
        <time>2013-04-28T12:17:12Z</time>
      </trkpt>
      <trkpt lat="47.57661" lon="3.77777">
        <ele>123.19</ele>
        <time>2013-04-28T12:17:19Z</time>
      </trkpt>
      <trkpt lat="47.57649" lon="3.77767">
        <ele>123.67</ele>
        <time>2013-04-28T12:17:30Z</time>
      </trkpt>
      <trkpt lat="47.57649" lon="3.77767">
        <ele>123.67</ele>
        <time>2013-04-28T12:17:34Z</time>
      </trkpt>
      <trkpt lat="47.57638" lon="3.77754">
        <ele>123.67</ele>
        <time>2013-04-28T12:17:42Z</time>
      </trkpt>
      <trkpt lat="47.57624" lon="3.77738">
        <ele>124.15</ele>
        <time>2013-04-28T12:17:54Z</time>
      </trkpt>
      <trkpt lat="47.57621" lon="3.77727">
        <ele>124.15</ele>
        <time>2013-04-28T12:17:59Z</time>
      </trkpt>
      <trkpt lat="47.57621" lon="3.77708">
        <ele>123.67</ele>
        <time>2013-04-28T12:18:09Z</time>
      </trkpt>
      <trkpt lat="47.57625" lon="3.77692">
        <ele>124.15</ele>
        <time>2013-04-28T12:18:21Z</time>
      </trkpt>
      <trkpt lat="47.57625" lon="3.77691">
        <ele>124.15</ele>
        <time>2013-04-28T12:18:22Z</time>
      </trkpt>
      <trkpt lat="47.57626" lon="3.77687">
        <ele>124.15</ele>
        <time>2013-04-28T12:18:24Z</time>
      </trkpt>
      <trkpt lat="47.57631" lon="3.77673">
        <ele>124.63</ele>
        <time>2013-04-28T12:18:33Z</time>
      </trkpt>
      <trkpt lat="47.57636" lon="3.77663">
        <ele>124.63</ele>
        <time>2013-04-28T12:18:40Z</time>
      </trkpt>
      <trkpt lat="47.57647" lon="3.77643">
        <ele>124.63</ele>
        <time>2013-04-28T12:18:52Z</time>
      </trkpt>
      <trkpt lat="47.57649" lon="3.7764">
        <ele>124.63</ele>
        <time>2013-04-28T12:18:54Z</time>
      </trkpt>
      <trkpt lat="47.57656" lon="3.77625">
        <ele>124.63</ele>
        <time>2013-04-28T12:19:03Z</time>
      </trkpt>
      <trkpt lat="47.57668" lon="3.77603">
        <ele>124.63</ele>
        <time>2013-04-28T12:19:15Z</time>
      </trkpt>
      <trkpt lat="47.57673" lon="3.77594">
        <ele>125.11</ele>
        <time>2013-04-28T12:19:21Z</time>
      </trkpt>
      <trkpt lat="47.5768" lon="3.77579">
        <ele>125.11</ele>
        <time>2013-04-28T12:19:30Z</time>
      </trkpt>
      <trkpt lat="47.57679" lon="3.7757">
        <ele>125.59</ele>
        <time>2013-04-28T12:19:34Z</time>
      </trkpt>
      <trkpt lat="47.57675" lon="3.77564">
        <ele>125.11</ele>
        <time>2013-04-28T12:19:38Z</time>
      </trkpt>
      <trkpt lat="47.57663" lon="3.77564">
        <ele>125.11</ele>
        <time>2013-04-28T12:19:47Z</time>
      </trkpt>
      <trkpt lat="47.57653" lon="3.77568">
        <ele>124.63</ele>
        <time>2013-04-28T12:19:54Z</time>
      </trkpt>
      <trkpt lat="47.5764" lon="3.7757">
        <ele>124.63</ele>
        <time>2013-04-28T12:20:03Z</time>
      </trkpt>
      <trkpt lat="47.57635" lon="3.7757">
        <ele>124.63</ele>
        <time>2013-04-28T12:20:07Z</time>
      </trkpt>
      <trkpt lat="47.57618" lon="3.7757">
        <ele>124.63</ele>
        <time>2013-04-28T12:20:18Z</time>
      </trkpt>
      <trkpt lat="47.57604" lon="3.77569">
        <ele>124.63</ele>
        <time>2013-04-28T12:20:28Z</time>
      </trkpt>
      <trkpt lat="47.57588" lon="3.77572">
        <ele>124.63</ele>
        <time>2013-04-28T12:20:40Z</time>
      </trkpt>
      <trkpt lat="47.57572" lon="3.77569">
        <ele>124.63</ele>
        <time>2013-04-28T12:20:51Z</time>
      </trkpt>
      <trkpt lat="47.57552" lon="3.77569">
        <ele>124.63</ele>
        <time>2013-04-28T12:21:03Z</time>
      </trkpt>
      <trkpt lat="47.57541" lon="3.7757">
        <ele>125.11</ele>
        <time>2013-04-28T12:21:11Z</time>
      </trkpt>
      <trkpt lat="47.57527" lon="3.77568">
        <ele>125.11</ele>
        <time>2013-04-28T12:21:22Z</time>
      </trkpt>
      <trkpt lat="47.57518" lon="3.77572">
        <ele>125.11</ele>
        <time>2013-04-28T12:21:28Z</time>
      </trkpt>
      <trkpt lat="47.57498" lon="3.77585">
        <ele>125.11</ele>
        <time>2013-04-28T12:21:40Z</time>
      </trkpt>
      <trkpt lat="47.57485" lon="3.77592">
        <ele>125.59</ele>
        <time>2013-04-28T12:21:49Z</time>
      </trkpt>
      <trkpt lat="47.57464" lon="3.77595">
        <ele>125.59</ele>
        <time>2013-04-28T12:22:01Z</time>
      </trkpt>
      <trkpt lat="47.57451" lon="3.77599">
        <ele>126.07</ele>
        <time>2013-04-28T12:22:10Z</time>
      </trkpt>
      <trkpt lat="47.57436" lon="3.77603">
        <ele>126.55</ele>
        <time>2013-04-28T12:22:20Z</time>
      </trkpt>
      <trkpt lat="47.57422" lon="3.7761">
        <ele>126.55</ele>
        <time>2013-04-28T12:22:31Z</time>
      </trkpt>
      <trkpt lat="47.57406" lon="3.77618">
        <ele>127.03</ele>
        <time>2013-04-28T12:22:42Z</time>
      </trkpt>
      <trkpt lat="47.57393" lon="3.77626">
        <ele>127.03</ele>
        <time>2013-04-28T12:22:53Z</time>
      </trkpt>
      <trkpt lat="47.57379" lon="3.77635">
        <ele>127.51</ele>
        <time>2013-04-28T12:23:03Z</time>
      </trkpt>
      <trkpt lat="47.57365" lon="3.77645">
        <ele>127.99</ele>
        <time>2013-04-28T12:23:13Z</time>
      </trkpt>
      <trkpt lat="47.57352" lon="3.77655">
        <ele>128.47</ele>
        <time>2013-04-28T12:23:23Z</time>
      </trkpt>
      <trkpt lat="47.57342" lon="3.77662">
        <ele>128.95</ele>
        <time>2013-04-28T12:23:31Z</time>
      </trkpt>
      <trkpt lat="47.57338" lon="3.77664">
        <ele>129.43</ele>
        <time>2013-04-28T12:23:36Z</time>
      </trkpt>
      <trkpt lat="47.57325" lon="3.77676">
        <ele>128.95</ele>
        <time>2013-04-28T12:23:47Z</time>
      </trkpt>
      <trkpt lat="47.57316" lon="3.77683">
        <ele>129.43</ele>
        <time>2013-04-28T12:23:56Z</time>
      </trkpt>
      <trkpt lat="47.57304" lon="3.77692">
        <ele>129.92</ele>
        <time>2013-04-28T12:24:05Z</time>
      </trkpt>
      <trkpt lat="47.57292" lon="3.77701">
        <ele>129.92</ele>
        <time>2013-04-28T12:24:15Z</time>
      </trkpt>
      <trkpt lat="47.57291" lon="3.77701">
        <ele>130.4</ele>
        <time>2013-04-28T12:24:16Z</time>
      </trkpt>
      <trkpt lat="47.57278" lon="3.77707">
        <ele>130.88</ele>
        <time>2013-04-28T12:24:26Z</time>
      </trkpt>
      <trkpt lat="47.57265" lon="3.77716">
        <ele>131.36</ele>
        <time>2013-04-28T12:24:35Z</time>
      </trkpt>
      <trkpt lat="47.57249" lon="3.77726">
        <ele>131.84</ele>
        <time>2013-04-28T12:24:47Z</time>
      </trkpt>
      <trkpt lat="47.57235" lon="3.77738">
        <ele>133.28</ele>
        <time>2013-04-28T12:24:59Z</time>
      </trkpt>
      <trkpt lat="47.57221" lon="3.77748">
        <ele>134.24</ele>
        <time>2013-04-28T12:25:10Z</time>
      </trkpt>
      <trkpt lat="47.57209" lon="3.77756">
        <ele>135.2</ele>
        <time>2013-04-28T12:25:20Z</time>
      </trkpt>
      <trkpt lat="47.57195" lon="3.77763">
        <ele>136.16</ele>
        <time>2013-04-28T12:25:30Z</time>
      </trkpt>
      <trkpt lat="47.57192" lon="3.77762">
        <ele>136.64</ele>
        <time>2013-04-28T12:25:32Z</time>
      </trkpt>
      <trkpt lat="47.57183" lon="3.77756">
        <ele>137.13</ele>
        <time>2013-04-28T12:25:42Z</time>
      </trkpt>
      <trkpt lat="47.57183" lon="3.77755">
        <ele>137.13</ele>
        <time>2013-04-28T12:25:43Z</time>
      </trkpt>
      <trkpt lat="47.57179" lon="3.77748">
        <ele>137.61</ele>
        <time>2013-04-28T12:25:47Z</time>
      </trkpt>
      <trkpt lat="47.57173" lon="3.77733">
        <ele>138.09</ele>
        <time>2013-04-28T12:25:58Z</time>
      </trkpt>
      <trkpt lat="47.57172" lon="3.77732">
        <ele>138.09</ele>
        <time>2013-04-28T12:26:01Z</time>
      </trkpt>
      <trkpt lat="47.57169" lon="3.77726">
        <ele>137.61</ele>
        <time>2013-04-28T12:26:05Z</time>
      </trkpt>
      <trkpt lat="47.57168" lon="3.77724">
        <ele>138.09</ele>
        <time>2013-04-28T12:26:07Z</time>
      </trkpt>
      <trkpt lat="47.57157" lon="3.77703">
        <ele>139.05</ele>
        <time>2013-04-28T12:26:20Z</time>
      </trkpt>
      <trkpt lat="47.57152" lon="3.77694">
        <ele>139.53</ele>
        <time>2013-04-28T12:26:25Z</time>
      </trkpt>
      <trkpt lat="47.5715" lon="3.77688">
        <ele>140.01</ele>
        <time>2013-04-28T12:26:29Z</time>
      </trkpt>
      <trkpt lat="47.57146" lon="3.77682">
        <ele>140.01</ele>
        <time>2013-04-28T12:26:33Z</time>
      </trkpt>
      <trkpt lat="47.57136" lon="3.77671">
        <ele>141.93</ele>
        <time>2013-04-28T12:26:44Z</time>
      </trkpt>
      <trkpt lat="47.57128" lon="3.77663">
        <ele>144.34</ele>
        <time>2013-04-28T12:26:54Z</time>
      </trkpt>
      <trkpt lat="47.57122" lon="3.77651">
        <ele>146.74</ele>
        <time>2013-04-28T12:27:06Z</time>
      </trkpt>
      <trkpt lat="47.57114" lon="3.77635">
        <ele>148.18</ele>
        <time>2013-04-28T12:27:17Z</time>
      </trkpt>
      <trkpt lat="47.57105" lon="3.77628">
        <ele>148.66</ele>
        <time>2013-04-28T12:27:23Z</time>
      </trkpt>
      <trkpt lat="47.57092" lon="3.77621">
        <ele>151.54</ele>
        <time>2013-04-28T12:27:35Z</time>
      </trkpt>
      <trkpt lat="47.5708" lon="3.77623">
        <ele>152.99</ele>
        <time>2013-04-28T12:27:43Z</time>
      </trkpt>
      <trkpt lat="47.57067" lon="3.77628">
        <ele>154.91</ele>
        <time>2013-04-28T12:27:54Z</time>
      </trkpt>
      <trkpt lat="47.5706" lon="3.77627">
        <ele>157.31</ele>
        <time>2013-04-28T12:28:05Z</time>
      </trkpt>
      <trkpt lat="47.57052" lon="3.77626">
        <ele>158.75</ele>
        <time>2013-04-28T12:28:12Z</time>
      </trkpt>
      <trkpt lat="47.57039" lon="3.77631">
        <ele>160.68</ele>
        <time>2013-04-28T12:28:22Z</time>
      </trkpt>
      <trkpt lat="47.57026" lon="3.77635">
        <ele>162.6</ele>
        <time>2013-04-28T12:28:32Z</time>
      </trkpt>
      <trkpt lat="47.57025" lon="3.77635">
        <ele>162.6</ele>
        <time>2013-04-28T12:28:33Z</time>
      </trkpt>
      <trkpt lat="47.57015" lon="3.77631">
        <ele>164.52</ele>
        <time>2013-04-28T12:28:41Z</time>
      </trkpt>
      <trkpt lat="47.57011" lon="3.77625">
        <ele>165</ele>
        <time>2013-04-28T12:28:46Z</time>
      </trkpt>
      <trkpt lat="47.57007" lon="3.77616">
        <ele>165.96</ele>
        <time>2013-04-28T12:28:52Z</time>
      </trkpt>
      <trkpt lat="47.57002" lon="3.77604">
        <ele>167.89</ele>
        <time>2013-04-28T12:29:02Z</time>
      </trkpt>
      <trkpt lat="47.56999" lon="3.77587">
        <ele>170.29</ele>
        <time>2013-04-28T12:29:13Z</time>
      </trkpt>
      <trkpt lat="47.56998" lon="3.77583">
        <ele>170.29</ele>
        <time>2013-04-28T12:29:15Z</time>
      </trkpt>
      <trkpt lat="47.57002" lon="3.77567">
        <ele>172.21</ele>
        <time>2013-04-28T12:29:25Z</time>
      </trkpt>
      <trkpt lat="47.57002" lon="3.77552">
        <ele>173.66</ele>
        <time>2013-04-28T12:29:36Z</time>
      </trkpt>
      <trkpt lat="47.57003" lon="3.77539">
        <ele>174.62</ele>
        <time>2013-04-28T12:29:45Z</time>
      </trkpt>
      <trkpt lat="47.57003" lon="3.77538">
        <ele>174.62</ele>
        <time>2013-04-28T12:29:46Z</time>
      </trkpt>
      <trkpt lat="47.57005" lon="3.7751">
        <ele>177.02</ele>
        <time>2013-04-28T12:29:59Z</time>
      </trkpt>
      <trkpt lat="47.57004" lon="3.77505">
        <ele>177.02</ele>
        <time>2013-04-28T12:30:01Z</time>
      </trkpt>
      <trkpt lat="47.57004" lon="3.77488">
        <ele>178.46</ele>
        <time>2013-04-28T12:30:12Z</time>
      </trkpt>
      <trkpt lat="47.57003" lon="3.77477">
        <ele>179.42</ele>
        <time>2013-04-28T12:30:20Z</time>
      </trkpt>
      <trkpt lat="47.57002" lon="3.77462">
        <ele>181.83</ele>
        <time>2013-04-28T12:30:31Z</time>
      </trkpt>
      <trkpt lat="47.57001" lon="3.77458">
        <ele>181.83</ele>
        <time>2013-04-28T12:30:33Z</time>
      </trkpt>
      <trkpt lat="47.56999" lon="3.77453">
        <ele>181.83</ele>
        <time>2013-04-28T12:30:35Z</time>
      </trkpt>
      <trkpt lat="47.56995" lon="3.77433">
        <ele>183.75</ele>
        <time>2013-04-28T12:30:46Z</time>
      </trkpt>
      <trkpt lat="47.56991" lon="3.77417">
        <ele>185.19</ele>
        <time>2013-04-28T12:30:56Z</time>
      </trkpt>
      <trkpt lat="47.5699" lon="3.77412">
        <ele>186.15</ele>
        <time>2013-04-28T12:31:00Z</time>
      </trkpt>
      <trkpt lat="47.56987" lon="3.77396">
        <ele>188.08</ele>
        <time>2013-04-28T12:31:11Z</time>
      </trkpt>
      <trkpt lat="47.56981" lon="3.77378">
        <ele>189.52</ele>
        <time>2013-04-28T12:31:21Z</time>
      </trkpt>
      <trkpt lat="47.56978" lon="3.77368">
        <ele>190.96</ele>
        <time>2013-04-28T12:31:31Z</time>
      </trkpt>
      <trkpt lat="47.56973" lon="3.77359">
        <ele>192.88</ele>
        <time>2013-04-28T12:31:41Z</time>
      </trkpt>
      <trkpt lat="47.56967" lon="3.7735">
        <ele>194.8</ele>
        <time>2013-04-28T12:31:50Z</time>
      </trkpt>
      <trkpt lat="47.56963" lon="3.77339">
        <ele>197.21</ele>
        <time>2013-04-28T12:32:02Z</time>
      </trkpt>
      <trkpt lat="47.56958" lon="3.77316">
        <ele>198.17</ele>
        <time>2013-04-28T12:32:13Z</time>
      </trkpt>
      <trkpt lat="47.56958" lon="3.77313">
        <ele>198.17</ele>
        <time>2013-04-28T12:32:14Z</time>
      </trkpt>
      <trkpt lat="47.56957" lon="3.77297">
        <ele>198.17</ele>
        <time>2013-04-28T12:32:20Z</time>
      </trkpt>
      <trkpt lat="47.56955" lon="3.77273">
        <ele>198.65</ele>
        <time>2013-04-28T12:32:30Z</time>
      </trkpt>
      <trkpt lat="47.56952" lon="3.77256">
        <ele>198.17</ele>
        <time>2013-04-28T12:32:39Z</time>
      </trkpt>
      <trkpt lat="47.56952" lon="3.77233">
        <ele>197.69</ele>
        <time>2013-04-28T12:32:50Z</time>
      </trkpt>
      <trkpt lat="47.56952" lon="3.77227">
        <ele>198.17</ele>
        <time>2013-04-28T12:32:54Z</time>
      </trkpt>
      <trkpt lat="47.56953" lon="3.7722">
        <ele>197.69</ele>
        <time>2013-04-28T12:33:09Z</time>
      </trkpt>
      <trkpt lat="47.56952" lon="3.77214">
        <ele>197.69</ele>
        <time>2013-04-28T12:33:24Z</time>
      </trkpt>
      <trkpt lat="47.56951" lon="3.77193">
        <ele>197.21</ele>
        <time>2013-04-28T12:33:34Z</time>
      </trkpt>
      <trkpt lat="47.5695" lon="3.77155">
        <ele>197.21</ele>
        <time>2013-04-28T12:33:49Z</time>
      </trkpt>
      <trkpt lat="47.56949" lon="3.77139">
        <ele>197.21</ele>
        <time>2013-04-28T12:33:57Z</time>
      </trkpt>
      <trkpt lat="47.56944" lon="3.77109">
        <ele>199.61</ele>
        <time>2013-04-28T12:34:10Z</time>
      </trkpt>
      <trkpt lat="47.56941" lon="3.77093">
        <ele>202.01</ele>
        <time>2013-04-28T12:34:20Z</time>
      </trkpt>
      <trkpt lat="47.56942" lon="3.77088">
        <ele>201.53</ele>
        <time>2013-04-28T12:34:23Z</time>
      </trkpt>
      <trkpt lat="47.56949" lon="3.77066">
        <ele>201.53</ele>
        <time>2013-04-28T12:34:34Z</time>
      </trkpt>
      <trkpt lat="47.5695" lon="3.77063">
        <ele>205.86</ele>
        <time>2013-04-28T12:34:43Z</time>
      </trkpt>
      <trkpt lat="47.56949" lon="3.77062">
        <ele>202.49</ele>
        <time>2013-04-28T12:34:44Z</time>
      </trkpt>
      <trkpt lat="47.5695" lon="3.77062">
        <ele>202.01</ele>
        <time>2013-04-28T12:35:02Z</time>
      </trkpt>
      <trkpt lat="47.56952" lon="3.77061">
        <ele>202.01</ele>
        <time>2013-04-28T12:35:12Z</time>
      </trkpt>
      <trkpt lat="47.5695" lon="3.77059">
        <ele>202.49</ele>
        <time>2013-04-28T12:35:32Z</time>
      </trkpt>
      <trkpt lat="47.56947" lon="3.77055">
        <ele>204.42</ele>
        <time>2013-04-28T12:35:41Z</time>
      </trkpt>
      <trkpt lat="47.56952" lon="3.77043">
        <ele>205.86</ele>
        <time>2013-04-28T12:35:50Z</time>
      </trkpt>
      <trkpt lat="47.56954" lon="3.77042">
        <ele>206.34</ele>
        <time>2013-04-28T12:35:53Z</time>
      </trkpt>
      <trkpt lat="47.5696" lon="3.77034">
        <ele>207.78</ele>
        <time>2013-04-28T12:35:58Z</time>
      </trkpt>
      <trkpt lat="47.56961" lon="3.77021">
        <ele>207.3</ele>
        <time>2013-04-28T12:36:06Z</time>
      </trkpt>
      <trkpt lat="47.56961" lon="3.77021">
        <ele>207.3</ele>
        <time>2013-04-28T12:36:07Z</time>
      </trkpt>
      <trkpt lat="47.5696" lon="3.77007">
        <ele>208.26</ele>
        <time>2013-04-28T12:36:11Z</time>
      </trkpt>
      <trkpt lat="47.56948" lon="3.76995">
        <ele>209.22</ele>
        <time>2013-04-28T12:36:21Z</time>
      </trkpt>
      <trkpt lat="47.56944" lon="3.76987">
        <ele>209.7</ele>
        <time>2013-04-28T12:36:28Z</time>
      </trkpt>
      <trkpt lat="47.56943" lon="3.76985">
        <ele>210.19</ele>
        <time>2013-04-28T12:36:30Z</time>
      </trkpt>
      <trkpt lat="47.56933" lon="3.76975">
        <ele>210.67</ele>
        <time>2013-04-28T12:36:38Z</time>
      </trkpt>
      <trkpt lat="47.56931" lon="3.76971">
        <ele>211.15</ele>
        <time>2013-04-28T12:36:45Z</time>
      </trkpt>
      <trkpt lat="47.56919" lon="3.7696">
        <ele>212.59</ele>
        <time>2013-04-28T12:36:52Z</time>
      </trkpt>
      <trkpt lat="47.56916" lon="3.76957">
        <ele>212.11</ele>
        <time>2013-04-28T12:37:03Z</time>
      </trkpt>
      <trkpt lat="47.56915" lon="3.76956">
        <ele>212.59</ele>
        <time>2013-04-28T12:37:06Z</time>
      </trkpt>
      <trkpt lat="47.56902" lon="3.76946">
        <ele>212.11</ele>
        <time>2013-04-28T12:37:13Z</time>
      </trkpt>
      <trkpt lat="47.56897" lon="3.76943">
        <ele>212.59</ele>
        <time>2013-04-28T12:37:17Z</time>
      </trkpt>
      <trkpt lat="47.56886" lon="3.76931">
        <ele>213.07</ele>
        <time>2013-04-28T12:37:29Z</time>
      </trkpt>
      <trkpt lat="47.56874" lon="3.76918">
        <ele>213.07</ele>
        <time>2013-04-28T12:37:40Z</time>
      </trkpt>
      <trkpt lat="47.5687" lon="3.76914">
        <ele>212.59</ele>
        <time>2013-04-28T12:37:44Z</time>
      </trkpt>
      <trkpt lat="47.56865" lon="3.76912">
        <ele>213.07</ele>
        <time>2013-04-28T12:37:53Z</time>
      </trkpt>
      <trkpt lat="47.56862" lon="3.76906">
        <ele>212.59</ele>
        <time>2013-04-28T12:37:57Z</time>
      </trkpt>
      <trkpt lat="47.56856" lon="3.76903">
        <ele>212.59</ele>
        <time>2013-04-28T12:38:07Z</time>
      </trkpt>
      <trkpt lat="47.56855" lon="3.76901">
        <ele>213.07</ele>
        <time>2013-04-28T12:38:18Z</time>
      </trkpt>
      <trkpt lat="47.56855" lon="3.76901">
        <ele>212.59</ele>
        <time>2013-04-28T12:38:29Z</time>
      </trkpt>
      <trkpt lat="47.56854" lon="3.76901">
        <ele>214.03</ele>
        <time>2013-04-28T12:38:44Z</time>
      </trkpt>
      <trkpt lat="47.56853" lon="3.76903">
        <ele>212.11</ele>
        <time>2013-04-28T12:39:00Z</time>
      </trkpt>
      <trkpt lat="47.56853" lon="3.76903">
        <ele>212.59</ele>
        <time>2013-04-28T12:39:21Z</time>
      </trkpt>
      <trkpt lat="47.56853" lon="3.76904">
        <ele>212.59</ele>
        <time>2013-04-28T12:39:37Z</time>
      </trkpt>
      <trkpt lat="47.56852" lon="3.76906">
        <ele>212.59</ele>
        <time>2013-04-28T12:39:51Z</time>
      </trkpt>
      <trkpt lat="47.56852" lon="3.76907">
        <ele>213.07</ele>
        <time>2013-04-28T12:40:04Z</time>
      </trkpt>
      <trkpt lat="47.56853" lon="3.76906">
        <ele>213.07</ele>
        <time>2013-04-28T12:40:22Z</time>
      </trkpt>
      <trkpt lat="47.56852" lon="3.7691">
        <ele>213.07</ele>
        <time>2013-04-28T12:40:47Z</time>
      </trkpt>
      <trkpt lat="47.56852" lon="3.76909">
        <ele>213.07</ele>
        <time>2013-04-28T12:41:02Z</time>
      </trkpt>
      <trkpt lat="47.56852" lon="3.76908">
        <ele>213.07</ele>
        <time>2013-04-28T12:41:25Z</time>
      </trkpt>
      <trkpt lat="47.56852" lon="3.76908">
        <ele>213.55</ele>
        <time>2013-04-28T12:41:40Z</time>
      </trkpt>
      <trkpt lat="47.56852" lon="3.76906">
        <ele>213.55</ele>
        <time>2013-04-28T12:41:53Z</time>
      </trkpt>
      <trkpt lat="47.56852" lon="3.76907">
        <ele>213.55</ele>
        <time>2013-04-28T12:42:06Z</time>
      </trkpt>
      <trkpt lat="47.56852" lon="3.76908">
        <ele>213.07</ele>
        <time>2013-04-28T12:42:23Z</time>
      </trkpt>
      <trkpt lat="47.56852" lon="3.76907">
        <ele>213.55</ele>
        <time>2013-04-28T12:42:40Z</time>
      </trkpt>
      <trkpt lat="47.56855" lon="3.7691">
        <ele>214.03</ele>
        <time>2013-04-28T12:42:50Z</time>
      </trkpt>
      <trkpt lat="47.56854" lon="3.76905">
        <ele>214.03</ele>
        <time>2013-04-28T12:43:05Z</time>
      </trkpt>
      <trkpt lat="47.56855" lon="3.76906">
        <ele>214.51</ele>
        <time>2013-04-28T12:43:21Z</time>
      </trkpt>
      <trkpt lat="47.56855" lon="3.76906">
        <ele>213.55</ele>
        <time>2013-04-28T12:43:46Z</time>
      </trkpt>
      <trkpt lat="47.56855" lon="3.76905">
        <ele>207.78</ele>
        <time>2013-04-28T12:43:56Z</time>
      </trkpt>
      <trkpt lat="47.56855" lon="3.76905">
        <ele>215.95</ele>
        <time>2013-04-28T12:43:57Z</time>
      </trkpt>
      <trkpt lat="47.56855" lon="3.76905">
        <ele>212.59</ele>
        <time>2013-04-28T12:44:13Z</time>
      </trkpt>
      <trkpt lat="47.56856" lon="3.76905">
        <ele>214.51</ele>
        <time>2013-04-28T12:44:36Z</time>
      </trkpt>
      <trkpt lat="47.56857" lon="3.76903">
        <ele>213.55</ele>
        <time>2013-04-28T12:44:46Z</time>
      </trkpt>
      <trkpt lat="47.56856" lon="3.76903">
        <ele>214.03</ele>
        <time>2013-04-28T12:44:59Z</time>
      </trkpt>
      <trkpt lat="47.56856" lon="3.76903">
        <ele>214.03</ele>
        <time>2013-04-28T12:45:12Z</time>
      </trkpt>
      <trkpt lat="47.56856" lon="3.76903">
        <ele>214.03</ele>
        <time>2013-04-28T12:45:33Z</time>
      </trkpt>
      <trkpt lat="47.56855" lon="3.76902">
        <ele>214.03</ele>
        <time>2013-04-28T12:45:47Z</time>
      </trkpt>
      <trkpt lat="47.56851" lon="3.769">
        <ele>215.47</ele>
        <time>2013-04-28T12:45:59Z</time>
      </trkpt>
      <trkpt lat="47.56847" lon="3.76897">
        <ele>213.07</ele>
        <time>2013-04-28T12:46:02Z</time>
      </trkpt>
      <trkpt lat="47.5684" lon="3.76894">
        <ele>213.07</ele>
        <time>2013-04-28T12:46:07Z</time>
      </trkpt>
      <trkpt lat="47.56843" lon="3.76886">
        <ele>211.15</ele>
        <time>2013-04-28T12:46:14Z</time>
      </trkpt>
      <trkpt lat="47.56846" lon="3.76885">
        <ele>211.63</ele>
        <time>2013-04-28T12:46:17Z</time>
      </trkpt>
      <trkpt lat="47.56855" lon="3.76883">
        <ele>209.7</ele>
        <time>2013-04-28T12:46:26Z</time>
      </trkpt>
      <trkpt lat="47.56866" lon="3.76882">
        <ele>210.19</ele>
        <time>2013-04-28T12:46:34Z</time>
      </trkpt>
      <trkpt lat="47.56875" lon="3.76876">
        <ele>210.67</ele>
        <time>2013-04-28T12:46:41Z</time>
      </trkpt>
      <trkpt lat="47.56883" lon="3.76864">
        <ele>209.7</ele>
        <time>2013-04-28T12:46:48Z</time>
      </trkpt>
      <trkpt lat="47.56876" lon="3.76855">
        <ele>209.22</ele>
        <time>2013-04-28T12:46:57Z</time>
      </trkpt>
      <trkpt lat="47.56872" lon="3.76848">
        <ele>207.3</ele>
        <time>2013-04-28T12:47:07Z</time>
      </trkpt>
      <trkpt lat="47.56867" lon="3.76834">
        <ele>205.86</ele>
        <time>2013-04-28T12:47:15Z</time>
      </trkpt>
      <trkpt lat="47.56867" lon="3.76823">
        <ele>205.86</ele>
        <time>2013-04-28T12:47:21Z</time>
      </trkpt>
      <trkpt lat="47.56866" lon="3.76805">
        <ele>204.42</ele>
        <time>2013-04-28T12:47:30Z</time>
      </trkpt>
      <trkpt lat="47.56861" lon="3.76798">
        <ele>201.53</ele>
        <time>2013-04-28T12:47:37Z</time>
      </trkpt>
      <trkpt lat="47.56854" lon="3.76788">
        <ele>200.09</ele>
        <time>2013-04-28T12:47:40Z</time>
      </trkpt>
      <trkpt lat="47.56847" lon="3.76782">
        <ele>197.21</ele>
        <time>2013-04-28T12:47:46Z</time>
      </trkpt>
      <trkpt lat="47.56839" lon="3.76779">
        <ele>194.8</ele>
        <time>2013-04-28T12:47:55Z</time>
      </trkpt>
      <trkpt lat="47.56828" lon="3.76775">
        <ele>191.44</ele>
        <time>2013-04-28T12:48:05Z</time>
      </trkpt>
      <trkpt lat="47.56809" lon="3.76766">
        <ele>188.56</ele>
        <time>2013-04-28T12:48:15Z</time>
      </trkpt>
      <trkpt lat="47.56795" lon="3.76757">
        <ele>184.71</ele>
        <time>2013-04-28T12:48:25Z</time>
      </trkpt>
      <trkpt lat="47.56791" lon="3.76753">
        <ele>183.75</ele>
        <time>2013-04-28T12:48:29Z</time>
      </trkpt>
      <trkpt lat="47.56788" lon="3.76751">
        <ele>183.27</ele>
        <time>2013-04-28T12:48:31Z</time>
      </trkpt>
      <trkpt lat="47.56777" lon="3.76741">
        <ele>180.38</ele>
        <time>2013-04-28T12:48:40Z</time>
      </trkpt>
      <trkpt lat="47.56766" lon="3.76729">
        <ele>177.5</ele>
        <time>2013-04-28T12:48:49Z</time>
      </trkpt>
      <trkpt lat="47.56756" lon="3.7672">
        <ele>174.14</ele>
        <time>2013-04-28T12:48:58Z</time>
      </trkpt>
      <trkpt lat="47.56747" lon="3.76706">
        <ele>171.25</ele>
        <time>2013-04-28T12:49:09Z</time>
      </trkpt>
      <trkpt lat="47.56736" lon="3.76697">
        <ele>167.89</ele>
        <time>2013-04-28T12:49:18Z</time>
      </trkpt>
      <trkpt lat="47.56718" lon="3.7669">
        <ele>165</ele>
        <time>2013-04-28T12:49:28Z</time>
      </trkpt>
      <trkpt lat="47.56703" lon="3.76682">
        <ele>161.64</ele>
        <time>2013-04-28T12:49:38Z</time>
      </trkpt>
      <trkpt lat="47.56694" lon="3.76678">
        <ele>158.75</ele>
        <time>2013-04-28T12:49:44Z</time>
      </trkpt>
      <trkpt lat="47.56692" lon="3.76678">
        <ele>158.27</ele>
        <time>2013-04-28T12:49:45Z</time>
      </trkpt>
      <trkpt lat="47.5668" lon="3.76675">
        <ele>155.39</ele>
        <time>2013-04-28T12:49:53Z</time>
      </trkpt>
      <trkpt lat="47.56671" lon="3.76672">
        <ele>153.95</ele>
        <time>2013-04-28T12:49:58Z</time>
      </trkpt>
      <trkpt lat="47.5667" lon="3.76671">
        <ele>153.47</ele>
        <time>2013-04-28T12:49:59Z</time>
      </trkpt>
      <trkpt lat="47.56666" lon="3.7667">
        <ele>152.51</ele>
        <time>2013-04-28T12:50:02Z</time>
      </trkpt>
      <trkpt lat="47.56648" lon="3.76674">
        <ele>149.62</ele>
        <time>2013-04-28T12:50:14Z</time>
      </trkpt>
      <trkpt lat="47.56646" lon="3.76677">
        <ele>149.62</ele>
        <time>2013-04-28T12:50:17Z</time>
      </trkpt>
      <trkpt lat="47.56639" lon="3.76688">
        <ele>148.66</ele>
        <time>2013-04-28T12:50:29Z</time>
      </trkpt>
      <trkpt lat="47.56635" lon="3.76692">
        <ele>148.66</ele>
        <time>2013-04-28T12:50:39Z</time>
      </trkpt>
      <trkpt lat="47.56628" lon="3.76698">
        <ele>148.18</ele>
        <time>2013-04-28T12:50:49Z</time>
      </trkpt>
      <trkpt lat="47.5662" lon="3.76705">
        <ele>147.7</ele>
        <time>2013-04-28T12:50:59Z</time>
      </trkpt>
      <trkpt lat="47.5661" lon="3.76718">
        <ele>147.22</ele>
        <time>2013-04-28T12:51:10Z</time>
      </trkpt>
      <trkpt lat="47.566" lon="3.76728">
        <ele>146.74</ele>
        <time>2013-04-28T12:51:21Z</time>
      </trkpt>
      <trkpt lat="47.5658" lon="3.76736">
        <ele>146.26</ele>
        <time>2013-04-28T12:51:33Z</time>
      </trkpt>
      <trkpt lat="47.56568" lon="3.7674">
        <ele>145.78</ele>
        <time>2013-04-28T12:51:45Z</time>
      </trkpt>
      <trkpt lat="47.56557" lon="3.76737">
        <ele>144.82</ele>
        <time>2013-04-28T12:51:57Z</time>
      </trkpt>
      <trkpt lat="47.56555" lon="3.76741">
        <ele>144.34</ele>
        <time>2013-04-28T12:52:13Z</time>
      </trkpt>
      <trkpt lat="47.5654" lon="3.7674">
        <ele>143.85</ele>
        <time>2013-04-28T12:52:24Z</time>
      </trkpt>
      <trkpt lat="47.56523" lon="3.76737">
        <ele>143.37</ele>
        <time>2013-04-28T12:52:35Z</time>
      </trkpt>
      <trkpt lat="47.56513" lon="3.76737">
        <ele>142.89</ele>
        <time>2013-04-28T12:52:45Z</time>
      </trkpt>
      <trkpt lat="47.56509" lon="3.76739">
        <ele>142.41</ele>
        <time>2013-04-28T12:52:51Z</time>
      </trkpt>
      <trkpt lat="47.56495" lon="3.76744">
        <ele>141.93</ele>
        <time>2013-04-28T12:53:03Z</time>
      </trkpt>
      <trkpt lat="47.56475" lon="3.76739">
        <ele>140.97</ele>
        <time>2013-04-28T12:53:15Z</time>
      </trkpt>
      <trkpt lat="47.56468" lon="3.76734">
        <ele>140.97</ele>
        <time>2013-04-28T12:53:19Z</time>
      </trkpt>
      <trkpt lat="47.56464" lon="3.76729">
        <ele>140.49</ele>
        <time>2013-04-28T12:53:24Z</time>
      </trkpt>
      <trkpt lat="47.56461" lon="3.7672">
        <ele>140.01</ele>
        <time>2013-04-28T12:53:28Z</time>
      </trkpt>
      <trkpt lat="47.56464" lon="3.76706">
        <ele>139.05</ele>
        <time>2013-04-28T12:53:38Z</time>
      </trkpt>
      <trkpt lat="47.56476" lon="3.76694">
        <ele>138.09</ele>
        <time>2013-04-28T12:53:48Z</time>
      </trkpt>
      <trkpt lat="47.56482" lon="3.76682">
        <ele>137.61</ele>
        <time>2013-04-28T12:54:00Z</time>
      </trkpt>
      <trkpt lat="47.56482" lon="3.76681">
        <ele>138.09</ele>
        <time>2013-04-28T12:54:01Z</time>
      </trkpt>
      <trkpt lat="47.56479" lon="3.76675">
        <ele>138.09</ele>
        <time>2013-04-28T12:54:07Z</time>
      </trkpt>
      <trkpt lat="47.56483" lon="3.76664">
        <ele>138.57</ele>
        <time>2013-04-28T12:54:17Z</time>
      </trkpt>
      <trkpt lat="47.56484" lon="3.76664">
        <ele>138.57</ele>
        <time>2013-04-28T12:54:18Z</time>
      </trkpt>
      <trkpt lat="47.56496" lon="3.76657">
        <ele>139.05</ele>
        <time>2013-04-28T12:54:27Z</time>
      </trkpt>
      <trkpt lat="47.56508" lon="3.76635">
        <ele>139.53</ele>
        <time>2013-04-28T12:54:34Z</time>
      </trkpt>
      <trkpt lat="47.56523" lon="3.76632">
        <ele>140.97</ele>
        <time>2013-04-28T12:54:43Z</time>
      </trkpt>
      <trkpt lat="47.56523" lon="3.76631">
        <ele>140.97</ele>
        <time>2013-04-28T12:54:44Z</time>
      </trkpt>
      <trkpt lat="47.56545" lon="3.76616">
        <ele>142.89</ele>
        <time>2013-04-28T12:54:55Z</time>
      </trkpt>
      <trkpt lat="47.56548" lon="3.76611">
        <ele>143.37</ele>
        <time>2013-04-28T12:54:58Z</time>
      </trkpt>
      <trkpt lat="47.56548" lon="3.76597">
        <ele>143.37</ele>
        <time>2013-04-28T12:55:08Z</time>
      </trkpt>
      <trkpt lat="47.56548" lon="3.76596">
        <ele>142.89</ele>
        <time>2013-04-28T12:55:09Z</time>
      </trkpt>
      <trkpt lat="47.56552" lon="3.76582">
        <ele>143.37</ele>
        <time>2013-04-28T12:55:19Z</time>
      </trkpt>
      <trkpt lat="47.56552" lon="3.76579">
        <ele>143.85</ele>
        <time>2013-04-28T12:55:33Z</time>
      </trkpt>
      <trkpt lat="47.56551" lon="3.76571">
        <ele>143.85</ele>
        <time>2013-04-28T12:55:40Z</time>
      </trkpt>
      <trkpt lat="47.56543" lon="3.76545">
        <ele>143.37</ele>
        <time>2013-04-28T12:55:49Z</time>
      </trkpt>
      <trkpt lat="47.56538" lon="3.76528">
        <ele>143.85</ele>
        <time>2013-04-28T12:55:58Z</time>
      </trkpt>
      <trkpt lat="47.56538" lon="3.76528">
        <ele>143.85</ele>
        <time>2013-04-28T12:55:59Z</time>
      </trkpt>
      <trkpt lat="47.56535" lon="3.76525">
        <ele>143.37</ele>
        <time>2013-04-28T12:56:02Z</time>
      </trkpt>
      <trkpt lat="47.56524" lon="3.76514">
        <ele>143.85</ele>
        <time>2013-04-28T12:56:13Z</time>
      </trkpt>
      <trkpt lat="47.56518" lon="3.76496">
        <ele>144.34</ele>
        <time>2013-04-28T12:56:22Z</time>
      </trkpt>
      <trkpt lat="47.56516" lon="3.76476">
        <ele>144.82</ele>
        <time>2013-04-28T12:56:30Z</time>
      </trkpt>
      <trkpt lat="47.56516" lon="3.76463">
        <ele>144.34</ele>
        <time>2013-04-28T12:56:39Z</time>
      </trkpt>
      <trkpt lat="47.56518" lon="3.76448">
        <ele>144.82</ele>
        <time>2013-04-28T12:56:47Z</time>
      </trkpt>
      <trkpt lat="47.56521" lon="3.7643">
        <ele>145.3</ele>
        <time>2013-04-28T12:56:57Z</time>
      </trkpt>
      <trkpt lat="47.56518" lon="3.7642">
        <ele>145.3</ele>
        <time>2013-04-28T12:57:06Z</time>
      </trkpt>
      <trkpt lat="47.56516" lon="3.76415">
        <ele>144.82</ele>
        <time>2013-04-28T12:57:09Z</time>
      </trkpt>
      <trkpt lat="47.56512" lon="3.76399">
        <ele>145.3</ele>
        <time>2013-04-28T12:57:20Z</time>
      </trkpt>
      <trkpt lat="47.56509" lon="3.76393">
        <ele>145.78</ele>
        <time>2013-04-28T12:57:23Z</time>
      </trkpt>
      <trkpt lat="47.56503" lon="3.76373">
        <ele>145.78</ele>
        <time>2013-04-28T12:57:33Z</time>
      </trkpt>
      <trkpt lat="47.56489" lon="3.76353">
        <ele>146.26</ele>
        <time>2013-04-28T12:57:45Z</time>
      </trkpt>
      <trkpt lat="47.5648" lon="3.76334">
        <ele>146.26</ele>
        <time>2013-04-28T12:57:56Z</time>
      </trkpt>
      <trkpt lat="47.56477" lon="3.7632">
        <ele>146.26</ele>
        <time>2013-04-28T12:58:07Z</time>
      </trkpt>
      <trkpt lat="47.56473" lon="3.76311">
        <ele>146.74</ele>
        <time>2013-04-28T12:58:16Z</time>
      </trkpt>
      <trkpt lat="47.56471" lon="3.76296">
        <ele>147.7</ele>
        <time>2013-04-28T12:58:25Z</time>
      </trkpt>
      <trkpt lat="47.56471" lon="3.76274">
        <ele>148.18</ele>
        <time>2013-04-28T12:58:36Z</time>
      </trkpt>
      <trkpt lat="47.56464" lon="3.76251">
        <ele>148.66</ele>
        <time>2013-04-28T12:58:47Z</time>
      </trkpt>
      <trkpt lat="47.56473" lon="3.76236">
        <ele>148.66</ele>
        <time>2013-04-28T12:58:59Z</time>
      </trkpt>
      <trkpt lat="47.56473" lon="3.7622">
        <ele>149.14</ele>
        <time>2013-04-28T12:59:10Z</time>
      </trkpt>
      <trkpt lat="47.56482" lon="3.762">
        <ele>149.14</ele>
        <time>2013-04-28T12:59:20Z</time>
      </trkpt>
      <trkpt lat="47.56488" lon="3.76176">
        <ele>149.62</ele>
        <time>2013-04-28T12:59:29Z</time>
      </trkpt>
      <trkpt lat="47.56489" lon="3.76157">
        <ele>150.1</ele>
        <time>2013-04-28T12:59:38Z</time>
      </trkpt>
      <trkpt lat="47.56484" lon="3.76145">
        <ele>151.06</ele>
        <time>2013-04-28T12:59:48Z</time>
      </trkpt>
      <trkpt lat="47.56483" lon="3.76138">
        <ele>150.1</ele>
        <time>2013-04-28T12:59:56Z</time>
      </trkpt>
      <trkpt lat="47.56478" lon="3.76131">
        <ele>151.06</ele>
        <time>2013-04-28T13:00:07Z</time>
      </trkpt>
      <trkpt lat="47.56475" lon="3.76121">
        <ele>151.54</ele>
        <time>2013-04-28T13:00:16Z</time>
      </trkpt>
      <trkpt lat="47.5647" lon="3.76111">
        <ele>151.54</ele>
        <time>2013-04-28T13:00:26Z</time>
      </trkpt>
      <trkpt lat="47.56457" lon="3.76095">
        <ele>151.54</ele>
        <time>2013-04-28T13:00:36Z</time>
      </trkpt>
      <trkpt lat="47.56441" lon="3.76077">
        <ele>151.54</ele>
        <time>2013-04-28T13:00:47Z</time>
      </trkpt>
      <trkpt lat="47.56432" lon="3.76066">
        <ele>152.51</ele>
        <time>2013-04-28T13:00:55Z</time>
      </trkpt>
      <trkpt lat="47.56427" lon="3.7606">
        <ele>152.51</ele>
        <time>2013-04-28T13:01:05Z</time>
      </trkpt>
      <trkpt lat="47.56422" lon="3.76054">
        <ele>152.51</ele>
        <time>2013-04-28T13:01:15Z</time>
      </trkpt>
      <trkpt lat="47.56409" lon="3.76043">
        <ele>152.99</ele>
        <time>2013-04-28T13:01:28Z</time>
      </trkpt>
      <trkpt lat="47.56395" lon="3.7603">
        <ele>153.47</ele>
        <time>2013-04-28T13:01:37Z</time>
      </trkpt>
      <trkpt lat="47.56383" lon="3.7602">
        <ele>153.47</ele>
        <time>2013-04-28T13:01:47Z</time>
      </trkpt>
      <trkpt lat="47.56375" lon="3.76021">
        <ele>154.43</ele>
        <time>2013-04-28T13:01:54Z</time>
      </trkpt>
      <trkpt lat="47.56359" lon="3.76015">
        <ele>154.43</ele>
        <time>2013-04-28T13:02:05Z</time>
      </trkpt>
      <trkpt lat="47.5634" lon="3.76006">
        <ele>154.43</ele>
        <time>2013-04-28T13:02:14Z</time>
      </trkpt>
      <trkpt lat="47.56329" lon="3.76008">
        <ele>154.91</ele>
        <time>2013-04-28T13:02:22Z</time>
      </trkpt>
      <trkpt lat="47.56325" lon="3.76006">
        <ele>155.39</ele>
        <time>2013-04-28T13:02:32Z</time>
      </trkpt>
      <trkpt lat="47.56318" lon="3.76007">
        <ele>155.39</ele>
        <time>2013-04-28T13:02:36Z</time>
      </trkpt>
      <trkpt lat="47.56302" lon="3.76012">
        <ele>156.35</ele>
        <time>2013-04-28T13:02:49Z</time>
      </trkpt>
      <trkpt lat="47.563" lon="3.76013">
        <ele>155.87</ele>
        <time>2013-04-28T13:02:51Z</time>
      </trkpt>
      <trkpt lat="47.56286" lon="3.76015">
        <ele>156.35</ele>
        <time>2013-04-28T13:03:01Z</time>
      </trkpt>
      <trkpt lat="47.56285" lon="3.76015">
        <ele>156.35</ele>
        <time>2013-04-28T13:03:02Z</time>
      </trkpt>
      <trkpt lat="47.56269" lon="3.76019">
        <ele>156.35</ele>
        <time>2013-04-28T13:03:12Z</time>
      </trkpt>
      <trkpt lat="47.5626" lon="3.76021">
        <ele>157.31</ele>
        <time>2013-04-28T13:03:23Z</time>
      </trkpt>
      <trkpt lat="47.56249" lon="3.76023">
        <ele>157.31</ele>
        <time>2013-04-28T13:03:33Z</time>
      </trkpt>
      <trkpt lat="47.56231" lon="3.76023">
        <ele>157.79</ele>
        <time>2013-04-28T13:03:47Z</time>
      </trkpt>
      <trkpt lat="47.56218" lon="3.76024">
        <ele>157.79</ele>
        <time>2013-04-28T13:03:57Z</time>
      </trkpt>
      <trkpt lat="47.56208" lon="3.76024">
        <ele>158.27</ele>
        <time>2013-04-28T13:04:08Z</time>
      </trkpt>
      <trkpt lat="47.562" lon="3.76019">
        <ele>158.27</ele>
        <time>2013-04-28T13:04:20Z</time>
      </trkpt>
      <trkpt lat="47.56196" lon="3.76015">
        <ele>158.75</ele>
        <time>2013-04-28T13:04:30Z</time>
      </trkpt>
      <trkpt lat="47.56191" lon="3.7601">
        <ele>158.75</ele>
        <time>2013-04-28T13:04:38Z</time>
      </trkpt>
      <trkpt lat="47.56183" lon="3.75996">
        <ele>159.24</ele>
        <time>2013-04-28T13:04:48Z</time>
      </trkpt>
      <trkpt lat="47.56173" lon="3.75983">
        <ele>159.72</ele>
        <time>2013-04-28T13:04:59Z</time>
      </trkpt>
      <trkpt lat="47.56153" lon="3.75963">
        <ele>161.16</ele>
        <time>2013-04-28T13:05:11Z</time>
      </trkpt>
      <trkpt lat="47.56149" lon="3.75956">
        <ele>161.16</ele>
        <time>2013-04-28T13:05:16Z</time>
      </trkpt>
      <trkpt lat="47.5614" lon="3.75939">
        <ele>161.64</ele>
        <time>2013-04-28T13:05:26Z</time>
      </trkpt>
      <trkpt lat="47.56135" lon="3.75931">
        <ele>162.12</ele>
        <time>2013-04-28T13:05:34Z</time>
      </trkpt>
      <trkpt lat="47.56123" lon="3.7591">
        <ele>162.12</ele>
        <time>2013-04-28T13:05:45Z</time>
      </trkpt>
      <trkpt lat="47.56114" lon="3.75893">
        <ele>162.6</ele>
        <time>2013-04-28T13:05:54Z</time>
      </trkpt>
      <trkpt lat="47.56109" lon="3.7588">
        <ele>163.08</ele>
        <time>2013-04-28T13:06:05Z</time>
      </trkpt>
      <trkpt lat="47.56105" lon="3.75868">
        <ele>163.08</ele>
        <time>2013-04-28T13:06:15Z</time>
      </trkpt>
      <trkpt lat="47.56097" lon="3.75846">
        <ele>163.56</ele>
        <time>2013-04-28T13:06:26Z</time>
      </trkpt>
      <trkpt lat="47.56091" lon="3.75832">
        <ele>164.04</ele>
        <time>2013-04-28T13:06:37Z</time>
      </trkpt>
      <trkpt lat="47.56085" lon="3.75813">
        <ele>164.52</ele>
        <time>2013-04-28T13:06:49Z</time>
      </trkpt>
      <trkpt lat="47.56085" lon="3.75803">
        <ele>165.48</ele>
        <time>2013-04-28T13:06:59Z</time>
      </trkpt>
      <trkpt lat="47.56081" lon="3.75789">
        <ele>165.48</ele>
        <time>2013-04-28T13:07:10Z</time>
      </trkpt>
      <trkpt lat="47.56078" lon="3.7578">
        <ele>165.96</ele>
        <time>2013-04-28T13:07:22Z</time>
      </trkpt>
      <trkpt lat="47.56069" lon="3.75757">
        <ele>166.93</ele>
        <time>2013-04-28T13:07:35Z</time>
      </trkpt>
      <trkpt lat="47.56065" lon="3.75738">
        <ele>167.41</ele>
        <time>2013-04-28T13:07:47Z</time>
      </trkpt>
      <trkpt lat="47.5606" lon="3.7572">
        <ele>168.37</ele>
        <time>2013-04-28T13:07:57Z</time>
      </trkpt>
      <trkpt lat="47.56054" lon="3.7571">
        <ele>168.85</ele>
        <time>2013-04-28T13:08:09Z</time>
      </trkpt>
      <trkpt lat="47.56046" lon="3.7569">
        <ele>169.33</ele>
        <time>2013-04-28T13:08:19Z</time>
      </trkpt>
      <trkpt lat="47.56032" lon="3.75663">
        <ele>169.81</ele>
        <time>2013-04-28T13:08:28Z</time>
      </trkpt>
      <trkpt lat="47.56028" lon="3.75651">
        <ele>169.81</ele>
        <time>2013-04-28T13:08:32Z</time>
      </trkpt>
      <trkpt lat="47.56004" lon="3.75618">
        <ele>170.29</ele>
        <time>2013-04-28T13:08:44Z</time>
      </trkpt>
      <trkpt lat="47.55997" lon="3.75606">
        <ele>170.29</ele>
        <time>2013-04-28T13:08:49Z</time>
      </trkpt>
      <trkpt lat="47.55992" lon="3.75597">
        <ele>170.77</ele>
        <time>2013-04-28T13:08:54Z</time>
      </trkpt>
      <trkpt lat="47.55985" lon="3.7558">
        <ele>170.77</ele>
        <time>2013-04-28T13:09:04Z</time>
      </trkpt>
      <trkpt lat="47.55984" lon="3.75578">
        <ele>170.77</ele>
        <time>2013-04-28T13:09:05Z</time>
      </trkpt>
      <trkpt lat="47.55973" lon="3.75561">
        <ele>171.25</ele>
        <time>2013-04-28T13:09:14Z</time>
      </trkpt>
      <trkpt lat="47.55966" lon="3.75544">
        <ele>171.73</ele>
        <time>2013-04-28T13:09:24Z</time>
      </trkpt>
      <trkpt lat="47.55959" lon="3.75523">
        <ele>171.25</ele>
        <time>2013-04-28T13:09:35Z</time>
      </trkpt>
      <trkpt lat="47.5595" lon="3.75506">
        <ele>171.73</ele>
        <time>2013-04-28T13:09:45Z</time>
      </trkpt>
      <trkpt lat="47.55946" lon="3.75495">
        <ele>172.21</ele>
        <time>2013-04-28T13:09:51Z</time>
      </trkpt>
      <trkpt lat="47.55942" lon="3.75473">
        <ele>171.73</ele>
        <time>2013-04-28T13:10:01Z</time>
      </trkpt>
      <trkpt lat="47.55937" lon="3.75456">
        <ele>171.73</ele>
        <time>2013-04-28T13:10:09Z</time>
      </trkpt>
      <trkpt lat="47.55929" lon="3.75425">
        <ele>172.21</ele>
        <time>2013-04-28T13:10:24Z</time>
      </trkpt>
      <trkpt lat="47.55923" lon="3.75403">
        <ele>172.21</ele>
        <time>2013-04-28T13:10:35Z</time>
      </trkpt>
      <trkpt lat="47.55921" lon="3.75396">
        <ele>172.21</ele>
        <time>2013-04-28T13:10:38Z</time>
      </trkpt>
      <trkpt lat="47.55917" lon="3.75386">
        <ele>171.73</ele>
        <time>2013-04-28T13:10:43Z</time>
      </trkpt>
      <trkpt lat="47.55914" lon="3.75371">
        <ele>172.21</ele>
        <time>2013-04-28T13:10:51Z</time>
      </trkpt>
      <trkpt lat="47.55907" lon="3.75345">
        <ele>172.21</ele>
        <time>2013-04-28T13:11:02Z</time>
      </trkpt>
      <trkpt lat="47.55903" lon="3.75324">
        <ele>172.69</ele>
        <time>2013-04-28T13:11:13Z</time>
      </trkpt>
      <trkpt lat="47.559" lon="3.75302">
        <ele>173.17</ele>
        <time>2013-04-28T13:11:23Z</time>
      </trkpt>
      <trkpt lat="47.55898" lon="3.75292">
        <ele>173.17</ele>
        <time>2013-04-28T13:11:28Z</time>
      </trkpt>
      <trkpt lat="47.55893" lon="3.75278">
        <ele>173.66</ele>
        <time>2013-04-28T13:11:33Z</time>
      </trkpt>
      <trkpt lat="47.55889" lon="3.75255">
        <ele>174.14</ele>
        <time>2013-04-28T13:11:44Z</time>
      </trkpt>
      <trkpt lat="47.55883" lon="3.75233">
        <ele>174.62</ele>
        <time>2013-04-28T13:11:55Z</time>
      </trkpt>
      <trkpt lat="47.55884" lon="3.75208">
        <ele>175.1</ele>
        <time>2013-04-28T13:12:05Z</time>
      </trkpt>
      <trkpt lat="47.55883" lon="3.75189">
        <ele>175.58</ele>
        <time>2013-04-28T13:12:16Z</time>
      </trkpt>
      <trkpt lat="47.55883" lon="3.75172">
        <ele>176.06</ele>
        <time>2013-04-28T13:12:26Z</time>
      </trkpt>
      <trkpt lat="47.55881" lon="3.75157">
        <ele>177.5</ele>
        <time>2013-04-28T13:12:37Z</time>
      </trkpt>
      <trkpt lat="47.55875" lon="3.75145">
        <ele>177.98</ele>
        <time>2013-04-28T13:12:45Z</time>
      </trkpt>
      <trkpt lat="47.5587" lon="3.75134">
        <ele>179.42</ele>
        <time>2013-04-28T13:12:54Z</time>
      </trkpt>
      <trkpt lat="47.55865" lon="3.75122">
        <ele>179.9</ele>
        <time>2013-04-28T13:13:05Z</time>
      </trkpt>
      <trkpt lat="47.55866" lon="3.75107">
        <ele>179.9</ele>
        <time>2013-04-28T13:13:13Z</time>
      </trkpt>
      <trkpt lat="47.5587" lon="3.75099">
        <ele>179.9</ele>
        <time>2013-04-28T13:13:24Z</time>
      </trkpt>
      <trkpt lat="47.55877" lon="3.75097">
        <ele>180.38</ele>
        <time>2013-04-28T13:13:31Z</time>
      </trkpt>
      <trkpt lat="47.55888" lon="3.75097">
        <ele>179.9</ele>
        <time>2013-04-28T13:13:40Z</time>
      </trkpt>
      <trkpt lat="47.55897" lon="3.751">
        <ele>180.38</ele>
        <time>2013-04-28T13:13:45Z</time>
      </trkpt>
      <trkpt lat="47.55907" lon="3.75102">
        <ele>182.79</ele>
        <time>2013-04-28T13:13:55Z</time>
      </trkpt>
      <trkpt lat="47.55918" lon="3.75102">
        <ele>183.75</ele>
        <time>2013-04-28T13:14:05Z</time>
      </trkpt>
      <trkpt lat="47.55924" lon="3.75093">
        <ele>186.15</ele>
        <time>2013-04-28T13:14:15Z</time>
      </trkpt>
      <trkpt lat="47.55927" lon="3.7508">
        <ele>187.11</ele>
        <time>2013-04-28T13:14:22Z</time>
      </trkpt>
      <trkpt lat="47.55927" lon="3.75076">
        <ele>188.08</ele>
        <time>2013-04-28T13:14:24Z</time>
      </trkpt>
      <trkpt lat="47.55927" lon="3.75049">
        <ele>188.56</ele>
        <time>2013-04-28T13:14:37Z</time>
      </trkpt>
      <trkpt lat="47.5593" lon="3.75029">
        <ele>188.56</ele>
        <time>2013-04-28T13:14:46Z</time>
      </trkpt>
      <trkpt lat="47.55929" lon="3.75018">
        <ele>188.56</ele>
        <time>2013-04-28T13:14:51Z</time>
      </trkpt>
      <trkpt lat="47.55924" lon="3.75001">
        <ele>188.56</ele>
        <time>2013-04-28T13:15:01Z</time>
      </trkpt>
      <trkpt lat="47.55922" lon="3.74981">
        <ele>187.59</ele>
        <time>2013-04-28T13:15:11Z</time>
      </trkpt>
      <trkpt lat="47.5592" lon="3.74965">
        <ele>187.11</ele>
        <time>2013-04-28T13:15:18Z</time>
      </trkpt>
      <trkpt lat="47.55913" lon="3.74941">
        <ele>186.63</ele>
        <time>2013-04-28T13:15:29Z</time>
      </trkpt>
      <trkpt lat="47.55912" lon="3.74933">
        <ele>186.15</ele>
        <time>2013-04-28T13:15:33Z</time>
      </trkpt>
      <trkpt lat="47.55917" lon="3.7491">
        <ele>185.19</ele>
        <time>2013-04-28T13:15:44Z</time>
      </trkpt>
      <trkpt lat="47.55918" lon="3.74907">
        <ele>185.19</ele>
        <time>2013-04-28T13:15:45Z</time>
      </trkpt>
      <trkpt lat="47.55918" lon="3.7488">
        <ele>184.71</ele>
        <time>2013-04-28T13:15:58Z</time>
      </trkpt>
      <trkpt lat="47.55914" lon="3.74867">
        <ele>184.71</ele>
        <time>2013-04-28T13:16:08Z</time>
      </trkpt>
      <trkpt lat="47.55907" lon="3.7484">
        <ele>184.71</ele>
        <time>2013-04-28T13:16:18Z</time>
      </trkpt>
      <trkpt lat="47.55904" lon="3.74829">
        <ele>185.19</ele>
        <time>2013-04-28T13:16:22Z</time>
      </trkpt>
      <trkpt lat="47.559" lon="3.74817">
        <ele>185.19</ele>
        <time>2013-04-28T13:16:27Z</time>
      </trkpt>
      <trkpt lat="47.55891" lon="3.74795">
        <ele>185.19</ele>
        <time>2013-04-28T13:16:39Z</time>
      </trkpt>
      <trkpt lat="47.5589" lon="3.7479">
        <ele>184.71</ele>
        <time>2013-04-28T13:16:41Z</time>
      </trkpt>
      <trkpt lat="47.55887" lon="3.74774">
        <ele>185.19</ele>
        <time>2013-04-28T13:16:51Z</time>
      </trkpt>
      <trkpt lat="47.55885" lon="3.74768">
        <ele>184.71</ele>
        <time>2013-04-28T13:16:54Z</time>
      </trkpt>
      <trkpt lat="47.55871" lon="3.74748">
        <ele>185.67</ele>
        <time>2013-04-28T13:17:04Z</time>
      </trkpt>
      <trkpt lat="47.55861" lon="3.74724">
        <ele>185.67</ele>
        <time>2013-04-28T13:17:15Z</time>
      </trkpt>
      <trkpt lat="47.55858" lon="3.7472">
        <ele>185.67</ele>
        <time>2013-04-28T13:17:17Z</time>
      </trkpt>
      <trkpt lat="47.55852" lon="3.74703">
        <ele>185.67</ele>
        <time>2013-04-28T13:17:27Z</time>
      </trkpt>
      <trkpt lat="47.55843" lon="3.74683">
        <ele>186.15</ele>
        <time>2013-04-28T13:17:39Z</time>
      </trkpt>
      <trkpt lat="47.55841" lon="3.74678">
        <ele>186.15</ele>
        <time>2013-04-28T13:17:42Z</time>
      </trkpt>
      <trkpt lat="47.55836" lon="3.74661">
        <ele>186.63</ele>
        <time>2013-04-28T13:17:51Z</time>
      </trkpt>
      <trkpt lat="47.55831" lon="3.74644">
        <ele>186.63</ele>
        <time>2013-04-28T13:18:00Z</time>
      </trkpt>
      <trkpt lat="47.55826" lon="3.74628">
        <ele>187.11</ele>
        <time>2013-04-28T13:18:09Z</time>
      </trkpt>
      <trkpt lat="47.55822" lon="3.74609">
        <ele>187.59</ele>
        <time>2013-04-28T13:18:18Z</time>
      </trkpt>
      <trkpt lat="47.55819" lon="3.74589">
        <ele>187.59</ele>
        <time>2013-04-28T13:18:29Z</time>
      </trkpt>
      <trkpt lat="47.55818" lon="3.74587">
        <ele>187.59</ele>
        <time>2013-04-28T13:18:31Z</time>
      </trkpt>
      <trkpt lat="47.55809" lon="3.74571">
        <ele>187.59</ele>
        <time>2013-04-28T13:18:42Z</time>
      </trkpt>
      <trkpt lat="47.5581" lon="3.74569">
        <ele>187.59</ele>
        <time>2013-04-28T13:18:49Z</time>
      </trkpt>
      <trkpt lat="47.55798" lon="3.74549">
        <ele>187.59</ele>
        <time>2013-04-28T13:19:00Z</time>
      </trkpt>
      <trkpt lat="47.55787" lon="3.74537">
        <ele>188.08</ele>
        <time>2013-04-28T13:19:09Z</time>
      </trkpt>
      <trkpt lat="47.55775" lon="3.74524">
        <ele>188.08</ele>
        <time>2013-04-28T13:19:19Z</time>
      </trkpt>
      <trkpt lat="47.55765" lon="3.74509">
        <ele>188.08</ele>
        <time>2013-04-28T13:19:30Z</time>
      </trkpt>
      <trkpt lat="47.55763" lon="3.74506">
        <ele>186.63</ele>
        <time>2013-04-28T13:19:33Z</time>
      </trkpt>
      <trkpt lat="47.55762" lon="3.74505">
        <ele>190.48</ele>
        <time>2013-04-28T13:19:34Z</time>
      </trkpt>
      <trkpt lat="47.55762" lon="3.74504">
        <ele>188.56</ele>
        <time>2013-04-28T13:19:35Z</time>
      </trkpt>
      <trkpt lat="47.55754" lon="3.74494">
        <ele>189.04</ele>
        <time>2013-04-28T13:19:44Z</time>
      </trkpt>
      <trkpt lat="47.55747" lon="3.7448">
        <ele>190.48</ele>
        <time>2013-04-28T13:19:54Z</time>
      </trkpt>
      <trkpt lat="47.55744" lon="3.74476">
        <ele>190.48</ele>
        <time>2013-04-28T13:20:02Z</time>
      </trkpt>
      <trkpt lat="47.55736" lon="3.74463">
        <ele>192.4</ele>
        <time>2013-04-28T13:20:11Z</time>
      </trkpt>
      <trkpt lat="47.55731" lon="3.74456">
        <ele>186.15</ele>
        <time>2013-04-28T13:20:15Z</time>
      </trkpt>
      <trkpt lat="47.55731" lon="3.74455">
        <ele>192.88</ele>
        <time>2013-04-28T13:20:16Z</time>
      </trkpt>
      <trkpt lat="47.5573" lon="3.74454">
        <ele>196.73</ele>
        <time>2013-04-28T13:20:17Z</time>
      </trkpt>
      <trkpt lat="47.55729" lon="3.74453">
        <ele>191.44</ele>
        <time>2013-04-28T13:20:18Z</time>
      </trkpt>
      <trkpt lat="47.55726" lon="3.74447">
        <ele>191.92</ele>
        <time>2013-04-28T13:20:23Z</time>
      </trkpt>
      <trkpt lat="47.55725" lon="3.74444">
        <ele>196.25</ele>
        <time>2013-04-28T13:20:25Z</time>
      </trkpt>
      <trkpt lat="47.55725" lon="3.74443">
        <ele>193.36</ele>
        <time>2013-04-28T13:20:26Z</time>
      </trkpt>
      <trkpt lat="47.55719" lon="3.74434">
        <ele>193.84</ele>
        <time>2013-04-28T13:20:32Z</time>
      </trkpt>
      <trkpt lat="47.5571" lon="3.74419">
        <ele>196.73</ele>
        <time>2013-04-28T13:20:42Z</time>
      </trkpt>
      <trkpt lat="47.55707" lon="3.74413">
        <ele>194.32</ele>
        <time>2013-04-28T13:20:45Z</time>
      </trkpt>
      <trkpt lat="47.55704" lon="3.74405">
        <ele>198.65</ele>
        <time>2013-04-28T13:20:50Z</time>
      </trkpt>
      <trkpt lat="47.55692" lon="3.74385">
        <ele>195.28</ele>
        <time>2013-04-28T13:21:01Z</time>
      </trkpt>
      <trkpt lat="47.55692" lon="3.74384">
        <ele>200.09</ele>
        <time>2013-04-28T13:21:02Z</time>
      </trkpt>
      <trkpt lat="47.55691" lon="3.74383">
        <ele>196.25</ele>
        <time>2013-04-28T13:21:03Z</time>
      </trkpt>
      <trkpt lat="47.55685" lon="3.74377">
        <ele>201.05</ele>
        <time>2013-04-28T13:21:08Z</time>
      </trkpt>
      <trkpt lat="47.55685" lon="3.74376">
        <ele>201.05</ele>
        <time>2013-04-28T13:21:09Z</time>
      </trkpt>
      <trkpt lat="47.55685" lon="3.74375">
        <ele>196.25</ele>
        <time>2013-04-28T13:21:10Z</time>
      </trkpt>
      <trkpt lat="47.55685" lon="3.74373">
        <ele>197.69</ele>
        <time>2013-04-28T13:21:11Z</time>
      </trkpt>
      <trkpt lat="47.55672" lon="3.74358">
        <ele>198.65</ele>
        <time>2013-04-28T13:21:22Z</time>
      </trkpt>
      <trkpt lat="47.55663" lon="3.74347">
        <ele>199.61</ele>
        <time>2013-04-28T13:21:31Z</time>
      </trkpt>
      <trkpt lat="47.55664" lon="3.74348">
        <ele>199.61</ele>
        <time>2013-04-28T13:21:45Z</time>
      </trkpt>
      <trkpt lat="47.55663" lon="3.74345">
        <ele>200.09</ele>
        <time>2013-04-28T13:21:48Z</time>
      </trkpt>
      <trkpt lat="47.55658" lon="3.74339">
        <ele>200.09</ele>
        <time>2013-04-28T13:21:52Z</time>
      </trkpt>
      <trkpt lat="47.55649" lon="3.74326">
        <ele>201.53</ele>
        <time>2013-04-28T13:22:02Z</time>
      </trkpt>
      <trkpt lat="47.55637" lon="3.74307">
        <ele>202.01</ele>
        <time>2013-04-28T13:22:12Z</time>
      </trkpt>
      <trkpt lat="47.55626" lon="3.7429">
        <ele>202.49</ele>
        <time>2013-04-28T13:22:23Z</time>
      </trkpt>
      <trkpt lat="47.55618" lon="3.74279">
        <ele>202.49</ele>
        <time>2013-04-28T13:22:30Z</time>
      </trkpt>
      <trkpt lat="47.55609" lon="3.74268">
        <ele>203.46</ele>
        <time>2013-04-28T13:22:38Z</time>
      </trkpt>
      <trkpt lat="47.55606" lon="3.74265">
        <ele>203.46</ele>
        <time>2013-04-28T13:22:40Z</time>
      </trkpt>
      <trkpt lat="47.55593" lon="3.74248">
        <ele>203.94</ele>
        <time>2013-04-28T13:22:53Z</time>
      </trkpt>
      <trkpt lat="47.55586" lon="3.74252">
        <ele>203.46</ele>
        <time>2013-04-28T13:23:06Z</time>
      </trkpt>
      <trkpt lat="47.55582" lon="3.74254">
        <ele>203.46</ele>
        <time>2013-04-28T13:23:18Z</time>
      </trkpt>
      <trkpt lat="47.55582" lon="3.74255">
        <ele>203.46</ele>
        <time>2013-04-28T13:23:29Z</time>
      </trkpt>
      <trkpt lat="47.55578" lon="3.74258">
        <ele>203.46</ele>
        <time>2013-04-28T13:23:46Z</time>
      </trkpt>
      <trkpt lat="47.55577" lon="3.74266">
        <ele>203.46</ele>
        <time>2013-04-28T13:23:56Z</time>
      </trkpt>
      <trkpt lat="47.55578" lon="3.74264">
        <ele>203.46</ele>
        <time>2013-04-28T13:24:14Z</time>
      </trkpt>
      <trkpt lat="47.55574" lon="3.74264">
        <ele>203.46</ele>
        <time>2013-04-28T13:24:32Z</time>
      </trkpt>
      <trkpt lat="47.5557" lon="3.74263">
        <ele>203.46</ele>
        <time>2013-04-28T13:24:42Z</time>
      </trkpt>
      <trkpt lat="47.55569" lon="3.74262">
        <ele>202.98</ele>
        <time>2013-04-28T13:24:57Z</time>
      </trkpt>
      <trkpt lat="47.55569" lon="3.74261">
        <ele>203.46</ele>
        <time>2013-04-28T13:25:13Z</time>
      </trkpt>
      <trkpt lat="47.55569" lon="3.74261">
        <ele>203.46</ele>
        <time>2013-04-28T13:25:27Z</time>
      </trkpt>
      <trkpt lat="47.55569" lon="3.74262">
        <ele>203.46</ele>
        <time>2013-04-28T13:25:47Z</time>
      </trkpt>
      <trkpt lat="47.55569" lon="3.74263">
        <ele>203.94</ele>
        <time>2013-04-28T13:26:02Z</time>
      </trkpt>
      <trkpt lat="47.55573" lon="3.74263">
        <ele>203.94</ele>
        <time>2013-04-28T13:26:11Z</time>
      </trkpt>
      <trkpt lat="47.55574" lon="3.74263">
        <ele>204.42</ele>
        <time>2013-04-28T13:26:25Z</time>
      </trkpt>
      <trkpt lat="47.55574" lon="3.74262">
        <ele>203.94</ele>
        <time>2013-04-28T13:26:39Z</time>
      </trkpt>
      <trkpt lat="47.55576" lon="3.74261">
        <ele>204.42</ele>
        <time>2013-04-28T13:26:55Z</time>
      </trkpt>
      <trkpt lat="47.55577" lon="3.74259">
        <ele>204.42</ele>
        <time>2013-04-28T13:27:13Z</time>
      </trkpt>
      <trkpt lat="47.55579" lon="3.74256">
        <ele>204.42</ele>
        <time>2013-04-28T13:27:21Z</time>
      </trkpt>
      <trkpt lat="47.5558" lon="3.74255">
        <ele>204.42</ele>
        <time>2013-04-28T13:27:38Z</time>
      </trkpt>
      <trkpt lat="47.55581" lon="3.74255">
        <ele>204.9</ele>
        <time>2013-04-28T13:27:52Z</time>
      </trkpt>
      <trkpt lat="47.55583" lon="3.74256">
        <ele>204.9</ele>
        <time>2013-04-28T13:28:05Z</time>
      </trkpt>
      <trkpt lat="47.55585" lon="3.74247">
        <ele>205.86</ele>
        <time>2013-04-28T13:28:16Z</time>
      </trkpt>
      <trkpt lat="47.55576" lon="3.74236">
        <ele>204.9</ele>
        <time>2013-04-28T13:28:26Z</time>
      </trkpt>
      <trkpt lat="47.55573" lon="3.74234">
        <ele>206.34</ele>
        <time>2013-04-28T13:28:29Z</time>
      </trkpt>
      <trkpt lat="47.55571" lon="3.74232">
        <ele>205.38</ele>
        <time>2013-04-28T13:28:31Z</time>
      </trkpt>
      <trkpt lat="47.55562" lon="3.74223">
        <ele>205.38</ele>
        <time>2013-04-28T13:28:39Z</time>
      </trkpt>
      <trkpt lat="47.55551" lon="3.74218">
        <ele>205.38</ele>
        <time>2013-04-28T13:28:49Z</time>
      </trkpt>
      <trkpt lat="47.55546" lon="3.74213">
        <ele>205.86</ele>
        <time>2013-04-28T13:28:54Z</time>
      </trkpt>
      <trkpt lat="47.55528" lon="3.74202">
        <ele>205.86</ele>
        <time>2013-04-28T13:29:07Z</time>
      </trkpt>
      <trkpt lat="47.55518" lon="3.74196">
        <ele>205.38</ele>
        <time>2013-04-28T13:29:15Z</time>
      </trkpt>
      <trkpt lat="47.55503" lon="3.74186">
        <ele>205.38</ele>
        <time>2013-04-28T13:29:24Z</time>
      </trkpt>
      <trkpt lat="47.55497" lon="3.74183">
        <ele>204.9</ele>
        <time>2013-04-28T13:29:28Z</time>
      </trkpt>
      <trkpt lat="47.5548" lon="3.74175">
        <ele>204.9</ele>
        <time>2013-04-28T13:29:39Z</time>
      </trkpt>
      <trkpt lat="47.55468" lon="3.74168">
        <ele>204.42</ele>
        <time>2013-04-28T13:29:47Z</time>
      </trkpt>
      <trkpt lat="47.55453" lon="3.74164">
        <ele>203.94</ele>
        <time>2013-04-28T13:29:58Z</time>
      </trkpt>
      <trkpt lat="47.55436" lon="3.74156">
        <ele>203.46</ele>
        <time>2013-04-28T13:30:09Z</time>
      </trkpt>
      <trkpt lat="47.55416" lon="3.74148">
        <ele>203.46</ele>
        <time>2013-04-28T13:30:22Z</time>
      </trkpt>
      <trkpt lat="47.55401" lon="3.7415">
        <ele>203.94</ele>
        <time>2013-04-28T13:30:32Z</time>
      </trkpt>
      <trkpt lat="47.55383" lon="3.74152">
        <ele>204.42</ele>
        <time>2013-04-28T13:30:45Z</time>
      </trkpt>
      <trkpt lat="47.55379" lon="3.74153">
        <ele>204.9</ele>
        <time>2013-04-28T13:30:48Z</time>
      </trkpt>
      <trkpt lat="47.5537" lon="3.74153">
        <ele>205.38</ele>
        <time>2013-04-28T13:30:55Z</time>
      </trkpt>
      <trkpt lat="47.55351" lon="3.74154">
        <ele>205.86</ele>
        <time>2013-04-28T13:31:09Z</time>
      </trkpt>
      <trkpt lat="47.5534" lon="3.74156">
        <ele>206.82</ele>
        <time>2013-04-28T13:31:19Z</time>
      </trkpt>
      <trkpt lat="47.55323" lon="3.74153">
        <ele>206.82</ele>
        <time>2013-04-28T13:31:32Z</time>
      </trkpt>
      <trkpt lat="47.55308" lon="3.7415">
        <ele>206.82</ele>
        <time>2013-04-28T13:31:43Z</time>
      </trkpt>
      <trkpt lat="47.55291" lon="3.74149">
        <ele>207.3</ele>
        <time>2013-04-28T13:31:55Z</time>
      </trkpt>
      <trkpt lat="47.55275" lon="3.74146">
        <ele>207.3</ele>
        <time>2013-04-28T13:32:07Z</time>
      </trkpt>
      <trkpt lat="47.55261" lon="3.74142">
        <ele>207.3</ele>
        <time>2013-04-28T13:32:19Z</time>
      </trkpt>
      <trkpt lat="47.55252" lon="3.74142">
        <ele>207.3</ele>
        <time>2013-04-28T13:32:25Z</time>
      </trkpt>
      <trkpt lat="47.55248" lon="3.74141">
        <ele>207.3</ele>
        <time>2013-04-28T13:32:29Z</time>
      </trkpt>
      <trkpt lat="47.55227" lon="3.74136">
        <ele>207.3</ele>
        <time>2013-04-28T13:32:44Z</time>
      </trkpt>
      <trkpt lat="47.55209" lon="3.74135">
        <ele>206.82</ele>
        <time>2013-04-28T13:32:58Z</time>
      </trkpt>
      <trkpt lat="47.55195" lon="3.74132">
        <ele>207.3</ele>
        <time>2013-04-28T13:33:09Z</time>
      </trkpt>
      <trkpt lat="47.55182" lon="3.74128">
        <ele>207.78</ele>
        <time>2013-04-28T13:33:19Z</time>
      </trkpt>
      <trkpt lat="47.55168" lon="3.74132">
        <ele>208.26</ele>
        <time>2013-04-28T13:33:30Z</time>
      </trkpt>
      <trkpt lat="47.55166" lon="3.74133">
        <ele>207.78</ele>
        <time>2013-04-28T13:33:32Z</time>
      </trkpt>
      <trkpt lat="47.55148" lon="3.74135">
        <ele>207.78</ele>
        <time>2013-04-28T13:33:45Z</time>
      </trkpt>
      <trkpt lat="47.55136" lon="3.74139">
        <ele>208.74</ele>
        <time>2013-04-28T13:33:55Z</time>
      </trkpt>
      <trkpt lat="47.55128" lon="3.74142">
        <ele>209.22</ele>
        <time>2013-04-28T13:34:02Z</time>
      </trkpt>
      <trkpt lat="47.55116" lon="3.74151">
        <ele>210.19</ele>
        <time>2013-04-28T13:34:12Z</time>
      </trkpt>
      <trkpt lat="47.55113" lon="3.74153">
        <ele>210.19</ele>
        <time>2013-04-28T13:34:14Z</time>
      </trkpt>
      <trkpt lat="47.551" lon="3.74165">
        <ele>211.15</ele>
        <time>2013-04-28T13:34:25Z</time>
      </trkpt>
      <trkpt lat="47.55091" lon="3.74178">
        <ele>211.63</ele>
        <time>2013-04-28T13:34:35Z</time>
      </trkpt>
      <trkpt lat="47.55084" lon="3.74193">
        <ele>212.11</ele>
        <time>2013-04-28T13:34:46Z</time>
      </trkpt>
      <trkpt lat="47.55074" lon="3.74211">
        <ele>213.07</ele>
        <time>2013-04-28T13:34:57Z</time>
      </trkpt>
      <trkpt lat="47.55066" lon="3.74223">
        <ele>214.03</ele>
        <time>2013-04-28T13:35:06Z</time>
      </trkpt>
      <trkpt lat="47.55055" lon="3.74237">
        <ele>214.99</ele>
        <time>2013-04-28T13:35:19Z</time>
      </trkpt>
      <trkpt lat="47.55043" lon="3.74252">
        <ele>215.47</ele>
        <time>2013-04-28T13:35:31Z</time>
      </trkpt>
      <trkpt lat="47.55041" lon="3.74254">
        <ele>215.95</ele>
        <time>2013-04-28T13:35:33Z</time>
      </trkpt>
      <trkpt lat="47.55028" lon="3.74268">
        <ele>215.95</ele>
        <time>2013-04-28T13:35:44Z</time>
      </trkpt>
      <trkpt lat="47.55023" lon="3.74272">
        <ele>216.43</ele>
        <time>2013-04-28T13:35:48Z</time>
      </trkpt>
      <trkpt lat="47.55016" lon="3.7428">
        <ele>216.91</ele>
        <time>2013-04-28T13:35:56Z</time>
      </trkpt>
      <trkpt lat="47.55001" lon="3.74296">
        <ele>216.91</ele>
        <time>2013-04-28T13:36:09Z</time>
      </trkpt>
      <trkpt lat="47.54987" lon="3.7431">
        <ele>217.88</ele>
        <time>2013-04-28T13:36:21Z</time>
      </trkpt>
      <trkpt lat="47.54977" lon="3.74325">
        <ele>217.88</ele>
        <time>2013-04-28T13:36:32Z</time>
      </trkpt>
      <trkpt lat="47.54965" lon="3.74344">
        <ele>218.36</ele>
        <time>2013-04-28T13:36:44Z</time>
      </trkpt>
      <trkpt lat="47.54954" lon="3.7436">
        <ele>217.4</ele>
        <time>2013-04-28T13:36:55Z</time>
      </trkpt>
      <trkpt lat="47.54944" lon="3.74373">
        <ele>216.91</ele>
        <time>2013-04-28T13:37:06Z</time>
      </trkpt>
      <trkpt lat="47.54932" lon="3.7439">
        <ele>215.95</ele>
        <time>2013-04-28T13:37:18Z</time>
      </trkpt>
      <trkpt lat="47.5492" lon="3.74405">
        <ele>215.47</ele>
        <time>2013-04-28T13:37:29Z</time>
      </trkpt>
      <trkpt lat="47.54909" lon="3.74417">
        <ele>215.47</ele>
        <time>2013-04-28T13:37:40Z</time>
      </trkpt>
      <trkpt lat="47.54898" lon="3.74434">
        <ele>214.51</ele>
        <time>2013-04-28T13:37:50Z</time>
      </trkpt>
      <trkpt lat="47.54888" lon="3.74448">
        <ele>214.51</ele>
        <time>2013-04-28T13:38:01Z</time>
      </trkpt>
      <trkpt lat="47.54878" lon="3.7446">
        <ele>214.03</ele>
        <time>2013-04-28T13:38:11Z</time>
      </trkpt>
      <trkpt lat="47.54872" lon="3.74477">
        <ele>213.55</ele>
        <time>2013-04-28T13:38:20Z</time>
      </trkpt>
      <trkpt lat="47.54875" lon="3.745">
        <ele>213.07</ele>
        <time>2013-04-28T13:38:31Z</time>
      </trkpt>
      <trkpt lat="47.54876" lon="3.74504">
        <ele>213.07</ele>
        <time>2013-04-28T13:38:33Z</time>
      </trkpt>
      <trkpt lat="47.54876" lon="3.74515">
        <ele>213.07</ele>
        <time>2013-04-28T13:38:38Z</time>
      </trkpt>
      <trkpt lat="47.54868" lon="3.74535">
        <ele>212.59</ele>
        <time>2013-04-28T13:38:48Z</time>
      </trkpt>
      <trkpt lat="47.54857" lon="3.74552">
        <ele>212.11</ele>
        <time>2013-04-28T13:38:58Z</time>
      </trkpt>
      <trkpt lat="47.54845" lon="3.74566">
        <ele>211.63</ele>
        <time>2013-04-28T13:39:09Z</time>
      </trkpt>
      <trkpt lat="47.54834" lon="3.74583">
        <ele>210.67</ele>
        <time>2013-04-28T13:39:20Z</time>
      </trkpt>
      <trkpt lat="47.5482" lon="3.74599">
        <ele>210.19</ele>
        <time>2013-04-28T13:39:31Z</time>
      </trkpt>
      <trkpt lat="47.54805" lon="3.74614">
        <ele>209.22</ele>
        <time>2013-04-28T13:39:43Z</time>
      </trkpt>
      <trkpt lat="47.54787" lon="3.74634">
        <ele>207.78</ele>
        <time>2013-04-28T13:39:58Z</time>
      </trkpt>
      <trkpt lat="47.54772" lon="3.74649">
        <ele>207.3</ele>
        <time>2013-04-28T13:40:10Z</time>
      </trkpt>
      <trkpt lat="47.54756" lon="3.74664">
        <ele>207.3</ele>
        <time>2013-04-28T13:40:22Z</time>
      </trkpt>
      <trkpt lat="47.54738" lon="3.74677">
        <ele>206.82</ele>
        <time>2013-04-28T13:40:34Z</time>
      </trkpt>
      <trkpt lat="47.54721" lon="3.74692">
        <ele>206.82</ele>
        <time>2013-04-28T13:40:47Z</time>
      </trkpt>
      <trkpt lat="47.54704" lon="3.74708">
        <ele>207.3</ele>
        <time>2013-04-28T13:41:00Z</time>
      </trkpt>
      <trkpt lat="47.54691" lon="3.74722">
        <ele>206.82</ele>
        <time>2013-04-28T13:41:12Z</time>
      </trkpt>
      <trkpt lat="47.5469" lon="3.74723">
        <ele>206.82</ele>
        <time>2013-04-28T13:41:13Z</time>
      </trkpt>
      <trkpt lat="47.54678" lon="3.7473">
        <ele>207.3</ele>
        <time>2013-04-28T13:41:21Z</time>
      </trkpt>
      <trkpt lat="47.54667" lon="3.74738">
        <ele>206.82</ele>
        <time>2013-04-28T13:41:28Z</time>
      </trkpt>
      <trkpt lat="47.54657" lon="3.74749">
        <ele>206.82</ele>
        <time>2013-04-28T13:41:35Z</time>
      </trkpt>
      <trkpt lat="47.54647" lon="3.7476">
        <ele>206.82</ele>
        <time>2013-04-28T13:41:42Z</time>
      </trkpt>
      <trkpt lat="47.54632" lon="3.74769">
        <ele>207.3</ele>
        <time>2013-04-28T13:41:52Z</time>
      </trkpt>
      <trkpt lat="47.54616" lon="3.7478">
        <ele>208.26</ele>
        <time>2013-04-28T13:42:03Z</time>
      </trkpt>
      <trkpt lat="47.54604" lon="3.74786">
        <ele>208.74</ele>
        <time>2013-04-28T13:42:11Z</time>
      </trkpt>
      <trkpt lat="47.54589" lon="3.74795">
        <ele>209.22</ele>
        <time>2013-04-28T13:42:21Z</time>
      </trkpt>
      <trkpt lat="47.54585" lon="3.74796">
        <ele>209.22</ele>
        <time>2013-04-28T13:42:23Z</time>
      </trkpt>
      <trkpt lat="47.54568" lon="3.74801">
        <ele>210.67</ele>
        <time>2013-04-28T13:42:32Z</time>
      </trkpt>
      <trkpt lat="47.5455" lon="3.74814">
        <ele>211.15</ele>
        <time>2013-04-28T13:42:43Z</time>
      </trkpt>
      <trkpt lat="47.54531" lon="3.74829">
        <ele>211.63</ele>
        <time>2013-04-28T13:42:56Z</time>
      </trkpt>
      <trkpt lat="47.54512" lon="3.74838">
        <ele>212.11</ele>
        <time>2013-04-28T13:43:08Z</time>
      </trkpt>
      <trkpt lat="47.54491" lon="3.74851">
        <ele>212.11</ele>
        <time>2013-04-28T13:43:22Z</time>
      </trkpt>
      <trkpt lat="47.54476" lon="3.74859">
        <ele>212.59</ele>
        <time>2013-04-28T13:43:33Z</time>
      </trkpt>
      <trkpt lat="47.5446" lon="3.74868">
        <ele>213.07</ele>
        <time>2013-04-28T13:43:44Z</time>
      </trkpt>
      <trkpt lat="47.5444" lon="3.74878">
        <ele>213.07</ele>
        <time>2013-04-28T13:43:57Z</time>
      </trkpt>
      <trkpt lat="47.54423" lon="3.74885">
        <ele>213.07</ele>
        <time>2013-04-28T13:44:08Z</time>
      </trkpt>
      <trkpt lat="47.544" lon="3.74893">
        <ele>214.03</ele>
        <time>2013-04-28T13:44:23Z</time>
      </trkpt>
      <trkpt lat="47.54382" lon="3.74899">
        <ele>214.51</ele>
        <time>2013-04-28T13:44:34Z</time>
      </trkpt>
      <trkpt lat="47.54366" lon="3.74906">
        <ele>215.47</ele>
        <time>2013-04-28T13:44:45Z</time>
      </trkpt>
      <trkpt lat="47.54346" lon="3.74911">
        <ele>215.95</ele>
        <time>2013-04-28T13:44:58Z</time>
      </trkpt>
      <trkpt lat="47.54328" lon="3.74917">
        <ele>216.43</ele>
        <time>2013-04-28T13:45:09Z</time>
      </trkpt>
      <trkpt lat="47.54306" lon="3.7492">
        <ele>217.88</ele>
        <time>2013-04-28T13:45:23Z</time>
      </trkpt>
      <trkpt lat="47.54288" lon="3.74924">
        <ele>218.36</ele>
        <time>2013-04-28T13:45:34Z</time>
      </trkpt>
      <trkpt lat="47.54262" lon="3.7493">
        <ele>219.32</ele>
        <time>2013-04-28T13:45:50Z</time>
      </trkpt>
      <trkpt lat="47.54243" lon="3.74935">
        <ele>221.24</ele>
        <time>2013-04-28T13:46:03Z</time>
      </trkpt>
      <trkpt lat="47.54226" lon="3.74942">
        <ele>221.24</ele>
        <time>2013-04-28T13:46:14Z</time>
      </trkpt>
      <trkpt lat="47.54225" lon="3.74942">
        <ele>221.24</ele>
        <time>2013-04-28T13:46:15Z</time>
      </trkpt>
      <trkpt lat="47.5421" lon="3.74949">
        <ele>222.2</ele>
        <time>2013-04-28T13:46:26Z</time>
      </trkpt>
      <trkpt lat="47.54199" lon="3.7495">
        <ele>222.68</ele>
        <time>2013-04-28T13:46:34Z</time>
      </trkpt>
      <trkpt lat="47.54187" lon="3.7495">
        <ele>223.64</ele>
        <time>2013-04-28T13:46:42Z</time>
      </trkpt>
      <trkpt lat="47.54173" lon="3.74951">
        <ele>224.12</ele>
        <time>2013-04-28T13:46:51Z</time>
      </trkpt>
      <trkpt lat="47.5417" lon="3.74953">
        <ele>224.12</ele>
        <time>2013-04-28T13:46:53Z</time>
      </trkpt>
      <trkpt lat="47.54155" lon="3.74961">
        <ele>224.61</ele>
        <time>2013-04-28T13:47:03Z</time>
      </trkpt>
      <trkpt lat="47.54153" lon="3.74961">
        <ele>225.09</ele>
        <time>2013-04-28T13:47:05Z</time>
      </trkpt>
      <trkpt lat="47.54144" lon="3.74964">
        <ele>225.57</ele>
        <time>2013-04-28T13:47:11Z</time>
      </trkpt>
      <trkpt lat="47.54137" lon="3.74967">
        <ele>225.57</ele>
        <time>2013-04-28T13:47:15Z</time>
      </trkpt>
      <trkpt lat="47.54129" lon="3.7497">
        <ele>226.53</ele>
        <time>2013-04-28T13:47:20Z</time>
      </trkpt>
      <trkpt lat="47.54114" lon="3.74976">
        <ele>227.01</ele>
        <time>2013-04-28T13:47:29Z</time>
      </trkpt>
      <trkpt lat="47.54109" lon="3.7498">
        <ele>227.49</ele>
        <time>2013-04-28T13:47:34Z</time>
      </trkpt>
      <trkpt lat="47.54106" lon="3.74981">
        <ele>227.49</ele>
        <time>2013-04-28T13:47:36Z</time>
      </trkpt>
      <trkpt lat="47.5409" lon="3.74984">
        <ele>228.45</ele>
        <time>2013-04-28T13:47:46Z</time>
      </trkpt>
      <trkpt lat="47.54086" lon="3.74985">
        <ele>228.45</ele>
        <time>2013-04-28T13:47:48Z</time>
      </trkpt>
      <trkpt lat="47.54082" lon="3.74987">
        <ele>227.97</ele>
        <time>2013-04-28T13:47:51Z</time>
      </trkpt>
      <trkpt lat="47.54076" lon="3.7499">
        <ele>228.45</ele>
        <time>2013-04-28T13:47:55Z</time>
      </trkpt>
      <trkpt lat="47.54065" lon="3.74997">
        <ele>229.41</ele>
        <time>2013-04-28T13:48:01Z</time>
      </trkpt>
      <trkpt lat="47.54055" lon="3.75">
        <ele>229.89</ele>
        <time>2013-04-28T13:48:07Z</time>
      </trkpt>
      <trkpt lat="47.54047" lon="3.75004">
        <ele>230.85</ele>
        <time>2013-04-28T13:48:14Z</time>
      </trkpt>
      <trkpt lat="47.54041" lon="3.75006">
        <ele>230.85</ele>
        <time>2013-04-28T13:48:18Z</time>
      </trkpt>
      <trkpt lat="47.54032" lon="3.75008">
        <ele>231.81</ele>
        <time>2013-04-28T13:48:25Z</time>
      </trkpt>
      <trkpt lat="47.54018" lon="3.75019">
        <ele>232.3</ele>
        <time>2013-04-28T13:48:34Z</time>
      </trkpt>
      <trkpt lat="47.54006" lon="3.75026">
        <ele>233.26</ele>
        <time>2013-04-28T13:48:42Z</time>
      </trkpt>
      <trkpt lat="47.53998" lon="3.7503">
        <ele>233.74</ele>
        <time>2013-04-28T13:48:48Z</time>
      </trkpt>
      <trkpt lat="47.53983" lon="3.75039">
        <ele>234.22</ele>
        <time>2013-04-28T13:48:57Z</time>
      </trkpt>
      <trkpt lat="47.53981" lon="3.75041">
        <ele>234.7</ele>
        <time>2013-04-28T13:48:59Z</time>
      </trkpt>
      <trkpt lat="47.53978" lon="3.75042">
        <ele>235.18</ele>
        <time>2013-04-28T13:49:01Z</time>
      </trkpt>
      <trkpt lat="47.53974" lon="3.75046">
        <ele>235.18</ele>
        <time>2013-04-28T13:49:04Z</time>
      </trkpt>
      <trkpt lat="47.53963" lon="3.75061">
        <ele>236.14</ele>
        <time>2013-04-28T13:49:14Z</time>
      </trkpt>
      <trkpt lat="47.53963" lon="3.75061">
        <ele>236.14</ele>
        <time>2013-04-28T13:49:15Z</time>
      </trkpt>
      <trkpt lat="47.53953" lon="3.75074">
        <ele>236.14</ele>
        <time>2013-04-28T13:49:23Z</time>
      </trkpt>
      <trkpt lat="47.53946" lon="3.75079">
        <ele>236.14</ele>
        <time>2013-04-28T13:49:29Z</time>
      </trkpt>
      <trkpt lat="47.53943" lon="3.7508">
        <ele>236.62</ele>
        <time>2013-04-28T13:49:31Z</time>
      </trkpt>
      <trkpt lat="47.53938" lon="3.75083">
        <ele>237.1</ele>
        <time>2013-04-28T13:49:34Z</time>
      </trkpt>
      <trkpt lat="47.53933" lon="3.75086">
        <ele>236.62</ele>
        <time>2013-04-28T13:49:37Z</time>
      </trkpt>
      <trkpt lat="47.53929" lon="3.75091">
        <ele>237.1</ele>
        <time>2013-04-28T13:49:42Z</time>
      </trkpt>
      <trkpt lat="47.53914" lon="3.75104">
        <ele>237.1</ele>
        <time>2013-04-28T13:49:52Z</time>
      </trkpt>
      <trkpt lat="47.53904" lon="3.75106">
        <ele>237.58</ele>
        <time>2013-04-28T13:50:01Z</time>
      </trkpt>
      <trkpt lat="47.5389" lon="3.75119">
        <ele>238.06</ele>
        <time>2013-04-28T13:50:11Z</time>
      </trkpt>
      <trkpt lat="47.53887" lon="3.75122">
        <ele>238.54</ele>
        <time>2013-04-28T13:50:17Z</time>
      </trkpt>
      <trkpt lat="47.53882" lon="3.75124">
        <ele>238.54</ele>
        <time>2013-04-28T13:50:21Z</time>
      </trkpt>
      <trkpt lat="47.53869" lon="3.75132">
        <ele>239.99</ele>
        <time>2013-04-28T13:50:32Z</time>
      </trkpt>
      <trkpt lat="47.53861" lon="3.75145">
        <ele>240.47</ele>
        <time>2013-04-28T13:50:38Z</time>
      </trkpt>
      <trkpt lat="47.53851" lon="3.75157">
        <ele>241.43</ele>
        <time>2013-04-28T13:50:47Z</time>
      </trkpt>
      <trkpt lat="47.53843" lon="3.75162">
        <ele>242.39</ele>
        <time>2013-04-28T13:50:58Z</time>
      </trkpt>
      <trkpt lat="47.53841" lon="3.75163">
        <ele>242.39</ele>
        <time>2013-04-28T13:51:01Z</time>
      </trkpt>
      <trkpt lat="47.53835" lon="3.75169">
        <ele>242.39</ele>
        <time>2013-04-28T13:51:06Z</time>
      </trkpt>
      <trkpt lat="47.53826" lon="3.75177">
        <ele>242.87</ele>
        <time>2013-04-28T13:51:15Z</time>
      </trkpt>
      <trkpt lat="47.53814" lon="3.75187">
        <ele>243.35</ele>
        <time>2013-04-28T13:51:26Z</time>
      </trkpt>
      <trkpt lat="47.53801" lon="3.75191">
        <ele>244.31</ele>
        <time>2013-04-28T13:51:34Z</time>
      </trkpt>
      <trkpt lat="47.53791" lon="3.75195">
        <ele>244.31</ele>
        <time>2013-04-28T13:51:45Z</time>
      </trkpt>
      <trkpt lat="47.53776" lon="3.75202">
        <ele>244.79</ele>
        <time>2013-04-28T13:51:56Z</time>
      </trkpt>
      <trkpt lat="47.53774" lon="3.75204">
        <ele>244.79</ele>
        <time>2013-04-28T13:52:01Z</time>
      </trkpt>
      <trkpt lat="47.53757" lon="3.75214">
        <ele>246.23</ele>
        <time>2013-04-28T13:52:12Z</time>
      </trkpt>
      <trkpt lat="47.53755" lon="3.75214">
        <ele>245.75</ele>
        <time>2013-04-28T13:52:13Z</time>
      </trkpt>
      <trkpt lat="47.53744" lon="3.7522">
        <ele>246.23</ele>
        <time>2013-04-28T13:52:20Z</time>
      </trkpt>
      <trkpt lat="47.53736" lon="3.75224">
        <ele>247.2</ele>
        <time>2013-04-28T13:52:25Z</time>
      </trkpt>
      <trkpt lat="47.53732" lon="3.75228">
        <ele>247.2</ele>
        <time>2013-04-28T13:52:28Z</time>
      </trkpt>
      <trkpt lat="47.53726" lon="3.75232">
        <ele>247.2</ele>
        <time>2013-04-28T13:52:32Z</time>
      </trkpt>
      <trkpt lat="47.53709" lon="3.75241">
        <ele>248.16</ele>
        <time>2013-04-28T13:52:43Z</time>
      </trkpt>
      <trkpt lat="47.53702" lon="3.75246">
        <ele>248.64</ele>
        <time>2013-04-28T13:52:49Z</time>
      </trkpt>
      <trkpt lat="47.5369" lon="3.75249">
        <ele>248.64</ele>
        <time>2013-04-28T13:53:00Z</time>
      </trkpt>
      <trkpt lat="47.53686" lon="3.75251">
        <ele>248.64</ele>
        <time>2013-04-28T13:53:02Z</time>
      </trkpt>
      <trkpt lat="47.5367" lon="3.75255">
        <ele>249.12</ele>
        <time>2013-04-28T13:53:12Z</time>
      </trkpt>
      <trkpt lat="47.53667" lon="3.75256">
        <ele>249.12</ele>
        <time>2013-04-28T13:53:14Z</time>
      </trkpt>
      <trkpt lat="47.5365" lon="3.75258">
        <ele>249.6</ele>
        <time>2013-04-28T13:53:24Z</time>
      </trkpt>
      <trkpt lat="47.53637" lon="3.75264">
        <ele>250.08</ele>
        <time>2013-04-28T13:53:33Z</time>
      </trkpt>
      <trkpt lat="47.53617" lon="3.75267">
        <ele>249.6</ele>
        <time>2013-04-28T13:53:45Z</time>
      </trkpt>
      <trkpt lat="47.53606" lon="3.75269">
        <ele>250.56</ele>
        <time>2013-04-28T13:53:56Z</time>
      </trkpt>
      <trkpt lat="47.53594" lon="3.75267">
        <ele>250.56</ele>
        <time>2013-04-28T13:54:04Z</time>
      </trkpt>
      <trkpt lat="47.53584" lon="3.75262">
        <ele>251.04</ele>
        <time>2013-04-28T13:54:13Z</time>
      </trkpt>
      <trkpt lat="47.53583" lon="3.75262">
        <ele>251.04</ele>
        <time>2013-04-28T13:54:14Z</time>
      </trkpt>
      <trkpt lat="47.53579" lon="3.75264">
        <ele>250.08</ele>
        <time>2013-04-28T13:54:17Z</time>
      </trkpt>
      <trkpt lat="47.53573" lon="3.75268">
        <ele>249.6</ele>
        <time>2013-04-28T13:54:21Z</time>
      </trkpt>
      <trkpt lat="47.5357" lon="3.75276">
        <ele>249.12</ele>
        <time>2013-04-28T13:54:25Z</time>
      </trkpt>
      <trkpt lat="47.53565" lon="3.75298">
        <ele>247.68</ele>
        <time>2013-04-28T13:54:35Z</time>
      </trkpt>
      <trkpt lat="47.53565" lon="3.75303">
        <ele>247.2</ele>
        <time>2013-04-28T13:54:38Z</time>
      </trkpt>
      <trkpt lat="47.53562" lon="3.75312">
        <ele>246.72</ele>
        <time>2013-04-28T13:54:42Z</time>
      </trkpt>
      <trkpt lat="47.5356" lon="3.75317">
        <ele>246.72</ele>
        <time>2013-04-28T13:54:44Z</time>
      </trkpt>
      <trkpt lat="47.53556" lon="3.75335">
        <ele>245.27</ele>
        <time>2013-04-28T13:54:52Z</time>
      </trkpt>
      <trkpt lat="47.53555" lon="3.75338">
        <ele>245.27</ele>
        <time>2013-04-28T13:54:54Z</time>
      </trkpt>
      <trkpt lat="47.53553" lon="3.75356">
        <ele>243.35</ele>
        <time>2013-04-28T13:55:04Z</time>
      </trkpt>
      <trkpt lat="47.53552" lon="3.7537">
        <ele>241.91</ele>
        <time>2013-04-28T13:55:12Z</time>
      </trkpt>
      <trkpt lat="47.53552" lon="3.75373">
        <ele>241.91</ele>
        <time>2013-04-28T13:55:13Z</time>
      </trkpt>
      <trkpt lat="47.53553" lon="3.75389">
        <ele>240.95</ele>
        <time>2013-04-28T13:55:20Z</time>
      </trkpt>
      <trkpt lat="47.53553" lon="3.75396">
        <ele>240.47</ele>
        <time>2013-04-28T13:55:22Z</time>
      </trkpt>
      <trkpt lat="47.53554" lon="3.75406">
        <ele>240.47</ele>
        <time>2013-04-28T13:55:26Z</time>
      </trkpt>
      <trkpt lat="47.5355" lon="3.75429">
        <ele>239.51</ele>
        <time>2013-04-28T13:55:36Z</time>
      </trkpt>
      <trkpt lat="47.53549" lon="3.75433">
        <ele>239.51</ele>
        <time>2013-04-28T13:55:38Z</time>
      </trkpt>
      <trkpt lat="47.53547" lon="3.75461">
        <ele>238.54</ele>
        <time>2013-04-28T13:55:49Z</time>
      </trkpt>
      <trkpt lat="47.53546" lon="3.75481">
        <ele>237.58</ele>
        <time>2013-04-28T13:55:59Z</time>
      </trkpt>
      <trkpt lat="47.53545" lon="3.75483">
        <ele>237.58</ele>
        <time>2013-04-28T13:56:00Z</time>
      </trkpt>
      <trkpt lat="47.53543" lon="3.75487">
        <ele>237.1</ele>
        <time>2013-04-28T13:56:02Z</time>
      </trkpt>
      <trkpt lat="47.53546" lon="3.75519">
        <ele>236.62</ele>
        <time>2013-04-28T13:56:11Z</time>
      </trkpt>
      <trkpt lat="47.53543" lon="3.75547">
        <ele>235.18</ele>
        <time>2013-04-28T13:56:22Z</time>
      </trkpt>
      <trkpt lat="47.53542" lon="3.75564">
        <ele>234.7</ele>
        <time>2013-04-28T13:56:31Z</time>
      </trkpt>
      <trkpt lat="47.53542" lon="3.75588">
        <ele>234.22</ele>
        <time>2013-04-28T13:56:41Z</time>
      </trkpt>
      <trkpt lat="47.5354" lon="3.75602">
        <ele>233.74</ele>
        <time>2013-04-28T13:56:47Z</time>
      </trkpt>
      <trkpt lat="47.53536" lon="3.75624">
        <ele>232.78</ele>
        <time>2013-04-28T13:56:56Z</time>
      </trkpt>
      <trkpt lat="47.53528" lon="3.75641">
        <ele>232.3</ele>
        <time>2013-04-28T13:57:06Z</time>
      </trkpt>
      <trkpt lat="47.53528" lon="3.75645">
        <ele>231.81</ele>
        <time>2013-04-28T13:57:08Z</time>
      </trkpt>
      <trkpt lat="47.53512" lon="3.75669">
        <ele>230.85</ele>
        <time>2013-04-28T13:57:21Z</time>
      </trkpt>
      <trkpt lat="47.53501" lon="3.75685">
        <ele>229.89</ele>
        <time>2013-04-28T13:57:31Z</time>
      </trkpt>
      <trkpt lat="47.53492" lon="3.757">
        <ele>229.41</ele>
        <time>2013-04-28T13:57:41Z</time>
      </trkpt>
      <trkpt lat="47.53479" lon="3.75719">
        <ele>228.45</ele>
        <time>2013-04-28T13:57:53Z</time>
      </trkpt>
      <trkpt lat="47.53468" lon="3.75736">
        <ele>227.97</ele>
        <time>2013-04-28T13:58:03Z</time>
      </trkpt>
      <trkpt lat="47.53463" lon="3.75742">
        <ele>227.49</ele>
        <time>2013-04-28T13:58:07Z</time>
      </trkpt>
      <trkpt lat="47.53457" lon="3.7575">
        <ele>227.01</ele>
        <time>2013-04-28T13:58:12Z</time>
      </trkpt>
      <trkpt lat="47.53447" lon="3.7576">
        <ele>226.53</ele>
        <time>2013-04-28T13:58:21Z</time>
      </trkpt>
      <trkpt lat="47.53436" lon="3.7578">
        <ele>225.09</ele>
        <time>2013-04-28T13:58:32Z</time>
      </trkpt>
      <trkpt lat="47.53422" lon="3.75792">
        <ele>222.68</ele>
        <time>2013-04-28T13:58:42Z</time>
      </trkpt>
      <trkpt lat="47.53418" lon="3.75796">
        <ele>224.61</ele>
        <time>2013-04-28T13:58:45Z</time>
      </trkpt>
      <trkpt lat="47.53404" lon="3.75812">
        <ele>223.64</ele>
        <time>2013-04-28T13:58:58Z</time>
      </trkpt>
      <trkpt lat="47.53396" lon="3.75823">
        <ele>223.64</ele>
        <time>2013-04-28T13:59:05Z</time>
      </trkpt>
      <trkpt lat="47.53388" lon="3.75838">
        <ele>224.12</ele>
        <time>2013-04-28T13:59:15Z</time>
      </trkpt>
      <trkpt lat="47.53387" lon="3.75847">
        <ele>225.09</ele>
        <time>2013-04-28T13:59:18Z</time>
      </trkpt>
      <trkpt lat="47.53381" lon="3.75862">
        <ele>231.81</ele>
        <time>2013-04-28T13:59:24Z</time>
      </trkpt>
      <trkpt lat="47.5338" lon="3.75864">
        <ele>224.12</ele>
        <time>2013-04-28T13:59:25Z</time>
      </trkpt>
      <trkpt lat="47.53379" lon="3.75867">
        <ele>227.97</ele>
        <time>2013-04-28T13:59:27Z</time>
      </trkpt>
      <trkpt lat="47.53379" lon="3.75871">
        <ele>226.53</ele>
        <time>2013-04-28T13:59:31Z</time>
      </trkpt>
      <trkpt lat="47.53377" lon="3.75873">
        <ele>228.93</ele>
        <time>2013-04-28T13:59:33Z</time>
      </trkpt>
      <trkpt lat="47.53369" lon="3.75877">
        <ele>229.41</ele>
        <time>2013-04-28T13:59:45Z</time>
      </trkpt>
      <trkpt lat="47.53357" lon="3.75875">
        <ele>231.81</ele>
        <time>2013-04-28T13:59:57Z</time>
      </trkpt>
      <trkpt lat="47.53336" lon="3.75862">
        <ele>232.78</ele>
        <time>2013-04-28T14:00:09Z</time>
      </trkpt>
      <trkpt lat="47.53332" lon="3.75858">
        <ele>233.26</ele>
        <time>2013-04-28T14:00:12Z</time>
      </trkpt>
      <trkpt lat="47.53316" lon="3.75853">
        <ele>235.66</ele>
        <time>2013-04-28T14:00:23Z</time>
      </trkpt>
      <trkpt lat="47.5331" lon="3.75853">
        <ele>236.62</ele>
        <time>2013-04-28T14:00:29Z</time>
      </trkpt>
      <trkpt lat="47.53299" lon="3.75846">
        <ele>237.58</ele>
        <time>2013-04-28T14:00:35Z</time>
      </trkpt>
      <trkpt lat="47.53288" lon="3.75836">
        <ele>238.06</ele>
        <time>2013-04-28T14:00:44Z</time>
      </trkpt>
      <trkpt lat="47.53282" lon="3.75832">
        <ele>238.54</ele>
        <time>2013-04-28T14:00:48Z</time>
      </trkpt>
      <trkpt lat="47.53265" lon="3.75814">
        <ele>239.02</ele>
        <time>2013-04-28T14:01:00Z</time>
      </trkpt>
      <trkpt lat="47.53257" lon="3.75812">
        <ele>239.51</ele>
        <time>2013-04-28T14:01:08Z</time>
      </trkpt>
      <trkpt lat="47.53245" lon="3.75822">
        <ele>242.39</ele>
        <time>2013-04-28T14:01:21Z</time>
      </trkpt>
      <trkpt lat="47.53245" lon="3.75823">
        <ele>242.87</ele>
        <time>2013-04-28T14:01:22Z</time>
      </trkpt>
      <trkpt lat="47.53241" lon="3.75826">
        <ele>242.87</ele>
        <time>2013-04-28T14:01:25Z</time>
      </trkpt>
      <trkpt lat="47.53228" lon="3.75842">
        <ele>245.27</ele>
        <time>2013-04-28T14:01:38Z</time>
      </trkpt>
      <trkpt lat="47.53216" lon="3.75849">
        <ele>247.2</ele>
        <time>2013-04-28T14:01:49Z</time>
      </trkpt>
      <trkpt lat="47.53216" lon="3.75849">
        <ele>247.2</ele>
        <time>2013-04-28T14:01:50Z</time>
      </trkpt>
      <trkpt lat="47.53209" lon="3.75857">
        <ele>248.64</ele>
        <time>2013-04-28T14:02:00Z</time>
      </trkpt>
      <trkpt lat="47.53208" lon="3.75859">
        <ele>248.64</ele>
        <time>2013-04-28T14:02:01Z</time>
      </trkpt>
      <trkpt lat="47.53205" lon="3.75862">
        <ele>249.6</ele>
        <time>2013-04-28T14:02:03Z</time>
      </trkpt>
      <trkpt lat="47.53189" lon="3.75876">
        <ele>250.56</ele>
        <time>2013-04-28T14:02:14Z</time>
      </trkpt>
      <trkpt lat="47.53176" lon="3.7589">
        <ele>252.48</ele>
        <time>2013-04-28T14:02:24Z</time>
      </trkpt>
      <trkpt lat="47.53165" lon="3.75902">
        <ele>253.44</ele>
        <time>2013-04-28T14:02:34Z</time>
      </trkpt>
      <trkpt lat="47.53163" lon="3.75904">
        <ele>253.44</ele>
        <time>2013-04-28T14:02:36Z</time>
      </trkpt>
      <trkpt lat="47.53162" lon="3.75907">
        <ele>253.93</ele>
        <time>2013-04-28T14:02:38Z</time>
      </trkpt>
      <trkpt lat="47.53152" lon="3.75918">
        <ele>254.41</ele>
        <time>2013-04-28T14:02:48Z</time>
      </trkpt>
      <trkpt lat="47.53143" lon="3.75926">
        <ele>254.89</ele>
        <time>2013-04-28T14:02:54Z</time>
      </trkpt>
      <trkpt lat="47.53138" lon="3.75931">
        <ele>254.89</ele>
        <time>2013-04-28T14:02:57Z</time>
      </trkpt>
      <trkpt lat="47.53129" lon="3.75939">
        <ele>255.85</ele>
        <time>2013-04-28T14:03:06Z</time>
      </trkpt>
      <trkpt lat="47.53124" lon="3.75946">
        <ele>255.85</ele>
        <time>2013-04-28T14:03:10Z</time>
      </trkpt>
      <trkpt lat="47.5311" lon="3.75957">
        <ele>256.81</ele>
        <time>2013-04-28T14:03:20Z</time>
      </trkpt>
      <trkpt lat="47.53104" lon="3.75962">
        <ele>256.81</ele>
        <time>2013-04-28T14:03:25Z</time>
      </trkpt>
      <trkpt lat="47.53101" lon="3.75965">
        <ele>256.81</ele>
        <time>2013-04-28T14:03:28Z</time>
      </trkpt>
      <trkpt lat="47.53095" lon="3.75969">
        <ele>257.29</ele>
        <time>2013-04-28T14:03:35Z</time>
      </trkpt>
      <trkpt lat="47.53092" lon="3.75972">
        <ele>257.29</ele>
        <time>2013-04-28T14:03:38Z</time>
      </trkpt>
      <trkpt lat="47.53082" lon="3.75983">
        <ele>257.29</ele>
        <time>2013-04-28T14:03:44Z</time>
      </trkpt>
      <trkpt lat="47.5307" lon="3.75993">
        <ele>257.29</ele>
        <time>2013-04-28T14:03:52Z</time>
      </trkpt>
      <trkpt lat="47.53068" lon="3.75993">
        <ele>257.77</ele>
        <time>2013-04-28T14:03:53Z</time>
      </trkpt>
      <trkpt lat="47.53056" lon="3.7601">
        <ele>257.77</ele>
        <time>2013-04-28T14:04:02Z</time>
      </trkpt>
      <trkpt lat="47.53046" lon="3.76021">
        <ele>257.77</ele>
        <time>2013-04-28T14:04:10Z</time>
      </trkpt>
      <trkpt lat="47.53042" lon="3.76025">
        <ele>257.77</ele>
        <time>2013-04-28T14:04:14Z</time>
      </trkpt>
      <trkpt lat="47.5304" lon="3.76027">
        <ele>258.25</ele>
        <time>2013-04-28T14:04:16Z</time>
      </trkpt>
      <trkpt lat="47.53037" lon="3.7603">
        <ele>258.25</ele>
        <time>2013-04-28T14:04:20Z</time>
      </trkpt>
      <trkpt lat="47.53028" lon="3.76041">
        <ele>257.77</ele>
        <time>2013-04-28T14:04:29Z</time>
      </trkpt>
      <trkpt lat="47.53019" lon="3.7605">
        <ele>257.29</ele>
        <time>2013-04-28T14:04:38Z</time>
      </trkpt>
      <trkpt lat="47.53012" lon="3.76057">
        <ele>257.77</ele>
        <time>2013-04-28T14:04:43Z</time>
      </trkpt>
      <trkpt lat="47.53008" lon="3.7606">
        <ele>257.29</ele>
        <time>2013-04-28T14:04:47Z</time>
      </trkpt>
      <trkpt lat="47.53005" lon="3.76062">
        <ele>257.77</ele>
        <time>2013-04-28T14:04:49Z</time>
      </trkpt>
      <trkpt lat="47.53001" lon="3.76067">
        <ele>257.29</ele>
        <time>2013-04-28T14:04:53Z</time>
      </trkpt>
      <trkpt lat="47.52996" lon="3.76073">
        <ele>257.29</ele>
        <time>2013-04-28T14:04:57Z</time>
      </trkpt>
      <trkpt lat="47.52981" lon="3.76086">
        <ele>257.77</ele>
        <time>2013-04-28T14:05:08Z</time>
      </trkpt>
      <trkpt lat="47.52974" lon="3.76094">
        <ele>257.29</ele>
        <time>2013-04-28T14:05:17Z</time>
      </trkpt>
      <trkpt lat="47.52963" lon="3.76105">
        <ele>256.81</ele>
        <time>2013-04-28T14:05:25Z</time>
      </trkpt>
      <trkpt lat="47.52953" lon="3.76116">
        <ele>256.33</ele>
        <time>2013-04-28T14:05:33Z</time>
      </trkpt>
      <trkpt lat="47.52942" lon="3.76122">
        <ele>255.85</ele>
        <time>2013-04-28T14:05:42Z</time>
      </trkpt>
      <trkpt lat="47.52936" lon="3.76118">
        <ele>255.37</ele>
        <time>2013-04-28T14:05:47Z</time>
      </trkpt>
      <trkpt lat="47.52926" lon="3.7611">
        <ele>255.37</ele>
        <time>2013-04-28T14:05:56Z</time>
      </trkpt>
      <trkpt lat="47.52925" lon="3.76109">
        <ele>255.85</ele>
        <time>2013-04-28T14:05:57Z</time>
      </trkpt>
      <trkpt lat="47.52917" lon="3.76099">
        <ele>255.85</ele>
        <time>2013-04-28T14:06:07Z</time>
      </trkpt>
      <trkpt lat="47.52913" lon="3.76093">
        <ele>255.85</ele>
        <time>2013-04-28T14:06:15Z</time>
      </trkpt>
      <trkpt lat="47.52904" lon="3.76079">
        <ele>256.33</ele>
        <time>2013-04-28T14:06:25Z</time>
      </trkpt>
      <trkpt lat="47.52898" lon="3.76067">
        <ele>256.33</ele>
        <time>2013-04-28T14:06:34Z</time>
      </trkpt>
      <trkpt lat="47.52885" lon="3.76049">
        <ele>256.81</ele>
        <time>2013-04-28T14:06:44Z</time>
      </trkpt>
      <trkpt lat="47.52875" lon="3.76035">
        <ele>256.81</ele>
        <time>2013-04-28T14:06:55Z</time>
      </trkpt>
      <trkpt lat="47.52869" lon="3.76021">
        <ele>257.29</ele>
        <time>2013-04-28T14:07:04Z</time>
      </trkpt>
      <trkpt lat="47.52855" lon="3.75999">
        <ele>256.81</ele>
        <time>2013-04-28T14:07:13Z</time>
      </trkpt>
      <trkpt lat="47.52846" lon="3.75977">
        <ele>257.29</ele>
        <time>2013-04-28T14:07:22Z</time>
      </trkpt>
      <trkpt lat="47.52841" lon="3.75967">
        <ele>257.29</ele>
        <time>2013-04-28T14:07:32Z</time>
      </trkpt>
      <trkpt lat="47.52839" lon="3.75964">
        <ele>257.29</ele>
        <time>2013-04-28T14:07:34Z</time>
      </trkpt>
      <trkpt lat="47.52831" lon="3.75948">
        <ele>257.77</ele>
        <time>2013-04-28T14:07:45Z</time>
      </trkpt>
      <trkpt lat="47.52826" lon="3.75936">
        <ele>257.29</ele>
        <time>2013-04-28T14:07:54Z</time>
      </trkpt>
      <trkpt lat="47.52816" lon="3.75917">
        <ele>256.81</ele>
        <time>2013-04-28T14:08:03Z</time>
      </trkpt>
      <trkpt lat="47.52815" lon="3.75912">
        <ele>252.96</ele>
        <time>2013-04-28T14:08:06Z</time>
      </trkpt>
      <trkpt lat="47.52814" lon="3.7591">
        <ele>256.33</ele>
        <time>2013-04-28T14:08:07Z</time>
      </trkpt>
      <trkpt lat="47.52813" lon="3.75908">
        <ele>259.69</ele>
        <time>2013-04-28T14:08:08Z</time>
      </trkpt>
      <trkpt lat="47.52813" lon="3.75907">
        <ele>257.29</ele>
        <time>2013-04-28T14:08:09Z</time>
      </trkpt>
      <trkpt lat="47.52812" lon="3.75905">
        <ele>252.48</ele>
        <time>2013-04-28T14:08:10Z</time>
      </trkpt>
      <trkpt lat="47.52812" lon="3.75903">
        <ele>262.1</ele>
        <time>2013-04-28T14:08:11Z</time>
      </trkpt>
      <trkpt lat="47.52812" lon="3.75902">
        <ele>257.77</ele>
        <time>2013-04-28T14:08:12Z</time>
      </trkpt>
      <trkpt lat="47.52813" lon="3.75899">
        <ele>256.81</ele>
        <time>2013-04-28T14:08:14Z</time>
      </trkpt>
      <trkpt lat="47.52809" lon="3.75885">
        <ele>256.33</ele>
        <time>2013-04-28T14:08:23Z</time>
      </trkpt>
      <trkpt lat="47.52801" lon="3.7587">
        <ele>256.33</ele>
        <time>2013-04-28T14:08:34Z</time>
      </trkpt>
      <trkpt lat="47.52794" lon="3.75855">
        <ele>255.85</ele>
        <time>2013-04-28T14:08:43Z</time>
      </trkpt>
      <trkpt lat="47.52786" lon="3.75843">
        <ele>256.33</ele>
        <time>2013-04-28T14:08:54Z</time>
      </trkpt>
      <trkpt lat="47.52776" lon="3.7583">
        <ele>255.85</ele>
        <time>2013-04-28T14:09:05Z</time>
      </trkpt>
      <trkpt lat="47.52775" lon="3.7583">
        <ele>256.33</ele>
        <time>2013-04-28T14:09:06Z</time>
      </trkpt>
      <trkpt lat="47.52772" lon="3.75827">
        <ele>256.33</ele>
        <time>2013-04-28T14:09:08Z</time>
      </trkpt>
      <trkpt lat="47.52761" lon="3.75812">
        <ele>256.33</ele>
        <time>2013-04-28T14:09:19Z</time>
      </trkpt>
      <trkpt lat="47.52759" lon="3.75808">
        <ele>255.85</ele>
        <time>2013-04-28T14:09:21Z</time>
      </trkpt>
      <trkpt lat="47.52744" lon="3.7579">
        <ele>255.37</ele>
        <time>2013-04-28T14:09:33Z</time>
      </trkpt>
      <trkpt lat="47.52738" lon="3.75778">
        <ele>255.85</ele>
        <time>2013-04-28T14:09:43Z</time>
      </trkpt>
      <trkpt lat="47.52733" lon="3.75766">
        <ele>255.85</ele>
        <time>2013-04-28T14:09:53Z</time>
      </trkpt>
      <trkpt lat="47.52731" lon="3.75762">
        <ele>255.37</ele>
        <time>2013-04-28T14:09:56Z</time>
      </trkpt>
      <trkpt lat="47.52718" lon="3.75745">
        <ele>255.85</ele>
        <time>2013-04-28T14:10:07Z</time>
      </trkpt>
      <trkpt lat="47.52708" lon="3.75731">
        <ele>256.33</ele>
        <time>2013-04-28T14:10:17Z</time>
      </trkpt>
      <trkpt lat="47.52698" lon="3.75713">
        <ele>256.33</ele>
        <time>2013-04-28T14:10:27Z</time>
      </trkpt>
      <trkpt lat="47.52687" lon="3.75705">
        <ele>257.29</ele>
        <time>2013-04-28T14:10:38Z</time>
      </trkpt>
      <trkpt lat="47.52686" lon="3.75704">
        <ele>257.29</ele>
        <time>2013-04-28T14:10:39Z</time>
      </trkpt>
      <trkpt lat="47.52673" lon="3.75697">
        <ele>257.77</ele>
        <time>2013-04-28T14:10:50Z</time>
      </trkpt>
      <trkpt lat="47.52664" lon="3.75688">
        <ele>258.25</ele>
        <time>2013-04-28T14:10:59Z</time>
      </trkpt>
      <trkpt lat="47.52653" lon="3.75679">
        <ele>258.25</ele>
        <time>2013-04-28T14:11:09Z</time>
      </trkpt>
      <trkpt lat="47.52639" lon="3.75663">
        <ele>258.73</ele>
        <time>2013-04-28T14:11:22Z</time>
      </trkpt>
      <trkpt lat="47.52629" lon="3.75647">
        <ele>259.21</ele>
        <time>2013-04-28T14:11:34Z</time>
      </trkpt>
      <trkpt lat="47.5262" lon="3.75635">
        <ele>259.21</ele>
        <time>2013-04-28T14:11:44Z</time>
      </trkpt>
      <trkpt lat="47.5261" lon="3.75621">
        <ele>259.69</ele>
        <time>2013-04-28T14:11:54Z</time>
      </trkpt>
      <trkpt lat="47.526" lon="3.75602">
        <ele>260.17</ele>
        <time>2013-04-28T14:12:06Z</time>
      </trkpt>
      <trkpt lat="47.52597" lon="3.75599">
        <ele>260.17</ele>
        <time>2013-04-28T14:12:11Z</time>
      </trkpt>
      <trkpt lat="47.52596" lon="3.75598">
        <ele>260.17</ele>
        <time>2013-04-28T14:12:13Z</time>
      </trkpt>
      <trkpt lat="47.52594" lon="3.75595">
        <ele>260.17</ele>
        <time>2013-04-28T14:12:15Z</time>
      </trkpt>
      <trkpt lat="47.5259" lon="3.75589">
        <ele>260.17</ele>
        <time>2013-04-28T14:12:19Z</time>
      </trkpt>
      <trkpt lat="47.52581" lon="3.75572">
        <ele>260.65</ele>
        <time>2013-04-28T14:12:29Z</time>
      </trkpt>
      <trkpt lat="47.52571" lon="3.75551">
        <ele>261.14</ele>
        <time>2013-04-28T14:12:41Z</time>
      </trkpt>
      <trkpt lat="47.52558" lon="3.75539">
        <ele>261.62</ele>
        <time>2013-04-28T14:12:52Z</time>
      </trkpt>
      <trkpt lat="47.52557" lon="3.75538">
        <ele>261.14</ele>
        <time>2013-04-28T14:12:53Z</time>
      </trkpt>
      <trkpt lat="47.52553" lon="3.75534">
        <ele>261.62</ele>
        <time>2013-04-28T14:12:57Z</time>
      </trkpt>
      <trkpt lat="47.52548" lon="3.75527">
        <ele>261.62</ele>
        <time>2013-04-28T14:13:01Z</time>
      </trkpt>
      <trkpt lat="47.52531" lon="3.75518">
        <ele>263.06</ele>
        <time>2013-04-28T14:13:13Z</time>
      </trkpt>
      <trkpt lat="47.52515" lon="3.75512">
        <ele>263.54</ele>
        <time>2013-04-28T14:13:24Z</time>
      </trkpt>
      <trkpt lat="47.52512" lon="3.75512">
        <ele>264.02</ele>
        <time>2013-04-28T14:13:26Z</time>
      </trkpt>
      <trkpt lat="47.52509" lon="3.75509">
        <ele>264.02</ele>
        <time>2013-04-28T14:13:38Z</time>
      </trkpt>
      <trkpt lat="47.52507" lon="3.75507">
        <ele>264.02</ele>
        <time>2013-04-28T14:13:47Z</time>
      </trkpt>
      <trkpt lat="47.52494" lon="3.75504">
        <ele>264.5</ele>
        <time>2013-04-28T14:13:58Z</time>
      </trkpt>
      <trkpt lat="47.52478" lon="3.755">
        <ele>264.5</ele>
        <time>2013-04-28T14:14:09Z</time>
      </trkpt>
      <trkpt lat="47.52465" lon="3.75495">
        <ele>264.5</ele>
        <time>2013-04-28T14:14:19Z</time>
      </trkpt>
      <trkpt lat="47.52451" lon="3.75487">
        <ele>264.02</ele>
        <time>2013-04-28T14:14:31Z</time>
      </trkpt>
      <trkpt lat="47.52449" lon="3.75487">
        <ele>264.02</ele>
        <time>2013-04-28T14:14:33Z</time>
      </trkpt>
      <trkpt lat="47.52434" lon="3.75485">
        <ele>263.54</ele>
        <time>2013-04-28T14:14:44Z</time>
      </trkpt>
      <trkpt lat="47.52423" lon="3.75482">
        <ele>263.06</ele>
        <time>2013-04-28T14:14:54Z</time>
      </trkpt>
      <trkpt lat="47.52414" lon="3.75479">
        <ele>262.1</ele>
        <time>2013-04-28T14:15:02Z</time>
      </trkpt>
      <trkpt lat="47.52408" lon="3.75478">
        <ele>262.58</ele>
        <time>2013-04-28T14:15:07Z</time>
      </trkpt>
      <trkpt lat="47.52404" lon="3.75477">
        <ele>261.62</ele>
        <time>2013-04-28T14:15:09Z</time>
      </trkpt>
      <trkpt lat="47.52386" lon="3.7547">
        <ele>260.17</ele>
        <time>2013-04-28T14:15:20Z</time>
      </trkpt>
      <trkpt lat="47.5237" lon="3.75471">
        <ele>259.21</ele>
        <time>2013-04-28T14:15:31Z</time>
      </trkpt>
      <trkpt lat="47.5236" lon="3.75468">
        <ele>257.77</ele>
        <time>2013-04-28T14:15:41Z</time>
      </trkpt>
      <trkpt lat="47.52346" lon="3.75461">
        <ele>255.85</ele>
        <time>2013-04-28T14:15:50Z</time>
      </trkpt>
      <trkpt lat="47.52334" lon="3.75461">
        <ele>253.44</ele>
        <time>2013-04-28T14:16:01Z</time>
      </trkpt>
      <trkpt lat="47.52322" lon="3.75469">
        <ele>251.52</ele>
        <time>2013-04-28T14:16:11Z</time>
      </trkpt>
      <trkpt lat="47.52309" lon="3.75478">
        <ele>248.64</ele>
        <time>2013-04-28T14:16:22Z</time>
      </trkpt>
      <trkpt lat="47.52295" lon="3.7548">
        <ele>245.27</ele>
        <time>2013-04-28T14:16:34Z</time>
      </trkpt>
      <trkpt lat="47.52285" lon="3.75479">
        <ele>243.35</ele>
        <time>2013-04-28T14:16:44Z</time>
      </trkpt>
      <trkpt lat="47.52279" lon="3.75477">
        <ele>241.43</ele>
        <time>2013-04-28T14:16:50Z</time>
      </trkpt>
      <trkpt lat="47.52277" lon="3.75475">
        <ele>240.95</ele>
        <time>2013-04-28T14:16:52Z</time>
      </trkpt>
      <trkpt lat="47.52272" lon="3.75471">
        <ele>239.51</ele>
        <time>2013-04-28T14:16:56Z</time>
      </trkpt>
      <trkpt lat="47.52256" lon="3.75457">
        <ele>237.58</ele>
        <time>2013-04-28T14:17:08Z</time>
      </trkpt>
      <trkpt lat="47.52244" lon="3.75445">
        <ele>236.14</ele>
        <time>2013-04-28T14:17:16Z</time>
      </trkpt>
      <trkpt lat="47.52233" lon="3.75439">
        <ele>234.7</ele>
        <time>2013-04-28T14:17:25Z</time>
      </trkpt>
      <trkpt lat="47.52224" lon="3.75434">
        <ele>233.26</ele>
        <time>2013-04-28T14:17:32Z</time>
      </trkpt>
      <trkpt lat="47.52222" lon="3.75432">
        <ele>232.78</ele>
        <time>2013-04-28T14:17:34Z</time>
      </trkpt>
      <trkpt lat="47.52214" lon="3.75429">
        <ele>231.33</ele>
        <time>2013-04-28T14:17:39Z</time>
      </trkpt>
      <trkpt lat="47.52206" lon="3.75423">
        <ele>229.41</ele>
        <time>2013-04-28T14:17:46Z</time>
      </trkpt>
      <trkpt lat="47.52196" lon="3.75416">
        <ele>226.53</ele>
        <time>2013-04-28T14:17:55Z</time>
      </trkpt>
      <trkpt lat="47.52189" lon="3.75408">
        <ele>224.61</ele>
        <time>2013-04-28T14:18:03Z</time>
      </trkpt>
      <trkpt lat="47.52186" lon="3.75407">
        <ele>223.64</ele>
        <time>2013-04-28T14:18:05Z</time>
      </trkpt>
      <trkpt lat="47.52176" lon="3.75406">
        <ele>220.28</ele>
        <time>2013-04-28T14:18:17Z</time>
      </trkpt>
      <trkpt lat="47.52169" lon="3.75403">
        <ele>217.88</ele>
        <time>2013-04-28T14:18:23Z</time>
      </trkpt>
      <trkpt lat="47.52168" lon="3.75402">
        <ele>217.4</ele>
        <time>2013-04-28T14:18:24Z</time>
      </trkpt>
      <trkpt lat="47.52159" lon="3.75401">
        <ele>215.95</ele>
        <time>2013-04-28T14:18:28Z</time>
      </trkpt>
      <trkpt lat="47.52144" lon="3.75397">
        <ele>213.07</ele>
        <time>2013-04-28T14:18:39Z</time>
      </trkpt>
      <trkpt lat="47.52135" lon="3.75397">
        <ele>210.67</ele>
        <time>2013-04-28T14:18:49Z</time>
      </trkpt>
      <trkpt lat="47.52124" lon="3.75395">
        <ele>208.26</ele>
        <time>2013-04-28T14:18:58Z</time>
      </trkpt>
      <trkpt lat="47.52102" lon="3.75393">
        <ele>204.9</ele>
        <time>2013-04-28T14:19:10Z</time>
      </trkpt>
      <trkpt lat="47.52088" lon="3.75394">
        <ele>202.01</ele>
        <time>2013-04-28T14:19:20Z</time>
      </trkpt>
      <trkpt lat="47.5208" lon="3.75393">
        <ele>201.05</ele>
        <time>2013-04-28T14:19:25Z</time>
      </trkpt>
      <trkpt lat="47.52063" lon="3.75386">
        <ele>197.21</ele>
        <time>2013-04-28T14:19:37Z</time>
      </trkpt>
      <trkpt lat="47.52057" lon="3.75382">
        <ele>196.25</ele>
        <time>2013-04-28T14:19:42Z</time>
      </trkpt>
      <trkpt lat="47.52043" lon="3.75393">
        <ele>193.84</ele>
        <time>2013-04-28T14:19:53Z</time>
      </trkpt>
      <trkpt lat="47.52041" lon="3.75391">
        <ele>193.36</ele>
        <time>2013-04-28T14:19:56Z</time>
      </trkpt>
      <trkpt lat="47.5203" lon="3.75387">
        <ele>191.92</ele>
        <time>2013-04-28T14:20:04Z</time>
      </trkpt>
      <trkpt lat="47.52012" lon="3.75382">
        <ele>189.52</ele>
        <time>2013-04-28T14:20:17Z</time>
      </trkpt>
      <trkpt lat="47.51997" lon="3.75378">
        <ele>189.04</ele>
        <time>2013-04-28T14:20:27Z</time>
      </trkpt>
      <trkpt lat="47.51982" lon="3.75375">
        <ele>187.59</ele>
        <time>2013-04-28T14:20:37Z</time>
      </trkpt>
      <trkpt lat="47.51966" lon="3.75372">
        <ele>187.11</ele>
        <time>2013-04-28T14:20:48Z</time>
      </trkpt>
      <trkpt lat="47.5195" lon="3.75368">
        <ele>186.15</ele>
        <time>2013-04-28T14:20:58Z</time>
      </trkpt>
      <trkpt lat="47.51934" lon="3.75363">
        <ele>185.19</ele>
        <time>2013-04-28T14:21:09Z</time>
      </trkpt>
      <trkpt lat="47.51917" lon="3.75355">
        <ele>184.23</ele>
        <time>2013-04-28T14:21:21Z</time>
      </trkpt>
      <trkpt lat="47.51903" lon="3.75347">
        <ele>184.23</ele>
        <time>2013-04-28T14:21:31Z</time>
      </trkpt>
      <trkpt lat="47.51887" lon="3.75332">
        <ele>183.75</ele>
        <time>2013-04-28T14:21:44Z</time>
      </trkpt>
      <trkpt lat="47.51878" lon="3.75327">
        <ele>183.27</ele>
        <time>2013-04-28T14:21:52Z</time>
      </trkpt>
      <trkpt lat="47.51875" lon="3.75322">
        <ele>182.79</ele>
        <time>2013-04-28T14:21:56Z</time>
      </trkpt>
      <trkpt lat="47.51864" lon="3.75316">
        <ele>182.31</ele>
        <time>2013-04-28T14:22:04Z</time>
      </trkpt>
      <trkpt lat="47.51861" lon="3.75311">
        <ele>182.31</ele>
        <time>2013-04-28T14:22:08Z</time>
      </trkpt>
      <trkpt lat="47.51855" lon="3.75305">
        <ele>181.83</ele>
        <time>2013-04-28T14:22:14Z</time>
      </trkpt>
      <trkpt lat="47.51846" lon="3.75299">
        <ele>181.35</ele>
        <time>2013-04-28T14:22:21Z</time>
      </trkpt>
      <trkpt lat="47.5184" lon="3.75295">
        <ele>181.35</ele>
        <time>2013-04-28T14:22:25Z</time>
      </trkpt>
      <trkpt lat="47.51832" lon="3.75288">
        <ele>181.35</ele>
        <time>2013-04-28T14:22:37Z</time>
      </trkpt>
      <trkpt lat="47.51828" lon="3.75285">
        <ele>180.87</ele>
        <time>2013-04-28T14:22:41Z</time>
      </trkpt>
      <trkpt lat="47.51826" lon="3.75283">
        <ele>180.87</ele>
        <time>2013-04-28T14:22:43Z</time>
      </trkpt>
      <trkpt lat="47.51822" lon="3.7528">
        <ele>180.87</ele>
        <time>2013-04-28T14:22:47Z</time>
      </trkpt>
      <trkpt lat="47.51806" lon="3.75267">
        <ele>179.9</ele>
        <time>2013-04-28T14:22:59Z</time>
      </trkpt>
      <trkpt lat="47.51793" lon="3.7526">
        <ele>179.42</ele>
        <time>2013-04-28T14:23:09Z</time>
      </trkpt>
      <trkpt lat="47.51779" lon="3.7525">
        <ele>178.94</ele>
        <time>2013-04-28T14:23:19Z</time>
      </trkpt>
      <trkpt lat="47.51766" lon="3.75239">
        <ele>178.46</ele>
        <time>2013-04-28T14:23:30Z</time>
      </trkpt>
      <trkpt lat="47.51752" lon="3.75228">
        <ele>177.98</ele>
        <time>2013-04-28T14:23:41Z</time>
      </trkpt>
      <trkpt lat="47.51747" lon="3.75226">
        <ele>177.5</ele>
        <time>2013-04-28T14:23:45Z</time>
      </trkpt>
      <trkpt lat="47.51734" lon="3.75217">
        <ele>177.5</ele>
        <time>2013-04-28T14:23:55Z</time>
      </trkpt>
      <trkpt lat="47.51725" lon="3.75207">
        <ele>177.02</ele>
        <time>2013-04-28T14:24:04Z</time>
      </trkpt>
      <trkpt lat="47.51712" lon="3.75196">
        <ele>176.54</ele>
        <time>2013-04-28T14:24:15Z</time>
      </trkpt>
      <trkpt lat="47.51699" lon="3.75187">
        <ele>176.06</ele>
        <time>2013-04-28T14:24:26Z</time>
      </trkpt>
      <trkpt lat="47.51697" lon="3.75184">
        <ele>176.06</ele>
        <time>2013-04-28T14:24:28Z</time>
      </trkpt>
      <trkpt lat="47.51693" lon="3.7518">
        <ele>175.58</ele>
        <time>2013-04-28T14:24:32Z</time>
      </trkpt>
      <trkpt lat="47.5169" lon="3.75177">
        <ele>175.58</ele>
        <time>2013-04-28T14:24:34Z</time>
      </trkpt>
      <trkpt lat="47.51685" lon="3.75173">
        <ele>175.58</ele>
        <time>2013-04-28T14:24:39Z</time>
      </trkpt>
      <trkpt lat="47.51671" lon="3.75161">
        <ele>175.1</ele>
        <time>2013-04-28T14:24:51Z</time>
      </trkpt>
      <trkpt lat="47.51669" lon="3.75161">
        <ele>175.1</ele>
        <time>2013-04-28T14:24:53Z</time>
      </trkpt>
      <trkpt lat="47.51664" lon="3.75155">
        <ele>174.62</ele>
        <time>2013-04-28T14:24:58Z</time>
      </trkpt>
      <trkpt lat="47.51652" lon="3.75143">
        <ele>174.14</ele>
        <time>2013-04-28T14:25:09Z</time>
      </trkpt>
      <trkpt lat="47.51637" lon="3.75129">
        <ele>173.66</ele>
        <time>2013-04-28T14:25:21Z</time>
      </trkpt>
      <trkpt lat="47.51624" lon="3.75117">
        <ele>173.66</ele>
        <time>2013-04-28T14:25:32Z</time>
      </trkpt>
      <trkpt lat="47.51612" lon="3.75106">
        <ele>173.17</ele>
        <time>2013-04-28T14:25:43Z</time>
      </trkpt>
      <trkpt lat="47.51611" lon="3.75106">
        <ele>173.17</ele>
        <time>2013-04-28T14:25:44Z</time>
      </trkpt>
      <trkpt lat="47.51607" lon="3.75102">
        <ele>172.69</ele>
        <time>2013-04-28T14:25:48Z</time>
      </trkpt>
      <trkpt lat="47.51594" lon="3.7509">
        <ele>172.69</ele>
        <time>2013-04-28T14:25:59Z</time>
      </trkpt>
      <trkpt lat="47.51582" lon="3.75079">
        <ele>172.21</ele>
        <time>2013-04-28T14:26:10Z</time>
      </trkpt>
      <trkpt lat="47.51569" lon="3.75068">
        <ele>172.21</ele>
        <time>2013-04-28T14:26:21Z</time>
      </trkpt>
      <trkpt lat="47.51567" lon="3.75067">
        <ele>172.21</ele>
        <time>2013-04-28T14:26:23Z</time>
      </trkpt>
      <trkpt lat="47.5156" lon="3.75063">
        <ele>172.21</ele>
        <time>2013-04-28T14:26:28Z</time>
      </trkpt>
      <trkpt lat="47.51548" lon="3.75048">
        <ele>171.25</ele>
        <time>2013-04-28T14:26:40Z</time>
      </trkpt>
      <trkpt lat="47.51543" lon="3.75044">
        <ele>171.25</ele>
        <time>2013-04-28T14:26:44Z</time>
      </trkpt>
      <trkpt lat="47.51539" lon="3.75041">
        <ele>170.77</ele>
        <time>2013-04-28T14:26:48Z</time>
      </trkpt>
      <trkpt lat="47.5152" lon="3.75027">
        <ele>170.29</ele>
        <time>2013-04-28T14:27:03Z</time>
      </trkpt>
      <trkpt lat="47.51509" lon="3.75015">
        <ele>169.81</ele>
        <time>2013-04-28T14:27:13Z</time>
      </trkpt>
      <trkpt lat="47.51494" lon="3.75004">
        <ele>169.81</ele>
        <time>2013-04-28T14:27:25Z</time>
      </trkpt>
      <trkpt lat="47.51482" lon="3.74991">
        <ele>169.33</ele>
        <time>2013-04-28T14:27:36Z</time>
      </trkpt>
      <trkpt lat="47.51476" lon="3.74985">
        <ele>169.33</ele>
        <time>2013-04-28T14:27:41Z</time>
      </trkpt>
      <trkpt lat="47.51462" lon="3.74976">
        <ele>168.85</ele>
        <time>2013-04-28T14:27:52Z</time>
      </trkpt>
      <trkpt lat="47.51448" lon="3.74964">
        <ele>169.33</ele>
        <time>2013-04-28T14:28:02Z</time>
      </trkpt>
      <trkpt lat="47.5144" lon="3.74952">
        <ele>170.29</ele>
        <time>2013-04-28T14:28:11Z</time>
      </trkpt>
      <trkpt lat="47.51425" lon="3.74939">
        <ele>170.77</ele>
        <time>2013-04-28T14:28:22Z</time>
      </trkpt>
      <trkpt lat="47.51411" lon="3.74936">
        <ele>170.77</ele>
        <time>2013-04-28T14:28:31Z</time>
      </trkpt>
      <trkpt lat="47.51395" lon="3.74935">
        <ele>170.29</ele>
        <time>2013-04-28T14:28:41Z</time>
      </trkpt>
      <trkpt lat="47.51394" lon="3.74934">
        <ele>170.77</ele>
        <time>2013-04-28T14:28:42Z</time>
      </trkpt>
      <trkpt lat="47.51376" lon="3.74927">
        <ele>171.25</ele>
        <time>2013-04-28T14:28:54Z</time>
      </trkpt>
      <trkpt lat="47.51362" lon="3.74924">
        <ele>172.21</ele>
        <time>2013-04-28T14:29:03Z</time>
      </trkpt>
      <trkpt lat="47.51342" lon="3.74909">
        <ele>169.81</ele>
        <time>2013-04-28T14:29:18Z</time>
      </trkpt>
      <trkpt lat="47.51326" lon="3.74897">
        <ele>168.85</ele>
        <time>2013-04-28T14:29:29Z</time>
      </trkpt>
      <trkpt lat="47.51311" lon="3.74893">
        <ele>168.85</ele>
        <time>2013-04-28T14:29:39Z</time>
      </trkpt>
      <trkpt lat="47.51292" lon="3.74901">
        <ele>168.85</ele>
        <time>2013-04-28T14:29:52Z</time>
      </trkpt>
      <trkpt lat="47.51275" lon="3.74915">
        <ele>170.29</ele>
        <time>2013-04-28T14:30:06Z</time>
      </trkpt>
      <trkpt lat="47.51257" lon="3.74928">
        <ele>171.25</ele>
        <time>2013-04-28T14:30:19Z</time>
      </trkpt>
      <trkpt lat="47.51256" lon="3.7493">
        <ele>171.25</ele>
        <time>2013-04-28T14:30:20Z</time>
      </trkpt>
      <trkpt lat="47.51237" lon="3.74928">
        <ele>173.17</ele>
        <time>2013-04-28T14:30:34Z</time>
      </trkpt>
      <trkpt lat="47.51231" lon="3.74921">
        <ele>173.66</ele>
        <time>2013-04-28T14:30:39Z</time>
      </trkpt>
      <trkpt lat="47.5123" lon="3.74916">
        <ele>174.62</ele>
        <time>2013-04-28T14:30:42Z</time>
      </trkpt>
      <trkpt lat="47.51233" lon="3.74905">
        <ele>174.62</ele>
        <time>2013-04-28T14:30:48Z</time>
      </trkpt>
      <trkpt lat="47.51238" lon="3.74891">
        <ele>175.58</ele>
        <time>2013-04-28T14:30:55Z</time>
      </trkpt>
      <trkpt lat="47.51237" lon="3.74885">
        <ele>176.06</ele>
        <time>2013-04-28T14:30:58Z</time>
      </trkpt>
      <trkpt lat="47.51232" lon="3.7488">
        <ele>176.54</ele>
        <time>2013-04-28T14:31:03Z</time>
      </trkpt>
      <trkpt lat="47.51216" lon="3.74879">
        <ele>177.98</ele>
        <time>2013-04-28T14:31:14Z</time>
      </trkpt>
      <trkpt lat="47.51213" lon="3.74867">
        <ele>179.42</ele>
        <time>2013-04-28T14:31:24Z</time>
      </trkpt>
      <trkpt lat="47.51212" lon="3.74865">
        <ele>179.9</ele>
        <time>2013-04-28T14:31:26Z</time>
      </trkpt>
      <trkpt lat="47.51205" lon="3.74852">
        <ele>181.35</ele>
        <time>2013-04-28T14:31:37Z</time>
      </trkpt>
      <trkpt lat="47.51201" lon="3.74843">
        <ele>181.83</ele>
        <time>2013-04-28T14:31:47Z</time>
      </trkpt>
      <trkpt lat="47.51202" lon="3.74833">
        <ele>182.31</ele>
        <time>2013-04-28T14:31:57Z</time>
      </trkpt>
      <trkpt lat="47.51202" lon="3.74832">
        <ele>182.31</ele>
        <time>2013-04-28T14:32:10Z</time>
      </trkpt>
      <trkpt lat="47.51202" lon="3.74832">
        <ele>178.94</ele>
        <time>2013-04-28T14:32:22Z</time>
      </trkpt>
      <trkpt lat="47.51202" lon="3.74832">
        <ele>184.23</ele>
        <time>2013-04-28T14:32:23Z</time>
      </trkpt>
      <trkpt lat="47.51202" lon="3.74831">
        <ele>180.38</ele>
        <time>2013-04-28T14:32:25Z</time>
      </trkpt>
      <trkpt lat="47.51202" lon="3.74831">
        <ele>184.23</ele>
        <time>2013-04-28T14:32:26Z</time>
      </trkpt>
      <trkpt lat="47.51202" lon="3.74831">
        <ele>178.46</ele>
        <time>2013-04-28T14:32:27Z</time>
      </trkpt>
      <trkpt lat="47.51202" lon="3.74831">
        <ele>183.27</ele>
        <time>2013-04-28T14:32:28Z</time>
      </trkpt>
      <trkpt lat="47.51202" lon="3.74831">
        <ele>181.83</ele>
        <time>2013-04-28T14:32:31Z</time>
      </trkpt>
      <trkpt lat="47.51201" lon="3.74831">
        <ele>177.98</ele>
        <time>2013-04-28T14:32:37Z</time>
      </trkpt>
      <trkpt lat="47.51204" lon="3.74831">
        <ele>183.27</ele>
        <time>2013-04-28T14:33:19Z</time>
      </trkpt>
      <trkpt lat="47.51205" lon="3.74829">
        <ele>181.83</ele>
        <time>2013-04-28T14:33:20Z</time>
      </trkpt>
      <trkpt lat="47.51205" lon="3.74829">
        <ele>182.31</ele>
        <time>2013-04-28T14:33:41Z</time>
      </trkpt>
      <trkpt lat="47.51205" lon="3.74831">
        <ele>180.87</ele>
        <time>2013-04-28T14:33:50Z</time>
      </trkpt>
      <trkpt lat="47.51204" lon="3.74832">
        <ele>181.35</ele>
        <time>2013-04-28T14:33:55Z</time>
      </trkpt>
      <trkpt lat="47.51203" lon="3.74826">
        <ele>181.83</ele>
        <time>2013-04-28T14:34:05Z</time>
      </trkpt>
      <trkpt lat="47.51202" lon="3.74819">
        <ele>182.31</ele>
        <time>2013-04-28T14:34:17Z</time>
      </trkpt>
      <trkpt lat="47.512" lon="3.74818">
        <ele>182.31</ele>
        <time>2013-04-28T14:34:29Z</time>
      </trkpt>
      <trkpt lat="47.51199" lon="3.74818">
        <ele>182.31</ele>
        <time>2013-04-28T14:34:42Z</time>
      </trkpt>
      <trkpt lat="47.512" lon="3.74818">
        <ele>182.31</ele>
        <time>2013-04-28T14:34:51Z</time>
      </trkpt>
      <trkpt lat="47.51202" lon="3.74819">
        <ele>182.31</ele>
        <time>2013-04-28T14:35:03Z</time>
      </trkpt>
      <trkpt lat="47.51205" lon="3.74826">
        <ele>182.31</ele>
        <time>2013-04-28T14:35:11Z</time>
      </trkpt>
      <trkpt lat="47.51205" lon="3.74829">
        <ele>181.35</ele>
        <time>2013-04-28T14:35:23Z</time>
      </trkpt>
      <trkpt lat="47.51204" lon="3.74829">
        <ele>181.83</ele>
        <time>2013-04-28T14:35:41Z</time>
      </trkpt>
      <trkpt lat="47.51204" lon="3.7483">
        <ele>181.83</ele>
        <time>2013-04-28T14:36:03Z</time>
      </trkpt>
      <trkpt lat="47.51204" lon="3.74829">
        <ele>181.35</ele>
        <time>2013-04-28T14:36:25Z</time>
      </trkpt>
      <trkpt lat="47.51204" lon="3.74829">
        <ele>181.83</ele>
        <time>2013-04-28T14:36:46Z</time>
      </trkpt>
      <trkpt lat="47.51204" lon="3.74829">
        <ele>182.31</ele>
        <time>2013-04-28T14:37:09Z</time>
      </trkpt>
      <trkpt lat="47.51201" lon="3.74823">
        <ele>182.31</ele>
        <time>2013-04-28T14:37:20Z</time>
      </trkpt>
      <trkpt lat="47.512" lon="3.74817">
        <ele>183.27</ele>
        <time>2013-04-28T14:37:31Z</time>
      </trkpt>
      <trkpt lat="47.51201" lon="3.74818">
        <ele>183.27</ele>
        <time>2013-04-28T14:37:51Z</time>
      </trkpt>
      <trkpt lat="47.51201" lon="3.74818">
        <ele>182.79</ele>
        <time>2013-04-28T14:38:05Z</time>
      </trkpt>
      <trkpt lat="47.51201" lon="3.74819">
        <ele>182.79</ele>
        <time>2013-04-28T14:38:24Z</time>
      </trkpt>
      <trkpt lat="47.51201" lon="3.7482">
        <ele>182.79</ele>
        <time>2013-04-28T14:38:40Z</time>
      </trkpt>
      <trkpt lat="47.51202" lon="3.7482">
        <ele>182.31</ele>
        <time>2013-04-28T14:38:42Z</time>
      </trkpt>
      <trkpt lat="47.51202" lon="3.74824">
        <ele>182.31</ele>
        <time>2013-04-28T14:38:54Z</time>
      </trkpt>
      <trkpt lat="47.51198" lon="3.74824">
        <ele>182.31</ele>
        <time>2013-04-28T14:39:06Z</time>
      </trkpt>
      <trkpt lat="47.51198" lon="3.74825">
        <ele>182.31</ele>
        <time>2013-04-28T14:39:25Z</time>
      </trkpt>
      <trkpt lat="47.51198" lon="3.74824">
        <ele>182.31</ele>
        <time>2013-04-28T14:39:42Z</time>
      </trkpt>
      <trkpt lat="47.51198" lon="3.74825">
        <ele>182.79</ele>
        <time>2013-04-28T14:39:59Z</time>
      </trkpt>
      <trkpt lat="47.51198" lon="3.74824">
        <ele>182.79</ele>
        <time>2013-04-28T14:40:14Z</time>
      </trkpt>
      <trkpt lat="47.51198" lon="3.74824">
        <ele>182.79</ele>
        <time>2013-04-28T14:40:31Z</time>
      </trkpt>
      <trkpt lat="47.512" lon="3.74824">
        <ele>182.79</ele>
        <time>2013-04-28T14:40:42Z</time>
      </trkpt>
      <trkpt lat="47.51203" lon="3.74827">
        <ele>181.83</ele>
        <time>2013-04-28T14:40:54Z</time>
      </trkpt>
      <trkpt lat="47.51203" lon="3.74828">
        <ele>182.31</ele>
        <time>2013-04-28T14:41:06Z</time>
      </trkpt>
      <trkpt lat="47.51204" lon="3.7483">
        <ele>182.31</ele>
        <time>2013-04-28T14:41:18Z</time>
      </trkpt>
      <trkpt lat="47.51202" lon="3.7483">
        <ele>182.31</ele>
        <time>2013-04-28T14:41:30Z</time>
      </trkpt>
      <trkpt lat="47.51199" lon="3.74826">
        <ele>182.79</ele>
        <time>2013-04-28T14:41:40Z</time>
      </trkpt>
      <trkpt lat="47.51198" lon="3.74825">
        <ele>182.79</ele>
        <time>2013-04-28T14:41:58Z</time>
      </trkpt>
      <trkpt lat="47.51201" lon="3.74827">
        <ele>182.79</ele>
        <time>2013-04-28T14:42:09Z</time>
      </trkpt>
      <trkpt lat="47.51202" lon="3.74831">
        <ele>182.31</ele>
        <time>2013-04-28T14:42:16Z</time>
      </trkpt>
      <trkpt lat="47.51201" lon="3.7483">
        <ele>182.31</ele>
        <time>2013-04-28T14:42:24Z</time>
      </trkpt>
      <trkpt lat="47.51198" lon="3.74831">
        <ele>182.31</ele>
        <time>2013-04-28T14:42:35Z</time>
      </trkpt>
      <trkpt lat="47.51199" lon="3.7483">
        <ele>182.79</ele>
        <time>2013-04-28T14:42:39Z</time>
      </trkpt>
      <trkpt lat="47.51197" lon="3.74837">
        <ele>181.35</ele>
        <time>2013-04-28T14:42:47Z</time>
      </trkpt>
      <trkpt lat="47.51197" lon="3.7484">
        <ele>181.35</ele>
        <time>2013-04-28T14:42:55Z</time>
      </trkpt>
      <trkpt lat="47.5119" lon="3.74843">
        <ele>181.35</ele>
        <time>2013-04-28T14:43:01Z</time>
      </trkpt>
      <trkpt lat="47.5118" lon="3.74853">
        <ele>180.87</ele>
        <time>2013-04-28T14:43:13Z</time>
      </trkpt>
      <trkpt lat="47.51175" lon="3.74853">
        <ele>181.35</ele>
        <time>2013-04-28T14:43:23Z</time>
      </trkpt>
      <trkpt lat="47.51175" lon="3.74851">
        <ele>181.35</ele>
        <time>2013-04-28T14:43:41Z</time>
      </trkpt>
      <trkpt lat="47.51167" lon="3.74838">
        <ele>181.83</ele>
        <time>2013-04-28T14:43:51Z</time>
      </trkpt>
      <trkpt lat="47.51166" lon="3.74837">
        <ele>181.35</ele>
        <time>2013-04-28T14:43:52Z</time>
      </trkpt>
      <trkpt lat="47.51154" lon="3.74835">
        <ele>181.83</ele>
        <time>2013-04-28T14:44:00Z</time>
      </trkpt>
      <trkpt lat="47.51149" lon="3.74836">
        <ele>180.38</ele>
        <time>2013-04-28T14:44:11Z</time>
      </trkpt>
      <trkpt lat="47.51147" lon="3.74837">
        <ele>180.38</ele>
        <time>2013-04-28T14:44:14Z</time>
      </trkpt>
      <trkpt lat="47.51145" lon="3.74843">
        <ele>179.9</ele>
        <time>2013-04-28T14:44:23Z</time>
      </trkpt>
      <trkpt lat="47.51145" lon="3.74844">
        <ele>179.9</ele>
        <time>2013-04-28T14:44:24Z</time>
      </trkpt>
      <trkpt lat="47.51135" lon="3.74865">
        <ele>177.5</ele>
        <time>2013-04-28T14:44:37Z</time>
      </trkpt>
      <trkpt lat="47.51125" lon="3.74886">
        <ele>175.58</ele>
        <time>2013-04-28T14:44:51Z</time>
      </trkpt>
      <trkpt lat="47.51124" lon="3.74889">
        <ele>174.62</ele>
        <time>2013-04-28T14:44:53Z</time>
      </trkpt>
      <trkpt lat="47.51118" lon="3.74913">
        <ele>172.69</ele>
        <time>2013-04-28T14:45:06Z</time>
      </trkpt>
      <trkpt lat="47.51114" lon="3.74926">
        <ele>171.25</ele>
        <time>2013-04-28T14:45:12Z</time>
      </trkpt>
      <trkpt lat="47.51109" lon="3.74954">
        <ele>168.85</ele>
        <time>2013-04-28T14:45:25Z</time>
      </trkpt>
      <trkpt lat="47.51107" lon="3.74961">
        <ele>167.89</ele>
        <time>2013-04-28T14:45:29Z</time>
      </trkpt>
      <trkpt lat="47.51106" lon="3.74968">
        <ele>166.93</ele>
        <time>2013-04-28T14:45:34Z</time>
      </trkpt>
      <trkpt lat="47.511" lon="3.75">
        <ele>164.04</ele>
        <time>2013-04-28T14:45:48Z</time>
      </trkpt>
      <trkpt lat="47.51089" lon="3.75021">
        <ele>162.6</ele>
        <time>2013-04-28T14:46:00Z</time>
      </trkpt>
      <trkpt lat="47.51084" lon="3.7503">
        <ele>162.12</ele>
        <time>2013-04-28T14:46:07Z</time>
      </trkpt>
      <trkpt lat="47.51078" lon="3.75042">
        <ele>161.16</ele>
        <time>2013-04-28T14:46:14Z</time>
      </trkpt>
      <trkpt lat="47.51069" lon="3.75064">
        <ele>160.2</ele>
        <time>2013-04-28T14:46:28Z</time>
      </trkpt>
      <trkpt lat="47.51066" lon="3.7507">
        <ele>159.72</ele>
        <time>2013-04-28T14:46:33Z</time>
      </trkpt>
      <trkpt lat="47.51063" lon="3.7508">
        <ele>159.72</ele>
        <time>2013-04-28T14:46:38Z</time>
      </trkpt>
      <trkpt lat="47.51053" lon="3.75104">
        <ele>158.75</ele>
        <time>2013-04-28T14:46:51Z</time>
      </trkpt>
      <trkpt lat="47.51043" lon="3.75123">
        <ele>157.79</ele>
        <time>2013-04-28T14:47:02Z</time>
      </trkpt>
      <trkpt lat="47.51036" lon="3.75143">
        <ele>157.31</ele>
        <time>2013-04-28T14:47:13Z</time>
      </trkpt>
      <trkpt lat="47.51024" lon="3.75163">
        <ele>157.31</ele>
        <time>2013-04-28T14:47:25Z</time>
      </trkpt>
      <trkpt lat="47.51012" lon="3.7518">
        <ele>156.83</ele>
        <time>2013-04-28T14:47:37Z</time>
      </trkpt>
      <trkpt lat="47.51005" lon="3.75191">
        <ele>156.35</ele>
        <time>2013-04-28T14:47:44Z</time>
      </trkpt>
      <trkpt lat="47.50992" lon="3.75196">
        <ele>155.39</ele>
        <time>2013-04-28T14:47:54Z</time>
      </trkpt>
      <trkpt lat="47.50989" lon="3.75198">
        <ele>155.39</ele>
        <time>2013-04-28T14:47:57Z</time>
      </trkpt>
      <trkpt lat="47.50983" lon="3.75195">
        <ele>155.39</ele>
        <time>2013-04-28T14:48:01Z</time>
      </trkpt>
      <trkpt lat="47.50965" lon="3.75187">
        <ele>154.91</ele>
        <time>2013-04-28T14:48:13Z</time>
      </trkpt>
      <trkpt lat="47.50951" lon="3.75186">
        <ele>154.91</ele>
        <time>2013-04-28T14:48:23Z</time>
      </trkpt>
      <trkpt lat="47.50934" lon="3.75184">
        <ele>154.91</ele>
        <time>2013-04-28T14:48:34Z</time>
      </trkpt>
      <trkpt lat="47.50916" lon="3.75181">
        <ele>154.43</ele>
        <time>2013-04-28T14:48:48Z</time>
      </trkpt>
      <trkpt lat="47.509" lon="3.75181">
        <ele>154.43</ele>
        <time>2013-04-28T14:48:59Z</time>
      </trkpt>
      <trkpt lat="47.50898" lon="3.75181">
        <ele>154.91</ele>
        <time>2013-04-28T14:49:01Z</time>
      </trkpt>
      <trkpt lat="47.50886" lon="3.75193">
        <ele>154.43</ele>
        <time>2013-04-28T14:49:13Z</time>
      </trkpt>
      <trkpt lat="47.50875" lon="3.75212">
        <ele>154.43</ele>
        <time>2013-04-28T14:49:25Z</time>
      </trkpt>
      <trkpt lat="47.50863" lon="3.75227">
        <ele>154.43</ele>
        <time>2013-04-28T14:49:36Z</time>
      </trkpt>
      <trkpt lat="47.50858" lon="3.75235">
        <ele>154.43</ele>
        <time>2013-04-28T14:49:42Z</time>
      </trkpt>
      <trkpt lat="47.50851" lon="3.75246">
        <ele>154.43</ele>
        <time>2013-04-28T14:49:49Z</time>
      </trkpt>
      <trkpt lat="47.50837" lon="3.75259">
        <ele>153.95</ele>
        <time>2013-04-28T14:50:00Z</time>
      </trkpt>
      <trkpt lat="47.50826" lon="3.75275">
        <ele>153.95</ele>
        <time>2013-04-28T14:50:12Z</time>
      </trkpt>
      <trkpt lat="47.50817" lon="3.75291">
        <ele>153.95</ele>
        <time>2013-04-28T14:50:23Z</time>
      </trkpt>
      <trkpt lat="47.50812" lon="3.75297">
        <ele>154.43</ele>
        <time>2013-04-28T14:50:31Z</time>
      </trkpt>
      <trkpt lat="47.50806" lon="3.75304">
        <ele>153.95</ele>
        <time>2013-04-28T14:50:37Z</time>
      </trkpt>
      <trkpt lat="47.50793" lon="3.75306">
        <ele>154.43</ele>
        <time>2013-04-28T14:50:48Z</time>
      </trkpt>
      <trkpt lat="47.50782" lon="3.75306">
        <ele>156.35</ele>
        <time>2013-04-28T14:50:59Z</time>
      </trkpt>
      <trkpt lat="47.50774" lon="3.75306">
        <ele>157.31</ele>
        <time>2013-04-28T14:51:06Z</time>
      </trkpt>
      <trkpt lat="47.50772" lon="3.75305">
        <ele>158.27</ele>
        <time>2013-04-28T14:51:08Z</time>
      </trkpt>
      <trkpt lat="47.5077" lon="3.75306">
        <ele>158.27</ele>
        <time>2013-04-28T14:51:10Z</time>
      </trkpt>
      <trkpt lat="47.50766" lon="3.75308">
        <ele>158.75</ele>
        <time>2013-04-28T14:51:13Z</time>
      </trkpt>
      <trkpt lat="47.50757" lon="3.75315">
        <ele>160.2</ele>
        <time>2013-04-28T14:51:22Z</time>
      </trkpt>
      <trkpt lat="47.50744" lon="3.75315">
        <ele>162.6</ele>
        <time>2013-04-28T14:51:33Z</time>
      </trkpt>
      <trkpt lat="47.50728" lon="3.75312">
        <ele>164.04</ele>
        <time>2013-04-28T14:51:45Z</time>
      </trkpt>
      <trkpt lat="47.50727" lon="3.75311">
        <ele>164.04</ele>
        <time>2013-04-28T14:51:46Z</time>
      </trkpt>
      <trkpt lat="47.50715" lon="3.75312">
        <ele>165.48</ele>
        <time>2013-04-28T14:51:55Z</time>
      </trkpt>
      <trkpt lat="47.507" lon="3.7531">
        <ele>166.45</ele>
        <time>2013-04-28T14:52:05Z</time>
      </trkpt>
      <trkpt lat="47.50695" lon="3.75308">
        <ele>166.93</ele>
        <time>2013-04-28T14:52:09Z</time>
      </trkpt>
      <trkpt lat="47.5068" lon="3.75302">
        <ele>168.37</ele>
        <time>2013-04-28T14:52:20Z</time>
      </trkpt>
      <trkpt lat="47.50674" lon="3.75296">
        <ele>168.85</ele>
        <time>2013-04-28T14:52:26Z</time>
      </trkpt>
      <trkpt lat="47.50667" lon="3.7529">
        <ele>168.85</ele>
        <time>2013-04-28T14:52:31Z</time>
      </trkpt>
      <trkpt lat="47.50663" lon="3.75286">
        <ele>169.33</ele>
        <time>2013-04-28T14:52:35Z</time>
      </trkpt>
      <trkpt lat="47.50648" lon="3.7528">
        <ele>168.37</ele>
        <time>2013-04-28T14:52:45Z</time>
      </trkpt>
      <trkpt lat="47.50644" lon="3.75276">
        <ele>168.37</ele>
        <time>2013-04-28T14:52:49Z</time>
      </trkpt>
      <trkpt lat="47.50639" lon="3.75271">
        <ele>167.89</ele>
        <time>2013-04-28T14:52:53Z</time>
      </trkpt>
      <trkpt lat="47.50622" lon="3.75256">
        <ele>166.93</ele>
        <time>2013-04-28T14:53:06Z</time>
      </trkpt>
      <trkpt lat="47.50608" lon="3.75243">
        <ele>165.96</ele>
        <time>2013-04-28T14:53:18Z</time>
      </trkpt>
      <trkpt lat="47.50592" lon="3.75234">
        <ele>165.48</ele>
        <time>2013-04-28T14:53:30Z</time>
      </trkpt>
      <trkpt lat="47.50578" lon="3.75228">
        <ele>165.48</ele>
        <time>2013-04-28T14:53:40Z</time>
      </trkpt>
      <trkpt lat="47.50578" lon="3.75228">
        <ele>165.48</ele>
        <time>2013-04-28T14:53:41Z</time>
      </trkpt>
      <trkpt lat="47.50575" lon="3.75228">
        <ele>165.48</ele>
        <time>2013-04-28T14:53:43Z</time>
      </trkpt>
      <trkpt lat="47.50569" lon="3.75227">
        <ele>165.48</ele>
        <time>2013-04-28T14:53:47Z</time>
      </trkpt>
      <trkpt lat="47.50552" lon="3.75225">
        <ele>165.48</ele>
        <time>2013-04-28T14:53:59Z</time>
      </trkpt>
      <trkpt lat="47.50533" lon="3.75222">
        <ele>165.48</ele>
        <time>2013-04-28T14:54:11Z</time>
      </trkpt>
      <trkpt lat="47.50522" lon="3.7522">
        <ele>165.96</ele>
        <time>2013-04-28T14:54:19Z</time>
      </trkpt>
      <trkpt lat="47.50509" lon="3.75218">
        <ele>166.45</ele>
        <time>2013-04-28T14:54:29Z</time>
      </trkpt>
      <trkpt lat="47.50499" lon="3.75217">
        <ele>166.93</ele>
        <time>2013-04-28T14:54:36Z</time>
      </trkpt>
      <trkpt lat="47.50493" lon="3.75217">
        <ele>166.93</ele>
        <time>2013-04-28T14:54:40Z</time>
      </trkpt>
      <trkpt lat="47.50489" lon="3.75217">
        <ele>167.41</ele>
        <time>2013-04-28T14:54:43Z</time>
      </trkpt>
      <trkpt lat="47.50483" lon="3.75216">
        <ele>167.41</ele>
        <time>2013-04-28T14:54:48Z</time>
      </trkpt>
      <trkpt lat="47.50471" lon="3.75218">
        <ele>168.37</ele>
        <time>2013-04-28T14:54:58Z</time>
      </trkpt>
      <trkpt lat="47.50464" lon="3.75219">
        <ele>168.85</ele>
        <time>2013-04-28T14:55:04Z</time>
      </trkpt>
      <trkpt lat="47.50457" lon="3.7522">
        <ele>169.33</ele>
        <time>2013-04-28T14:55:08Z</time>
      </trkpt>
      <trkpt lat="47.50452" lon="3.75219">
        <ele>169.81</ele>
        <time>2013-04-28T14:55:12Z</time>
      </trkpt>
      <trkpt lat="47.50437" lon="3.75216">
        <ele>171.25</ele>
        <time>2013-04-28T14:55:22Z</time>
      </trkpt>
      <trkpt lat="47.50432" lon="3.75212">
        <ele>171.25</ele>
        <time>2013-04-28T14:55:28Z</time>
      </trkpt>
      <trkpt lat="47.50413" lon="3.75203">
        <ele>172.21</ele>
        <time>2013-04-28T14:55:39Z</time>
      </trkpt>
      <trkpt lat="47.50399" lon="3.75199">
        <ele>174.14</ele>
        <time>2013-04-28T14:55:49Z</time>
      </trkpt>
      <trkpt lat="47.5039" lon="3.75193">
        <ele>175.1</ele>
        <time>2013-04-28T14:55:56Z</time>
      </trkpt>
      <trkpt lat="47.50378" lon="3.75186">
        <ele>176.54</ele>
        <time>2013-04-28T14:56:05Z</time>
      </trkpt>
      <trkpt lat="47.50366" lon="3.75179">
        <ele>178.46</ele>
        <time>2013-04-28T14:56:18Z</time>
      </trkpt>
      <trkpt lat="47.50361" lon="3.75174">
        <ele>179.42</ele>
        <time>2013-04-28T14:56:23Z</time>
      </trkpt>
      <trkpt lat="47.50347" lon="3.75167">
        <ele>181.35</ele>
        <time>2013-04-28T14:56:35Z</time>
      </trkpt>
      <trkpt lat="47.50343" lon="3.75166">
        <ele>181.35</ele>
        <time>2013-04-28T14:56:39Z</time>
      </trkpt>
      <trkpt lat="47.50338" lon="3.75163">
        <ele>182.79</ele>
        <time>2013-04-28T14:56:44Z</time>
      </trkpt>
      <trkpt lat="47.50325" lon="3.75157">
        <ele>184.23</ele>
        <time>2013-04-28T14:56:56Z</time>
      </trkpt>
      <trkpt lat="47.50305" lon="3.75141">
        <ele>186.15</ele>
        <time>2013-04-28T14:57:09Z</time>
      </trkpt>
      <trkpt lat="47.503" lon="3.75141">
        <ele>186.63</ele>
        <time>2013-04-28T14:57:15Z</time>
      </trkpt>
      <trkpt lat="47.50291" lon="3.75136">
        <ele>188.56</ele>
        <time>2013-04-28T14:57:26Z</time>
      </trkpt>
      <trkpt lat="47.50284" lon="3.75136">
        <ele>190.48</ele>
        <time>2013-04-28T14:57:37Z</time>
      </trkpt>
      <trkpt lat="47.50274" lon="3.75134">
        <ele>191.92</ele>
        <time>2013-04-28T14:57:46Z</time>
      </trkpt>
      <trkpt lat="47.50264" lon="3.75125">
        <ele>193.84</ele>
        <time>2013-04-28T14:57:56Z</time>
      </trkpt>
      <trkpt lat="47.50257" lon="3.75114">
        <ele>195.77</ele>
        <time>2013-04-28T14:58:04Z</time>
      </trkpt>
      <trkpt lat="47.50246" lon="3.75108">
        <ele>197.69</ele>
        <time>2013-04-28T14:58:13Z</time>
      </trkpt>
      <trkpt lat="47.50243" lon="3.75107">
        <ele>198.17</ele>
        <time>2013-04-28T14:58:15Z</time>
      </trkpt>
      <trkpt lat="47.50229" lon="3.75117">
        <ele>200.57</ele>
        <time>2013-04-28T14:58:27Z</time>
      </trkpt>
      <trkpt lat="47.50217" lon="3.75134">
        <ele>202.49</ele>
        <time>2013-04-28T14:58:39Z</time>
      </trkpt>
      <trkpt lat="47.50208" lon="3.75147">
        <ele>203.94</ele>
        <time>2013-04-28T14:58:50Z</time>
      </trkpt>
      <trkpt lat="47.50206" lon="3.75155">
        <ele>204.9</ele>
        <time>2013-04-28T14:58:59Z</time>
      </trkpt>
      <trkpt lat="47.50209" lon="3.75161">
        <ele>205.38</ele>
        <time>2013-04-28T14:59:12Z</time>
      </trkpt>
      <trkpt lat="47.50208" lon="3.75161">
        <ele>205.38</ele>
        <time>2013-04-28T14:59:32Z</time>
      </trkpt>
      <trkpt lat="47.50207" lon="3.75159">
        <ele>205.38</ele>
        <time>2013-04-28T14:59:35Z</time>
      </trkpt>
      <trkpt lat="47.50196" lon="3.75159">
        <ele>206.34</ele>
        <time>2013-04-28T14:59:45Z</time>
      </trkpt>
      <trkpt lat="47.50186" lon="3.75166">
        <ele>206.34</ele>
        <time>2013-04-28T14:59:53Z</time>
      </trkpt>
      <trkpt lat="47.50183" lon="3.75168">
        <ele>207.3</ele>
        <time>2013-04-28T15:00:03Z</time>
      </trkpt>
      <trkpt lat="47.50183" lon="3.75166">
        <ele>207.3</ele>
        <time>2013-04-28T15:00:20Z</time>
      </trkpt>
      <trkpt lat="47.50183" lon="3.75166">
        <ele>207.3</ele>
        <time>2013-04-28T15:00:40Z</time>
      </trkpt>
      <trkpt lat="47.50181" lon="3.75168">
        <ele>207.78</ele>
        <time>2013-04-28T15:00:46Z</time>
      </trkpt>
      <trkpt lat="47.50168" lon="3.75178">
        <ele>208.26</ele>
        <time>2013-04-28T15:00:57Z</time>
      </trkpt>
      <trkpt lat="47.50157" lon="3.75183">
        <ele>209.22</ele>
        <time>2013-04-28T15:01:06Z</time>
      </trkpt>
      <trkpt lat="47.50147" lon="3.75189">
        <ele>209.22</ele>
        <time>2013-04-28T15:01:15Z</time>
      </trkpt>
      <trkpt lat="47.50138" lon="3.75192">
        <ele>209.22</ele>
        <time>2013-04-28T15:01:21Z</time>
      </trkpt>
      <trkpt lat="47.50123" lon="3.75197">
        <ele>209.7</ele>
        <time>2013-04-28T15:01:34Z</time>
      </trkpt>
      <trkpt lat="47.5012" lon="3.752">
        <ele>210.19</ele>
        <time>2013-04-28T15:01:37Z</time>
      </trkpt>
      <trkpt lat="47.50115" lon="3.75203">
        <ele>210.19</ele>
        <time>2013-04-28T15:01:41Z</time>
      </trkpt>
      <trkpt lat="47.501" lon="3.75211">
        <ele>210.19</ele>
        <time>2013-04-28T15:01:55Z</time>
      </trkpt>
      <trkpt lat="47.50099" lon="3.75212">
        <ele>210.67</ele>
        <time>2013-04-28T15:01:58Z</time>
      </trkpt>
      <trkpt lat="47.50095" lon="3.75216">
        <ele>210.19</ele>
        <time>2013-04-28T15:02:02Z</time>
      </trkpt>
      <trkpt lat="47.50078" lon="3.75224">
        <ele>210.19</ele>
        <time>2013-04-28T15:02:16Z</time>
      </trkpt>
      <trkpt lat="47.50066" lon="3.75231">
        <ele>210.19</ele>
        <time>2013-04-28T15:02:25Z</time>
      </trkpt>
      <trkpt lat="47.50059" lon="3.75238">
        <ele>210.19</ele>
        <time>2013-04-28T15:02:32Z</time>
      </trkpt>
      <trkpt lat="47.50047" lon="3.75242">
        <ele>210.19</ele>
        <time>2013-04-28T15:02:42Z</time>
      </trkpt>
      <trkpt lat="47.50043" lon="3.75243">
        <ele>210.19</ele>
        <time>2013-04-28T15:02:45Z</time>
      </trkpt>
      <trkpt lat="47.5004" lon="3.75244">
        <ele>210.19</ele>
        <time>2013-04-28T15:02:48Z</time>
      </trkpt>
      <trkpt lat="47.50021" lon="3.75249">
        <ele>210.19</ele>
        <time>2013-04-28T15:03:01Z</time>
      </trkpt>
      <trkpt lat="47.5" lon="3.75253">
        <ele>209.7</ele>
        <time>2013-04-28T15:03:15Z</time>
      </trkpt>
      <trkpt lat="47.49978" lon="3.75256">
        <ele>209.7</ele>
        <time>2013-04-28T15:03:29Z</time>
      </trkpt>
      <trkpt lat="47.49958" lon="3.75258">
        <ele>209.7</ele>
        <time>2013-04-28T15:03:41Z</time>
      </trkpt>
      <trkpt lat="47.49945" lon="3.75257">
        <ele>210.19</ele>
        <time>2013-04-28T15:03:50Z</time>
      </trkpt>
      <trkpt lat="47.49929" lon="3.75254">
        <ele>210.19</ele>
        <time>2013-04-28T15:04:00Z</time>
      </trkpt>
      <trkpt lat="47.49911" lon="3.75256">
        <ele>210.67</ele>
        <time>2013-04-28T15:04:12Z</time>
      </trkpt>
      <trkpt lat="47.49898" lon="3.75257">
        <ele>211.15</ele>
        <time>2013-04-28T15:04:22Z</time>
      </trkpt>
      <trkpt lat="47.4988" lon="3.75256">
        <ele>212.11</ele>
        <time>2013-04-28T15:04:33Z</time>
      </trkpt>
      <trkpt lat="47.49861" lon="3.75256">
        <ele>212.59</ele>
        <time>2013-04-28T15:04:45Z</time>
      </trkpt>
      <trkpt lat="47.49843" lon="3.75251">
        <ele>213.55</ele>
        <time>2013-04-28T15:04:56Z</time>
      </trkpt>
      <trkpt lat="47.49823" lon="3.75247">
        <ele>214.51</ele>
        <time>2013-04-28T15:05:08Z</time>
      </trkpt>
      <trkpt lat="47.49801" lon="3.7524">
        <ele>215.47</ele>
        <time>2013-04-28T15:05:23Z</time>
      </trkpt>
      <trkpt lat="47.49777" lon="3.75233">
        <ele>216.91</ele>
        <time>2013-04-28T15:05:39Z</time>
      </trkpt>
      <trkpt lat="47.49755" lon="3.75229">
        <ele>217.88</ele>
        <time>2013-04-28T15:05:53Z</time>
      </trkpt>
      <trkpt lat="47.49737" lon="3.75229">
        <ele>218.84</ele>
        <time>2013-04-28T15:06:05Z</time>
      </trkpt>
      <trkpt lat="47.49718" lon="3.75228">
        <ele>218.84</ele>
        <time>2013-04-28T15:06:18Z</time>
      </trkpt>
      <trkpt lat="47.49694" lon="3.75229">
        <ele>218.84</ele>
        <time>2013-04-28T15:06:34Z</time>
      </trkpt>
      <trkpt lat="47.49673" lon="3.75231">
        <ele>218.36</ele>
        <time>2013-04-28T15:06:47Z</time>
      </trkpt>
      <trkpt lat="47.49652" lon="3.75231">
        <ele>218.36</ele>
        <time>2013-04-28T15:07:00Z</time>
      </trkpt>
      <trkpt lat="47.49632" lon="3.75232">
        <ele>217.88</ele>
        <time>2013-04-28T15:07:13Z</time>
      </trkpt>
      <trkpt lat="47.49613" lon="3.75228">
        <ele>218.36</ele>
        <time>2013-04-28T15:07:26Z</time>
      </trkpt>
      <trkpt lat="47.49594" lon="3.7522">
        <ele>216.91</ele>
        <time>2013-04-28T15:07:39Z</time>
      </trkpt>
      <trkpt lat="47.4957" lon="3.75218">
        <ele>216.43</ele>
        <time>2013-04-28T15:07:55Z</time>
      </trkpt>
      <trkpt lat="47.49547" lon="3.75216">
        <ele>215.47</ele>
        <time>2013-04-28T15:08:10Z</time>
      </trkpt>
      <trkpt lat="47.49524" lon="3.7521">
        <ele>215.47</ele>
        <time>2013-04-28T15:08:23Z</time>
      </trkpt>
      <trkpt lat="47.49504" lon="3.75203">
        <ele>214.51</ele>
        <time>2013-04-28T15:08:35Z</time>
      </trkpt>
      <trkpt lat="47.49488" lon="3.75193">
        <ele>214.51</ele>
        <time>2013-04-28T15:08:46Z</time>
      </trkpt>
      <trkpt lat="47.49468" lon="3.75183">
        <ele>213.07</ele>
        <time>2013-04-28T15:09:00Z</time>
      </trkpt>
      <trkpt lat="47.49451" lon="3.7517">
        <ele>212.59</ele>
        <time>2013-04-28T15:09:12Z</time>
      </trkpt>
      <trkpt lat="47.49444" lon="3.75164">
        <ele>208.74</ele>
        <time>2013-04-28T15:09:18Z</time>
      </trkpt>
      <trkpt lat="47.49443" lon="3.75163">
        <ele>215.47</ele>
        <time>2013-04-28T15:09:19Z</time>
      </trkpt>
      <trkpt lat="47.49442" lon="3.75163">
        <ele>215.47</ele>
        <time>2013-04-28T15:09:20Z</time>
      </trkpt>
      <trkpt lat="47.49434" lon="3.75159">
        <ele>212.11</ele>
        <time>2013-04-28T15:09:27Z</time>
      </trkpt>
      <trkpt lat="47.49422" lon="3.75151">
        <ele>209.7</ele>
        <time>2013-04-28T15:09:38Z</time>
      </trkpt>
      <trkpt lat="47.4942" lon="3.7515">
        <ele>211.63</ele>
        <time>2013-04-28T15:09:45Z</time>
      </trkpt>
      <trkpt lat="47.49425" lon="3.75155">
        <ele>210.19</ele>
        <time>2013-04-28T15:09:56Z</time>
      </trkpt>
      <trkpt lat="47.49424" lon="3.75154">
        <ele>210.67</ele>
        <time>2013-04-28T15:10:02Z</time>
      </trkpt>
      <trkpt lat="47.49411" lon="3.75148">
        <ele>209.22</ele>
        <time>2013-04-28T15:10:13Z</time>
      </trkpt>
      <trkpt lat="47.49401" lon="3.75148">
        <ele>209.22</ele>
        <time>2013-04-28T15:10:20Z</time>
      </trkpt>
      <trkpt lat="47.4939" lon="3.75148">
        <ele>206.34</ele>
        <time>2013-04-28T15:10:32Z</time>
      </trkpt>
      <trkpt lat="47.49378" lon="3.75152">
        <ele>203.94</ele>
        <time>2013-04-28T15:10:42Z</time>
      </trkpt>
      <trkpt lat="47.49377" lon="3.75151">
        <ele>203.94</ele>
        <time>2013-04-28T15:10:43Z</time>
      </trkpt>
      <trkpt lat="47.49365" lon="3.75147">
        <ele>201.53</ele>
        <time>2013-04-28T15:10:52Z</time>
      </trkpt>
      <trkpt lat="47.49362" lon="3.75147">
        <ele>201.05</ele>
        <time>2013-04-28T15:10:54Z</time>
      </trkpt>
      <trkpt lat="47.49344" lon="3.75149">
        <ele>198.65</ele>
        <time>2013-04-28T15:11:05Z</time>
      </trkpt>
      <trkpt lat="47.49325" lon="3.75143">
        <ele>196.25</ele>
        <time>2013-04-28T15:11:15Z</time>
      </trkpt>
      <trkpt lat="47.49311" lon="3.75142">
        <ele>194.8</ele>
        <time>2013-04-28T15:11:25Z</time>
      </trkpt>
      <trkpt lat="47.49311" lon="3.75142">
        <ele>194.32</ele>
        <time>2013-04-28T15:11:26Z</time>
      </trkpt>
      <trkpt lat="47.49301" lon="3.75142">
        <ele>193.36</ele>
        <time>2013-04-28T15:11:32Z</time>
      </trkpt>
      <trkpt lat="47.49297" lon="3.75141">
        <ele>192.88</ele>
        <time>2013-04-28T15:11:35Z</time>
      </trkpt>
      <trkpt lat="47.4929" lon="3.7514">
        <ele>190.96</ele>
        <time>2013-04-28T15:11:44Z</time>
      </trkpt>
      <trkpt lat="47.49288" lon="3.75139">
        <ele>190.96</ele>
        <time>2013-04-28T15:11:46Z</time>
      </trkpt>
      <trkpt lat="47.49279" lon="3.75133">
        <ele>190</ele>
        <time>2013-04-28T15:11:51Z</time>
      </trkpt>
      <trkpt lat="47.49271" lon="3.7513">
        <ele>189.52</ele>
        <time>2013-04-28T15:11:55Z</time>
      </trkpt>
      <trkpt lat="47.49258" lon="3.75125">
        <ele>187.11</ele>
        <time>2013-04-28T15:12:06Z</time>
      </trkpt>
      <trkpt lat="47.49257" lon="3.75124">
        <ele>187.59</ele>
        <time>2013-04-28T15:12:08Z</time>
      </trkpt>
      <trkpt lat="47.49252" lon="3.75122">
        <ele>187.11</ele>
        <time>2013-04-28T15:12:11Z</time>
      </trkpt>
      <trkpt lat="47.49242" lon="3.75118">
        <ele>186.63</ele>
        <time>2013-04-28T15:12:16Z</time>
      </trkpt>
      <trkpt lat="47.4922" lon="3.75108">
        <ele>185.19</ele>
        <time>2013-04-28T15:12:27Z</time>
      </trkpt>
      <trkpt lat="47.49207" lon="3.75104">
        <ele>183.75</ele>
        <time>2013-04-28T15:12:36Z</time>
      </trkpt>
      <trkpt lat="47.49204" lon="3.75103">
        <ele>183.75</ele>
        <time>2013-04-28T15:12:38Z</time>
      </trkpt>
      <trkpt lat="47.49179" lon="3.75091">
        <ele>182.31</ele>
        <time>2013-04-28T15:12:48Z</time>
      </trkpt>
      <trkpt lat="47.49161" lon="3.75085">
        <ele>181.35</ele>
        <time>2013-04-28T15:12:58Z</time>
      </trkpt>
      <trkpt lat="47.49141" lon="3.75081">
        <ele>180.38</ele>
        <time>2013-04-28T15:13:09Z</time>
      </trkpt>
      <trkpt lat="47.49121" lon="3.75076">
        <ele>179.42</ele>
        <time>2013-04-28T15:13:20Z</time>
      </trkpt>
      <trkpt lat="47.49103" lon="3.75071">
        <ele>178.46</ele>
        <time>2013-04-28T15:13:32Z</time>
      </trkpt>
      <trkpt lat="47.49092" lon="3.75068">
        <ele>177.5</ele>
        <time>2013-04-28T15:13:41Z</time>
      </trkpt>
      <trkpt lat="47.49068" lon="3.75061">
        <ele>175.58</ele>
        <time>2013-04-28T15:13:55Z</time>
      </trkpt>
      <trkpt lat="47.49049" lon="3.75058">
        <ele>174.62</ele>
        <time>2013-04-28T15:14:06Z</time>
      </trkpt>
      <trkpt lat="47.49037" lon="3.7506">
        <ele>173.66</ele>
        <time>2013-04-28T15:14:15Z</time>
      </trkpt>
      <trkpt lat="47.49033" lon="3.75061">
        <ele>173.17</ele>
        <time>2013-04-28T15:14:19Z</time>
      </trkpt>
      <trkpt lat="47.49024" lon="3.75059">
        <ele>172.69</ele>
        <time>2013-04-28T15:14:23Z</time>
      </trkpt>
      <trkpt lat="47.48998" lon="3.7505">
        <ele>171.73</ele>
        <time>2013-04-28T15:14:36Z</time>
      </trkpt>
      <trkpt lat="47.4898" lon="3.75049">
        <ele>170.77</ele>
        <time>2013-04-28T15:14:47Z</time>
      </trkpt>
      <trkpt lat="47.48971" lon="3.75046">
        <ele>170.29</ele>
        <time>2013-04-28T15:14:56Z</time>
      </trkpt>
      <trkpt lat="47.48966" lon="3.75045">
        <ele>169.81</ele>
        <time>2013-04-28T15:15:00Z</time>
      </trkpt>
      <trkpt lat="47.48956" lon="3.75041">
        <ele>169.81</ele>
        <time>2013-04-28T15:15:10Z</time>
      </trkpt>
      <trkpt lat="47.48944" lon="3.75035">
        <ele>168.85</ele>
        <time>2013-04-28T15:15:18Z</time>
      </trkpt>
      <trkpt lat="47.48933" lon="3.75029">
        <ele>168.85</ele>
        <time>2013-04-28T15:15:25Z</time>
      </trkpt>
      <trkpt lat="47.48932" lon="3.75028">
        <ele>168.85</ele>
        <time>2013-04-28T15:15:29Z</time>
      </trkpt>
      <trkpt lat="47.48928" lon="3.75027">
        <ele>168.37</ele>
        <time>2013-04-28T15:15:33Z</time>
      </trkpt>
      <trkpt lat="47.48917" lon="3.75024">
        <ele>167.89</ele>
        <time>2013-04-28T15:15:41Z</time>
      </trkpt>
      <trkpt lat="47.48903" lon="3.75018">
        <ele>167.41</ele>
        <time>2013-04-28T15:15:51Z</time>
      </trkpt>
      <trkpt lat="47.4889" lon="3.75012">
        <ele>166.93</ele>
        <time>2013-04-28T15:16:01Z</time>
      </trkpt>
      <trkpt lat="47.48877" lon="3.75006">
        <ele>166.93</ele>
        <time>2013-04-28T15:16:11Z</time>
      </trkpt>
      <trkpt lat="47.48863" lon="3.75002">
        <ele>166.45</ele>
        <time>2013-04-28T15:16:21Z</time>
      </trkpt>
      <trkpt lat="47.48853" lon="3.74998">
        <ele>165.48</ele>
        <time>2013-04-28T15:16:30Z</time>
      </trkpt>
      <trkpt lat="47.48849" lon="3.74996">
        <ele>165.48</ele>
        <time>2013-04-28T15:16:37Z</time>
      </trkpt>
      <trkpt lat="47.48845" lon="3.74995">
        <ele>165.48</ele>
        <time>2013-04-28T15:16:40Z</time>
      </trkpt>
      <trkpt lat="47.48831" lon="3.74989">
        <ele>165.48</ele>
        <time>2013-04-28T15:16:49Z</time>
      </trkpt>
      <trkpt lat="47.48817" lon="3.74989">
        <ele>165</ele>
        <time>2013-04-28T15:16:59Z</time>
      </trkpt>
      <trkpt lat="47.48812" lon="3.74988">
        <ele>164.52</ele>
        <time>2013-04-28T15:17:04Z</time>
      </trkpt>
      <trkpt lat="47.48798" lon="3.74981">
        <ele>164.52</ele>
        <time>2013-04-28T15:17:15Z</time>
      </trkpt>
      <trkpt lat="47.48795" lon="3.74981">
        <ele>164.04</ele>
        <time>2013-04-28T15:17:17Z</time>
      </trkpt>
      <trkpt lat="47.48789" lon="3.74981">
        <ele>164.04</ele>
        <time>2013-04-28T15:17:21Z</time>
      </trkpt>
      <trkpt lat="47.48786" lon="3.7498">
        <ele>164.04</ele>
        <time>2013-04-28T15:17:24Z</time>
      </trkpt>
      <trkpt lat="47.48772" lon="3.74973">
        <ele>163.08</ele>
        <time>2013-04-28T15:17:35Z</time>
      </trkpt>
      <trkpt lat="47.48755" lon="3.74972">
        <ele>162.6</ele>
        <time>2013-04-28T15:17:47Z</time>
      </trkpt>
      <trkpt lat="47.48739" lon="3.74972">
        <ele>161.16</ele>
        <time>2013-04-28T15:17:59Z</time>
      </trkpt>
      <trkpt lat="47.48734" lon="3.74969">
        <ele>160.68</ele>
        <time>2013-04-28T15:18:04Z</time>
      </trkpt>
      <trkpt lat="47.48731" lon="3.74969">
        <ele>160.2</ele>
        <time>2013-04-28T15:18:07Z</time>
      </trkpt>
      <trkpt lat="47.48717" lon="3.74968">
        <ele>159.24</ele>
        <time>2013-04-28T15:18:18Z</time>
      </trkpt>
      <trkpt lat="47.4871" lon="3.74963">
        <ele>158.75</ele>
        <time>2013-04-28T15:18:24Z</time>
      </trkpt>
      <trkpt lat="47.48709" lon="3.74952">
        <ele>158.75</ele>
        <time>2013-04-28T15:18:29Z</time>
      </trkpt>
      <trkpt lat="47.48717" lon="3.74934">
        <ele>158.27</ele>
        <time>2013-04-28T15:18:42Z</time>
      </trkpt>
      <trkpt lat="47.48721" lon="3.74923">
        <ele>158.27</ele>
        <time>2013-04-28T15:18:49Z</time>
      </trkpt>
      <trkpt lat="47.48724" lon="3.74916">
        <ele>158.27</ele>
        <time>2013-04-28T15:18:55Z</time>
      </trkpt>
      <trkpt lat="47.48729" lon="3.749">
        <ele>159.24</ele>
        <time>2013-04-28T15:19:03Z</time>
      </trkpt>
      <trkpt lat="47.48728" lon="3.74882">
        <ele>158.27</ele>
        <time>2013-04-28T15:19:11Z</time>
      </trkpt>
      <trkpt lat="47.48711" lon="3.74873">
        <ele>157.31</ele>
        <time>2013-04-28T15:19:24Z</time>
      </trkpt>
      <trkpt lat="47.48698" lon="3.74878">
        <ele>157.31</ele>
        <time>2013-04-28T15:19:35Z</time>
      </trkpt>
      <trkpt lat="47.48693" lon="3.7488">
        <ele>156.83</ele>
        <time>2013-04-28T15:19:39Z</time>
      </trkpt>
      <trkpt lat="47.48685" lon="3.74884">
        <ele>156.83</ele>
        <time>2013-04-28T15:19:45Z</time>
      </trkpt>
      <trkpt lat="47.48679" lon="3.74887">
        <ele>156.83</ele>
        <time>2013-04-28T15:19:50Z</time>
      </trkpt>
      <trkpt lat="47.48668" lon="3.74893">
        <ele>156.83</ele>
        <time>2013-04-28T15:19:58Z</time>
      </trkpt>
      <trkpt lat="47.48649" lon="3.749">
        <ele>156.35</ele>
        <time>2013-04-28T15:20:11Z</time>
      </trkpt>
      <trkpt lat="47.48642" lon="3.74903">
        <ele>156.35</ele>
        <time>2013-04-28T15:20:20Z</time>
      </trkpt>
      <trkpt lat="47.48628" lon="3.74907">
        <ele>155.87</ele>
        <time>2013-04-28T15:20:29Z</time>
      </trkpt>
      <trkpt lat="47.48611" lon="3.74913">
        <ele>155.87</ele>
        <time>2013-04-28T15:20:41Z</time>
      </trkpt>
      <trkpt lat="47.48601" lon="3.74921">
        <ele>156.35</ele>
        <time>2013-04-28T15:20:49Z</time>
      </trkpt>
      <trkpt lat="47.4859" lon="3.74937">
        <ele>156.35</ele>
        <time>2013-04-28T15:21:00Z</time>
      </trkpt>
      <trkpt lat="47.4858" lon="3.74952">
        <ele>156.35</ele>
        <time>2013-04-28T15:21:12Z</time>
      </trkpt>
      <trkpt lat="47.48568" lon="3.74976">
        <ele>156.83</ele>
        <time>2013-04-28T15:21:24Z</time>
      </trkpt>
      <trkpt lat="47.48548" lon="3.75001">
        <ele>157.31</ele>
        <time>2013-04-28T15:21:37Z</time>
      </trkpt>
      <trkpt lat="47.48533" lon="3.75011">
        <ele>157.79</ele>
        <time>2013-04-28T15:21:47Z</time>
      </trkpt>
      <trkpt lat="47.48517" lon="3.75019">
        <ele>158.75</ele>
        <time>2013-04-28T15:21:57Z</time>
      </trkpt>
      <trkpt lat="47.48515" lon="3.75018">
        <ele>159.24</ele>
        <time>2013-04-28T15:22:04Z</time>
      </trkpt>
      <trkpt lat="47.48515" lon="3.75019">
        <ele>158.75</ele>
        <time>2013-04-28T15:22:21Z</time>
      </trkpt>
      <trkpt lat="47.48511" lon="3.75021">
        <ele>158.75</ele>
        <time>2013-04-28T15:22:25Z</time>
      </trkpt>
      <trkpt lat="47.48498" lon="3.75023">
        <ele>158.75</ele>
        <time>2013-04-28T15:22:36Z</time>
      </trkpt>
      <trkpt lat="47.48482" lon="3.75026">
        <ele>159.24</ele>
        <time>2013-04-28T15:22:48Z</time>
      </trkpt>
      <trkpt lat="47.48467" lon="3.75029">
        <ele>159.72</ele>
        <time>2013-04-28T15:23:00Z</time>
      </trkpt>
      <trkpt lat="47.48453" lon="3.75032">
        <ele>160.2</ele>
        <time>2013-04-28T15:23:11Z</time>
      </trkpt>
      <trkpt lat="47.48446" lon="3.75033">
        <ele>160.2</ele>
        <time>2013-04-28T15:23:19Z</time>
      </trkpt>
      <trkpt lat="47.48438" lon="3.75038">
        <ele>160.2</ele>
        <time>2013-04-28T15:23:26Z</time>
      </trkpt>
      <trkpt lat="47.48434" lon="3.75041">
        <ele>160.2</ele>
        <time>2013-04-28T15:23:30Z</time>
      </trkpt>
      <trkpt lat="47.48419" lon="3.7505">
        <ele>160.68</ele>
        <time>2013-04-28T15:23:43Z</time>
      </trkpt>
      <trkpt lat="47.48404" lon="3.75058">
        <ele>161.16</ele>
        <time>2013-04-28T15:23:55Z</time>
      </trkpt>
      <trkpt lat="47.48393" lon="3.75064">
        <ele>161.64</ele>
        <time>2013-04-28T15:24:04Z</time>
      </trkpt>
      <trkpt lat="47.48377" lon="3.75069">
        <ele>163.08</ele>
        <time>2013-04-28T15:24:17Z</time>
      </trkpt>
      <trkpt lat="47.48364" lon="3.75073">
        <ele>164.52</ele>
        <time>2013-04-28T15:24:27Z</time>
      </trkpt>
      <trkpt lat="47.4835" lon="3.75079">
        <ele>165.96</ele>
        <time>2013-04-28T15:24:38Z</time>
      </trkpt>
      <trkpt lat="47.48337" lon="3.75084">
        <ele>167.41</ele>
        <time>2013-04-28T15:24:48Z</time>
      </trkpt>
      <trkpt lat="47.48324" lon="3.75086">
        <ele>168.37</ele>
        <time>2013-04-28T15:24:58Z</time>
      </trkpt>
      <trkpt lat="47.48309" lon="3.75084">
        <ele>168.37</ele>
        <time>2013-04-28T15:25:10Z</time>
      </trkpt>
      <trkpt lat="47.48306" lon="3.75086">
        <ele>168.37</ele>
        <time>2013-04-28T15:25:19Z</time>
      </trkpt>
      <trkpt lat="47.48298" lon="3.75085">
        <ele>168.37</ele>
        <time>2013-04-28T15:25:29Z</time>
      </trkpt>
      <trkpt lat="47.48289" lon="3.75084">
        <ele>167.89</ele>
        <time>2013-04-28T15:25:40Z</time>
      </trkpt>
      <trkpt lat="47.48285" lon="3.75085">
        <ele>167.41</ele>
        <time>2013-04-28T15:25:50Z</time>
      </trkpt>
      <trkpt lat="47.48284" lon="3.75083">
        <ele>167.89</ele>
        <time>2013-04-28T15:26:12Z</time>
      </trkpt>
      <trkpt lat="47.48283" lon="3.75082">
        <ele>167.41</ele>
        <time>2013-04-28T15:26:28Z</time>
      </trkpt>
      <trkpt lat="47.48283" lon="3.75082">
        <ele>167.41</ele>
        <time>2013-04-28T15:26:29Z</time>
      </trkpt>
      <trkpt lat="47.48279" lon="3.75082">
        <ele>166.93</ele>
        <time>2013-04-28T15:26:32Z</time>
      </trkpt>
      <trkpt lat="47.48266" lon="3.75078">
        <ele>165.96</ele>
        <time>2013-04-28T15:26:43Z</time>
      </trkpt>
      <trkpt lat="47.4825" lon="3.75075">
        <ele>165</ele>
        <time>2013-04-28T15:26:53Z</time>
      </trkpt>
      <trkpt lat="47.48247" lon="3.75075">
        <ele>164.04</ele>
        <time>2013-04-28T15:26:55Z</time>
      </trkpt>
      <trkpt lat="47.48246" lon="3.75074">
        <ele>164.52</ele>
        <time>2013-04-28T15:26:57Z</time>
      </trkpt>
      <trkpt lat="47.48241" lon="3.75074">
        <ele>163.56</ele>
        <time>2013-04-28T15:27:01Z</time>
      </trkpt>
      <trkpt lat="47.48236" lon="3.75075">
        <ele>164.04</ele>
        <time>2013-04-28T15:27:05Z</time>
      </trkpt>
      <trkpt lat="47.48225" lon="3.75072">
        <ele>162.12</ele>
        <time>2013-04-28T15:27:15Z</time>
      </trkpt>
      <trkpt lat="47.4821" lon="3.75072">
        <ele>161.64</ele>
        <time>2013-04-28T15:27:26Z</time>
      </trkpt>
      <trkpt lat="47.48193" lon="3.75071">
        <ele>161.16</ele>
        <time>2013-04-28T15:27:36Z</time>
      </trkpt>
      <trkpt lat="47.48192" lon="3.7507">
        <ele>161.16</ele>
        <time>2013-04-28T15:27:37Z</time>
      </trkpt>
      <trkpt lat="47.48176" lon="3.75068">
        <ele>160.68</ele>
        <time>2013-04-28T15:27:50Z</time>
      </trkpt>
      <trkpt lat="47.48159" lon="3.75065">
        <ele>161.16</ele>
        <time>2013-04-28T15:28:00Z</time>
      </trkpt>
      <trkpt lat="47.48145" lon="3.75063">
        <ele>161.16</ele>
        <time>2013-04-28T15:28:09Z</time>
      </trkpt>
      <trkpt lat="47.48135" lon="3.75063">
        <ele>161.16</ele>
        <time>2013-04-28T15:28:17Z</time>
      </trkpt>
      <trkpt lat="47.48124" lon="3.75062">
        <ele>161.64</ele>
        <time>2013-04-28T15:28:27Z</time>
      </trkpt>
      <trkpt lat="47.48122" lon="3.75062">
        <ele>161.64</ele>
        <time>2013-04-28T15:28:29Z</time>
      </trkpt>
      <trkpt lat="47.48104" lon="3.75062">
        <ele>162.12</ele>
        <time>2013-04-28T15:28:42Z</time>
      </trkpt>
      <trkpt lat="47.48088" lon="3.75064">
        <ele>163.08</ele>
        <time>2013-04-28T15:28:53Z</time>
      </trkpt>
      <trkpt lat="47.48074" lon="3.75066">
        <ele>163.56</ele>
        <time>2013-04-28T15:29:04Z</time>
      </trkpt>
      <trkpt lat="47.48056" lon="3.75063">
        <ele>164.04</ele>
        <time>2013-04-28T15:29:15Z</time>
      </trkpt>
      <trkpt lat="47.48046" lon="3.75062">
        <ele>164.04</ele>
        <time>2013-04-28T15:29:21Z</time>
      </trkpt>
      <trkpt lat="47.48042" lon="3.75061">
        <ele>165</ele>
        <time>2013-04-28T15:29:25Z</time>
      </trkpt>
      <trkpt lat="47.48028" lon="3.75057">
        <ele>165.48</ele>
        <time>2013-04-28T15:29:36Z</time>
      </trkpt>
      <trkpt lat="47.48027" lon="3.75056">
        <ele>165</ele>
        <time>2013-04-28T15:29:37Z</time>
      </trkpt>
      <trkpt lat="47.48021" lon="3.75053">
        <ele>165.48</ele>
        <time>2013-04-28T15:29:42Z</time>
      </trkpt>
      <trkpt lat="47.48004" lon="3.75041">
        <ele>165.96</ele>
        <time>2013-04-28T15:29:53Z</time>
      </trkpt>
      <trkpt lat="47.48002" lon="3.75039">
        <ele>166.45</ele>
        <time>2013-04-28T15:29:55Z</time>
      </trkpt>
      <trkpt lat="47.47987" lon="3.75033">
        <ele>166.93</ele>
        <time>2013-04-28T15:30:05Z</time>
      </trkpt>
      <trkpt lat="47.47969" lon="3.75033">
        <ele>166.45</ele>
        <time>2013-04-28T15:30:18Z</time>
      </trkpt>
      <trkpt lat="47.47955" lon="3.75039">
        <ele>165.48</ele>
        <time>2013-04-28T15:30:28Z</time>
      </trkpt>
      <trkpt lat="47.47954" lon="3.7504">
        <ele>165.48</ele>
        <time>2013-04-28T15:30:29Z</time>
      </trkpt>
      <trkpt lat="47.4795" lon="3.75046">
        <ele>165</ele>
        <time>2013-04-28T15:30:33Z</time>
      </trkpt>
      <trkpt lat="47.47935" lon="3.75057">
        <ele>164.04</ele>
        <time>2013-04-28T15:30:45Z</time>
      </trkpt>
      <trkpt lat="47.47934" lon="3.75057">
        <ele>164.04</ele>
        <time>2013-04-28T15:30:46Z</time>
      </trkpt>
      <trkpt lat="47.47927" lon="3.75059">
        <ele>163.56</ele>
        <time>2013-04-28T15:30:52Z</time>
      </trkpt>
      <trkpt lat="47.47921" lon="3.75059">
        <ele>163.08</ele>
        <time>2013-04-28T15:30:56Z</time>
      </trkpt>
      <trkpt lat="47.47903" lon="3.75064">
        <ele>161.16</ele>
        <time>2013-04-28T15:31:08Z</time>
      </trkpt>
      <trkpt lat="47.47889" lon="3.75061">
        <ele>159.72</ele>
        <time>2013-04-28T15:31:19Z</time>
      </trkpt>
      <trkpt lat="47.47872" lon="3.75052">
        <ele>158.27</ele>
        <time>2013-04-28T15:31:31Z</time>
      </trkpt>
      <trkpt lat="47.47856" lon="3.75047">
        <ele>157.79</ele>
        <time>2013-04-28T15:31:41Z</time>
      </trkpt>
      <trkpt lat="47.4784" lon="3.75043">
        <ele>157.31</ele>
        <time>2013-04-28T15:31:52Z</time>
      </trkpt>
      <trkpt lat="47.47837" lon="3.75042">
        <ele>156.83</ele>
        <time>2013-04-28T15:31:56Z</time>
      </trkpt>
      <trkpt lat="47.47824" lon="3.75043">
        <ele>156.35</ele>
        <time>2013-04-28T15:32:06Z</time>
      </trkpt>
      <trkpt lat="47.47807" lon="3.75043">
        <ele>155.87</ele>
        <time>2013-04-28T15:32:18Z</time>
      </trkpt>
      <trkpt lat="47.47802" lon="3.75046">
        <ele>155.39</ele>
        <time>2013-04-28T15:32:22Z</time>
      </trkpt>
      <trkpt lat="47.47795" lon="3.75057">
        <ele>155.87</ele>
        <time>2013-04-28T15:32:29Z</time>
      </trkpt>
      <trkpt lat="47.47784" lon="3.75073">
        <ele>155.87</ele>
        <time>2013-04-28T15:32:40Z</time>
      </trkpt>
      <trkpt lat="47.47782" lon="3.75076">
        <ele>156.35</ele>
        <time>2013-04-28T15:32:42Z</time>
      </trkpt>
      <trkpt lat="47.47774" lon="3.75088">
        <ele>156.83</ele>
        <time>2013-04-28T15:32:52Z</time>
      </trkpt>
      <trkpt lat="47.47767" lon="3.75096">
        <ele>157.31</ele>
        <time>2013-04-28T15:32:58Z</time>
      </trkpt>
      <trkpt lat="47.47765" lon="3.75099">
        <ele>157.79</ele>
        <time>2013-04-28T15:33:00Z</time>
      </trkpt>
      <trkpt lat="47.47751" lon="3.75113">
        <ele>159.24</ele>
        <time>2013-04-28T15:33:12Z</time>
      </trkpt>
      <trkpt lat="47.47743" lon="3.75125">
        <ele>160.2</ele>
        <time>2013-04-28T15:33:22Z</time>
      </trkpt>
      <trkpt lat="47.47737" lon="3.7513">
        <ele>160.68</ele>
        <time>2013-04-28T15:33:28Z</time>
      </trkpt>
      <trkpt lat="47.47727" lon="3.75137">
        <ele>162.12</ele>
        <time>2013-04-28T15:33:36Z</time>
      </trkpt>
      <trkpt lat="47.47722" lon="3.75142">
        <ele>162.6</ele>
        <time>2013-04-28T15:33:40Z</time>
      </trkpt>
      <trkpt lat="47.47715" lon="3.75144">
        <ele>163.08</ele>
        <time>2013-04-28T15:33:51Z</time>
      </trkpt>
      <trkpt lat="47.47713" lon="3.75142">
        <ele>163.56</ele>
        <time>2013-04-28T15:34:01Z</time>
      </trkpt>
      <trkpt lat="47.47708" lon="3.75139">
        <ele>164.52</ele>
        <time>2013-04-28T15:34:11Z</time>
      </trkpt>
      <trkpt lat="47.47699" lon="3.75135">
        <ele>165</ele>
        <time>2013-04-28T15:34:21Z</time>
      </trkpt>
      <trkpt lat="47.47697" lon="3.75134">
        <ele>165.48</ele>
        <time>2013-04-28T15:34:23Z</time>
      </trkpt>
      <trkpt lat="47.47692" lon="3.75132">
        <ele>166.45</ele>
        <time>2013-04-28T15:34:29Z</time>
      </trkpt>
      <trkpt lat="47.4769" lon="3.75131">
        <ele>166.45</ele>
        <time>2013-04-28T15:34:31Z</time>
      </trkpt>
      <trkpt lat="47.47674" lon="3.75125">
        <ele>167.89</ele>
        <time>2013-04-28T15:34:42Z</time>
      </trkpt>
      <trkpt lat="47.47664" lon="3.7512">
        <ele>168.85</ele>
        <time>2013-04-28T15:34:51Z</time>
      </trkpt>
      <trkpt lat="47.4766" lon="3.75117">
        <ele>168.85</ele>
        <time>2013-04-28T15:34:54Z</time>
      </trkpt>
      <trkpt lat="47.47657" lon="3.75116">
        <ele>169.33</ele>
        <time>2013-04-28T15:34:56Z</time>
      </trkpt>
      <trkpt lat="47.47653" lon="3.75114">
        <ele>169.81</ele>
        <time>2013-04-28T15:34:59Z</time>
      </trkpt>
      <trkpt lat="47.47639" lon="3.75109">
        <ele>170.77</ele>
        <time>2013-04-28T15:35:10Z</time>
      </trkpt>
      <trkpt lat="47.47624" lon="3.75099">
        <ele>171.25</ele>
        <time>2013-04-28T15:35:22Z</time>
      </trkpt>
      <trkpt lat="47.47612" lon="3.75093">
        <ele>172.21</ele>
        <time>2013-04-28T15:35:32Z</time>
      </trkpt>
      <trkpt lat="47.47598" lon="3.75087">
        <ele>173.17</ele>
        <time>2013-04-28T15:35:42Z</time>
      </trkpt>
      <trkpt lat="47.47596" lon="3.75085">
        <ele>173.17</ele>
        <time>2013-04-28T15:35:51Z</time>
      </trkpt>
      <trkpt lat="47.47595" lon="3.75085">
        <ele>173.17</ele>
        <time>2013-04-28T15:35:59Z</time>
      </trkpt>
      <trkpt lat="47.47593" lon="3.75084">
        <ele>173.17</ele>
        <time>2013-04-28T15:36:01Z</time>
      </trkpt>
      <trkpt lat="47.47579" lon="3.75077">
        <ele>173.66</ele>
        <time>2013-04-28T15:36:12Z</time>
      </trkpt>
      <trkpt lat="47.47568" lon="3.75072">
        <ele>174.62</ele>
        <time>2013-04-28T15:36:21Z</time>
      </trkpt>
      <trkpt lat="47.47567" lon="3.75072">
        <ele>174.62</ele>
        <time>2013-04-28T15:36:22Z</time>
      </trkpt>
      <trkpt lat="47.47562" lon="3.75068">
        <ele>175.1</ele>
        <time>2013-04-28T15:36:26Z</time>
      </trkpt>
      <trkpt lat="47.4755" lon="3.75058">
        <ele>175.58</ele>
        <time>2013-04-28T15:36:37Z</time>
      </trkpt>
      <trkpt lat="47.47534" lon="3.75049">
        <ele>176.54</ele>
        <time>2013-04-28T15:36:50Z</time>
      </trkpt>
      <trkpt lat="47.47524" lon="3.75045">
        <ele>177.02</ele>
        <time>2013-04-28T15:36:58Z</time>
      </trkpt>
      <trkpt lat="47.47511" lon="3.75038">
        <ele>177.5</ele>
        <time>2013-04-28T15:37:07Z</time>
      </trkpt>
      <trkpt lat="47.47496" lon="3.7503">
        <ele>177.98</ele>
        <time>2013-04-28T15:37:17Z</time>
      </trkpt>
      <trkpt lat="47.4748" lon="3.75025">
        <ele>178.46</ele>
        <time>2013-04-28T15:37:29Z</time>
      </trkpt>
      <trkpt lat="47.47467" lon="3.75022">
        <ele>178.94</ele>
        <time>2013-04-28T15:37:38Z</time>
      </trkpt>
      <trkpt lat="47.47454" lon="3.75021">
        <ele>179.42</ele>
        <time>2013-04-28T15:37:48Z</time>
      </trkpt>
      <trkpt lat="47.47451" lon="3.75018">
        <ele>179.9</ele>
        <time>2013-04-28T15:37:50Z</time>
      </trkpt>
      <trkpt lat="47.47448" lon="3.75017">
        <ele>179.42</ele>
        <time>2013-04-28T15:37:52Z</time>
      </trkpt>
      <trkpt lat="47.47438" lon="3.75011">
        <ele>179.9</ele>
        <time>2013-04-28T15:38:00Z</time>
      </trkpt>
      <trkpt lat="47.47431" lon="3.75009">
        <ele>180.38</ele>
        <time>2013-04-28T15:38:05Z</time>
      </trkpt>
      <trkpt lat="47.47426" lon="3.75009">
        <ele>180.38</ele>
        <time>2013-04-28T15:38:09Z</time>
      </trkpt>
      <trkpt lat="47.47411" lon="3.75">
        <ele>181.35</ele>
        <time>2013-04-28T15:38:19Z</time>
      </trkpt>
      <trkpt lat="47.47403" lon="3.74994">
        <ele>181.35</ele>
        <time>2013-04-28T15:38:24Z</time>
      </trkpt>
      <trkpt lat="47.47397" lon="3.74993">
        <ele>181.83</ele>
        <time>2013-04-28T15:38:28Z</time>
      </trkpt>
      <trkpt lat="47.4739" lon="3.7499">
        <ele>181.35</ele>
        <time>2013-04-28T15:38:33Z</time>
      </trkpt>
      <trkpt lat="47.47375" lon="3.74985">
        <ele>182.31</ele>
        <time>2013-04-28T15:38:43Z</time>
      </trkpt>
      <trkpt lat="47.47363" lon="3.74985">
        <ele>182.79</ele>
        <time>2013-04-28T15:38:52Z</time>
      </trkpt>
      <trkpt lat="47.47348" lon="3.74981">
        <ele>183.75</ele>
        <time>2013-04-28T15:39:04Z</time>
      </trkpt>
      <trkpt lat="47.47332" lon="3.74984">
        <ele>184.71</ele>
        <time>2013-04-28T15:39:16Z</time>
      </trkpt>
      <trkpt lat="47.47323" lon="3.74986">
        <ele>185.19</ele>
        <time>2013-04-28T15:39:23Z</time>
      </trkpt>
      <trkpt lat="47.47319" lon="3.74985">
        <ele>185.19</ele>
        <time>2013-04-28T15:39:34Z</time>
      </trkpt>
      <trkpt lat="47.47316" lon="3.74989">
        <ele>185.19</ele>
        <time>2013-04-28T15:39:54Z</time>
      </trkpt>
      <trkpt lat="47.47314" lon="3.74989">
        <ele>185.19</ele>
        <time>2013-04-28T15:39:55Z</time>
      </trkpt>
      <trkpt lat="47.47305" lon="3.74991">
        <ele>185.67</ele>
        <time>2013-04-28T15:40:02Z</time>
      </trkpt>
      <trkpt lat="47.47296" lon="3.7499">
        <ele>184.71</ele>
        <time>2013-04-28T15:40:08Z</time>
      </trkpt>
      <trkpt lat="47.47278" lon="3.74993">
        <ele>186.15</ele>
        <time>2013-04-28T15:40:19Z</time>
      </trkpt>
      <trkpt lat="47.47262" lon="3.74996">
        <ele>187.59</ele>
        <time>2013-04-28T15:40:31Z</time>
      </trkpt>
      <trkpt lat="47.47247" lon="3.75">
        <ele>188.56</ele>
        <time>2013-04-28T15:40:42Z</time>
      </trkpt>
      <trkpt lat="47.47235" lon="3.75002">
        <ele>189.52</ele>
        <time>2013-04-28T15:40:51Z</time>
      </trkpt>
      <trkpt lat="47.4722" lon="3.75004">
        <ele>191.92</ele>
        <time>2013-04-28T15:41:02Z</time>
      </trkpt>
      <trkpt lat="47.47212" lon="3.75006">
        <ele>192.88</ele>
        <time>2013-04-28T15:41:10Z</time>
      </trkpt>
      <trkpt lat="47.47197" lon="3.75007">
        <ele>194.32</ele>
        <time>2013-04-28T15:41:21Z</time>
      </trkpt>
      <trkpt lat="47.47192" lon="3.75007">
        <ele>195.28</ele>
        <time>2013-04-28T15:41:25Z</time>
      </trkpt>
      <trkpt lat="47.47185" lon="3.75008">
        <ele>196.25</ele>
        <time>2013-04-28T15:41:30Z</time>
      </trkpt>
      <trkpt lat="47.47171" lon="3.75008">
        <ele>197.69</ele>
        <time>2013-04-28T15:41:41Z</time>
      </trkpt>
      <trkpt lat="47.4717" lon="3.75009">
        <ele>197.69</ele>
        <time>2013-04-28T15:41:42Z</time>
      </trkpt>
      <trkpt lat="47.4716" lon="3.75014">
        <ele>200.09</ele>
        <time>2013-04-28T15:41:52Z</time>
      </trkpt>
      <trkpt lat="47.47147" lon="3.75017">
        <ele>202.01</ele>
        <time>2013-04-28T15:42:03Z</time>
      </trkpt>
      <trkpt lat="47.47134" lon="3.75019">
        <ele>202.98</ele>
        <time>2013-04-28T15:42:12Z</time>
      </trkpt>
      <trkpt lat="47.47117" lon="3.75024">
        <ele>204.9</ele>
        <time>2013-04-28T15:42:23Z</time>
      </trkpt>
      <trkpt lat="47.47105" lon="3.75033">
        <ele>207.3</ele>
        <time>2013-04-28T15:42:34Z</time>
      </trkpt>
      <trkpt lat="47.47087" lon="3.75049">
        <ele>209.22</ele>
        <time>2013-04-28T15:42:47Z</time>
      </trkpt>
      <trkpt lat="47.47073" lon="3.75055">
        <ele>210.19</ele>
        <time>2013-04-28T15:42:58Z</time>
      </trkpt>
      <trkpt lat="47.47058" lon="3.75055">
        <ele>212.11</ele>
        <time>2013-04-28T15:43:09Z</time>
      </trkpt>
      <trkpt lat="47.47043" lon="3.75058">
        <ele>213.55</ele>
        <time>2013-04-28T15:43:20Z</time>
      </trkpt>
      <trkpt lat="47.4703" lon="3.7506">
        <ele>215.47</ele>
        <time>2013-04-28T15:43:34Z</time>
      </trkpt>
      <trkpt lat="47.47024" lon="3.75058">
        <ele>217.4</ele>
        <time>2013-04-28T15:43:41Z</time>
      </trkpt>
      <trkpt lat="47.47017" lon="3.75059">
        <ele>217.88</ele>
        <time>2013-04-28T15:43:45Z</time>
      </trkpt>
      <trkpt lat="47.47012" lon="3.7506">
        <ele>218.36</ele>
        <time>2013-04-28T15:43:49Z</time>
      </trkpt>
      <trkpt lat="47.47008" lon="3.7506">
        <ele>218.84</ele>
        <time>2013-04-28T15:43:53Z</time>
      </trkpt>
      <trkpt lat="47.46998" lon="3.7506">
        <ele>220.28</ele>
        <time>2013-04-28T15:44:03Z</time>
      </trkpt>
      <trkpt lat="47.46993" lon="3.7506">
        <ele>220.76</ele>
        <time>2013-04-28T15:44:08Z</time>
      </trkpt>
      <trkpt lat="47.46978" lon="3.75063">
        <ele>222.2</ele>
        <time>2013-04-28T15:44:19Z</time>
      </trkpt>
      <trkpt lat="47.4697" lon="3.75067">
        <ele>223.16</ele>
        <time>2013-04-28T15:44:27Z</time>
      </trkpt>
      <trkpt lat="47.46967" lon="3.7507">
        <ele>224.61</ele>
        <time>2013-04-28T15:44:31Z</time>
      </trkpt>
      <trkpt lat="47.46961" lon="3.75075">
        <ele>224.61</ele>
        <time>2013-04-28T15:44:40Z</time>
      </trkpt>
      <trkpt lat="47.46958" lon="3.75075">
        <ele>225.57</ele>
        <time>2013-04-28T15:44:44Z</time>
      </trkpt>
      <trkpt lat="47.46949" lon="3.75074">
        <ele>227.01</ele>
        <time>2013-04-28T15:44:53Z</time>
      </trkpt>
      <trkpt lat="47.4695" lon="3.75074">
        <ele>227.97</ele>
        <time>2013-04-28T15:45:01Z</time>
      </trkpt>
      <trkpt lat="47.46954" lon="3.75074">
        <ele>227.49</ele>
        <time>2013-04-28T15:45:04Z</time>
      </trkpt>
      <trkpt lat="47.46963" lon="3.75078">
        <ele>225.09</ele>
        <time>2013-04-28T15:45:13Z</time>
      </trkpt>
      <trkpt lat="47.46963" lon="3.75091">
        <ele>223.64</ele>
        <time>2013-04-28T15:45:22Z</time>
      </trkpt>
      <trkpt lat="47.46962" lon="3.75108">
        <ele>223.16</ele>
        <time>2013-04-28T15:45:34Z</time>
      </trkpt>
      <trkpt lat="47.46965" lon="3.75124">
        <ele>222.68</ele>
        <time>2013-04-28T15:45:43Z</time>
      </trkpt>
      <trkpt lat="47.46966" lon="3.75129">
        <ele>222.68</ele>
        <time>2013-04-28T15:45:52Z</time>
      </trkpt>
      <trkpt lat="47.46966" lon="3.75129">
        <ele>222.2</ele>
        <time>2013-04-28T15:46:05Z</time>
      </trkpt>
      <trkpt lat="47.46964" lon="3.75127">
        <ele>222.2</ele>
        <time>2013-04-28T15:46:29Z</time>
      </trkpt>
      <trkpt lat="47.46963" lon="3.75127">
        <ele>222.68</ele>
        <time>2013-04-28T15:46:55Z</time>
      </trkpt>
      <trkpt lat="47.46963" lon="3.75126">
        <ele>222.2</ele>
        <time>2013-04-28T15:47:17Z</time>
      </trkpt>
      <trkpt lat="47.46962" lon="3.75128">
        <ele>222.68</ele>
        <time>2013-04-28T15:47:32Z</time>
      </trkpt>
      <trkpt lat="47.46959" lon="3.75121">
        <ele>223.16</ele>
        <time>2013-04-28T15:47:39Z</time>
      </trkpt>
      <trkpt lat="47.46957" lon="3.75116">
        <ele>223.64</ele>
        <time>2013-04-28T15:47:42Z</time>
      </trkpt>
      <trkpt lat="47.46956" lon="3.75111">
        <ele>223.64</ele>
        <time>2013-04-28T15:47:45Z</time>
      </trkpt>
      <trkpt lat="47.46954" lon="3.75104">
        <ele>223.64</ele>
        <time>2013-04-28T15:47:49Z</time>
      </trkpt>
      <trkpt lat="47.46946" lon="3.75092">
        <ele>225.57</ele>
        <time>2013-04-28T15:47:59Z</time>
      </trkpt>
      <trkpt lat="47.46943" lon="3.75085">
        <ele>227.01</ele>
        <time>2013-04-28T15:48:08Z</time>
      </trkpt>
      <trkpt lat="47.46938" lon="3.75073">
        <ele>228.93</ele>
        <time>2013-04-28T15:48:21Z</time>
      </trkpt>
      <trkpt lat="47.46935" lon="3.75069">
        <ele>229.41</ele>
        <time>2013-04-28T15:48:25Z</time>
      </trkpt>
      <trkpt lat="47.46928" lon="3.75061">
        <ele>233.26</ele>
        <time>2013-04-28T15:48:34Z</time>
      </trkpt>
      <trkpt lat="47.46927" lon="3.7506">
        <ele>231.81</ele>
        <time>2013-04-28T15:48:35Z</time>
      </trkpt>
      <trkpt lat="47.4692" lon="3.75057">
        <ele>234.22</ele>
        <time>2013-04-28T15:48:45Z</time>
      </trkpt>
      <trkpt lat="47.46912" lon="3.75048">
        <ele>235.66</ele>
        <time>2013-04-28T15:48:56Z</time>
      </trkpt>
      <trkpt lat="47.46908" lon="3.75045">
        <ele>236.62</ele>
        <time>2013-04-28T15:49:05Z</time>
      </trkpt>
      <trkpt lat="47.46902" lon="3.75038">
        <ele>238.06</ele>
        <time>2013-04-28T15:49:14Z</time>
      </trkpt>
      <trkpt lat="47.46893" lon="3.75025">
        <ele>240.47</ele>
        <time>2013-04-28T15:49:26Z</time>
      </trkpt>
      <trkpt lat="47.46886" lon="3.75015">
        <ele>242.87</ele>
        <time>2013-04-28T15:49:37Z</time>
      </trkpt>
      <trkpt lat="47.46882" lon="3.7501">
        <ele>244.79</ele>
        <time>2013-04-28T15:49:46Z</time>
      </trkpt>
      <trkpt lat="47.46875" lon="3.75002">
        <ele>247.2</ele>
        <time>2013-04-28T15:49:58Z</time>
      </trkpt>
      <trkpt lat="47.4687" lon="3.74994">
        <ele>249.6</ele>
        <time>2013-04-28T15:50:10Z</time>
      </trkpt>
      <trkpt lat="47.46862" lon="3.74983">
        <ele>252</ele>
        <time>2013-04-28T15:50:23Z</time>
      </trkpt>
      <trkpt lat="47.46852" lon="3.74967">
        <ele>253.93</ele>
        <time>2013-04-28T15:50:36Z</time>
      </trkpt>
      <trkpt lat="47.46846" lon="3.74951">
        <ele>256.33</ele>
        <time>2013-04-28T15:50:48Z</time>
      </trkpt>
      <trkpt lat="47.46841" lon="3.74933">
        <ele>258.25</ele>
        <time>2013-04-28T15:51:02Z</time>
      </trkpt>
      <trkpt lat="47.46831" lon="3.74908">
        <ele>260.65</ele>
        <time>2013-04-28T15:51:14Z</time>
      </trkpt>
      <trkpt lat="47.46829" lon="3.74894">
        <ele>263.06</ele>
        <time>2013-04-28T15:51:26Z</time>
      </trkpt>
      <trkpt lat="47.46816" lon="3.74884">
        <ele>265.46</ele>
        <time>2013-04-28T15:51:39Z</time>
      </trkpt>
      <trkpt lat="47.46812" lon="3.74877">
        <ele>266.42</ele>
        <time>2013-04-28T15:51:48Z</time>
      </trkpt>
      <trkpt lat="47.46808" lon="3.74873">
        <ele>268.35</ele>
        <time>2013-04-28T15:51:57Z</time>
      </trkpt>
      <trkpt lat="47.46802" lon="3.74866">
        <ele>271.71</ele>
        <time>2013-04-28T15:52:04Z</time>
      </trkpt>
      <trkpt lat="47.46801" lon="3.74865">
        <ele>271.23</ele>
        <time>2013-04-28T15:52:05Z</time>
      </trkpt>
      <trkpt lat="47.46793" lon="3.74856">
        <ele>272.19</ele>
        <time>2013-04-28T15:52:16Z</time>
      </trkpt>
      <trkpt lat="47.46783" lon="3.74845">
        <ele>274.59</ele>
        <time>2013-04-28T15:52:28Z</time>
      </trkpt>
      <trkpt lat="47.46782" lon="3.74845">
        <ele>275.07</ele>
        <time>2013-04-28T15:52:29Z</time>
      </trkpt>
      <trkpt lat="47.4677" lon="3.74833">
        <ele>277</ele>
        <time>2013-04-28T15:52:41Z</time>
      </trkpt>
      <trkpt lat="47.46766" lon="3.74827">
        <ele>277.48</ele>
        <time>2013-04-28T15:52:46Z</time>
      </trkpt>
      <trkpt lat="47.46757" lon="3.74818">
        <ele>279.4</ele>
        <time>2013-04-28T15:52:55Z</time>
      </trkpt>
      <trkpt lat="47.46754" lon="3.74812">
        <ele>280.36</ele>
        <time>2013-04-28T15:53:00Z</time>
      </trkpt>
      <trkpt lat="47.46747" lon="3.74802">
        <ele>281.8</ele>
        <time>2013-04-28T15:53:09Z</time>
      </trkpt>
      <trkpt lat="47.46741" lon="3.74793">
        <ele>283.25</ele>
        <time>2013-04-28T15:53:19Z</time>
      </trkpt>
      <trkpt lat="47.4674" lon="3.74792">
        <ele>283.73</ele>
        <time>2013-04-28T15:53:20Z</time>
      </trkpt>
      <trkpt lat="47.46735" lon="3.74785">
        <ele>284.21</ele>
        <time>2013-04-28T15:53:25Z</time>
      </trkpt>
      <trkpt lat="47.46729" lon="3.74774">
        <ele>285.65</ele>
        <time>2013-04-28T15:53:32Z</time>
      </trkpt>
      <trkpt lat="47.46726" lon="3.74771">
        <ele>286.61</ele>
        <time>2013-04-28T15:53:37Z</time>
      </trkpt>
      <trkpt lat="47.46717" lon="3.74766">
        <ele>289.01</ele>
        <time>2013-04-28T15:53:49Z</time>
      </trkpt>
      <trkpt lat="47.46706" lon="3.74759">
        <ele>291.9</ele>
        <time>2013-04-28T15:54:01Z</time>
      </trkpt>
      <trkpt lat="47.46695" lon="3.74755">
        <ele>294.78</ele>
        <time>2013-04-28T15:54:12Z</time>
      </trkpt>
      <trkpt lat="47.46687" lon="3.74756">
        <ele>295.74</ele>
        <time>2013-04-28T15:54:20Z</time>
      </trkpt>
      <trkpt lat="47.4667" lon="3.74766">
        <ele>297.67</ele>
        <time>2013-04-28T15:54:32Z</time>
      </trkpt>
      <trkpt lat="47.46668" lon="3.74771">
        <ele>298.63</ele>
        <time>2013-04-28T15:54:37Z</time>
      </trkpt>
      <trkpt lat="47.46663" lon="3.74779">
        <ele>301.51</ele>
        <time>2013-04-28T15:54:48Z</time>
      </trkpt>
      <trkpt lat="47.46658" lon="3.74785">
        <ele>301.03</ele>
        <time>2013-04-28T15:54:58Z</time>
      </trkpt>
      <trkpt lat="47.46644" lon="3.74787">
        <ele>300.55</ele>
        <time>2013-04-28T15:55:03Z</time>
      </trkpt>
      <trkpt lat="47.46642" lon="3.74775">
        <ele>301.03</ele>
        <time>2013-04-28T15:55:10Z</time>
      </trkpt>
      <trkpt lat="47.46635" lon="3.74767">
        <ele>300.55</ele>
        <time>2013-04-28T15:55:20Z</time>
      </trkpt>
      <trkpt lat="47.46634" lon="3.74766">
        <ele>301.03</ele>
        <time>2013-04-28T15:55:30Z</time>
      </trkpt>
      <trkpt lat="47.46634" lon="3.74765">
        <ele>301.51</ele>
        <time>2013-04-28T15:55:45Z</time>
      </trkpt>
      <trkpt lat="47.46634" lon="3.74765">
        <ele>301.03</ele>
        <time>2013-04-28T15:55:53Z</time>
      </trkpt>
      <trkpt lat="47.46634" lon="3.74765">
        <ele>300.55</ele>
        <time>2013-04-28T15:56:00Z</time>
      </trkpt>
      <trkpt lat="47.46631" lon="3.74771">
        <ele>301.03</ele>
        <time>2013-04-28T15:56:10Z</time>
      </trkpt>
      <trkpt lat="47.46632" lon="3.74773">
        <ele>301.03</ele>
        <time>2013-04-28T15:56:22Z</time>
      </trkpt>
      <trkpt lat="47.46632" lon="3.74774">
        <ele>301.03</ele>
        <time>2013-04-28T15:56:40Z</time>
      </trkpt>
      <trkpt lat="47.46631" lon="3.74773">
        <ele>301.03</ele>
        <time>2013-04-28T15:56:59Z</time>
      </trkpt>
      <trkpt lat="47.46632" lon="3.74773">
        <ele>301.03</ele>
        <time>2013-04-28T15:57:19Z</time>
      </trkpt>
      <trkpt lat="47.46632" lon="3.74773">
        <ele>300.07</ele>
        <time>2013-04-28T15:57:31Z</time>
      </trkpt>
      <trkpt lat="47.46632" lon="3.74773">
        <ele>301.51</ele>
        <time>2013-04-28T15:57:43Z</time>
      </trkpt>
      <trkpt lat="47.46632" lon="3.74773">
        <ele>301.99</ele>
        <time>2013-04-28T15:58:01Z</time>
      </trkpt>
      <trkpt lat="47.46634" lon="3.74772">
        <ele>301.03</ele>
        <time>2013-04-28T15:58:18Z</time>
      </trkpt>
      <trkpt lat="47.46634" lon="3.74772">
        <ele>305.36</ele>
        <time>2013-04-28T15:58:20Z</time>
      </trkpt>
      <trkpt lat="47.46635" lon="3.74771">
        <ele>301.51</ele>
        <time>2013-04-28T15:58:21Z</time>
      </trkpt>
      <trkpt lat="47.46637" lon="3.74767">
        <ele>301.03</ele>
        <time>2013-04-28T15:58:37Z</time>
      </trkpt>
    </trkseg>
  </trk>
</gpx>